<?xml version="1.0" encoding="UTF-8" standalone="no" ?>
<gpx xmlns="http://www.topografix.com/GPX/1/1" xmlns:xsi="http://www.w3.org/2001/XMLSchema-instance" xsi:schemaLocation="http://www.topografix.com/GPX/1/1 http://www.topografix.com/GPX/1/1/gpx.xsd" version="1.1" creator="VisuGPX - https://www.visugpx.com">
  <metadata>
    <name>Transmaurienne 2014 Samedi</name>
    <desc><![CDATA[Transmaurienne 2014 Samedi
Etape 3 (Marathon)
Le Corbier
St Sorlin d\'Arves
St Jean d\'Arves
Albiez
La Toussuire]]></desc>
  </metadata>
  <wpt lat="45.24033" lon="6.26852">
    <ele>1558</ele>
  </wpt>
  <wpt lat="45.25458" lon="6.26151">
    <ele>1691</ele>
  </wpt>
  <trk>
    <name><![CDATA[Transmaurienne 2014 Samedi_1]]></name>
    <trkseg>
      <trkpt lat="45.24033" lon="6.26852">
        <ele>1558</ele>
        <time>2014-08-09T08:00:43Z</time>
      </trkpt>
      <trkpt lat="45.24024" lon="6.26852">
        <ele>1559</ele>
        <time>2014-08-09T08:00:53Z</time>
      </trkpt>
      <trkpt lat="45.24031" lon="6.26843">
        <ele>1559</ele>
        <time>2014-08-09T08:01:07Z</time>
      </trkpt>
      <trkpt lat="45.24034" lon="6.26855">
        <ele>1558</ele>
        <time>2014-08-09T08:02:19Z</time>
      </trkpt>
      <trkpt lat="45.24031" lon="6.26842">
        <ele>1559</ele>
        <time>2014-08-09T08:02:59Z</time>
      </trkpt>
      <trkpt lat="45.24038" lon="6.26833">
        <ele>1564</ele>
        <time>2014-08-09T08:03:02Z</time>
      </trkpt>
      <trkpt lat="45.24045" lon="6.26822">
        <ele>1564</ele>
        <time>2014-08-09T08:03:05Z</time>
      </trkpt>
      <trkpt lat="45.24054" lon="6.26815">
        <ele>1564</ele>
        <time>2014-08-09T08:03:08Z</time>
      </trkpt>
      <trkpt lat="45.24062" lon="6.26806">
        <ele>1564</ele>
        <time>2014-08-09T08:03:11Z</time>
      </trkpt>
      <trkpt lat="45.24062" lon="6.26791">
        <ele>1565</ele>
        <time>2014-08-09T08:03:14Z</time>
      </trkpt>
      <trkpt lat="45.24067" lon="6.26779">
        <ele>1566</ele>
        <time>2014-08-09T08:03:16Z</time>
      </trkpt>
      <trkpt lat="45.24074" lon="6.26766">
        <ele>1567</ele>
        <time>2014-08-09T08:03:18Z</time>
      </trkpt>
      <trkpt lat="45.24081" lon="6.26756">
        <ele>1569</ele>
        <time>2014-08-09T08:03:20Z</time>
      </trkpt>
      <trkpt lat="45.2409" lon="6.26745">
        <ele>1570</ele>
        <time>2014-08-09T08:03:23Z</time>
      </trkpt>
      <trkpt lat="45.24101" lon="6.26738">
        <ele>1570</ele>
        <time>2014-08-09T08:03:27Z</time>
      </trkpt>
      <trkpt lat="45.24109" lon="6.2673">
        <ele>1571</ele>
        <time>2014-08-09T08:03:30Z</time>
      </trkpt>
      <trkpt lat="45.24115" lon="6.26717">
        <ele>1571</ele>
        <time>2014-08-09T08:03:34Z</time>
      </trkpt>
      <trkpt lat="45.24122" lon="6.26704">
        <ele>1572</ele>
        <time>2014-08-09T08:03:38Z</time>
      </trkpt>
      <trkpt lat="45.24129" lon="6.26695">
        <ele>1572</ele>
        <time>2014-08-09T08:03:42Z</time>
      </trkpt>
      <trkpt lat="45.24137" lon="6.26687">
        <ele>1572</ele>
        <time>2014-08-09T08:03:46Z</time>
      </trkpt>
      <trkpt lat="45.24145" lon="6.26676">
        <ele>1573</ele>
        <time>2014-08-09T08:03:50Z</time>
      </trkpt>
      <trkpt lat="45.24156" lon="6.26669">
        <ele>1573</ele>
        <time>2014-08-09T08:03:54Z</time>
      </trkpt>
      <trkpt lat="45.24165" lon="6.26675">
        <ele>1573</ele>
        <time>2014-08-09T08:03:57Z</time>
      </trkpt>
      <trkpt lat="45.24173" lon="6.26684">
        <ele>1570</ele>
        <time>2014-08-09T08:04:00Z</time>
      </trkpt>
      <trkpt lat="45.24178" lon="6.26695">
        <ele>1568</ele>
        <time>2014-08-09T08:04:02Z</time>
      </trkpt>
      <trkpt lat="45.24187" lon="6.26707">
        <ele>1567</ele>
        <time>2014-08-09T08:04:06Z</time>
      </trkpt>
      <trkpt lat="45.24203" lon="6.26703">
        <ele>1567</ele>
        <time>2014-08-09T08:04:10Z</time>
      </trkpt>
      <trkpt lat="45.24214" lon="6.26691">
        <ele>1567</ele>
        <time>2014-08-09T08:04:12Z</time>
      </trkpt>
      <trkpt lat="45.24222" lon="6.26683">
        <ele>1568</ele>
        <time>2014-08-09T08:04:13Z</time>
      </trkpt>
      <trkpt lat="45.2423" lon="6.26675">
        <ele>1568</ele>
        <time>2014-08-09T08:04:14Z</time>
      </trkpt>
      <trkpt lat="45.24239" lon="6.26662">
        <ele>1573</ele>
        <time>2014-08-09T08:04:16Z</time>
      </trkpt>
      <trkpt lat="45.24237" lon="6.26648">
        <ele>1575</ele>
        <time>2014-08-09T08:04:21Z</time>
      </trkpt>
      <trkpt lat="45.2423" lon="6.26637">
        <ele>1576</ele>
        <time>2014-08-09T08:04:30Z</time>
      </trkpt>
      <trkpt lat="45.2422" lon="6.26634">
        <ele>1576</ele>
        <time>2014-08-09T08:04:35Z</time>
      </trkpt>
      <trkpt lat="45.24211" lon="6.26631">
        <ele>1577</ele>
        <time>2014-08-09T08:04:41Z</time>
      </trkpt>
      <trkpt lat="45.24199" lon="6.26632">
        <ele>1577</ele>
        <time>2014-08-09T08:04:47Z</time>
      </trkpt>
      <trkpt lat="45.24191" lon="6.26626">
        <ele>1577</ele>
        <time>2014-08-09T08:04:56Z</time>
      </trkpt>
      <trkpt lat="45.24187" lon="6.26614">
        <ele>1578</ele>
        <time>2014-08-09T08:05:00Z</time>
      </trkpt>
      <trkpt lat="45.2418" lon="6.26604">
        <ele>1579</ele>
        <time>2014-08-09T08:05:06Z</time>
      </trkpt>
      <trkpt lat="45.24172" lon="6.26597">
        <ele>1581</ele>
        <time>2014-08-09T08:05:14Z</time>
      </trkpt>
      <trkpt lat="45.24164" lon="6.26587">
        <ele>1583</ele>
        <time>2014-08-09T08:05:21Z</time>
      </trkpt>
      <trkpt lat="45.24155" lon="6.26582">
        <ele>1586</ele>
        <time>2014-08-09T08:05:28Z</time>
      </trkpt>
      <trkpt lat="45.24145" lon="6.26586">
        <ele>1583</ele>
        <time>2014-08-09T08:05:35Z</time>
      </trkpt>
      <trkpt lat="45.24135" lon="6.26593">
        <ele>1583</ele>
        <time>2014-08-09T08:05:42Z</time>
      </trkpt>
      <trkpt lat="45.24126" lon="6.26598">
        <ele>1583</ele>
        <time>2014-08-09T08:05:48Z</time>
      </trkpt>
      <trkpt lat="45.24115" lon="6.266">
        <ele>1583</ele>
        <time>2014-08-09T08:05:53Z</time>
      </trkpt>
      <trkpt lat="45.24105" lon="6.26602">
        <ele>1584</ele>
        <time>2014-08-09T08:05:57Z</time>
      </trkpt>
      <trkpt lat="45.24095" lon="6.26604">
        <ele>1585</ele>
        <time>2014-08-09T08:06:01Z</time>
      </trkpt>
      <trkpt lat="45.24085" lon="6.26604">
        <ele>1585</ele>
        <time>2014-08-09T08:06:05Z</time>
      </trkpt>
      <trkpt lat="45.24073" lon="6.26604">
        <ele>1587</ele>
        <time>2014-08-09T08:06:09Z</time>
      </trkpt>
      <trkpt lat="45.24062" lon="6.26604">
        <ele>1587</ele>
        <time>2014-08-09T08:06:13Z</time>
      </trkpt>
      <trkpt lat="45.2405" lon="6.26604">
        <ele>1587</ele>
        <time>2014-08-09T08:06:17Z</time>
      </trkpt>
      <trkpt lat="45.24039" lon="6.26607">
        <ele>1587</ele>
        <time>2014-08-09T08:06:21Z</time>
      </trkpt>
      <trkpt lat="45.2403" lon="6.26612">
        <ele>1587</ele>
        <time>2014-08-09T08:06:25Z</time>
      </trkpt>
      <trkpt lat="45.2402" lon="6.26618">
        <ele>1586</ele>
        <time>2014-08-09T08:06:29Z</time>
      </trkpt>
      <trkpt lat="45.24008" lon="6.26616">
        <ele>1587</ele>
        <time>2014-08-09T08:06:33Z</time>
      </trkpt>
      <trkpt lat="45.23999" lon="6.26616">
        <ele>1590</ele>
        <time>2014-08-09T08:06:36Z</time>
      </trkpt>
      <trkpt lat="45.23988" lon="6.26617">
        <ele>1590</ele>
        <time>2014-08-09T08:06:40Z</time>
      </trkpt>
      <trkpt lat="45.23979" lon="6.2662">
        <ele>1590</ele>
        <time>2014-08-09T08:06:43Z</time>
      </trkpt>
      <trkpt lat="45.23966" lon="6.26627">
        <ele>1590</ele>
        <time>2014-08-09T08:06:46Z</time>
      </trkpt>
      <trkpt lat="45.23955" lon="6.26636">
        <ele>1590</ele>
        <time>2014-08-09T08:06:48Z</time>
      </trkpt>
      <trkpt lat="45.23944" lon="6.26646">
        <ele>1590</ele>
        <time>2014-08-09T08:06:50Z</time>
      </trkpt>
      <trkpt lat="45.23935" lon="6.26655">
        <ele>1590</ele>
        <time>2014-08-09T08:06:52Z</time>
      </trkpt>
      <trkpt lat="45.23926" lon="6.26663">
        <ele>1589</ele>
        <time>2014-08-09T08:06:54Z</time>
      </trkpt>
      <trkpt lat="45.23918" lon="6.2667">
        <ele>1587</ele>
        <time>2014-08-09T08:06:56Z</time>
      </trkpt>
      <trkpt lat="45.23906" lon="6.2668">
        <ele>1590</ele>
        <time>2014-08-09T08:06:59Z</time>
      </trkpt>
      <trkpt lat="45.23897" lon="6.2669">
        <ele>1591</ele>
        <time>2014-08-09T08:07:02Z</time>
      </trkpt>
      <trkpt lat="45.23888" lon="6.26702">
        <ele>1591</ele>
        <time>2014-08-09T08:07:06Z</time>
      </trkpt>
      <trkpt lat="45.23881" lon="6.26711">
        <ele>1591</ele>
        <time>2014-08-09T08:07:13Z</time>
      </trkpt>
      <trkpt lat="45.23876" lon="6.26723">
        <ele>1591</ele>
        <time>2014-08-09T08:07:22Z</time>
      </trkpt>
      <trkpt lat="45.23869" lon="6.26735">
        <ele>1591</ele>
        <time>2014-08-09T08:07:29Z</time>
      </trkpt>
      <trkpt lat="45.23861" lon="6.26745">
        <ele>1592</ele>
        <time>2014-08-09T08:07:35Z</time>
      </trkpt>
      <trkpt lat="45.23854" lon="6.26754">
        <ele>1586</ele>
        <time>2014-08-09T08:07:42Z</time>
      </trkpt>
      <trkpt lat="45.23845" lon="6.2676">
        <ele>1588</ele>
        <time>2014-08-09T08:07:48Z</time>
      </trkpt>
      <trkpt lat="45.23835" lon="6.26765">
        <ele>1588</ele>
        <time>2014-08-09T08:07:56Z</time>
      </trkpt>
      <trkpt lat="45.23825" lon="6.26765">
        <ele>1597</ele>
        <time>2014-08-09T08:08:04Z</time>
      </trkpt>
      <trkpt lat="45.23815" lon="6.26768">
        <ele>1598</ele>
        <time>2014-08-09T08:08:14Z</time>
      </trkpt>
      <trkpt lat="45.23805" lon="6.26768">
        <ele>1599</ele>
        <time>2014-08-09T08:08:24Z</time>
      </trkpt>
      <trkpt lat="45.23795" lon="6.26769">
        <ele>1601</ele>
        <time>2014-08-09T08:08:34Z</time>
      </trkpt>
      <trkpt lat="45.23787" lon="6.26777">
        <ele>1601</ele>
        <time>2014-08-09T08:08:44Z</time>
      </trkpt>
      <trkpt lat="45.23779" lon="6.26783">
        <ele>1602</ele>
        <time>2014-08-09T08:08:53Z</time>
      </trkpt>
      <trkpt lat="45.23772" lon="6.26792">
        <ele>1602</ele>
        <time>2014-08-09T08:09:03Z</time>
      </trkpt>
      <trkpt lat="45.23764" lon="6.268">
        <ele>1602</ele>
        <time>2014-08-09T08:09:12Z</time>
      </trkpt>
      <trkpt lat="45.23756" lon="6.26809">
        <ele>1602</ele>
        <time>2014-08-09T08:09:21Z</time>
      </trkpt>
      <trkpt lat="45.23748" lon="6.26815">
        <ele>1613</ele>
        <time>2014-08-09T08:09:29Z</time>
      </trkpt>
      <trkpt lat="45.23738" lon="6.26817">
        <ele>1614</ele>
        <time>2014-08-09T08:09:39Z</time>
      </trkpt>
      <trkpt lat="45.2373" lon="6.26809">
        <ele>1616</ele>
        <time>2014-08-09T08:09:48Z</time>
      </trkpt>
      <trkpt lat="45.23733" lon="6.26796">
        <ele>1618</ele>
        <time>2014-08-09T08:09:59Z</time>
      </trkpt>
      <trkpt lat="45.23737" lon="6.26784">
        <ele>1619</ele>
        <time>2014-08-09T08:10:09Z</time>
      </trkpt>
      <trkpt lat="45.23742" lon="6.26773">
        <ele>1619</ele>
        <time>2014-08-09T08:10:44Z</time>
      </trkpt>
      <trkpt lat="45.23746" lon="6.26761">
        <ele>1619</ele>
        <time>2014-08-09T08:10:51Z</time>
      </trkpt>
      <trkpt lat="45.23749" lon="6.26748">
        <ele>1619</ele>
        <time>2014-08-09T08:11:00Z</time>
      </trkpt>
      <trkpt lat="45.23752" lon="6.26733">
        <ele>1617</ele>
        <time>2014-08-09T08:11:08Z</time>
      </trkpt>
      <trkpt lat="45.23756" lon="6.2672">
        <ele>1618</ele>
        <time>2014-08-09T08:11:17Z</time>
      </trkpt>
      <trkpt lat="45.23762" lon="6.26707">
        <ele>1619</ele>
        <time>2014-08-09T08:11:25Z</time>
      </trkpt>
      <trkpt lat="45.23765" lon="6.26694">
        <ele>1621</ele>
        <time>2014-08-09T08:11:34Z</time>
      </trkpt>
      <trkpt lat="45.23767" lon="6.26681">
        <ele>1623</ele>
        <time>2014-08-09T08:11:43Z</time>
      </trkpt>
      <trkpt lat="45.23766" lon="6.26666">
        <ele>1631</ele>
        <time>2014-08-09T08:11:53Z</time>
      </trkpt>
      <trkpt lat="45.23768" lon="6.26652">
        <ele>1631</ele>
        <time>2014-08-09T08:12:03Z</time>
      </trkpt>
      <trkpt lat="45.23771" lon="6.2664">
        <ele>1631</ele>
        <time>2014-08-09T08:12:12Z</time>
      </trkpt>
      <trkpt lat="45.23772" lon="6.26626">
        <ele>1631</ele>
        <time>2014-08-09T08:12:20Z</time>
      </trkpt>
      <trkpt lat="45.23771" lon="6.26613">
        <ele>1633</ele>
        <time>2014-08-09T08:12:28Z</time>
      </trkpt>
      <trkpt lat="45.23766" lon="6.266">
        <ele>1635</ele>
        <time>2014-08-09T08:12:35Z</time>
      </trkpt>
      <trkpt lat="45.23763" lon="6.26588">
        <ele>1639</ele>
        <time>2014-08-09T08:12:42Z</time>
      </trkpt>
      <trkpt lat="45.23758" lon="6.26576">
        <ele>1643</ele>
        <time>2014-08-09T08:12:49Z</time>
      </trkpt>
      <trkpt lat="45.23753" lon="6.26563">
        <ele>1642</ele>
        <time>2014-08-09T08:12:56Z</time>
      </trkpt>
      <trkpt lat="45.23751" lon="6.2655">
        <ele>1642</ele>
        <time>2014-08-09T08:13:05Z</time>
      </trkpt>
      <trkpt lat="45.23753" lon="6.26536">
        <ele>1643</ele>
        <time>2014-08-09T08:13:14Z</time>
      </trkpt>
      <trkpt lat="45.23752" lon="6.26523">
        <ele>1645</ele>
        <time>2014-08-09T08:13:23Z</time>
      </trkpt>
      <trkpt lat="45.23742" lon="6.26518">
        <ele>1658</ele>
        <time>2014-08-09T08:13:31Z</time>
      </trkpt>
      <trkpt lat="45.23737" lon="6.26531">
        <ele>1660</ele>
        <time>2014-08-09T08:13:41Z</time>
      </trkpt>
      <trkpt lat="45.23732" lon="6.26544">
        <ele>1660</ele>
        <time>2014-08-09T08:13:51Z</time>
      </trkpt>
      <trkpt lat="45.23726" lon="6.26554">
        <ele>1660</ele>
        <time>2014-08-09T08:13:59Z</time>
      </trkpt>
      <trkpt lat="45.2372" lon="6.26566">
        <ele>1660</ele>
        <time>2014-08-09T08:14:07Z</time>
      </trkpt>
      <trkpt lat="45.23713" lon="6.26576">
        <ele>1661</ele>
        <time>2014-08-09T08:14:16Z</time>
      </trkpt>
      <trkpt lat="45.23706" lon="6.26586">
        <ele>1656</ele>
        <time>2014-08-09T08:14:24Z</time>
      </trkpt>
      <trkpt lat="45.23699" lon="6.26595">
        <ele>1657</ele>
        <time>2014-08-09T08:14:33Z</time>
      </trkpt>
      <trkpt lat="45.2369" lon="6.26602">
        <ele>1658</ele>
        <time>2014-08-09T08:14:41Z</time>
      </trkpt>
      <trkpt lat="45.23682" lon="6.26608">
        <ele>1659</ele>
        <time>2014-08-09T08:14:51Z</time>
      </trkpt>
      <trkpt lat="45.23673" lon="6.26613">
        <ele>1659</ele>
        <time>2014-08-09T08:15:00Z</time>
      </trkpt>
      <trkpt lat="45.23664" lon="6.26619">
        <ele>1668</ele>
        <time>2014-08-09T08:15:10Z</time>
      </trkpt>
      <trkpt lat="45.23656" lon="6.26623">
        <ele>1668</ele>
        <time>2014-08-09T08:15:21Z</time>
      </trkpt>
      <trkpt lat="45.23645" lon="6.26625">
        <ele>1668</ele>
        <time>2014-08-09T08:15:32Z</time>
      </trkpt>
      <trkpt lat="45.23638" lon="6.26617">
        <ele>1669</ele>
        <time>2014-08-09T08:15:43Z</time>
      </trkpt>
      <trkpt lat="45.23639" lon="6.26604">
        <ele>1671</ele>
        <time>2014-08-09T08:15:54Z</time>
      </trkpt>
      <trkpt lat="45.2364" lon="6.26589">
        <ele>1672</ele>
        <time>2014-08-09T08:16:05Z</time>
      </trkpt>
      <trkpt lat="45.23642" lon="6.26575">
        <ele>1682</ele>
        <time>2014-08-09T08:16:19Z</time>
      </trkpt>
      <trkpt lat="45.23643" lon="6.26561">
        <ele>1684</ele>
        <time>2014-08-09T08:16:30Z</time>
      </trkpt>
      <trkpt lat="45.23644" lon="6.26547">
        <ele>1685</ele>
        <time>2014-08-09T08:16:40Z</time>
      </trkpt>
      <trkpt lat="45.23645" lon="6.26534">
        <ele>1686</ele>
        <time>2014-08-09T08:16:50Z</time>
      </trkpt>
      <trkpt lat="45.23644" lon="6.26517">
        <ele>1687</ele>
        <time>2014-08-09T08:17:02Z</time>
      </trkpt>
      <trkpt lat="45.23645" lon="6.26504">
        <ele>1688</ele>
        <time>2014-08-09T08:17:11Z</time>
      </trkpt>
      <trkpt lat="45.2365" lon="6.26493">
        <ele>1695</ele>
        <time>2014-08-09T08:17:24Z</time>
      </trkpt>
      <trkpt lat="45.23653" lon="6.26481">
        <ele>1698</ele>
        <time>2014-08-09T08:17:33Z</time>
      </trkpt>
      <trkpt lat="45.23657" lon="6.26468">
        <ele>1700</ele>
        <time>2014-08-09T08:17:44Z</time>
      </trkpt>
      <trkpt lat="45.23659" lon="6.26453">
        <ele>1702</ele>
        <time>2014-08-09T08:17:56Z</time>
      </trkpt>
      <trkpt lat="45.23661" lon="6.26439">
        <ele>1703</ele>
        <time>2014-08-09T08:18:05Z</time>
      </trkpt>
      <trkpt lat="45.23661" lon="6.26426">
        <ele>1703</ele>
        <time>2014-08-09T08:18:16Z</time>
      </trkpt>
      <trkpt lat="45.23663" lon="6.26411">
        <ele>1707</ele>
        <time>2014-08-09T08:18:28Z</time>
      </trkpt>
      <trkpt lat="45.23668" lon="6.264">
        <ele>1697</ele>
        <time>2014-08-09T08:18:40Z</time>
      </trkpt>
      <trkpt lat="45.23669" lon="6.26386">
        <ele>1696</ele>
        <time>2014-08-09T08:18:48Z</time>
      </trkpt>
      <trkpt lat="45.23668" lon="6.26373">
        <ele>1697</ele>
        <time>2014-08-09T08:18:59Z</time>
      </trkpt>
      <trkpt lat="45.23666" lon="6.26358">
        <ele>1718</ele>
        <time>2014-08-09T08:19:09Z</time>
      </trkpt>
      <trkpt lat="45.23667" lon="6.26345">
        <ele>1705</ele>
        <time>2014-08-09T08:19:18Z</time>
      </trkpt>
      <trkpt lat="45.23668" lon="6.26331">
        <ele>1712</ele>
        <time>2014-08-09T08:19:43Z</time>
      </trkpt>
      <trkpt lat="45.23663" lon="6.26319">
        <ele>1722</ele>
        <time>2014-08-09T08:19:55Z</time>
      </trkpt>
      <trkpt lat="45.23657" lon="6.26306">
        <ele>1726</ele>
        <time>2014-08-09T08:20:02Z</time>
      </trkpt>
      <trkpt lat="45.23653" lon="6.26295">
        <ele>1728</ele>
        <time>2014-08-09T08:20:12Z</time>
      </trkpt>
      <trkpt lat="45.2365" lon="6.26281">
        <ele>1729</ele>
        <time>2014-08-09T08:20:33Z</time>
      </trkpt>
      <trkpt lat="45.23646" lon="6.26269">
        <ele>1729</ele>
        <time>2014-08-09T08:20:47Z</time>
      </trkpt>
      <trkpt lat="45.23642" lon="6.26257">
        <ele>1729</ele>
        <time>2014-08-09T08:21:04Z</time>
      </trkpt>
      <trkpt lat="45.2364" lon="6.26243">
        <ele>1733</ele>
        <time>2014-08-09T08:21:20Z</time>
      </trkpt>
      <trkpt lat="45.23635" lon="6.26232">
        <ele>1735</ele>
        <time>2014-08-09T08:21:34Z</time>
      </trkpt>
      <trkpt lat="45.23631" lon="6.2622">
        <ele>1737</ele>
        <time>2014-08-09T08:21:46Z</time>
      </trkpt>
      <trkpt lat="45.23626" lon="6.26207">
        <ele>1738</ele>
        <time>2014-08-09T08:21:57Z</time>
      </trkpt>
      <trkpt lat="45.23621" lon="6.26195">
        <ele>1740</ele>
        <time>2014-08-09T08:22:08Z</time>
      </trkpt>
      <trkpt lat="45.23616" lon="6.26183">
        <ele>1742</ele>
        <time>2014-08-09T08:22:22Z</time>
      </trkpt>
      <trkpt lat="45.2361" lon="6.2617">
        <ele>1744</ele>
        <time>2014-08-09T08:22:38Z</time>
      </trkpt>
      <trkpt lat="45.23606" lon="6.26158">
        <ele>1749</ele>
        <time>2014-08-09T08:22:52Z</time>
      </trkpt>
      <trkpt lat="45.23601" lon="6.26146">
        <ele>1750</ele>
        <time>2014-08-09T08:23:04Z</time>
      </trkpt>
      <trkpt lat="45.23599" lon="6.26132">
        <ele>1750</ele>
        <time>2014-08-09T08:23:18Z</time>
      </trkpt>
      <trkpt lat="45.23599" lon="6.26119">
        <ele>1751</ele>
        <time>2014-08-09T08:23:36Z</time>
      </trkpt>
      <trkpt lat="45.23595" lon="6.26107">
        <ele>1754</ele>
        <time>2014-08-09T08:23:39Z</time>
      </trkpt>
      <trkpt lat="45.23586" lon="6.261">
        <ele>1757</ele>
        <time>2014-08-09T08:23:45Z</time>
      </trkpt>
      <trkpt lat="45.23578" lon="6.2611">
        <ele>1772</ele>
        <time>2014-08-09T08:23:57Z</time>
      </trkpt>
      <trkpt lat="45.23579" lon="6.26124">
        <ele>1771</ele>
        <time>2014-08-09T08:24:08Z</time>
      </trkpt>
      <trkpt lat="45.23578" lon="6.26137">
        <ele>1769</ele>
        <time>2014-08-09T08:24:19Z</time>
      </trkpt>
      <trkpt lat="45.23576" lon="6.26151">
        <ele>1767</ele>
        <time>2014-08-09T08:24:30Z</time>
      </trkpt>
      <trkpt lat="45.23572" lon="6.26163">
        <ele>1765</ele>
        <time>2014-08-09T08:24:38Z</time>
      </trkpt>
      <trkpt lat="45.2357" lon="6.26176">
        <ele>1762</ele>
        <time>2014-08-09T08:24:51Z</time>
      </trkpt>
      <trkpt lat="45.23566" lon="6.26189">
        <ele>1763</ele>
        <time>2014-08-09T08:25:02Z</time>
      </trkpt>
      <trkpt lat="45.23562" lon="6.26201">
        <ele>1763</ele>
        <time>2014-08-09T08:25:12Z</time>
      </trkpt>
      <trkpt lat="45.23557" lon="6.26215">
        <ele>1763</ele>
        <time>2014-08-09T08:25:25Z</time>
      </trkpt>
      <trkpt lat="45.23548" lon="6.26219">
        <ele>1763</ele>
        <time>2014-08-09T08:25:34Z</time>
      </trkpt>
      <trkpt lat="45.23539" lon="6.26215">
        <ele>1764</ele>
        <time>2014-08-09T08:25:47Z</time>
      </trkpt>
      <trkpt lat="45.2353" lon="6.26207">
        <ele>1766</ele>
        <time>2014-08-09T08:25:58Z</time>
      </trkpt>
      <trkpt lat="45.23524" lon="6.26196">
        <ele>1767</ele>
        <time>2014-08-09T08:26:08Z</time>
      </trkpt>
      <trkpt lat="45.2352" lon="6.26183">
        <ele>1769</ele>
        <time>2014-08-09T08:26:17Z</time>
      </trkpt>
      <trkpt lat="45.23517" lon="6.26171">
        <ele>1772</ele>
        <time>2014-08-09T08:26:26Z</time>
      </trkpt>
      <trkpt lat="45.23517" lon="6.26156">
        <ele>1777</ele>
        <time>2014-08-09T08:26:35Z</time>
      </trkpt>
      <trkpt lat="45.23515" lon="6.26142">
        <ele>1777</ele>
        <time>2014-08-09T08:26:45Z</time>
      </trkpt>
      <trkpt lat="45.23517" lon="6.26128">
        <ele>1778</ele>
        <time>2014-08-09T08:26:54Z</time>
      </trkpt>
      <trkpt lat="45.23515" lon="6.26115">
        <ele>1780</ele>
        <time>2014-08-09T08:27:03Z</time>
      </trkpt>
      <trkpt lat="45.23514" lon="6.26102">
        <ele>1782</ele>
        <time>2014-08-09T08:27:14Z</time>
      </trkpt>
      <trkpt lat="45.23511" lon="6.26089">
        <ele>1786</ele>
        <time>2014-08-09T08:27:24Z</time>
      </trkpt>
      <trkpt lat="45.23506" lon="6.26078">
        <ele>1792</ele>
        <time>2014-08-09T08:27:35Z</time>
      </trkpt>
      <trkpt lat="45.23499" lon="6.26067">
        <ele>1795</ele>
        <time>2014-08-09T08:27:45Z</time>
      </trkpt>
      <trkpt lat="45.23494" lon="6.26056">
        <ele>1797</ele>
        <time>2014-08-09T08:27:55Z</time>
      </trkpt>
      <trkpt lat="45.23488" lon="6.26045">
        <ele>1798</ele>
        <time>2014-08-09T08:28:06Z</time>
      </trkpt>
      <trkpt lat="45.23482" lon="6.26033">
        <ele>1799</ele>
        <time>2014-08-09T08:28:16Z</time>
      </trkpt>
      <trkpt lat="45.23476" lon="6.26023">
        <ele>1800</ele>
        <time>2014-08-09T08:28:26Z</time>
      </trkpt>
      <trkpt lat="45.2347" lon="6.26012">
        <ele>1801</ele>
        <time>2014-08-09T08:28:38Z</time>
      </trkpt>
      <trkpt lat="45.23463" lon="6.26002">
        <ele>1801</ele>
        <time>2014-08-09T08:28:50Z</time>
      </trkpt>
      <trkpt lat="45.23457" lon="6.2599">
        <ele>1811</ele>
        <time>2014-08-09T08:29:01Z</time>
      </trkpt>
      <trkpt lat="45.23452" lon="6.25978">
        <ele>1811</ele>
        <time>2014-08-09T08:29:11Z</time>
      </trkpt>
      <trkpt lat="45.23448" lon="6.25967">
        <ele>1812</ele>
        <time>2014-08-09T08:29:20Z</time>
      </trkpt>
      <trkpt lat="45.23445" lon="6.25954">
        <ele>1813</ele>
        <time>2014-08-09T08:29:29Z</time>
      </trkpt>
      <trkpt lat="45.23441" lon="6.25942">
        <ele>1814</ele>
        <time>2014-08-09T08:29:37Z</time>
      </trkpt>
      <trkpt lat="45.23438" lon="6.25928">
        <ele>1816</ele>
        <time>2014-08-09T08:29:44Z</time>
      </trkpt>
      <trkpt lat="45.23431" lon="6.25918">
        <ele>1816</ele>
        <time>2014-08-09T08:29:49Z</time>
      </trkpt>
      <trkpt lat="45.23425" lon="6.25908">
        <ele>1821</ele>
        <time>2014-08-09T08:29:53Z</time>
      </trkpt>
      <trkpt lat="45.23421" lon="6.25895">
        <ele>1822</ele>
        <time>2014-08-09T08:29:57Z</time>
      </trkpt>
      <trkpt lat="45.2342" lon="6.25881">
        <ele>1824</ele>
        <time>2014-08-09T08:30:01Z</time>
      </trkpt>
      <trkpt lat="45.23418" lon="6.25867">
        <ele>1825</ele>
        <time>2014-08-09T08:30:05Z</time>
      </trkpt>
      <trkpt lat="45.23414" lon="6.25852">
        <ele>1820</ele>
        <time>2014-08-09T08:30:10Z</time>
      </trkpt>
      <trkpt lat="45.23411" lon="6.25837">
        <ele>1824</ele>
        <time>2014-08-09T08:30:14Z</time>
      </trkpt>
      <trkpt lat="45.23405" lon="6.25822">
        <ele>1826</ele>
        <time>2014-08-09T08:30:18Z</time>
      </trkpt>
      <trkpt lat="45.23397" lon="6.2581">
        <ele>1825</ele>
        <time>2014-08-09T08:30:22Z</time>
      </trkpt>
      <trkpt lat="45.23389" lon="6.25797">
        <ele>1825</ele>
        <time>2014-08-09T08:30:26Z</time>
      </trkpt>
      <trkpt lat="45.23382" lon="6.25784">
        <ele>1826</ele>
        <time>2014-08-09T08:30:30Z</time>
      </trkpt>
      <trkpt lat="45.23375" lon="6.25773">
        <ele>1826</ele>
        <time>2014-08-09T08:30:34Z</time>
      </trkpt>
      <trkpt lat="45.23369" lon="6.25758">
        <ele>1826</ele>
        <time>2014-08-09T08:30:38Z</time>
      </trkpt>
      <trkpt lat="45.23363" lon="6.25748">
        <ele>1834</ele>
        <time>2014-08-09T08:30:41Z</time>
      </trkpt>
      <trkpt lat="45.23357" lon="6.25737">
        <ele>1833</ele>
        <time>2014-08-09T08:30:44Z</time>
      </trkpt>
      <trkpt lat="45.23348" lon="6.25724">
        <ele>1834</ele>
        <time>2014-08-09T08:30:48Z</time>
      </trkpt>
      <trkpt lat="45.23341" lon="6.25713">
        <ele>1835</ele>
        <time>2014-08-09T08:30:52Z</time>
      </trkpt>
      <trkpt lat="45.23335" lon="6.25702">
        <ele>1837</ele>
        <time>2014-08-09T08:30:56Z</time>
      </trkpt>
      <trkpt lat="45.23327" lon="6.25691">
        <ele>1834</ele>
        <time>2014-08-09T08:31:00Z</time>
      </trkpt>
      <trkpt lat="45.23318" lon="6.25683">
        <ele>1835</ele>
        <time>2014-08-09T08:31:03Z</time>
      </trkpt>
      <trkpt lat="45.23308" lon="6.25684">
        <ele>1834</ele>
        <time>2014-08-09T08:31:06Z</time>
      </trkpt>
      <trkpt lat="45.23297" lon="6.25695">
        <ele>1833</ele>
        <time>2014-08-09T08:31:09Z</time>
      </trkpt>
      <trkpt lat="45.23285" lon="6.25702">
        <ele>1832</ele>
        <time>2014-08-09T08:31:12Z</time>
      </trkpt>
      <trkpt lat="45.23273" lon="6.25706">
        <ele>1832</ele>
        <time>2014-08-09T08:31:15Z</time>
      </trkpt>
      <trkpt lat="45.23261" lon="6.2571">
        <ele>1831</ele>
        <time>2014-08-09T08:31:18Z</time>
      </trkpt>
      <trkpt lat="45.23247" lon="6.25712">
        <ele>1832</ele>
        <time>2014-08-09T08:31:21Z</time>
      </trkpt>
      <trkpt lat="45.23238" lon="6.25713">
        <ele>1832</ele>
        <time>2014-08-09T08:31:23Z</time>
      </trkpt>
      <trkpt lat="45.23228" lon="6.25713">
        <ele>1832</ele>
        <time>2014-08-09T08:31:25Z</time>
      </trkpt>
      <trkpt lat="45.23219" lon="6.25713">
        <ele>1832</ele>
        <time>2014-08-09T08:31:27Z</time>
      </trkpt>
      <trkpt lat="45.23209" lon="6.25713">
        <ele>1832</ele>
        <time>2014-08-09T08:31:29Z</time>
      </trkpt>
      <trkpt lat="45.23196" lon="6.25712">
        <ele>1833</ele>
        <time>2014-08-09T08:31:32Z</time>
      </trkpt>
      <trkpt lat="45.23183" lon="6.2571">
        <ele>1833</ele>
        <time>2014-08-09T08:31:35Z</time>
      </trkpt>
      <trkpt lat="45.23171" lon="6.25708">
        <ele>1833</ele>
        <time>2014-08-09T08:31:38Z</time>
      </trkpt>
      <trkpt lat="45.23159" lon="6.25706">
        <ele>1833</ele>
        <time>2014-08-09T08:31:41Z</time>
      </trkpt>
      <trkpt lat="45.23146" lon="6.25704">
        <ele>1833</ele>
        <time>2014-08-09T08:31:44Z</time>
      </trkpt>
      <trkpt lat="45.23134" lon="6.25701">
        <ele>1833</ele>
        <time>2014-08-09T08:31:47Z</time>
      </trkpt>
      <trkpt lat="45.23123" lon="6.25696">
        <ele>1834</ele>
        <time>2014-08-09T08:31:50Z</time>
      </trkpt>
      <trkpt lat="45.23113" lon="6.25692">
        <ele>1834</ele>
        <time>2014-08-09T08:31:53Z</time>
      </trkpt>
      <trkpt lat="45.23103" lon="6.25685">
        <ele>1835</ele>
        <time>2014-08-09T08:31:57Z</time>
      </trkpt>
      <trkpt lat="45.23094" lon="6.25678">
        <ele>1836</ele>
        <time>2014-08-09T08:32:00Z</time>
      </trkpt>
      <trkpt lat="45.23084" lon="6.25673">
        <ele>1837</ele>
        <time>2014-08-09T08:32:03Z</time>
      </trkpt>
      <trkpt lat="45.23075" lon="6.25667">
        <ele>1838</ele>
        <time>2014-08-09T08:32:06Z</time>
      </trkpt>
      <trkpt lat="45.23066" lon="6.2566">
        <ele>1843</ele>
        <time>2014-08-09T08:32:09Z</time>
      </trkpt>
      <trkpt lat="45.23056" lon="6.25652">
        <ele>1845</ele>
        <time>2014-08-09T08:32:12Z</time>
      </trkpt>
      <trkpt lat="45.23045" lon="6.25646">
        <ele>1846</ele>
        <time>2014-08-09T08:32:15Z</time>
      </trkpt>
      <trkpt lat="45.23035" lon="6.25643">
        <ele>1847</ele>
        <time>2014-08-09T08:32:18Z</time>
      </trkpt>
      <trkpt lat="45.23025" lon="6.2564">
        <ele>1847</ele>
        <time>2014-08-09T08:32:21Z</time>
      </trkpt>
      <trkpt lat="45.23014" lon="6.2564">
        <ele>1847</ele>
        <time>2014-08-09T08:32:25Z</time>
      </trkpt>
      <trkpt lat="45.23006" lon="6.25645">
        <ele>1847</ele>
        <time>2014-08-09T08:32:30Z</time>
      </trkpt>
      <trkpt lat="45.23002" lon="6.25658">
        <ele>1846</ele>
        <time>2014-08-09T08:32:38Z</time>
      </trkpt>
      <trkpt lat="45.22999" lon="6.25671">
        <ele>1847</ele>
        <time>2014-08-09T08:32:44Z</time>
      </trkpt>
      <trkpt lat="45.22996" lon="6.25684">
        <ele>1849</ele>
        <time>2014-08-09T08:32:50Z</time>
      </trkpt>
      <trkpt lat="45.22991" lon="6.25697">
        <ele>1849</ele>
        <time>2014-08-09T08:32:56Z</time>
      </trkpt>
      <trkpt lat="45.22987" lon="6.25709">
        <ele>1849</ele>
        <time>2014-08-09T08:33:01Z</time>
      </trkpt>
      <trkpt lat="45.22983" lon="6.25722">
        <ele>1848</ele>
        <time>2014-08-09T08:33:07Z</time>
      </trkpt>
      <trkpt lat="45.2298" lon="6.25736">
        <ele>1847</ele>
        <time>2014-08-09T08:33:14Z</time>
      </trkpt>
      <trkpt lat="45.22976" lon="6.25748">
        <ele>1847</ele>
        <time>2014-08-09T08:33:21Z</time>
      </trkpt>
      <trkpt lat="45.22969" lon="6.25758">
        <ele>1843</ele>
        <time>2014-08-09T08:33:27Z</time>
      </trkpt>
      <trkpt lat="45.22962" lon="6.25769">
        <ele>1844</ele>
        <time>2014-08-09T08:33:33Z</time>
      </trkpt>
      <trkpt lat="45.22952" lon="6.25778">
        <ele>1845</ele>
        <time>2014-08-09T08:33:41Z</time>
      </trkpt>
      <trkpt lat="45.22944" lon="6.25784">
        <ele>1845</ele>
        <time>2014-08-09T08:33:47Z</time>
      </trkpt>
      <trkpt lat="45.22934" lon="6.25789">
        <ele>1846</ele>
        <time>2014-08-09T08:33:52Z</time>
      </trkpt>
      <trkpt lat="45.22925" lon="6.25793">
        <ele>1846</ele>
        <time>2014-08-09T08:33:56Z</time>
      </trkpt>
      <trkpt lat="45.22915" lon="6.25797">
        <ele>1856</ele>
        <time>2014-08-09T08:34:00Z</time>
      </trkpt>
      <trkpt lat="45.22905" lon="6.25803">
        <ele>1856</ele>
        <time>2014-08-09T08:34:04Z</time>
      </trkpt>
      <trkpt lat="45.22894" lon="6.25809">
        <ele>1856</ele>
        <time>2014-08-09T08:34:08Z</time>
      </trkpt>
      <trkpt lat="45.22884" lon="6.25814">
        <ele>1857</ele>
        <time>2014-08-09T08:34:12Z</time>
      </trkpt>
      <trkpt lat="45.22875" lon="6.25819">
        <ele>1858</ele>
        <time>2014-08-09T08:34:16Z</time>
      </trkpt>
      <trkpt lat="45.22864" lon="6.25827">
        <ele>1859</ele>
        <time>2014-08-09T08:34:20Z</time>
      </trkpt>
      <trkpt lat="45.22858" lon="6.2584">
        <ele>1853</ele>
        <time>2014-08-09T08:34:24Z</time>
      </trkpt>
      <trkpt lat="45.22856" lon="6.25855">
        <ele>1852</ele>
        <time>2014-08-09T08:34:28Z</time>
      </trkpt>
      <trkpt lat="45.22854" lon="6.25868">
        <ele>1850</ele>
        <time>2014-08-09T08:34:32Z</time>
      </trkpt>
      <trkpt lat="45.22846" lon="6.25877">
        <ele>1850</ele>
        <time>2014-08-09T08:34:35Z</time>
      </trkpt>
      <trkpt lat="45.22836" lon="6.25882">
        <ele>1850</ele>
        <time>2014-08-09T08:34:38Z</time>
      </trkpt>
      <trkpt lat="45.22826" lon="6.25889">
        <ele>1857</ele>
        <time>2014-08-09T08:34:41Z</time>
      </trkpt>
      <trkpt lat="45.22816" lon="6.25895">
        <ele>1857</ele>
        <time>2014-08-09T08:34:44Z</time>
      </trkpt>
      <trkpt lat="45.22805" lon="6.25902">
        <ele>1857</ele>
        <time>2014-08-09T08:34:48Z</time>
      </trkpt>
      <trkpt lat="45.22796" lon="6.25907">
        <ele>1858</ele>
        <time>2014-08-09T08:34:51Z</time>
      </trkpt>
      <trkpt lat="45.22786" lon="6.2591">
        <ele>1858</ele>
        <time>2014-08-09T08:34:54Z</time>
      </trkpt>
      <trkpt lat="45.22775" lon="6.25913">
        <ele>1858</ele>
        <time>2014-08-09T08:34:57Z</time>
      </trkpt>
      <trkpt lat="45.22762" lon="6.25914">
        <ele>1859</ele>
        <time>2014-08-09T08:35:00Z</time>
      </trkpt>
      <trkpt lat="45.22753" lon="6.25914">
        <ele>1858</ele>
        <time>2014-08-09T08:35:02Z</time>
      </trkpt>
      <trkpt lat="45.2274" lon="6.25914">
        <ele>1859</ele>
        <time>2014-08-09T08:35:05Z</time>
      </trkpt>
      <trkpt lat="45.22728" lon="6.25914">
        <ele>1860</ele>
        <time>2014-08-09T08:35:08Z</time>
      </trkpt>
      <trkpt lat="45.22717" lon="6.25912">
        <ele>1860</ele>
        <time>2014-08-09T08:35:11Z</time>
      </trkpt>
      <trkpt lat="45.22707" lon="6.25908">
        <ele>1859</ele>
        <time>2014-08-09T08:35:14Z</time>
      </trkpt>
      <trkpt lat="45.22696" lon="6.25902">
        <ele>1859</ele>
        <time>2014-08-09T08:35:17Z</time>
      </trkpt>
      <trkpt lat="45.22688" lon="6.25896">
        <ele>1859</ele>
        <time>2014-08-09T08:35:20Z</time>
      </trkpt>
      <trkpt lat="45.22679" lon="6.25889">
        <ele>1859</ele>
        <time>2014-08-09T08:35:23Z</time>
      </trkpt>
      <trkpt lat="45.2267" lon="6.25882">
        <ele>1860</ele>
        <time>2014-08-09T08:35:26Z</time>
      </trkpt>
      <trkpt lat="45.2266" lon="6.25877">
        <ele>1858</ele>
        <time>2014-08-09T08:35:29Z</time>
      </trkpt>
      <trkpt lat="45.22648" lon="6.25873">
        <ele>1858</ele>
        <time>2014-08-09T08:35:32Z</time>
      </trkpt>
      <trkpt lat="45.22637" lon="6.25872">
        <ele>1858</ele>
        <time>2014-08-09T08:35:35Z</time>
      </trkpt>
      <trkpt lat="45.22625" lon="6.25875">
        <ele>1857</ele>
        <time>2014-08-09T08:35:38Z</time>
      </trkpt>
      <trkpt lat="45.22615" lon="6.25881">
        <ele>1856</ele>
        <time>2014-08-09T08:35:40Z</time>
      </trkpt>
      <trkpt lat="45.22605" lon="6.25884">
        <ele>1855</ele>
        <time>2014-08-09T08:35:42Z</time>
      </trkpt>
      <trkpt lat="45.22593" lon="6.25886">
        <ele>1854</ele>
        <time>2014-08-09T08:35:44Z</time>
      </trkpt>
      <trkpt lat="45.22581" lon="6.25888">
        <ele>1848</ele>
        <time>2014-08-09T08:35:46Z</time>
      </trkpt>
      <trkpt lat="45.22567" lon="6.25889">
        <ele>1848</ele>
        <time>2014-08-09T08:35:48Z</time>
      </trkpt>
      <trkpt lat="45.22552" lon="6.25886">
        <ele>1847</ele>
        <time>2014-08-09T08:35:50Z</time>
      </trkpt>
      <trkpt lat="45.22534" lon="6.2588">
        <ele>1847</ele>
        <time>2014-08-09T08:35:52Z</time>
      </trkpt>
      <trkpt lat="45.22525" lon="6.25875">
        <ele>1846</ele>
        <time>2014-08-09T08:35:53Z</time>
      </trkpt>
      <trkpt lat="45.22516" lon="6.2587">
        <ele>1846</ele>
        <time>2014-08-09T08:35:54Z</time>
      </trkpt>
      <trkpt lat="45.22507" lon="6.25863">
        <ele>1847</ele>
        <time>2014-08-09T08:35:55Z</time>
      </trkpt>
      <trkpt lat="45.22498" lon="6.25856">
        <ele>1840</ele>
        <time>2014-08-09T08:35:56Z</time>
      </trkpt>
      <trkpt lat="45.22489" lon="6.25849">
        <ele>1840</ele>
        <time>2014-08-09T08:35:57Z</time>
      </trkpt>
      <trkpt lat="45.22481" lon="6.25843">
        <ele>1840</ele>
        <time>2014-08-09T08:35:58Z</time>
      </trkpt>
      <trkpt lat="45.22464" lon="6.25832">
        <ele>1843</ele>
        <time>2014-08-09T08:36:00Z</time>
      </trkpt>
      <trkpt lat="45.22455" lon="6.25828">
        <ele>1842</ele>
        <time>2014-08-09T08:36:01Z</time>
      </trkpt>
      <trkpt lat="45.22445" lon="6.25825">
        <ele>1840</ele>
        <time>2014-08-09T08:36:02Z</time>
      </trkpt>
      <trkpt lat="45.22434" lon="6.25822">
        <ele>1838</ele>
        <time>2014-08-09T08:36:03Z</time>
      </trkpt>
      <trkpt lat="45.22423" lon="6.25819">
        <ele>1837</ele>
        <time>2014-08-09T08:36:04Z</time>
      </trkpt>
      <trkpt lat="45.22411" lon="6.25817">
        <ele>1830</ele>
        <time>2014-08-09T08:36:05Z</time>
      </trkpt>
      <trkpt lat="45.22399" lon="6.25814">
        <ele>1829</ele>
        <time>2014-08-09T08:36:06Z</time>
      </trkpt>
      <trkpt lat="45.22387" lon="6.25811">
        <ele>1829</ele>
        <time>2014-08-09T08:36:07Z</time>
      </trkpt>
      <trkpt lat="45.22376" lon="6.2581">
        <ele>1828</ele>
        <time>2014-08-09T08:36:08Z</time>
      </trkpt>
      <trkpt lat="45.22366" lon="6.25808">
        <ele>1828</ele>
        <time>2014-08-09T08:36:09Z</time>
      </trkpt>
      <trkpt lat="45.22356" lon="6.25806">
        <ele>1827</ele>
        <time>2014-08-09T08:36:10Z</time>
      </trkpt>
      <trkpt lat="45.2234" lon="6.25801">
        <ele>1826</ele>
        <time>2014-08-09T08:36:12Z</time>
      </trkpt>
      <trkpt lat="45.22324" lon="6.25794">
        <ele>1820</ele>
        <time>2014-08-09T08:36:14Z</time>
      </trkpt>
      <trkpt lat="45.2231" lon="6.25793">
        <ele>1819</ele>
        <time>2014-08-09T08:36:16Z</time>
      </trkpt>
      <trkpt lat="45.22299" lon="6.25795">
        <ele>1818</ele>
        <time>2014-08-09T08:36:18Z</time>
      </trkpt>
      <trkpt lat="45.22285" lon="6.258">
        <ele>1818</ele>
        <time>2014-08-09T08:36:20Z</time>
      </trkpt>
      <trkpt lat="45.22269" lon="6.25799">
        <ele>1817</ele>
        <time>2014-08-09T08:36:22Z</time>
      </trkpt>
      <trkpt lat="45.22253" lon="6.2579">
        <ele>1816</ele>
        <time>2014-08-09T08:36:24Z</time>
      </trkpt>
      <trkpt lat="45.22237" lon="6.25778">
        <ele>1809</ele>
        <time>2014-08-09T08:36:26Z</time>
      </trkpt>
      <trkpt lat="45.22225" lon="6.25766">
        <ele>1809</ele>
        <time>2014-08-09T08:36:28Z</time>
      </trkpt>
      <trkpt lat="45.22213" lon="6.25755">
        <ele>1807</ele>
        <time>2014-08-09T08:36:30Z</time>
      </trkpt>
      <trkpt lat="45.22201" lon="6.25746">
        <ele>1805</ele>
        <time>2014-08-09T08:36:32Z</time>
      </trkpt>
      <trkpt lat="45.2219" lon="6.2574">
        <ele>1803</ele>
        <time>2014-08-09T08:36:34Z</time>
      </trkpt>
      <trkpt lat="45.22179" lon="6.2574">
        <ele>1802</ele>
        <time>2014-08-09T08:36:36Z</time>
      </trkpt>
      <trkpt lat="45.2217" lon="6.25745">
        <ele>1800</ele>
        <time>2014-08-09T08:36:38Z</time>
      </trkpt>
      <trkpt lat="45.22159" lon="6.25751">
        <ele>1799</ele>
        <time>2014-08-09T08:36:40Z</time>
      </trkpt>
      <trkpt lat="45.22148" lon="6.25749">
        <ele>1795</ele>
        <time>2014-08-09T08:36:42Z</time>
      </trkpt>
      <trkpt lat="45.22138" lon="6.25738">
        <ele>1793</ele>
        <time>2014-08-09T08:36:44Z</time>
      </trkpt>
      <trkpt lat="45.22127" lon="6.25728">
        <ele>1792</ele>
        <time>2014-08-09T08:36:46Z</time>
      </trkpt>
      <trkpt lat="45.22116" lon="6.25721">
        <ele>1791</ele>
        <time>2014-08-09T08:36:48Z</time>
      </trkpt>
      <trkpt lat="45.22104" lon="6.25713">
        <ele>1790</ele>
        <time>2014-08-09T08:36:50Z</time>
      </trkpt>
      <trkpt lat="45.22094" lon="6.25708">
        <ele>1789</ele>
        <time>2014-08-09T08:36:52Z</time>
      </trkpt>
      <trkpt lat="45.22084" lon="6.25704">
        <ele>1788</ele>
        <time>2014-08-09T08:36:54Z</time>
      </trkpt>
      <trkpt lat="45.22072" lon="6.25702">
        <ele>1776</ele>
        <time>2014-08-09T08:36:56Z</time>
      </trkpt>
      <trkpt lat="45.22061" lon="6.25698">
        <ele>1775</ele>
        <time>2014-08-09T08:36:58Z</time>
      </trkpt>
      <trkpt lat="45.2205" lon="6.25691">
        <ele>1773</ele>
        <time>2014-08-09T08:37:00Z</time>
      </trkpt>
      <trkpt lat="45.2204" lon="6.25683">
        <ele>1771</ele>
        <time>2014-08-09T08:37:02Z</time>
      </trkpt>
      <trkpt lat="45.2203" lon="6.25675">
        <ele>1769</ele>
        <time>2014-08-09T08:37:04Z</time>
      </trkpt>
      <trkpt lat="45.2202" lon="6.25669">
        <ele>1766</ele>
        <time>2014-08-09T08:37:06Z</time>
      </trkpt>
      <trkpt lat="45.2201" lon="6.25665">
        <ele>1758</ele>
        <time>2014-08-09T08:37:08Z</time>
      </trkpt>
      <trkpt lat="45.22" lon="6.25663">
        <ele>1753</ele>
        <time>2014-08-09T08:37:10Z</time>
      </trkpt>
      <trkpt lat="45.2199" lon="6.25655">
        <ele>1746</ele>
        <time>2014-08-09T08:37:13Z</time>
      </trkpt>
      <trkpt lat="45.2199" lon="6.2564">
        <ele>1742</ele>
        <time>2014-08-09T08:37:16Z</time>
      </trkpt>
      <trkpt lat="45.21988" lon="6.25625">
        <ele>1739</ele>
        <time>2014-08-09T08:37:19Z</time>
      </trkpt>
      <trkpt lat="45.21978" lon="6.25625">
        <ele>1738</ele>
        <time>2014-08-09T08:37:22Z</time>
      </trkpt>
      <trkpt lat="45.21971" lon="6.25634">
        <ele>1738</ele>
        <time>2014-08-09T08:37:25Z</time>
      </trkpt>
      <trkpt lat="45.21963" lon="6.25646">
        <ele>1737</ele>
        <time>2014-08-09T08:37:29Z</time>
      </trkpt>
      <trkpt lat="45.21959" lon="6.2566">
        <ele>1737</ele>
        <time>2014-08-09T08:37:32Z</time>
      </trkpt>
      <trkpt lat="45.21954" lon="6.25674">
        <ele>1744</ele>
        <time>2014-08-09T08:37:36Z</time>
      </trkpt>
      <trkpt lat="45.21948" lon="6.25687">
        <ele>1744</ele>
        <time>2014-08-09T08:37:40Z</time>
      </trkpt>
      <trkpt lat="45.2194" lon="6.25696">
        <ele>1743</ele>
        <time>2014-08-09T08:37:45Z</time>
      </trkpt>
      <trkpt lat="45.21928" lon="6.25697">
        <ele>1741</ele>
        <time>2014-08-09T08:37:49Z</time>
      </trkpt>
      <trkpt lat="45.21917" lon="6.25699">
        <ele>1740</ele>
        <time>2014-08-09T08:37:51Z</time>
      </trkpt>
      <trkpt lat="45.21907" lon="6.25701">
        <ele>1723</ele>
        <time>2014-08-09T08:37:53Z</time>
      </trkpt>
      <trkpt lat="45.21897" lon="6.25704">
        <ele>1723</ele>
        <time>2014-08-09T08:37:55Z</time>
      </trkpt>
      <trkpt lat="45.21887" lon="6.2571">
        <ele>1722</ele>
        <time>2014-08-09T08:37:57Z</time>
      </trkpt>
      <trkpt lat="45.21876" lon="6.25713">
        <ele>1720</ele>
        <time>2014-08-09T08:37:59Z</time>
      </trkpt>
      <trkpt lat="45.21864" lon="6.25713">
        <ele>1718</ele>
        <time>2014-08-09T08:38:01Z</time>
      </trkpt>
      <trkpt lat="45.21851" lon="6.25706">
        <ele>1716</ele>
        <time>2014-08-09T08:38:03Z</time>
      </trkpt>
      <trkpt lat="45.21841" lon="6.25695">
        <ele>1714</ele>
        <time>2014-08-09T08:38:05Z</time>
      </trkpt>
      <trkpt lat="45.21832" lon="6.25686">
        <ele>1699</ele>
        <time>2014-08-09T08:38:07Z</time>
      </trkpt>
      <trkpt lat="45.21822" lon="6.25675">
        <ele>1699</ele>
        <time>2014-08-09T08:38:10Z</time>
      </trkpt>
      <trkpt lat="45.21813" lon="6.25668">
        <ele>1697</ele>
        <time>2014-08-09T08:38:13Z</time>
      </trkpt>
      <trkpt lat="45.21801" lon="6.25669">
        <ele>1693</ele>
        <time>2014-08-09T08:38:17Z</time>
      </trkpt>
      <trkpt lat="45.21792" lon="6.25677">
        <ele>1691</ele>
        <time>2014-08-09T08:38:20Z</time>
      </trkpt>
      <trkpt lat="45.21788" lon="6.25694">
        <ele>1690</ele>
        <time>2014-08-09T08:38:23Z</time>
      </trkpt>
      <trkpt lat="45.21787" lon="6.25709">
        <ele>1691</ele>
        <time>2014-08-09T08:38:25Z</time>
      </trkpt>
      <trkpt lat="45.21787" lon="6.25724">
        <ele>1691</ele>
        <time>2014-08-09T08:38:27Z</time>
      </trkpt>
      <trkpt lat="45.21785" lon="6.2574">
        <ele>1690</ele>
        <time>2014-08-09T08:38:29Z</time>
      </trkpt>
      <trkpt lat="45.21784" lon="6.25753">
        <ele>1690</ele>
        <time>2014-08-09T08:38:31Z</time>
      </trkpt>
      <trkpt lat="45.2178" lon="6.25771">
        <ele>1689</ele>
        <time>2014-08-09T08:38:34Z</time>
      </trkpt>
      <trkpt lat="45.21773" lon="6.25787">
        <ele>1688</ele>
        <time>2014-08-09T08:38:37Z</time>
      </trkpt>
      <trkpt lat="45.21767" lon="6.25799">
        <ele>1686</ele>
        <time>2014-08-09T08:38:39Z</time>
      </trkpt>
      <trkpt lat="45.21763" lon="6.25815">
        <ele>1683</ele>
        <time>2014-08-09T08:38:41Z</time>
      </trkpt>
      <trkpt lat="45.21762" lon="6.25832">
        <ele>1679</ele>
        <time>2014-08-09T08:38:43Z</time>
      </trkpt>
      <trkpt lat="45.21762" lon="6.25849">
        <ele>1680</ele>
        <time>2014-08-09T08:38:45Z</time>
      </trkpt>
      <trkpt lat="45.21763" lon="6.25864">
        <ele>1681</ele>
        <time>2014-08-09T08:38:47Z</time>
      </trkpt>
      <trkpt lat="45.21762" lon="6.2588">
        <ele>1681</ele>
        <time>2014-08-09T08:38:49Z</time>
      </trkpt>
      <trkpt lat="45.21759" lon="6.25899">
        <ele>1677</ele>
        <time>2014-08-09T08:38:51Z</time>
      </trkpt>
      <trkpt lat="45.21755" lon="6.25918">
        <ele>1669</ele>
        <time>2014-08-09T08:38:53Z</time>
      </trkpt>
      <trkpt lat="45.21752" lon="6.25935">
        <ele>1675</ele>
        <time>2014-08-09T08:38:55Z</time>
      </trkpt>
      <trkpt lat="45.21752" lon="6.25949">
        <ele>1677</ele>
        <time>2014-08-09T08:38:57Z</time>
      </trkpt>
      <trkpt lat="45.21753" lon="6.25965">
        <ele>1677</ele>
        <time>2014-08-09T08:39:00Z</time>
      </trkpt>
      <trkpt lat="45.2175" lon="6.25979">
        <ele>1657</ele>
        <time>2014-08-09T08:39:04Z</time>
      </trkpt>
      <trkpt lat="45.2174" lon="6.25979">
        <ele>1656</ele>
        <time>2014-08-09T08:39:09Z</time>
      </trkpt>
      <trkpt lat="45.21728" lon="6.25978">
        <ele>1653</ele>
        <time>2014-08-09T08:39:13Z</time>
      </trkpt>
      <trkpt lat="45.21718" lon="6.25976">
        <ele>1651</ele>
        <time>2014-08-09T08:39:16Z</time>
      </trkpt>
      <trkpt lat="45.21706" lon="6.2597">
        <ele>1649</ele>
        <time>2014-08-09T08:39:19Z</time>
      </trkpt>
      <trkpt lat="45.21697" lon="6.25969">
        <ele>1647</ele>
        <time>2014-08-09T08:39:21Z</time>
      </trkpt>
      <trkpt lat="45.21684" lon="6.2597">
        <ele>1645</ele>
        <time>2014-08-09T08:39:24Z</time>
      </trkpt>
      <trkpt lat="45.21671" lon="6.25969">
        <ele>1644</ele>
        <time>2014-08-09T08:39:27Z</time>
      </trkpt>
      <trkpt lat="45.21661" lon="6.25971">
        <ele>1627</ele>
        <time>2014-08-09T08:39:30Z</time>
      </trkpt>
      <trkpt lat="45.21649" lon="6.25978">
        <ele>1627</ele>
        <time>2014-08-09T08:39:33Z</time>
      </trkpt>
      <trkpt lat="45.21638" lon="6.25986">
        <ele>1625</ele>
        <time>2014-08-09T08:39:36Z</time>
      </trkpt>
      <trkpt lat="45.2163" lon="6.25995">
        <ele>1624</ele>
        <time>2014-08-09T08:39:39Z</time>
      </trkpt>
      <trkpt lat="45.2162" lon="6.26004">
        <ele>1623</ele>
        <time>2014-08-09T08:39:43Z</time>
      </trkpt>
      <trkpt lat="45.2161" lon="6.26004">
        <ele>1620</ele>
        <time>2014-08-09T08:39:46Z</time>
      </trkpt>
      <trkpt lat="45.21597" lon="6.26">
        <ele>1616</ele>
        <time>2014-08-09T08:39:49Z</time>
      </trkpt>
      <trkpt lat="45.21589" lon="6.25991">
        <ele>1615</ele>
        <time>2014-08-09T08:39:52Z</time>
      </trkpt>
      <trkpt lat="45.21568" lon="6.25987">
        <ele>1606</ele>
        <time>2014-08-09T08:39:57Z</time>
      </trkpt>
      <trkpt lat="45.21555" lon="6.25986">
        <ele>1604</ele>
        <time>2014-08-09T08:39:59Z</time>
      </trkpt>
      <trkpt lat="45.21545" lon="6.25983">
        <ele>1602</ele>
        <time>2014-08-09T08:40:01Z</time>
      </trkpt>
      <trkpt lat="45.21524" lon="6.25979">
        <ele>1600</ele>
        <time>2014-08-09T08:40:05Z</time>
      </trkpt>
      <trkpt lat="45.21514" lon="6.25981">
        <ele>1598</ele>
        <time>2014-08-09T08:40:07Z</time>
      </trkpt>
      <trkpt lat="45.21504" lon="6.25984">
        <ele>1597</ele>
        <time>2014-08-09T08:40:10Z</time>
      </trkpt>
      <trkpt lat="45.21494" lon="6.25987">
        <ele>1588</ele>
        <time>2014-08-09T08:40:12Z</time>
      </trkpt>
      <trkpt lat="45.21484" lon="6.25991">
        <ele>1587</ele>
        <time>2014-08-09T08:40:14Z</time>
      </trkpt>
      <trkpt lat="45.21475" lon="6.25996">
        <ele>1585</ele>
        <time>2014-08-09T08:40:17Z</time>
      </trkpt>
      <trkpt lat="45.21465" lon="6.25984">
        <ele>1582</ele>
        <time>2014-08-09T08:40:20Z</time>
      </trkpt>
      <trkpt lat="45.21456" lon="6.25969">
        <ele>1581</ele>
        <time>2014-08-09T08:40:23Z</time>
      </trkpt>
      <trkpt lat="45.21448" lon="6.25958">
        <ele>1579</ele>
        <time>2014-08-09T08:40:26Z</time>
      </trkpt>
      <trkpt lat="45.2144" lon="6.25948">
        <ele>1578</ele>
        <time>2014-08-09T08:40:29Z</time>
      </trkpt>
      <trkpt lat="45.21432" lon="6.25934">
        <ele>1575</ele>
        <time>2014-08-09T08:40:32Z</time>
      </trkpt>
      <trkpt lat="45.21427" lon="6.25922">
        <ele>1571</ele>
        <time>2014-08-09T08:40:34Z</time>
      </trkpt>
      <trkpt lat="45.21422" lon="6.25908">
        <ele>1570</ele>
        <time>2014-08-09T08:40:37Z</time>
      </trkpt>
      <trkpt lat="45.21419" lon="6.25894">
        <ele>1571</ele>
        <time>2014-08-09T08:40:40Z</time>
      </trkpt>
      <trkpt lat="45.21415" lon="6.25881">
        <ele>1552</ele>
        <time>2014-08-09T08:40:43Z</time>
      </trkpt>
      <trkpt lat="45.21412" lon="6.25864">
        <ele>1552</ele>
        <time>2014-08-09T08:40:46Z</time>
      </trkpt>
      <trkpt lat="45.21413" lon="6.25851">
        <ele>1553</ele>
        <time>2014-08-09T08:40:48Z</time>
      </trkpt>
      <trkpt lat="45.21412" lon="6.25835">
        <ele>1557</ele>
        <time>2014-08-09T08:40:50Z</time>
      </trkpt>
      <trkpt lat="45.21411" lon="6.25821">
        <ele>1550</ele>
        <time>2014-08-09T08:40:52Z</time>
      </trkpt>
      <trkpt lat="45.2141" lon="6.25807">
        <ele>1544</ele>
        <time>2014-08-09T08:40:54Z</time>
      </trkpt>
      <trkpt lat="45.2141" lon="6.25792">
        <ele>1541</ele>
        <time>2014-08-09T08:40:56Z</time>
      </trkpt>
      <trkpt lat="45.21411" lon="6.25778">
        <ele>1540</ele>
        <time>2014-08-09T08:40:58Z</time>
      </trkpt>
      <trkpt lat="45.21413" lon="6.25759">
        <ele>1542</ele>
        <time>2014-08-09T08:41:01Z</time>
      </trkpt>
      <trkpt lat="45.21415" lon="6.25741">
        <ele>1538</ele>
        <time>2014-08-09T08:41:04Z</time>
      </trkpt>
      <trkpt lat="45.21417" lon="6.25723">
        <ele>1548</ele>
        <time>2014-08-09T08:41:07Z</time>
      </trkpt>
      <trkpt lat="45.21418" lon="6.25707">
        <ele>1547</ele>
        <time>2014-08-09T08:41:10Z</time>
      </trkpt>
      <trkpt lat="45.21419" lon="6.2569">
        <ele>1544</ele>
        <time>2014-08-09T08:41:13Z</time>
      </trkpt>
      <trkpt lat="45.2142" lon="6.25675">
        <ele>1538</ele>
        <time>2014-08-09T08:41:15Z</time>
      </trkpt>
      <trkpt lat="45.21421" lon="6.25656">
        <ele>1535</ele>
        <time>2014-08-09T08:41:18Z</time>
      </trkpt>
      <trkpt lat="45.21422" lon="6.25639">
        <ele>1537</ele>
        <time>2014-08-09T08:41:21Z</time>
      </trkpt>
      <trkpt lat="45.21422" lon="6.25625">
        <ele>1537</ele>
        <time>2014-08-09T08:41:23Z</time>
      </trkpt>
      <trkpt lat="45.21421" lon="6.25612">
        <ele>1535</ele>
        <time>2014-08-09T08:41:25Z</time>
      </trkpt>
      <trkpt lat="45.21418" lon="6.25585">
        <ele>1524</ele>
        <time>2014-08-09T08:41:32Z</time>
      </trkpt>
      <trkpt lat="45.21419" lon="6.2557">
        <ele>1525</ele>
        <time>2014-08-09T08:41:34Z</time>
      </trkpt>
      <trkpt lat="45.21423" lon="6.25555">
        <ele>1526</ele>
        <time>2014-08-09T08:41:36Z</time>
      </trkpt>
      <trkpt lat="45.21427" lon="6.25542">
        <ele>1526</ele>
        <time>2014-08-09T08:41:38Z</time>
      </trkpt>
      <trkpt lat="45.21432" lon="6.25527">
        <ele>1524</ele>
        <time>2014-08-09T08:41:40Z</time>
      </trkpt>
      <trkpt lat="45.21439" lon="6.2551">
        <ele>1523</ele>
        <time>2014-08-09T08:41:42Z</time>
      </trkpt>
      <trkpt lat="45.21445" lon="6.25497">
        <ele>1515</ele>
        <time>2014-08-09T08:41:44Z</time>
      </trkpt>
      <trkpt lat="45.21451" lon="6.25487">
        <ele>1516</ele>
        <time>2014-08-09T08:41:47Z</time>
      </trkpt>
      <trkpt lat="45.21457" lon="6.25475">
        <ele>1516</ele>
        <time>2014-08-09T08:41:51Z</time>
      </trkpt>
      <trkpt lat="45.21462" lon="6.2546">
        <ele>1515</ele>
        <time>2014-08-09T08:41:58Z</time>
      </trkpt>
      <trkpt lat="45.21467" lon="6.25446">
        <ele>1514</ele>
        <time>2014-08-09T08:42:01Z</time>
      </trkpt>
      <trkpt lat="45.21474" lon="6.25435">
        <ele>1515</ele>
        <time>2014-08-09T08:42:03Z</time>
      </trkpt>
      <trkpt lat="45.21482" lon="6.2542">
        <ele>1515</ele>
        <time>2014-08-09T08:42:05Z</time>
      </trkpt>
      <trkpt lat="45.21491" lon="6.25404">
        <ele>1508</ele>
        <time>2014-08-09T08:42:07Z</time>
      </trkpt>
      <trkpt lat="45.21499" lon="6.25387">
        <ele>1504</ele>
        <time>2014-08-09T08:42:09Z</time>
      </trkpt>
      <trkpt lat="45.21503" lon="6.25375">
        <ele>1522</ele>
        <time>2014-08-09T08:42:10Z</time>
      </trkpt>
      <trkpt lat="45.21507" lon="6.25362">
        <ele>1519</ele>
        <time>2014-08-09T08:42:11Z</time>
      </trkpt>
      <trkpt lat="45.2151" lon="6.25348">
        <ele>1514</ele>
        <time>2014-08-09T08:42:12Z</time>
      </trkpt>
      <trkpt lat="45.21512" lon="6.25333">
        <ele>1511</ele>
        <time>2014-08-09T08:42:13Z</time>
      </trkpt>
      <trkpt lat="45.21515" lon="6.25321">
        <ele>1503</ele>
        <time>2014-08-09T08:42:14Z</time>
      </trkpt>
      <trkpt lat="45.21519" lon="6.25307">
        <ele>1503</ele>
        <time>2014-08-09T08:42:15Z</time>
      </trkpt>
      <trkpt lat="45.21523" lon="6.25296">
        <ele>1502</ele>
        <time>2014-08-09T08:42:16Z</time>
      </trkpt>
      <trkpt lat="45.21526" lon="6.25283">
        <ele>1501</ele>
        <time>2014-08-09T08:42:17Z</time>
      </trkpt>
      <trkpt lat="45.21531" lon="6.25271">
        <ele>1500</ele>
        <time>2014-08-09T08:42:18Z</time>
      </trkpt>
      <trkpt lat="45.21538" lon="6.25259">
        <ele>1500</ele>
        <time>2014-08-09T08:42:19Z</time>
      </trkpt>
      <trkpt lat="45.21545" lon="6.25248">
        <ele>1488</ele>
        <time>2014-08-09T08:42:20Z</time>
      </trkpt>
      <trkpt lat="45.21552" lon="6.25237">
        <ele>1489</ele>
        <time>2014-08-09T08:42:21Z</time>
      </trkpt>
      <trkpt lat="45.2156" lon="6.25227">
        <ele>1490</ele>
        <time>2014-08-09T08:42:22Z</time>
      </trkpt>
      <trkpt lat="45.21567" lon="6.25217">
        <ele>1489</ele>
        <time>2014-08-09T08:42:23Z</time>
      </trkpt>
      <trkpt lat="45.21576" lon="6.25207">
        <ele>1488</ele>
        <time>2014-08-09T08:42:24Z</time>
      </trkpt>
      <trkpt lat="45.21584" lon="6.25199">
        <ele>1511</ele>
        <time>2014-08-09T08:42:25Z</time>
      </trkpt>
      <trkpt lat="45.21592" lon="6.2519">
        <ele>1509</ele>
        <time>2014-08-09T08:42:26Z</time>
      </trkpt>
      <trkpt lat="45.21601" lon="6.25182">
        <ele>1509</ele>
        <time>2014-08-09T08:42:27Z</time>
      </trkpt>
      <trkpt lat="45.21618" lon="6.25167">
        <ele>1514</ele>
        <time>2014-08-09T08:42:29Z</time>
      </trkpt>
      <trkpt lat="45.21632" lon="6.2515">
        <ele>1507</ele>
        <time>2014-08-09T08:42:31Z</time>
      </trkpt>
      <trkpt lat="45.21637" lon="6.25138">
        <ele>1507</ele>
        <time>2014-08-09T08:42:32Z</time>
      </trkpt>
      <trkpt lat="45.21642" lon="6.25113">
        <ele>1506</ele>
        <time>2014-08-09T08:42:34Z</time>
      </trkpt>
      <trkpt lat="45.21644" lon="6.2509">
        <ele>1506</ele>
        <time>2014-08-09T08:42:36Z</time>
      </trkpt>
      <trkpt lat="45.21644" lon="6.25066">
        <ele>1501</ele>
        <time>2014-08-09T08:42:38Z</time>
      </trkpt>
      <trkpt lat="45.21645" lon="6.25042">
        <ele>1500</ele>
        <time>2014-08-09T08:42:40Z</time>
      </trkpt>
      <trkpt lat="45.21639" lon="6.25017">
        <ele>1499</ele>
        <time>2014-08-09T08:42:42Z</time>
      </trkpt>
      <trkpt lat="45.21634" lon="6.25003">
        <ele>1498</ele>
        <time>2014-08-09T08:42:43Z</time>
      </trkpt>
      <trkpt lat="45.21632" lon="6.24981">
        <ele>1494</ele>
        <time>2014-08-09T08:42:45Z</time>
      </trkpt>
      <trkpt lat="45.21638" lon="6.24964">
        <ele>1493</ele>
        <time>2014-08-09T08:42:47Z</time>
      </trkpt>
      <trkpt lat="45.21653" lon="6.24954">
        <ele>1494</ele>
        <time>2014-08-09T08:42:49Z</time>
      </trkpt>
      <trkpt lat="45.21665" lon="6.24946">
        <ele>1494</ele>
        <time>2014-08-09T08:42:50Z</time>
      </trkpt>
      <trkpt lat="45.21677" lon="6.24938">
        <ele>1504</ele>
        <time>2014-08-09T08:42:51Z</time>
      </trkpt>
      <trkpt lat="45.21688" lon="6.24932">
        <ele>1505</ele>
        <time>2014-08-09T08:42:52Z</time>
      </trkpt>
      <trkpt lat="45.21696" lon="6.24919">
        <ele>1505</ele>
        <time>2014-08-09T08:42:53Z</time>
      </trkpt>
      <trkpt lat="45.21704" lon="6.24906">
        <ele>1497</ele>
        <time>2014-08-09T08:42:54Z</time>
      </trkpt>
      <trkpt lat="45.2171" lon="6.2489">
        <ele>1497</ele>
        <time>2014-08-09T08:42:55Z</time>
      </trkpt>
      <trkpt lat="45.21716" lon="6.24874">
        <ele>1496</ele>
        <time>2014-08-09T08:42:56Z</time>
      </trkpt>
      <trkpt lat="45.21723" lon="6.24856">
        <ele>1496</ele>
        <time>2014-08-09T08:42:57Z</time>
      </trkpt>
      <trkpt lat="45.21728" lon="6.24839">
        <ele>1495</ele>
        <time>2014-08-09T08:42:58Z</time>
      </trkpt>
      <trkpt lat="45.21735" lon="6.24823">
        <ele>1490</ele>
        <time>2014-08-09T08:42:59Z</time>
      </trkpt>
      <trkpt lat="45.21741" lon="6.24807">
        <ele>1489</ele>
        <time>2014-08-09T08:43:00Z</time>
      </trkpt>
      <trkpt lat="45.21747" lon="6.24791">
        <ele>1488</ele>
        <time>2014-08-09T08:43:01Z</time>
      </trkpt>
      <trkpt lat="45.21751" lon="6.24775">
        <ele>1499</ele>
        <time>2014-08-09T08:43:02Z</time>
      </trkpt>
      <trkpt lat="45.21756" lon="6.24759">
        <ele>1495</ele>
        <time>2014-08-09T08:43:03Z</time>
      </trkpt>
      <trkpt lat="45.21759" lon="6.24741">
        <ele>1492</ele>
        <time>2014-08-09T08:43:04Z</time>
      </trkpt>
      <trkpt lat="45.21761" lon="6.24721">
        <ele>1493</ele>
        <time>2014-08-09T08:43:05Z</time>
      </trkpt>
      <trkpt lat="45.21763" lon="6.24702">
        <ele>1492</ele>
        <time>2014-08-09T08:43:06Z</time>
      </trkpt>
      <trkpt lat="45.21767" lon="6.24686">
        <ele>1490</ele>
        <time>2014-08-09T08:43:07Z</time>
      </trkpt>
      <trkpt lat="45.21769" lon="6.2467">
        <ele>1488</ele>
        <time>2014-08-09T08:43:08Z</time>
      </trkpt>
      <trkpt lat="45.21771" lon="6.24656">
        <ele>1487</ele>
        <time>2014-08-09T08:43:09Z</time>
      </trkpt>
      <trkpt lat="45.21771" lon="6.24642">
        <ele>1488</ele>
        <time>2014-08-09T08:43:10Z</time>
      </trkpt>
      <trkpt lat="45.21768" lon="6.2462">
        <ele>1488</ele>
        <time>2014-08-09T08:43:12Z</time>
      </trkpt>
      <trkpt lat="45.21763" lon="6.24609">
        <ele>1487</ele>
        <time>2014-08-09T08:43:14Z</time>
      </trkpt>
      <trkpt lat="45.21754" lon="6.24599">
        <ele>1485</ele>
        <time>2014-08-09T08:43:17Z</time>
      </trkpt>
      <trkpt lat="45.21748" lon="6.24585">
        <ele>1479</ele>
        <time>2014-08-09T08:43:21Z</time>
      </trkpt>
      <trkpt lat="45.21743" lon="6.24567">
        <ele>1478</ele>
        <time>2014-08-09T08:43:23Z</time>
      </trkpt>
      <trkpt lat="45.21736" lon="6.24544">
        <ele>1477</ele>
        <time>2014-08-09T08:43:25Z</time>
      </trkpt>
      <trkpt lat="45.21732" lon="6.24522">
        <ele>1477</ele>
        <time>2014-08-09T08:43:27Z</time>
      </trkpt>
      <trkpt lat="45.21728" lon="6.24503">
        <ele>1478</ele>
        <time>2014-08-09T08:43:29Z</time>
      </trkpt>
      <trkpt lat="45.21725" lon="6.24485">
        <ele>1478</ele>
        <time>2014-08-09T08:43:31Z</time>
      </trkpt>
      <trkpt lat="45.21721" lon="6.24473">
        <ele>1477</ele>
        <time>2014-08-09T08:43:33Z</time>
      </trkpt>
      <trkpt lat="45.21718" lon="6.24459">
        <ele>1476</ele>
        <time>2014-08-09T08:43:35Z</time>
      </trkpt>
      <trkpt lat="45.21716" lon="6.24444">
        <ele>1476</ele>
        <time>2014-08-09T08:43:38Z</time>
      </trkpt>
      <trkpt lat="45.21717" lon="6.24427">
        <ele>1477</ele>
        <time>2014-08-09T08:43:41Z</time>
      </trkpt>
      <trkpt lat="45.21721" lon="6.24409">
        <ele>1476</ele>
        <time>2014-08-09T08:43:44Z</time>
      </trkpt>
      <trkpt lat="45.2172" lon="6.24388">
        <ele>1475</ele>
        <time>2014-08-09T08:43:48Z</time>
      </trkpt>
      <trkpt lat="45.21719" lon="6.24369">
        <ele>1475</ele>
        <time>2014-08-09T08:43:50Z</time>
      </trkpt>
      <trkpt lat="45.21716" lon="6.24348">
        <ele>1475</ele>
        <time>2014-08-09T08:43:52Z</time>
      </trkpt>
      <trkpt lat="45.21712" lon="6.24328">
        <ele>1474</ele>
        <time>2014-08-09T08:43:54Z</time>
      </trkpt>
      <trkpt lat="45.2171" lon="6.2431">
        <ele>1474</ele>
        <time>2014-08-09T08:43:56Z</time>
      </trkpt>
      <trkpt lat="45.21709" lon="6.24295">
        <ele>1474</ele>
        <time>2014-08-09T08:43:58Z</time>
      </trkpt>
      <trkpt lat="45.21713" lon="6.24281">
        <ele>1474</ele>
        <time>2014-08-09T08:44:01Z</time>
      </trkpt>
      <trkpt lat="45.21717" lon="6.24269">
        <ele>1473</ele>
        <time>2014-08-09T08:44:03Z</time>
      </trkpt>
      <trkpt lat="45.21728" lon="6.24265">
        <ele>1473</ele>
        <time>2014-08-09T08:44:07Z</time>
      </trkpt>
      <trkpt lat="45.21737" lon="6.24257">
        <ele>1473</ele>
        <time>2014-08-09T08:44:11Z</time>
      </trkpt>
      <trkpt lat="45.2174" lon="6.24245">
        <ele>1474</ele>
        <time>2014-08-09T08:44:17Z</time>
      </trkpt>
      <trkpt lat="45.21745" lon="6.2423">
        <ele>1474</ele>
        <time>2014-08-09T08:44:29Z</time>
      </trkpt>
      <trkpt lat="45.21754" lon="6.2422">
        <ele>1475</ele>
        <time>2014-08-09T08:44:35Z</time>
      </trkpt>
      <trkpt lat="45.21763" lon="6.24217">
        <ele>1476</ele>
        <time>2014-08-09T08:44:44Z</time>
      </trkpt>
      <trkpt lat="45.21769" lon="6.24204">
        <ele>1476</ele>
        <time>2014-08-09T08:44:50Z</time>
      </trkpt>
      <trkpt lat="45.21779" lon="6.24194">
        <ele>1476</ele>
        <time>2014-08-09T08:44:54Z</time>
      </trkpt>
      <trkpt lat="45.21785" lon="6.24183">
        <ele>1476</ele>
        <time>2014-08-09T08:44:57Z</time>
      </trkpt>
      <trkpt lat="45.21794" lon="6.24178">
        <ele>1477</ele>
        <time>2014-08-09T08:45:01Z</time>
      </trkpt>
      <trkpt lat="45.21798" lon="6.24166">
        <ele>1478</ele>
        <time>2014-08-09T08:45:05Z</time>
      </trkpt>
      <trkpt lat="45.21808" lon="6.2416">
        <ele>1478</ele>
        <time>2014-08-09T08:45:11Z</time>
      </trkpt>
      <trkpt lat="45.21817" lon="6.24157">
        <ele>1479</ele>
        <time>2014-08-09T08:45:19Z</time>
      </trkpt>
      <trkpt lat="45.21826" lon="6.24161">
        <ele>1479</ele>
        <time>2014-08-09T08:45:23Z</time>
      </trkpt>
      <trkpt lat="45.21836" lon="6.24162">
        <ele>1481</ele>
        <time>2014-08-09T08:45:29Z</time>
      </trkpt>
      <trkpt lat="45.21846" lon="6.24161">
        <ele>1483</ele>
        <time>2014-08-09T08:45:33Z</time>
      </trkpt>
      <trkpt lat="45.21857" lon="6.24158">
        <ele>1484</ele>
        <time>2014-08-09T08:45:39Z</time>
      </trkpt>
      <trkpt lat="45.21862" lon="6.24146">
        <ele>1485</ele>
        <time>2014-08-09T08:45:44Z</time>
      </trkpt>
      <trkpt lat="45.21869" lon="6.24137">
        <ele>1485</ele>
        <time>2014-08-09T08:45:51Z</time>
      </trkpt>
      <trkpt lat="45.21878" lon="6.24121">
        <ele>1486</ele>
        <time>2014-08-09T08:45:58Z</time>
      </trkpt>
      <trkpt lat="45.21877" lon="6.24105">
        <ele>1485</ele>
        <time>2014-08-09T08:46:00Z</time>
      </trkpt>
      <trkpt lat="45.21881" lon="6.24088">
        <ele>1486</ele>
        <time>2014-08-09T08:46:03Z</time>
      </trkpt>
      <trkpt lat="45.21879" lon="6.24071">
        <ele>1484</ele>
        <time>2014-08-09T08:46:06Z</time>
      </trkpt>
      <trkpt lat="45.21881" lon="6.24057">
        <ele>1483</ele>
        <time>2014-08-09T08:46:10Z</time>
      </trkpt>
      <trkpt lat="45.21884" lon="6.24044">
        <ele>1483</ele>
        <time>2014-08-09T08:46:14Z</time>
      </trkpt>
      <trkpt lat="45.21886" lon="6.24029">
        <ele>1483</ele>
        <time>2014-08-09T08:46:19Z</time>
      </trkpt>
      <trkpt lat="45.21893" lon="6.24018">
        <ele>1483</ele>
        <time>2014-08-09T08:46:23Z</time>
      </trkpt>
      <trkpt lat="45.21897" lon="6.24006">
        <ele>1483</ele>
        <time>2014-08-09T08:46:28Z</time>
      </trkpt>
      <trkpt lat="45.21899" lon="6.23991">
        <ele>1482</ele>
        <time>2014-08-09T08:46:34Z</time>
      </trkpt>
      <trkpt lat="45.21901" lon="6.23976">
        <ele>1481</ele>
        <time>2014-08-09T08:46:39Z</time>
      </trkpt>
      <trkpt lat="45.21897" lon="6.23963">
        <ele>1481</ele>
        <time>2014-08-09T08:46:42Z</time>
      </trkpt>
      <trkpt lat="45.21893" lon="6.23947">
        <ele>1481</ele>
        <time>2014-08-09T08:46:46Z</time>
      </trkpt>
      <trkpt lat="45.21891" lon="6.23935">
        <ele>1481</ele>
        <time>2014-08-09T08:46:49Z</time>
      </trkpt>
      <trkpt lat="45.21888" lon="6.23918">
        <ele>1481</ele>
        <time>2014-08-09T08:46:53Z</time>
      </trkpt>
      <trkpt lat="45.21886" lon="6.23902">
        <ele>1483</ele>
        <time>2014-08-09T08:46:57Z</time>
      </trkpt>
      <trkpt lat="45.21883" lon="6.23884">
        <ele>1483</ele>
        <time>2014-08-09T08:47:01Z</time>
      </trkpt>
      <trkpt lat="45.2188" lon="6.23867">
        <ele>1484</ele>
        <time>2014-08-09T08:47:04Z</time>
      </trkpt>
      <trkpt lat="45.21877" lon="6.23851">
        <ele>1485</ele>
        <time>2014-08-09T08:47:08Z</time>
      </trkpt>
      <trkpt lat="45.21874" lon="6.23838">
        <ele>1485</ele>
        <time>2014-08-09T08:47:12Z</time>
      </trkpt>
      <trkpt lat="45.21872" lon="6.23824">
        <ele>1487</ele>
        <time>2014-08-09T08:47:17Z</time>
      </trkpt>
      <trkpt lat="45.21869" lon="6.23806">
        <ele>1487</ele>
        <time>2014-08-09T08:47:25Z</time>
      </trkpt>
      <trkpt lat="45.21869" lon="6.23789">
        <ele>1487</ele>
        <time>2014-08-09T08:47:28Z</time>
      </trkpt>
      <trkpt lat="45.21865" lon="6.23777">
        <ele>1487</ele>
        <time>2014-08-09T08:47:31Z</time>
      </trkpt>
      <trkpt lat="45.21865" lon="6.23761">
        <ele>1487</ele>
        <time>2014-08-09T08:47:36Z</time>
      </trkpt>
      <trkpt lat="45.2187" lon="6.23749">
        <ele>1488</ele>
        <time>2014-08-09T08:47:41Z</time>
      </trkpt>
      <trkpt lat="45.21877" lon="6.23737">
        <ele>1488</ele>
        <time>2014-08-09T08:47:48Z</time>
      </trkpt>
      <trkpt lat="45.21876" lon="6.23715">
        <ele>1488</ele>
        <time>2014-08-09T08:47:49Z</time>
      </trkpt>
      <trkpt lat="45.21874" lon="6.23698">
        <ele>1488</ele>
        <time>2014-08-09T08:47:51Z</time>
      </trkpt>
      <trkpt lat="45.21873" lon="6.23677">
        <ele>1488</ele>
        <time>2014-08-09T08:47:53Z</time>
      </trkpt>
      <trkpt lat="45.21881" lon="6.23668">
        <ele>1488</ele>
        <time>2014-08-09T08:47:58Z</time>
      </trkpt>
      <trkpt lat="45.21891" lon="6.23663">
        <ele>1489</ele>
        <time>2014-08-09T08:48:02Z</time>
      </trkpt>
      <trkpt lat="45.219" lon="6.23643">
        <ele>1489</ele>
        <time>2014-08-09T08:48:07Z</time>
      </trkpt>
      <trkpt lat="45.21907" lon="6.23628">
        <ele>1488</ele>
        <time>2014-08-09T08:48:09Z</time>
      </trkpt>
      <trkpt lat="45.21912" lon="6.2361">
        <ele>1488</ele>
        <time>2014-08-09T08:48:11Z</time>
      </trkpt>
      <trkpt lat="45.21916" lon="6.23596">
        <ele>1487</ele>
        <time>2014-08-09T08:48:13Z</time>
      </trkpt>
      <trkpt lat="45.21916" lon="6.23579">
        <ele>1487</ele>
        <time>2014-08-09T08:48:17Z</time>
      </trkpt>
      <trkpt lat="45.21916" lon="6.23565">
        <ele>1488</ele>
        <time>2014-08-09T08:48:20Z</time>
      </trkpt>
      <trkpt lat="45.21915" lon="6.23549">
        <ele>1489</ele>
        <time>2014-08-09T08:48:23Z</time>
      </trkpt>
      <trkpt lat="45.21915" lon="6.23532">
        <ele>1489</ele>
        <time>2014-08-09T08:48:26Z</time>
      </trkpt>
      <trkpt lat="45.21914" lon="6.23516">
        <ele>1489</ele>
        <time>2014-08-09T08:48:30Z</time>
      </trkpt>
      <trkpt lat="45.21914" lon="6.23502">
        <ele>1488</ele>
        <time>2014-08-09T08:48:33Z</time>
      </trkpt>
      <trkpt lat="45.21917" lon="6.23489">
        <ele>1489</ele>
        <time>2014-08-09T08:48:36Z</time>
      </trkpt>
      <trkpt lat="45.21921" lon="6.23469">
        <ele>1491</ele>
        <time>2014-08-09T08:48:41Z</time>
      </trkpt>
      <trkpt lat="45.21923" lon="6.23454">
        <ele>1491</ele>
        <time>2014-08-09T08:48:43Z</time>
      </trkpt>
      <trkpt lat="45.21919" lon="6.2344">
        <ele>1491</ele>
        <time>2014-08-09T08:48:46Z</time>
      </trkpt>
      <trkpt lat="45.21924" lon="6.23428">
        <ele>1491</ele>
        <time>2014-08-09T08:48:50Z</time>
      </trkpt>
      <trkpt lat="45.21926" lon="6.23414">
        <ele>1491</ele>
        <time>2014-08-09T08:48:54Z</time>
      </trkpt>
      <trkpt lat="45.21929" lon="6.23398">
        <ele>1492</ele>
        <time>2014-08-09T08:48:58Z</time>
      </trkpt>
      <trkpt lat="45.21927" lon="6.23381">
        <ele>1492</ele>
        <time>2014-08-09T08:49:01Z</time>
      </trkpt>
      <trkpt lat="45.21926" lon="6.23366">
        <ele>1492</ele>
        <time>2014-08-09T08:49:04Z</time>
      </trkpt>
      <trkpt lat="45.21921" lon="6.23354">
        <ele>1492</ele>
        <time>2014-08-09T08:49:07Z</time>
      </trkpt>
      <trkpt lat="45.21917" lon="6.23339">
        <ele>1491</ele>
        <time>2014-08-09T08:49:10Z</time>
      </trkpt>
      <trkpt lat="45.21915" lon="6.23325">
        <ele>1491</ele>
        <time>2014-08-09T08:49:14Z</time>
      </trkpt>
      <trkpt lat="45.21912" lon="6.23312">
        <ele>1492</ele>
        <time>2014-08-09T08:49:18Z</time>
      </trkpt>
      <trkpt lat="45.21911" lon="6.23298">
        <ele>1492</ele>
        <time>2014-08-09T08:49:21Z</time>
      </trkpt>
      <trkpt lat="45.21909" lon="6.23284">
        <ele>1492</ele>
        <time>2014-08-09T08:49:24Z</time>
      </trkpt>
      <trkpt lat="45.21909" lon="6.2327">
        <ele>1492</ele>
        <time>2014-08-09T08:49:27Z</time>
      </trkpt>
      <trkpt lat="45.21905" lon="6.23254">
        <ele>1492</ele>
        <time>2014-08-09T08:49:30Z</time>
      </trkpt>
      <trkpt lat="45.219" lon="6.23239">
        <ele>1493</ele>
        <time>2014-08-09T08:49:33Z</time>
      </trkpt>
      <trkpt lat="45.21897" lon="6.23224">
        <ele>1494</ele>
        <time>2014-08-09T08:49:36Z</time>
      </trkpt>
      <trkpt lat="45.21892" lon="6.23211">
        <ele>1494</ele>
        <time>2014-08-09T08:49:39Z</time>
      </trkpt>
      <trkpt lat="45.21889" lon="6.23197">
        <ele>1494</ele>
        <time>2014-08-09T08:49:42Z</time>
      </trkpt>
      <trkpt lat="45.21886" lon="6.23183">
        <ele>1495</ele>
        <time>2014-08-09T08:49:46Z</time>
      </trkpt>
      <trkpt lat="45.21883" lon="6.2317">
        <ele>1495</ele>
        <time>2014-08-09T08:50:06Z</time>
      </trkpt>
      <trkpt lat="45.21877" lon="6.23158">
        <ele>1497</ele>
        <time>2014-08-09T08:51:39Z</time>
      </trkpt>
      <trkpt lat="45.21874" lon="6.23143">
        <ele>1498</ele>
        <time>2014-08-09T08:51:42Z</time>
      </trkpt>
      <trkpt lat="45.21869" lon="6.23128">
        <ele>1498</ele>
        <time>2014-08-09T08:51:45Z</time>
      </trkpt>
      <trkpt lat="45.21865" lon="6.23112">
        <ele>1498</ele>
        <time>2014-08-09T08:51:48Z</time>
      </trkpt>
      <trkpt lat="45.2186" lon="6.23096">
        <ele>1498</ele>
        <time>2014-08-09T08:51:51Z</time>
      </trkpt>
      <trkpt lat="45.21857" lon="6.23078">
        <ele>1500</ele>
        <time>2014-08-09T08:51:54Z</time>
      </trkpt>
      <trkpt lat="45.21853" lon="6.23061">
        <ele>1501</ele>
        <time>2014-08-09T08:51:57Z</time>
      </trkpt>
      <trkpt lat="45.21848" lon="6.23044">
        <ele>1501</ele>
        <time>2014-08-09T08:52:00Z</time>
      </trkpt>
      <trkpt lat="45.21838" lon="6.23042">
        <ele>1500</ele>
        <time>2014-08-09T08:52:04Z</time>
      </trkpt>
      <trkpt lat="45.21833" lon="6.23057">
        <ele>1501</ele>
        <time>2014-08-09T08:52:07Z</time>
      </trkpt>
      <trkpt lat="45.21827" lon="6.23074">
        <ele>1500</ele>
        <time>2014-08-09T08:52:10Z</time>
      </trkpt>
      <trkpt lat="45.21822" lon="6.23089">
        <ele>1501</ele>
        <time>2014-08-09T08:52:13Z</time>
      </trkpt>
      <trkpt lat="45.21818" lon="6.23107">
        <ele>1504</ele>
        <time>2014-08-09T08:52:16Z</time>
      </trkpt>
      <trkpt lat="45.21813" lon="6.23123">
        <ele>1505</ele>
        <time>2014-08-09T08:52:19Z</time>
      </trkpt>
      <trkpt lat="45.21807" lon="6.23137">
        <ele>1505</ele>
        <time>2014-08-09T08:52:22Z</time>
      </trkpt>
      <trkpt lat="45.21806" lon="6.23153">
        <ele>1504</ele>
        <time>2014-08-09T08:52:25Z</time>
      </trkpt>
      <trkpt lat="45.21804" lon="6.23173">
        <ele>1504</ele>
        <time>2014-08-09T08:52:28Z</time>
      </trkpt>
      <trkpt lat="45.21808" lon="6.2319">
        <ele>1504</ele>
        <time>2014-08-09T08:52:31Z</time>
      </trkpt>
      <trkpt lat="45.21806" lon="6.23206">
        <ele>1504</ele>
        <time>2014-08-09T08:52:34Z</time>
      </trkpt>
      <trkpt lat="45.21809" lon="6.2322">
        <ele>1504</ele>
        <time>2014-08-09T08:52:37Z</time>
      </trkpt>
      <trkpt lat="45.21816" lon="6.2323">
        <ele>1502</ele>
        <time>2014-08-09T08:52:42Z</time>
      </trkpt>
      <trkpt lat="45.21804" lon="6.23234">
        <ele>1504</ele>
        <time>2014-08-09T08:52:46Z</time>
      </trkpt>
      <trkpt lat="45.21794" lon="6.2324">
        <ele>1506</ele>
        <time>2014-08-09T08:52:51Z</time>
      </trkpt>
      <trkpt lat="45.21787" lon="6.23249">
        <ele>1507</ele>
        <time>2014-08-09T08:52:56Z</time>
      </trkpt>
      <trkpt lat="45.21777" lon="6.23251">
        <ele>1508</ele>
        <time>2014-08-09T08:52:59Z</time>
      </trkpt>
      <trkpt lat="45.21768" lon="6.23259">
        <ele>1509</ele>
        <time>2014-08-09T08:53:15Z</time>
      </trkpt>
      <trkpt lat="45.21759" lon="6.23261">
        <ele>1511</ele>
        <time>2014-08-09T08:53:21Z</time>
      </trkpt>
      <trkpt lat="45.21756" lon="6.23248">
        <ele>1513</ele>
        <time>2014-08-09T08:54:02Z</time>
      </trkpt>
      <trkpt lat="45.21754" lon="6.23234">
        <ele>1511</ele>
        <time>2014-08-09T08:54:12Z</time>
      </trkpt>
      <trkpt lat="45.21747" lon="6.23224">
        <ele>1530</ele>
        <time>2014-08-09T08:54:44Z</time>
      </trkpt>
      <trkpt lat="45.21749" lon="6.2321">
        <ele>1533</ele>
        <time>2014-08-09T08:55:09Z</time>
      </trkpt>
      <trkpt lat="45.21745" lon="6.23196">
        <ele>1533</ele>
        <time>2014-08-09T08:55:27Z</time>
      </trkpt>
      <trkpt lat="45.21735" lon="6.23201">
        <ele>1535</ele>
        <time>2014-08-09T08:55:55Z</time>
      </trkpt>
      <trkpt lat="45.21728" lon="6.23209">
        <ele>1536</ele>
        <time>2014-08-09T08:56:04Z</time>
      </trkpt>
      <trkpt lat="45.2172" lon="6.23218">
        <ele>1538</ele>
        <time>2014-08-09T08:56:13Z</time>
      </trkpt>
      <trkpt lat="45.2172" lon="6.23202">
        <ele>1538</ele>
        <time>2014-08-09T08:56:40Z</time>
      </trkpt>
      <trkpt lat="45.21717" lon="6.23189">
        <ele>1539</ele>
        <time>2014-08-09T08:56:48Z</time>
      </trkpt>
      <trkpt lat="45.21721" lon="6.23176">
        <ele>1537</ele>
        <time>2014-08-09T08:57:08Z</time>
      </trkpt>
      <trkpt lat="45.21725" lon="6.23164">
        <ele>1534</ele>
        <time>2014-08-09T08:57:17Z</time>
      </trkpt>
      <trkpt lat="45.21716" lon="6.23169">
        <ele>1539</ele>
        <time>2014-08-09T08:57:31Z</time>
      </trkpt>
      <trkpt lat="45.2171" lon="6.23179">
        <ele>1541</ele>
        <time>2014-08-09T08:57:46Z</time>
      </trkpt>
      <trkpt lat="45.21702" lon="6.23187">
        <ele>1544</ele>
        <time>2014-08-09T08:57:57Z</time>
      </trkpt>
      <trkpt lat="45.21697" lon="6.23177">
        <ele>1547</ele>
        <time>2014-08-09T08:58:20Z</time>
      </trkpt>
      <trkpt lat="45.21696" lon="6.23163">
        <ele>1546</ele>
        <time>2014-08-09T08:58:29Z</time>
      </trkpt>
      <trkpt lat="45.21688" lon="6.23172">
        <ele>1551</ele>
        <time>2014-08-09T08:59:14Z</time>
      </trkpt>
      <trkpt lat="45.21679" lon="6.23178">
        <ele>1554</ele>
        <time>2014-08-09T08:59:24Z</time>
      </trkpt>
      <trkpt lat="45.21672" lon="6.23169">
        <ele>1560</ele>
        <time>2014-08-09T08:59:37Z</time>
      </trkpt>
      <trkpt lat="45.21665" lon="6.23159">
        <ele>1565</ele>
        <time>2014-08-09T08:59:44Z</time>
      </trkpt>
      <trkpt lat="45.21659" lon="6.23148">
        <ele>1564</ele>
        <time>2014-08-09T08:59:53Z</time>
      </trkpt>
      <trkpt lat="45.21658" lon="6.23134">
        <ele>1563</ele>
        <time>2014-08-09T09:00:04Z</time>
      </trkpt>
      <trkpt lat="45.21651" lon="6.23143">
        <ele>1564</ele>
        <time>2014-08-09T09:00:42Z</time>
      </trkpt>
      <trkpt lat="45.21646" lon="6.23155">
        <ele>1566</ele>
        <time>2014-08-09T09:00:56Z</time>
      </trkpt>
      <trkpt lat="45.21641" lon="6.23168">
        <ele>1576</ele>
        <time>2014-08-09T09:01:09Z</time>
      </trkpt>
      <trkpt lat="45.21637" lon="6.2318">
        <ele>1578</ele>
        <time>2014-08-09T09:01:23Z</time>
      </trkpt>
      <trkpt lat="45.21634" lon="6.23193">
        <ele>1579</ele>
        <time>2014-08-09T09:01:37Z</time>
      </trkpt>
      <trkpt lat="45.21637" lon="6.23205">
        <ele>1579</ele>
        <time>2014-08-09T09:01:54Z</time>
      </trkpt>
      <trkpt lat="45.21634" lon="6.23219">
        <ele>1580</ele>
        <time>2014-08-09T09:02:09Z</time>
      </trkpt>
      <trkpt lat="45.21633" lon="6.23232">
        <ele>1581</ele>
        <time>2014-08-09T09:02:30Z</time>
      </trkpt>
      <trkpt lat="45.21636" lon="6.23245">
        <ele>1580</ele>
        <time>2014-08-09T09:02:43Z</time>
      </trkpt>
      <trkpt lat="45.21628" lon="6.23256">
        <ele>1589</ele>
        <time>2014-08-09T09:02:53Z</time>
      </trkpt>
      <trkpt lat="45.21632" lon="6.23267">
        <ele>1588</ele>
        <time>2014-08-09T09:03:04Z</time>
      </trkpt>
      <trkpt lat="45.21632" lon="6.23282">
        <ele>1590</ele>
        <time>2014-08-09T09:03:18Z</time>
      </trkpt>
      <trkpt lat="45.21624" lon="6.23292">
        <ele>1593</ele>
        <time>2014-08-09T09:03:26Z</time>
      </trkpt>
      <trkpt lat="45.21625" lon="6.23305">
        <ele>1593</ele>
        <time>2014-08-09T09:03:31Z</time>
      </trkpt>
      <trkpt lat="45.21628" lon="6.23319">
        <ele>1593</ele>
        <time>2014-08-09T09:03:35Z</time>
      </trkpt>
      <trkpt lat="45.21636" lon="6.23332">
        <ele>1589</ele>
        <time>2014-08-09T09:03:38Z</time>
      </trkpt>
      <trkpt lat="45.21638" lon="6.23347">
        <ele>1595</ele>
        <time>2014-08-09T09:03:41Z</time>
      </trkpt>
      <trkpt lat="45.21641" lon="6.23363">
        <ele>1596</ele>
        <time>2014-08-09T09:03:44Z</time>
      </trkpt>
      <trkpt lat="45.21644" lon="6.2338">
        <ele>1596</ele>
        <time>2014-08-09T09:03:48Z</time>
      </trkpt>
      <trkpt lat="45.21648" lon="6.23392">
        <ele>1594</ele>
        <time>2014-08-09T09:03:51Z</time>
      </trkpt>
      <trkpt lat="45.21653" lon="6.23406">
        <ele>1588</ele>
        <time>2014-08-09T09:03:56Z</time>
      </trkpt>
      <trkpt lat="45.2166" lon="6.23416">
        <ele>1581</ele>
        <time>2014-08-09T09:03:59Z</time>
      </trkpt>
      <trkpt lat="45.21664" lon="6.2343">
        <ele>1588</ele>
        <time>2014-08-09T09:04:04Z</time>
      </trkpt>
      <trkpt lat="45.21669" lon="6.23442">
        <ele>1562</ele>
        <time>2014-08-09T09:04:12Z</time>
      </trkpt>
      <trkpt lat="45.21671" lon="6.23457">
        <ele>1561</ele>
        <time>2014-08-09T09:04:23Z</time>
      </trkpt>
      <trkpt lat="45.21672" lon="6.2347">
        <ele>1562</ele>
        <time>2014-08-09T09:04:31Z</time>
      </trkpt>
      <trkpt lat="45.21668" lon="6.23484">
        <ele>1566</ele>
        <time>2014-08-09T09:04:37Z</time>
      </trkpt>
      <trkpt lat="45.21674" lon="6.23496">
        <ele>1569</ele>
        <time>2014-08-09T09:04:41Z</time>
      </trkpt>
      <trkpt lat="45.21674" lon="6.23511">
        <ele>1568</ele>
        <time>2014-08-09T09:04:45Z</time>
      </trkpt>
      <trkpt lat="45.21678" lon="6.23526">
        <ele>1564</ele>
        <time>2014-08-09T09:04:48Z</time>
      </trkpt>
      <trkpt lat="45.21684" lon="6.23537">
        <ele>1562</ele>
        <time>2014-08-09T09:04:50Z</time>
      </trkpt>
      <trkpt lat="45.21696" lon="6.23545">
        <ele>1560</ele>
        <time>2014-08-09T09:04:52Z</time>
      </trkpt>
      <trkpt lat="45.21701" lon="6.23557">
        <ele>1559</ele>
        <time>2014-08-09T09:04:56Z</time>
      </trkpt>
      <trkpt lat="45.21699" lon="6.23571">
        <ele>1560</ele>
        <time>2014-08-09T09:05:00Z</time>
      </trkpt>
      <trkpt lat="45.21695" lon="6.23591">
        <ele>1561</ele>
        <time>2014-08-09T09:05:04Z</time>
      </trkpt>
      <trkpt lat="45.2169" lon="6.23602">
        <ele>1562</ele>
        <time>2014-08-09T09:05:06Z</time>
      </trkpt>
      <trkpt lat="45.21684" lon="6.23618">
        <ele>1562</ele>
        <time>2014-08-09T09:05:09Z</time>
      </trkpt>
      <trkpt lat="45.2169" lon="6.23632">
        <ele>1560</ele>
        <time>2014-08-09T09:05:13Z</time>
      </trkpt>
      <trkpt lat="45.21691" lon="6.23646">
        <ele>1560</ele>
        <time>2014-08-09T09:05:16Z</time>
      </trkpt>
      <trkpt lat="45.21691" lon="6.23663">
        <ele>1561</ele>
        <time>2014-08-09T09:05:20Z</time>
      </trkpt>
      <trkpt lat="45.21695" lon="6.23675">
        <ele>1556</ele>
        <time>2014-08-09T09:05:23Z</time>
      </trkpt>
      <trkpt lat="45.21698" lon="6.23688">
        <ele>1554</ele>
        <time>2014-08-09T09:05:26Z</time>
      </trkpt>
      <trkpt lat="45.217" lon="6.23702">
        <ele>1552</ele>
        <time>2014-08-09T09:05:30Z</time>
      </trkpt>
      <trkpt lat="45.21702" lon="6.23717">
        <ele>1551</ele>
        <time>2014-08-09T09:05:34Z</time>
      </trkpt>
      <trkpt lat="45.21707" lon="6.23731">
        <ele>1549</ele>
        <time>2014-08-09T09:05:38Z</time>
      </trkpt>
      <trkpt lat="45.21707" lon="6.23745">
        <ele>1549</ele>
        <time>2014-08-09T09:05:44Z</time>
      </trkpt>
      <trkpt lat="45.21702" lon="6.23759">
        <ele>1545</ele>
        <time>2014-08-09T09:05:48Z</time>
      </trkpt>
      <trkpt lat="45.21694" lon="6.23767">
        <ele>1547</ele>
        <time>2014-08-09T09:05:51Z</time>
      </trkpt>
      <trkpt lat="45.21688" lon="6.2378">
        <ele>1546</ele>
        <time>2014-08-09T09:05:54Z</time>
      </trkpt>
      <trkpt lat="45.21686" lon="6.23794">
        <ele>1545</ele>
        <time>2014-08-09T09:05:59Z</time>
      </trkpt>
      <trkpt lat="45.21685" lon="6.23809">
        <ele>1545</ele>
        <time>2014-08-09T09:06:05Z</time>
      </trkpt>
      <trkpt lat="45.21687" lon="6.23823">
        <ele>1545</ele>
        <time>2014-08-09T09:06:09Z</time>
      </trkpt>
      <trkpt lat="45.21682" lon="6.23838">
        <ele>1540</ele>
        <time>2014-08-09T09:06:13Z</time>
      </trkpt>
      <trkpt lat="45.21677" lon="6.23849">
        <ele>1538</ele>
        <time>2014-08-09T09:06:17Z</time>
      </trkpt>
      <trkpt lat="45.21674" lon="6.23866">
        <ele>1533</ele>
        <time>2014-08-09T09:06:24Z</time>
      </trkpt>
      <trkpt lat="45.2167" lon="6.23877">
        <ele>1530</ele>
        <time>2014-08-09T09:06:27Z</time>
      </trkpt>
      <trkpt lat="45.21662" lon="6.2389">
        <ele>1552</ele>
        <time>2014-08-09T09:06:30Z</time>
      </trkpt>
      <trkpt lat="45.21657" lon="6.23903">
        <ele>1546</ele>
        <time>2014-08-09T09:06:33Z</time>
      </trkpt>
      <trkpt lat="45.21654" lon="6.23918">
        <ele>1536</ele>
        <time>2014-08-09T09:06:36Z</time>
      </trkpt>
      <trkpt lat="45.21652" lon="6.23932">
        <ele>1538</ele>
        <time>2014-08-09T09:06:39Z</time>
      </trkpt>
      <trkpt lat="45.21651" lon="6.23948">
        <ele>1539</ele>
        <time>2014-08-09T09:06:43Z</time>
      </trkpt>
      <trkpt lat="45.21649" lon="6.23964">
        <ele>1538</ele>
        <time>2014-08-09T09:06:47Z</time>
      </trkpt>
      <trkpt lat="45.21647" lon="6.23978">
        <ele>1535</ele>
        <time>2014-08-09T09:06:51Z</time>
      </trkpt>
      <trkpt lat="45.21648" lon="6.23994">
        <ele>1531</ele>
        <time>2014-08-09T09:06:56Z</time>
      </trkpt>
      <trkpt lat="45.21643" lon="6.24006">
        <ele>1524</ele>
        <time>2014-08-09T09:06:59Z</time>
      </trkpt>
      <trkpt lat="45.21641" lon="6.2402">
        <ele>1524</ele>
        <time>2014-08-09T09:07:02Z</time>
      </trkpt>
      <trkpt lat="45.21634" lon="6.2403">
        <ele>1525</ele>
        <time>2014-08-09T09:07:06Z</time>
      </trkpt>
      <trkpt lat="45.21624" lon="6.24031">
        <ele>1527</ele>
        <time>2014-08-09T09:07:12Z</time>
      </trkpt>
      <trkpt lat="45.21622" lon="6.24044">
        <ele>1526</ele>
        <time>2014-08-09T09:07:18Z</time>
      </trkpt>
      <trkpt lat="45.21624" lon="6.24061">
        <ele>1524</ele>
        <time>2014-08-09T09:07:23Z</time>
      </trkpt>
      <trkpt lat="45.21625" lon="6.24075">
        <ele>1523</ele>
        <time>2014-08-09T09:07:26Z</time>
      </trkpt>
      <trkpt lat="45.21619" lon="6.24089">
        <ele>1512</ele>
        <time>2014-08-09T09:07:29Z</time>
      </trkpt>
      <trkpt lat="45.21617" lon="6.24103">
        <ele>1511</ele>
        <time>2014-08-09T09:07:32Z</time>
      </trkpt>
      <trkpt lat="45.21616" lon="6.24118">
        <ele>1508</ele>
        <time>2014-08-09T09:07:36Z</time>
      </trkpt>
      <trkpt lat="45.21611" lon="6.24132">
        <ele>1507</ele>
        <time>2014-08-09T09:07:39Z</time>
      </trkpt>
      <trkpt lat="45.21606" lon="6.24145">
        <ele>1506</ele>
        <time>2014-08-09T09:07:43Z</time>
      </trkpt>
      <trkpt lat="45.21603" lon="6.24158">
        <ele>1505</ele>
        <time>2014-08-09T09:07:48Z</time>
      </trkpt>
      <trkpt lat="45.21602" lon="6.24173">
        <ele>1496</ele>
        <time>2014-08-09T09:07:54Z</time>
      </trkpt>
      <trkpt lat="45.21603" lon="6.24186">
        <ele>1494</ele>
        <time>2014-08-09T09:08:10Z</time>
      </trkpt>
      <trkpt lat="45.21601" lon="6.242">
        <ele>1493</ele>
        <time>2014-08-09T09:08:23Z</time>
      </trkpt>
      <trkpt lat="45.21594" lon="6.24208">
        <ele>1492</ele>
        <time>2014-08-09T09:08:28Z</time>
      </trkpt>
      <trkpt lat="45.21604" lon="6.24208">
        <ele>1491</ele>
        <time>2014-08-09T09:08:35Z</time>
      </trkpt>
      <trkpt lat="45.21592" lon="6.2421">
        <ele>1492</ele>
        <time>2014-08-09T09:08:49Z</time>
      </trkpt>
      <trkpt lat="45.21582" lon="6.24216">
        <ele>1509</ele>
        <time>2014-08-09T09:08:54Z</time>
      </trkpt>
      <trkpt lat="45.21582" lon="6.24229">
        <ele>1505</ele>
        <time>2014-08-09T09:09:25Z</time>
      </trkpt>
      <trkpt lat="45.21578" lon="6.24242">
        <ele>1500</ele>
        <time>2014-08-09T09:09:57Z</time>
      </trkpt>
      <trkpt lat="45.21571" lon="6.24253">
        <ele>1498</ele>
        <time>2014-08-09T09:10:18Z</time>
      </trkpt>
      <trkpt lat="45.21563" lon="6.24257">
        <ele>1501</ele>
        <time>2014-08-09T09:10:31Z</time>
      </trkpt>
      <trkpt lat="45.21553" lon="6.24256">
        <ele>1504</ele>
        <time>2014-08-09T09:11:11Z</time>
      </trkpt>
      <trkpt lat="45.21546" lon="6.24265">
        <ele>1505</ele>
        <time>2014-08-09T09:11:37Z</time>
      </trkpt>
      <trkpt lat="45.21537" lon="6.24271">
        <ele>1507</ele>
        <time>2014-08-09T09:11:55Z</time>
      </trkpt>
      <trkpt lat="45.21533" lon="6.24283">
        <ele>1507</ele>
        <time>2014-08-09T09:12:24Z</time>
      </trkpt>
      <trkpt lat="45.21523" lon="6.24286">
        <ele>1509</ele>
        <time>2014-08-09T09:12:36Z</time>
      </trkpt>
      <trkpt lat="45.21512" lon="6.24291">
        <ele>1510</ele>
        <time>2014-08-09T09:12:49Z</time>
      </trkpt>
      <trkpt lat="45.21502" lon="6.24291">
        <ele>1511</ele>
        <time>2014-08-09T09:13:03Z</time>
      </trkpt>
      <trkpt lat="45.21495" lon="6.24299">
        <ele>1532</ele>
        <time>2014-08-09T09:13:21Z</time>
      </trkpt>
      <trkpt lat="45.21486" lon="6.24306">
        <ele>1532</ele>
        <time>2014-08-09T09:13:44Z</time>
      </trkpt>
      <trkpt lat="45.21477" lon="6.24314">
        <ele>1532</ele>
        <time>2014-08-09T09:13:56Z</time>
      </trkpt>
      <trkpt lat="45.21469" lon="6.24321">
        <ele>1534</ele>
        <time>2014-08-09T09:14:21Z</time>
      </trkpt>
      <trkpt lat="45.21462" lon="6.24329">
        <ele>1536</ele>
        <time>2014-08-09T09:15:03Z</time>
      </trkpt>
      <trkpt lat="45.21451" lon="6.24331">
        <ele>1540</ele>
        <time>2014-08-09T09:15:15Z</time>
      </trkpt>
      <trkpt lat="45.21448" lon="6.24344">
        <ele>1533</ele>
        <time>2014-08-09T09:15:47Z</time>
      </trkpt>
      <trkpt lat="45.21449" lon="6.24357">
        <ele>1531</ele>
        <time>2014-08-09T09:16:00Z</time>
      </trkpt>
      <trkpt lat="45.21444" lon="6.24369">
        <ele>1531</ele>
        <time>2014-08-09T09:16:12Z</time>
      </trkpt>
      <trkpt lat="45.21435" lon="6.24374">
        <ele>1532</ele>
        <time>2014-08-09T09:16:20Z</time>
      </trkpt>
      <trkpt lat="45.2143" lon="6.24388">
        <ele>1531</ele>
        <time>2014-08-09T09:16:28Z</time>
      </trkpt>
      <trkpt lat="45.21424" lon="6.24403">
        <ele>1532</ele>
        <time>2014-08-09T09:16:37Z</time>
      </trkpt>
      <trkpt lat="45.21418" lon="6.24415">
        <ele>1534</ele>
        <time>2014-08-09T09:16:42Z</time>
      </trkpt>
      <trkpt lat="45.21413" lon="6.24427">
        <ele>1539</ele>
        <time>2014-08-09T09:16:48Z</time>
      </trkpt>
      <trkpt lat="45.21405" lon="6.24441">
        <ele>1541</ele>
        <time>2014-08-09T09:16:54Z</time>
      </trkpt>
      <trkpt lat="45.21399" lon="6.24452">
        <ele>1542</ele>
        <time>2014-08-09T09:16:58Z</time>
      </trkpt>
      <trkpt lat="45.21392" lon="6.24462">
        <ele>1542</ele>
        <time>2014-08-09T09:17:02Z</time>
      </trkpt>
      <trkpt lat="45.21386" lon="6.24472">
        <ele>1542</ele>
        <time>2014-08-09T09:17:07Z</time>
      </trkpt>
      <trkpt lat="45.21382" lon="6.24484">
        <ele>1542</ele>
        <time>2014-08-09T09:17:13Z</time>
      </trkpt>
      <trkpt lat="45.21375" lon="6.24496">
        <ele>1542</ele>
        <time>2014-08-09T09:17:19Z</time>
      </trkpt>
      <trkpt lat="45.21368" lon="6.24508">
        <ele>1531</ele>
        <time>2014-08-09T09:17:24Z</time>
      </trkpt>
      <trkpt lat="45.21361" lon="6.2452">
        <ele>1531</ele>
        <time>2014-08-09T09:17:28Z</time>
      </trkpt>
      <trkpt lat="45.21355" lon="6.2453">
        <ele>1530</ele>
        <time>2014-08-09T09:17:32Z</time>
      </trkpt>
      <trkpt lat="45.2135" lon="6.24542">
        <ele>1529</ele>
        <time>2014-08-09T09:17:36Z</time>
      </trkpt>
      <trkpt lat="45.21345" lon="6.24554">
        <ele>1527</ele>
        <time>2014-08-09T09:17:40Z</time>
      </trkpt>
      <trkpt lat="45.21342" lon="6.24567">
        <ele>1525</ele>
        <time>2014-08-09T09:17:44Z</time>
      </trkpt>
      <trkpt lat="45.21342" lon="6.24582">
        <ele>1523</ele>
        <time>2014-08-09T09:17:49Z</time>
      </trkpt>
      <trkpt lat="45.21347" lon="6.24593">
        <ele>1513</ele>
        <time>2014-08-09T09:17:58Z</time>
      </trkpt>
      <trkpt lat="45.21347" lon="6.24607">
        <ele>1510</ele>
        <time>2014-08-09T09:18:11Z</time>
      </trkpt>
      <trkpt lat="45.2135" lon="6.24619">
        <ele>1506</ele>
        <time>2014-08-09T09:18:29Z</time>
      </trkpt>
      <trkpt lat="45.21351" lon="6.24634">
        <ele>1503</ele>
        <time>2014-08-09T09:18:41Z</time>
      </trkpt>
      <trkpt lat="45.21351" lon="6.24647">
        <ele>1500</ele>
        <time>2014-08-09T09:18:53Z</time>
      </trkpt>
      <trkpt lat="45.21352" lon="6.24662">
        <ele>1497</ele>
        <time>2014-08-09T09:19:03Z</time>
      </trkpt>
      <trkpt lat="45.21354" lon="6.24675">
        <ele>1485</ele>
        <time>2014-08-09T09:19:13Z</time>
      </trkpt>
      <trkpt lat="45.21353" lon="6.24688">
        <ele>1484</ele>
        <time>2014-08-09T09:19:28Z</time>
      </trkpt>
      <trkpt lat="45.21356" lon="6.24701">
        <ele>1483</ele>
        <time>2014-08-09T09:19:37Z</time>
      </trkpt>
      <trkpt lat="45.2136" lon="6.24714">
        <ele>1481</ele>
        <time>2014-08-09T09:19:48Z</time>
      </trkpt>
      <trkpt lat="45.21363" lon="6.24726">
        <ele>1480</ele>
        <time>2014-08-09T09:20:01Z</time>
      </trkpt>
      <trkpt lat="45.21367" lon="6.24741">
        <ele>1478</ele>
        <time>2014-08-09T09:20:11Z</time>
      </trkpt>
      <trkpt lat="45.21369" lon="6.24754">
        <ele>1468</ele>
        <time>2014-08-09T09:20:15Z</time>
      </trkpt>
      <trkpt lat="45.21371" lon="6.24768">
        <ele>1468</ele>
        <time>2014-08-09T09:20:20Z</time>
      </trkpt>
      <trkpt lat="45.21375" lon="6.2478">
        <ele>1467</ele>
        <time>2014-08-09T09:20:24Z</time>
      </trkpt>
      <trkpt lat="45.21378" lon="6.24793">
        <ele>1466</ele>
        <time>2014-08-09T09:20:38Z</time>
      </trkpt>
      <trkpt lat="45.21378" lon="6.24807">
        <ele>1465</ele>
        <time>2014-08-09T09:20:45Z</time>
      </trkpt>
      <trkpt lat="45.2138" lon="6.24821">
        <ele>1464</ele>
        <time>2014-08-09T09:20:49Z</time>
      </trkpt>
      <trkpt lat="45.21371" lon="6.24827">
        <ele>1465</ele>
        <time>2014-08-09T09:21:03Z</time>
      </trkpt>
      <trkpt lat="45.21364" lon="6.24818">
        <ele>1465</ele>
        <time>2014-08-09T09:21:12Z</time>
      </trkpt>
      <trkpt lat="45.21358" lon="6.24806">
        <ele>1466</ele>
        <time>2014-08-09T09:21:32Z</time>
      </trkpt>
      <trkpt lat="45.21354" lon="6.24794">
        <ele>1467</ele>
        <time>2014-08-09T09:21:44Z</time>
      </trkpt>
      <trkpt lat="45.21348" lon="6.24782">
        <ele>1468</ele>
        <time>2014-08-09T09:21:55Z</time>
      </trkpt>
      <trkpt lat="45.21345" lon="6.24794">
        <ele>1467</ele>
        <time>2014-08-09T09:23:14Z</time>
      </trkpt>
      <trkpt lat="45.21335" lon="6.24795">
        <ele>1467</ele>
        <time>2014-08-09T09:23:36Z</time>
      </trkpt>
      <trkpt lat="45.21327" lon="6.24789">
        <ele>1481</ele>
        <time>2014-08-09T09:24:00Z</time>
      </trkpt>
      <trkpt lat="45.21318" lon="6.24785">
        <ele>1482</ele>
        <time>2014-08-09T09:24:38Z</time>
      </trkpt>
      <trkpt lat="45.2131" lon="6.24778">
        <ele>1483</ele>
        <time>2014-08-09T09:24:57Z</time>
      </trkpt>
      <trkpt lat="45.21302" lon="6.24772">
        <ele>1485</ele>
        <time>2014-08-09T09:25:13Z</time>
      </trkpt>
      <trkpt lat="45.21292" lon="6.24768">
        <ele>1487</ele>
        <time>2014-08-09T09:25:27Z</time>
      </trkpt>
      <trkpt lat="45.21283" lon="6.24768">
        <ele>1489</ele>
        <time>2014-08-09T09:25:42Z</time>
      </trkpt>
      <trkpt lat="45.21274" lon="6.24764">
        <ele>1492</ele>
        <time>2014-08-09T09:25:57Z</time>
      </trkpt>
      <trkpt lat="45.21265" lon="6.24757">
        <ele>1496</ele>
        <time>2014-08-09T09:26:11Z</time>
      </trkpt>
      <trkpt lat="45.21258" lon="6.24766">
        <ele>1496</ele>
        <time>2014-08-09T09:26:29Z</time>
      </trkpt>
      <trkpt lat="45.21254" lon="6.24778">
        <ele>1493</ele>
        <time>2014-08-09T09:26:35Z</time>
      </trkpt>
      <trkpt lat="45.21251" lon="6.24792">
        <ele>1492</ele>
        <time>2014-08-09T09:26:42Z</time>
      </trkpt>
      <trkpt lat="45.21247" lon="6.24804">
        <ele>1515</ele>
        <time>2014-08-09T09:26:51Z</time>
      </trkpt>
      <trkpt lat="45.21243" lon="6.24817">
        <ele>1511</ele>
        <time>2014-08-09T09:27:00Z</time>
      </trkpt>
      <trkpt lat="45.21239" lon="6.2483">
        <ele>1507</ele>
        <time>2014-08-09T09:27:11Z</time>
      </trkpt>
      <trkpt lat="45.21236" lon="6.24843">
        <ele>1506</ele>
        <time>2014-08-09T09:27:23Z</time>
      </trkpt>
      <trkpt lat="45.21232" lon="6.24855">
        <ele>1509</ele>
        <time>2014-08-09T09:27:33Z</time>
      </trkpt>
      <trkpt lat="45.21225" lon="6.24865">
        <ele>1511</ele>
        <time>2014-08-09T09:27:42Z</time>
      </trkpt>
      <trkpt lat="45.2122" lon="6.24877">
        <ele>1511</ele>
        <time>2014-08-09T09:27:52Z</time>
      </trkpt>
      <trkpt lat="45.21214" lon="6.24888">
        <ele>1512</ele>
        <time>2014-08-09T09:28:01Z</time>
      </trkpt>
      <trkpt lat="45.21207" lon="6.24898">
        <ele>1513</ele>
        <time>2014-08-09T09:28:09Z</time>
      </trkpt>
      <trkpt lat="45.21201" lon="6.24909">
        <ele>1514</ele>
        <time>2014-08-09T09:28:17Z</time>
      </trkpt>
      <trkpt lat="45.21194" lon="6.24921">
        <ele>1508</ele>
        <time>2014-08-09T09:28:23Z</time>
      </trkpt>
      <trkpt lat="45.21185" lon="6.24928">
        <ele>1511</ele>
        <time>2014-08-09T09:28:29Z</time>
      </trkpt>
      <trkpt lat="45.2118" lon="6.2494">
        <ele>1510</ele>
        <time>2014-08-09T09:28:34Z</time>
      </trkpt>
      <trkpt lat="45.21175" lon="6.24952">
        <ele>1508</ele>
        <time>2014-08-09T09:28:37Z</time>
      </trkpt>
      <trkpt lat="45.2117" lon="6.24964">
        <ele>1507</ele>
        <time>2014-08-09T09:28:41Z</time>
      </trkpt>
      <trkpt lat="45.21164" lon="6.24978">
        <ele>1528</ele>
        <time>2014-08-09T09:28:47Z</time>
      </trkpt>
      <trkpt lat="45.21163" lon="6.24991">
        <ele>1520</ele>
        <time>2014-08-09T09:28:51Z</time>
      </trkpt>
      <trkpt lat="45.21164" lon="6.25006">
        <ele>1515</ele>
        <time>2014-08-09T09:28:55Z</time>
      </trkpt>
      <trkpt lat="45.21163" lon="6.25022">
        <ele>1521</ele>
        <time>2014-08-09T09:28:59Z</time>
      </trkpt>
      <trkpt lat="45.21162" lon="6.25039">
        <ele>1522</ele>
        <time>2014-08-09T09:29:03Z</time>
      </trkpt>
      <trkpt lat="45.21157" lon="6.25051">
        <ele>1520</ele>
        <time>2014-08-09T09:29:07Z</time>
      </trkpt>
      <trkpt lat="45.21157" lon="6.25065">
        <ele>1516</ele>
        <time>2014-08-09T09:29:13Z</time>
      </trkpt>
      <trkpt lat="45.21154" lon="6.25077">
        <ele>1511</ele>
        <time>2014-08-09T09:29:24Z</time>
      </trkpt>
      <trkpt lat="45.21151" lon="6.25092">
        <ele>1510</ele>
        <time>2014-08-09T09:29:33Z</time>
      </trkpt>
      <trkpt lat="45.21148" lon="6.25104">
        <ele>1514</ele>
        <time>2014-08-09T09:29:40Z</time>
      </trkpt>
      <trkpt lat="45.21143" lon="6.25116">
        <ele>1516</ele>
        <time>2014-08-09T09:29:48Z</time>
      </trkpt>
      <trkpt lat="45.21138" lon="6.25128">
        <ele>1517</ele>
        <time>2014-08-09T09:29:57Z</time>
      </trkpt>
      <trkpt lat="45.21135" lon="6.2514">
        <ele>1517</ele>
        <time>2014-08-09T09:30:03Z</time>
      </trkpt>
      <trkpt lat="45.21139" lon="6.25153">
        <ele>1514</ele>
        <time>2014-08-09T09:30:13Z</time>
      </trkpt>
      <trkpt lat="45.21138" lon="6.25167">
        <ele>1509</ele>
        <time>2014-08-09T09:30:20Z</time>
      </trkpt>
      <trkpt lat="45.21135" lon="6.25182">
        <ele>1511</ele>
        <time>2014-08-09T09:30:25Z</time>
      </trkpt>
      <trkpt lat="45.2113" lon="6.25196">
        <ele>1512</ele>
        <time>2014-08-09T09:30:32Z</time>
      </trkpt>
      <trkpt lat="45.2113" lon="6.25211">
        <ele>1512</ele>
        <time>2014-08-09T09:30:35Z</time>
      </trkpt>
      <trkpt lat="45.21128" lon="6.25226">
        <ele>1511</ele>
        <time>2014-08-09T09:30:39Z</time>
      </trkpt>
      <trkpt lat="45.21128" lon="6.25242">
        <ele>1511</ele>
        <time>2014-08-09T09:30:43Z</time>
      </trkpt>
      <trkpt lat="45.21127" lon="6.25255">
        <ele>1505</ele>
        <time>2014-08-09T09:30:46Z</time>
      </trkpt>
      <trkpt lat="45.21126" lon="6.25271">
        <ele>1505</ele>
        <time>2014-08-09T09:30:50Z</time>
      </trkpt>
      <trkpt lat="45.21126" lon="6.25286">
        <ele>1504</ele>
        <time>2014-08-09T09:30:53Z</time>
      </trkpt>
      <trkpt lat="45.21127" lon="6.25301">
        <ele>1503</ele>
        <time>2014-08-09T09:30:56Z</time>
      </trkpt>
      <trkpt lat="45.21126" lon="6.25315">
        <ele>1503</ele>
        <time>2014-08-09T09:30:59Z</time>
      </trkpt>
      <trkpt lat="45.21124" lon="6.25327">
        <ele>1503</ele>
        <time>2014-08-09T09:31:02Z</time>
      </trkpt>
      <trkpt lat="45.2112" lon="6.2534">
        <ele>1495</ele>
        <time>2014-08-09T09:31:05Z</time>
      </trkpt>
      <trkpt lat="45.21116" lon="6.25355">
        <ele>1495</ele>
        <time>2014-08-09T09:31:08Z</time>
      </trkpt>
      <trkpt lat="45.21109" lon="6.25369">
        <ele>1495</ele>
        <time>2014-08-09T09:31:11Z</time>
      </trkpt>
      <trkpt lat="45.211" lon="6.25379">
        <ele>1495</ele>
        <time>2014-08-09T09:31:14Z</time>
      </trkpt>
      <trkpt lat="45.2109" lon="6.25386">
        <ele>1495</ele>
        <time>2014-08-09T09:31:17Z</time>
      </trkpt>
      <trkpt lat="45.2108" lon="6.25394">
        <ele>1513</ele>
        <time>2014-08-09T09:31:20Z</time>
      </trkpt>
      <trkpt lat="45.21071" lon="6.25397">
        <ele>1513</ele>
        <time>2014-08-09T09:31:23Z</time>
      </trkpt>
      <trkpt lat="45.21061" lon="6.254">
        <ele>1515</ele>
        <time>2014-08-09T09:31:26Z</time>
      </trkpt>
      <trkpt lat="45.21051" lon="6.2541">
        <ele>1516</ele>
        <time>2014-08-09T09:31:30Z</time>
      </trkpt>
      <trkpt lat="45.21046" lon="6.25422">
        <ele>1500</ele>
        <time>2014-08-09T09:31:33Z</time>
      </trkpt>
      <trkpt lat="45.21044" lon="6.25435">
        <ele>1499</ele>
        <time>2014-08-09T09:31:35Z</time>
      </trkpt>
      <trkpt lat="45.21044" lon="6.25451">
        <ele>1497</ele>
        <time>2014-08-09T09:31:38Z</time>
      </trkpt>
      <trkpt lat="45.21036" lon="6.2546">
        <ele>1496</ele>
        <time>2014-08-09T09:31:42Z</time>
      </trkpt>
      <trkpt lat="45.21027" lon="6.25464">
        <ele>1497</ele>
        <time>2014-08-09T09:31:45Z</time>
      </trkpt>
      <trkpt lat="45.21015" lon="6.2547">
        <ele>1497</ele>
        <time>2014-08-09T09:31:49Z</time>
      </trkpt>
      <trkpt lat="45.21004" lon="6.25476">
        <ele>1497</ele>
        <time>2014-08-09T09:31:52Z</time>
      </trkpt>
      <trkpt lat="45.20994" lon="6.25485">
        <ele>1506</ele>
        <time>2014-08-09T09:31:56Z</time>
      </trkpt>
      <trkpt lat="45.20982" lon="6.25488">
        <ele>1509</ele>
        <time>2014-08-09T09:32:00Z</time>
      </trkpt>
      <trkpt lat="45.20971" lon="6.25489">
        <ele>1512</ele>
        <time>2014-08-09T09:32:04Z</time>
      </trkpt>
      <trkpt lat="45.20964" lon="6.25499">
        <ele>1513</ele>
        <time>2014-08-09T09:32:07Z</time>
      </trkpt>
      <trkpt lat="45.20959" lon="6.25512">
        <ele>1497</ele>
        <time>2014-08-09T09:32:11Z</time>
      </trkpt>
      <trkpt lat="45.2095" lon="6.25521">
        <ele>1497</ele>
        <time>2014-08-09T09:32:14Z</time>
      </trkpt>
      <trkpt lat="45.2094" lon="6.25527">
        <ele>1498</ele>
        <time>2014-08-09T09:32:20Z</time>
      </trkpt>
      <trkpt lat="45.20931" lon="6.25535">
        <ele>1498</ele>
        <time>2014-08-09T09:32:28Z</time>
      </trkpt>
      <trkpt lat="45.20923" lon="6.25542">
        <ele>1497</ele>
        <time>2014-08-09T09:32:35Z</time>
      </trkpt>
      <trkpt lat="45.20914" lon="6.25547">
        <ele>1511</ele>
        <time>2014-08-09T09:32:47Z</time>
      </trkpt>
      <trkpt lat="45.20907" lon="6.25556">
        <ele>1510</ele>
        <time>2014-08-09T09:33:02Z</time>
      </trkpt>
      <trkpt lat="45.20899" lon="6.25563">
        <ele>1509</ele>
        <time>2014-08-09T09:33:12Z</time>
      </trkpt>
      <trkpt lat="45.20888" lon="6.25568">
        <ele>1511</ele>
        <time>2014-08-09T09:33:21Z</time>
      </trkpt>
      <trkpt lat="45.20878" lon="6.25571">
        <ele>1513</ele>
        <time>2014-08-09T09:33:26Z</time>
      </trkpt>
      <trkpt lat="45.20869" lon="6.25578">
        <ele>1514</ele>
        <time>2014-08-09T09:33:36Z</time>
      </trkpt>
      <trkpt lat="45.20863" lon="6.25589">
        <ele>1501</ele>
        <time>2014-08-09T09:33:43Z</time>
      </trkpt>
      <trkpt lat="45.20857" lon="6.25598">
        <ele>1502</ele>
        <time>2014-08-09T09:33:49Z</time>
      </trkpt>
      <trkpt lat="45.20848" lon="6.25605">
        <ele>1503</ele>
        <time>2014-08-09T09:33:56Z</time>
      </trkpt>
      <trkpt lat="45.20839" lon="6.25612">
        <ele>1502</ele>
        <time>2014-08-09T09:34:01Z</time>
      </trkpt>
      <trkpt lat="45.2083" lon="6.25623">
        <ele>1514</ele>
        <time>2014-08-09T09:34:06Z</time>
      </trkpt>
      <trkpt lat="45.20822" lon="6.25632">
        <ele>1513</ele>
        <time>2014-08-09T09:34:10Z</time>
      </trkpt>
      <trkpt lat="45.20813" lon="6.25639">
        <ele>1513</ele>
        <time>2014-08-09T09:34:16Z</time>
      </trkpt>
      <trkpt lat="45.20804" lon="6.25643">
        <ele>1514</ele>
        <time>2014-08-09T09:34:21Z</time>
      </trkpt>
      <trkpt lat="45.20796" lon="6.25649">
        <ele>1515</ele>
        <time>2014-08-09T09:34:27Z</time>
      </trkpt>
      <trkpt lat="45.20786" lon="6.25654">
        <ele>1516</ele>
        <time>2014-08-09T09:34:33Z</time>
      </trkpt>
      <trkpt lat="45.20778" lon="6.25664">
        <ele>1517</ele>
        <time>2014-08-09T09:34:41Z</time>
      </trkpt>
      <trkpt lat="45.20768" lon="6.25666">
        <ele>1518</ele>
        <time>2014-08-09T09:35:01Z</time>
      </trkpt>
      <trkpt lat="45.20759" lon="6.2567">
        <ele>1512</ele>
        <time>2014-08-09T09:35:14Z</time>
      </trkpt>
      <trkpt lat="45.2075" lon="6.25674">
        <ele>1514</ele>
        <time>2014-08-09T09:35:21Z</time>
      </trkpt>
      <trkpt lat="45.20743" lon="6.25682">
        <ele>1520</ele>
        <time>2014-08-09T09:35:27Z</time>
      </trkpt>
      <trkpt lat="45.20735" lon="6.25693">
        <ele>1520</ele>
        <time>2014-08-09T09:35:33Z</time>
      </trkpt>
      <trkpt lat="45.20728" lon="6.25704">
        <ele>1520</ele>
        <time>2014-08-09T09:35:37Z</time>
      </trkpt>
      <trkpt lat="45.20723" lon="6.25719">
        <ele>1519</ele>
        <time>2014-08-09T09:35:41Z</time>
      </trkpt>
      <trkpt lat="45.20717" lon="6.25731">
        <ele>1519</ele>
        <time>2014-08-09T09:35:47Z</time>
      </trkpt>
      <trkpt lat="45.2071" lon="6.25744">
        <ele>1519</ele>
        <time>2014-08-09T09:35:52Z</time>
      </trkpt>
      <trkpt lat="45.20704" lon="6.25756">
        <ele>1512</ele>
        <time>2014-08-09T09:35:56Z</time>
      </trkpt>
      <trkpt lat="45.20698" lon="6.25766">
        <ele>1513</ele>
        <time>2014-08-09T09:36:03Z</time>
      </trkpt>
      <trkpt lat="45.2069" lon="6.25775">
        <ele>1514</ele>
        <time>2014-08-09T09:36:11Z</time>
      </trkpt>
      <trkpt lat="45.2068" lon="6.25782">
        <ele>1514</ele>
        <time>2014-08-09T09:36:17Z</time>
      </trkpt>
      <trkpt lat="45.2067" lon="6.25785">
        <ele>1514</ele>
        <time>2014-08-09T09:36:22Z</time>
      </trkpt>
      <trkpt lat="45.20659" lon="6.25786">
        <ele>1519</ele>
        <time>2014-08-09T09:36:27Z</time>
      </trkpt>
      <trkpt lat="45.20649" lon="6.25783">
        <ele>1519</ele>
        <time>2014-08-09T09:36:31Z</time>
      </trkpt>
      <trkpt lat="45.20639" lon="6.25776">
        <ele>1519</ele>
        <time>2014-08-09T09:36:35Z</time>
      </trkpt>
      <trkpt lat="45.2063" lon="6.25769">
        <ele>1519</ele>
        <time>2014-08-09T09:36:39Z</time>
      </trkpt>
      <trkpt lat="45.20622" lon="6.25759">
        <ele>1519</ele>
        <time>2014-08-09T09:36:43Z</time>
      </trkpt>
      <trkpt lat="45.20615" lon="6.25747">
        <ele>1527</ele>
        <time>2014-08-09T09:36:47Z</time>
      </trkpt>
      <trkpt lat="45.20609" lon="6.25734">
        <ele>1528</ele>
        <time>2014-08-09T09:36:51Z</time>
      </trkpt>
      <trkpt lat="45.206" lon="6.25725">
        <ele>1528</ele>
        <time>2014-08-09T09:36:55Z</time>
      </trkpt>
      <trkpt lat="45.20588" lon="6.25718">
        <ele>1528</ele>
        <time>2014-08-09T09:36:59Z</time>
      </trkpt>
      <trkpt lat="45.20576" lon="6.25709">
        <ele>1522</ele>
        <time>2014-08-09T09:37:02Z</time>
      </trkpt>
      <trkpt lat="45.20565" lon="6.25701">
        <ele>1522</ele>
        <time>2014-08-09T09:37:04Z</time>
      </trkpt>
      <trkpt lat="45.20554" lon="6.25691">
        <ele>1521</ele>
        <time>2014-08-09T09:37:06Z</time>
      </trkpt>
      <trkpt lat="45.2054" lon="6.25681">
        <ele>1520</ele>
        <time>2014-08-09T09:37:08Z</time>
      </trkpt>
      <trkpt lat="45.20526" lon="6.25669">
        <ele>1519</ele>
        <time>2014-08-09T09:37:10Z</time>
      </trkpt>
      <trkpt lat="45.20509" lon="6.25656">
        <ele>1524</ele>
        <time>2014-08-09T09:37:12Z</time>
      </trkpt>
      <trkpt lat="45.205" lon="6.25651">
        <ele>1525</ele>
        <time>2014-08-09T09:37:13Z</time>
      </trkpt>
      <trkpt lat="45.20491" lon="6.25644">
        <ele>1516</ele>
        <time>2014-08-09T09:37:14Z</time>
      </trkpt>
      <trkpt lat="45.20482" lon="6.25637">
        <ele>1515</ele>
        <time>2014-08-09T09:37:15Z</time>
      </trkpt>
      <trkpt lat="45.20472" lon="6.25631">
        <ele>1515</ele>
        <time>2014-08-09T09:37:16Z</time>
      </trkpt>
      <trkpt lat="45.20462" lon="6.25623">
        <ele>1514</ele>
        <time>2014-08-09T09:37:17Z</time>
      </trkpt>
      <trkpt lat="45.20452" lon="6.25616">
        <ele>1514</ele>
        <time>2014-08-09T09:37:18Z</time>
      </trkpt>
      <trkpt lat="45.20442" lon="6.25609">
        <ele>1513</ele>
        <time>2014-08-09T09:37:19Z</time>
      </trkpt>
      <trkpt lat="45.2043" lon="6.25602">
        <ele>1512</ele>
        <time>2014-08-09T09:37:20Z</time>
      </trkpt>
      <trkpt lat="45.2042" lon="6.25595">
        <ele>1512</ele>
        <time>2014-08-09T09:37:21Z</time>
      </trkpt>
      <trkpt lat="45.20409" lon="6.25588">
        <ele>1505</ele>
        <time>2014-08-09T09:37:22Z</time>
      </trkpt>
      <trkpt lat="45.20399" lon="6.25582">
        <ele>1510</ele>
        <time>2014-08-09T09:37:23Z</time>
      </trkpt>
      <trkpt lat="45.2039" lon="6.25576">
        <ele>1509</ele>
        <time>2014-08-09T09:37:24Z</time>
      </trkpt>
      <trkpt lat="45.20374" lon="6.25566">
        <ele>1507</ele>
        <time>2014-08-09T09:37:26Z</time>
      </trkpt>
      <trkpt lat="45.2036" lon="6.25559">
        <ele>1505</ele>
        <time>2014-08-09T09:37:28Z</time>
      </trkpt>
      <trkpt lat="45.20349" lon="6.25554">
        <ele>1505</ele>
        <time>2014-08-09T09:37:31Z</time>
      </trkpt>
      <trkpt lat="45.20351" lon="6.25573">
        <ele>1501</ele>
        <time>2014-08-09T09:37:35Z</time>
      </trkpt>
      <trkpt lat="45.20358" lon="6.2559">
        <ele>1492</ele>
        <time>2014-08-09T09:37:37Z</time>
      </trkpt>
      <trkpt lat="45.20366" lon="6.25606">
        <ele>1493</ele>
        <time>2014-08-09T09:37:39Z</time>
      </trkpt>
      <trkpt lat="45.20376" lon="6.25622">
        <ele>1492</ele>
        <time>2014-08-09T09:37:41Z</time>
      </trkpt>
      <trkpt lat="45.20386" lon="6.25639">
        <ele>1492</ele>
        <time>2014-08-09T09:37:43Z</time>
      </trkpt>
      <trkpt lat="45.20397" lon="6.25656">
        <ele>1492</ele>
        <time>2014-08-09T09:37:45Z</time>
      </trkpt>
      <trkpt lat="45.20408" lon="6.25669">
        <ele>1488</ele>
        <time>2014-08-09T09:37:47Z</time>
      </trkpt>
      <trkpt lat="45.20414" lon="6.2568">
        <ele>1487</ele>
        <time>2014-08-09T09:37:49Z</time>
      </trkpt>
      <trkpt lat="45.20423" lon="6.25695">
        <ele>1495</ele>
        <time>2014-08-09T09:37:52Z</time>
      </trkpt>
      <trkpt lat="45.2043" lon="6.25704">
        <ele>1495</ele>
        <time>2014-08-09T09:37:54Z</time>
      </trkpt>
      <trkpt lat="45.20438" lon="6.25719">
        <ele>1494</ele>
        <time>2014-08-09T09:37:57Z</time>
      </trkpt>
      <trkpt lat="45.20444" lon="6.25731">
        <ele>1493</ele>
        <time>2014-08-09T09:38:00Z</time>
      </trkpt>
      <trkpt lat="45.20449" lon="6.25743">
        <ele>1493</ele>
        <time>2014-08-09T09:38:03Z</time>
      </trkpt>
      <trkpt lat="45.20451" lon="6.25756">
        <ele>1481</ele>
        <time>2014-08-09T09:38:06Z</time>
      </trkpt>
      <trkpt lat="45.20453" lon="6.25775">
        <ele>1480</ele>
        <time>2014-08-09T09:38:09Z</time>
      </trkpt>
      <trkpt lat="45.20455" lon="6.25793">
        <ele>1478</ele>
        <time>2014-08-09T09:38:12Z</time>
      </trkpt>
      <trkpt lat="45.20456" lon="6.25808">
        <ele>1476</ele>
        <time>2014-08-09T09:38:14Z</time>
      </trkpt>
      <trkpt lat="45.20458" lon="6.25821">
        <ele>1475</ele>
        <time>2014-08-09T09:38:16Z</time>
      </trkpt>
      <trkpt lat="45.2046" lon="6.25841">
        <ele>1461</ele>
        <time>2014-08-09T09:38:19Z</time>
      </trkpt>
      <trkpt lat="45.20462" lon="6.25856">
        <ele>1460</ele>
        <time>2014-08-09T09:38:21Z</time>
      </trkpt>
      <trkpt lat="45.20465" lon="6.25874">
        <ele>1458</ele>
        <time>2014-08-09T09:38:23Z</time>
      </trkpt>
      <trkpt lat="45.20467" lon="6.25893">
        <ele>1456</ele>
        <time>2014-08-09T09:38:25Z</time>
      </trkpt>
      <trkpt lat="45.2047" lon="6.25913">
        <ele>1455</ele>
        <time>2014-08-09T09:38:27Z</time>
      </trkpt>
      <trkpt lat="45.20473" lon="6.25932">
        <ele>1445</ele>
        <time>2014-08-09T09:38:29Z</time>
      </trkpt>
      <trkpt lat="45.20475" lon="6.25948">
        <ele>1443</ele>
        <time>2014-08-09T09:38:31Z</time>
      </trkpt>
      <trkpt lat="45.20479" lon="6.25965">
        <ele>1441</ele>
        <time>2014-08-09T09:38:33Z</time>
      </trkpt>
      <trkpt lat="45.20482" lon="6.25979">
        <ele>1440</ele>
        <time>2014-08-09T09:38:35Z</time>
      </trkpt>
      <trkpt lat="45.20486" lon="6.25995">
        <ele>1440</ele>
        <time>2014-08-09T09:38:38Z</time>
      </trkpt>
      <trkpt lat="45.20482" lon="6.26008">
        <ele>1434</ele>
        <time>2014-08-09T09:38:41Z</time>
      </trkpt>
      <trkpt lat="45.20482" lon="6.26022">
        <ele>1432</ele>
        <time>2014-08-09T09:38:43Z</time>
      </trkpt>
      <trkpt lat="45.20484" lon="6.26035">
        <ele>1430</ele>
        <time>2014-08-09T09:38:45Z</time>
      </trkpt>
      <trkpt lat="45.20487" lon="6.26052">
        <ele>1429</ele>
        <time>2014-08-09T09:38:47Z</time>
      </trkpt>
      <trkpt lat="45.20492" lon="6.26075">
        <ele>1427</ele>
        <time>2014-08-09T09:38:49Z</time>
      </trkpt>
      <trkpt lat="45.20499" lon="6.26096">
        <ele>1423</ele>
        <time>2014-08-09T09:38:51Z</time>
      </trkpt>
      <trkpt lat="45.20503" lon="6.26113">
        <ele>1425</ele>
        <time>2014-08-09T09:38:53Z</time>
      </trkpt>
      <trkpt lat="45.20505" lon="6.26126">
        <ele>1423</ele>
        <time>2014-08-09T09:38:55Z</time>
      </trkpt>
      <trkpt lat="45.2051" lon="6.26143">
        <ele>1421</ele>
        <time>2014-08-09T09:38:58Z</time>
      </trkpt>
      <trkpt lat="45.20514" lon="6.26157">
        <ele>1419</ele>
        <time>2014-08-09T09:39:01Z</time>
      </trkpt>
      <trkpt lat="45.2051" lon="6.2617">
        <ele>1414</ele>
        <time>2014-08-09T09:39:04Z</time>
      </trkpt>
      <trkpt lat="45.20503" lon="6.26185">
        <ele>1414</ele>
        <time>2014-08-09T09:39:07Z</time>
      </trkpt>
      <trkpt lat="45.205" lon="6.26202">
        <ele>1414</ele>
        <time>2014-08-09T09:39:10Z</time>
      </trkpt>
      <trkpt lat="45.20499" lon="6.2622">
        <ele>1414</ele>
        <time>2014-08-09T09:39:13Z</time>
      </trkpt>
      <trkpt lat="45.20506" lon="6.26232">
        <ele>1412</ele>
        <time>2014-08-09T09:39:16Z</time>
      </trkpt>
      <trkpt lat="45.20508" lon="6.26252">
        <ele>1410</ele>
        <time>2014-08-09T09:39:20Z</time>
      </trkpt>
      <trkpt lat="45.20511" lon="6.26269">
        <ele>1409</ele>
        <time>2014-08-09T09:39:22Z</time>
      </trkpt>
      <trkpt lat="45.20515" lon="6.26289">
        <ele>1407</ele>
        <time>2014-08-09T09:39:24Z</time>
      </trkpt>
      <trkpt lat="45.20517" lon="6.2631">
        <ele>1406</ele>
        <time>2014-08-09T09:39:26Z</time>
      </trkpt>
      <trkpt lat="45.20517" lon="6.26324">
        <ele>1406</ele>
        <time>2014-08-09T09:39:28Z</time>
      </trkpt>
      <trkpt lat="45.20513" lon="6.26341">
        <ele>1404</ele>
        <time>2014-08-09T09:39:30Z</time>
      </trkpt>
      <trkpt lat="45.20505" lon="6.26355">
        <ele>1403</ele>
        <time>2014-08-09T09:39:32Z</time>
      </trkpt>
      <trkpt lat="45.20492" lon="6.26358">
        <ele>1404</ele>
        <time>2014-08-09T09:39:35Z</time>
      </trkpt>
      <trkpt lat="45.20481" lon="6.26357">
        <ele>1404</ele>
        <time>2014-08-09T09:39:37Z</time>
      </trkpt>
      <trkpt lat="45.20473" lon="6.26349">
        <ele>1405</ele>
        <time>2014-08-09T09:39:39Z</time>
      </trkpt>
      <trkpt lat="45.20466" lon="6.26337">
        <ele>1405</ele>
        <time>2014-08-09T09:39:43Z</time>
      </trkpt>
      <trkpt lat="45.20457" lon="6.26327">
        <ele>1410</ele>
        <time>2014-08-09T09:39:47Z</time>
      </trkpt>
      <trkpt lat="45.20449" lon="6.26319">
        <ele>1411</ele>
        <time>2014-08-09T09:39:52Z</time>
      </trkpt>
      <trkpt lat="45.20442" lon="6.2631">
        <ele>1411</ele>
        <time>2014-08-09T09:39:57Z</time>
      </trkpt>
      <trkpt lat="45.20437" lon="6.26299">
        <ele>1412</ele>
        <time>2014-08-09T09:40:02Z</time>
      </trkpt>
      <trkpt lat="45.20432" lon="6.26286">
        <ele>1412</ele>
        <time>2014-08-09T09:40:08Z</time>
      </trkpt>
      <trkpt lat="45.20427" lon="6.26273">
        <ele>1413</ele>
        <time>2014-08-09T09:40:14Z</time>
      </trkpt>
      <trkpt lat="45.20421" lon="6.26261">
        <ele>1415</ele>
        <time>2014-08-09T09:40:20Z</time>
      </trkpt>
      <trkpt lat="45.20418" lon="6.26248">
        <ele>1417</ele>
        <time>2014-08-09T09:40:27Z</time>
      </trkpt>
      <trkpt lat="45.20414" lon="6.26235">
        <ele>1425</ele>
        <time>2014-08-09T09:40:34Z</time>
      </trkpt>
      <trkpt lat="45.20406" lon="6.26227">
        <ele>1428</ele>
        <time>2014-08-09T09:40:41Z</time>
      </trkpt>
      <trkpt lat="45.20403" lon="6.2624">
        <ele>1426</ele>
        <time>2014-08-09T09:40:55Z</time>
      </trkpt>
      <trkpt lat="45.20405" lon="6.26256">
        <ele>1422</ele>
        <time>2014-08-09T09:41:02Z</time>
      </trkpt>
      <trkpt lat="45.20406" lon="6.2627">
        <ele>1424</ele>
        <time>2014-08-09T09:41:09Z</time>
      </trkpt>
      <trkpt lat="45.20407" lon="6.26284">
        <ele>1425</ele>
        <time>2014-08-09T09:41:15Z</time>
      </trkpt>
      <trkpt lat="45.20408" lon="6.26298">
        <ele>1424</ele>
        <time>2014-08-09T09:41:21Z</time>
      </trkpt>
      <trkpt lat="45.20404" lon="6.26313">
        <ele>1422</ele>
        <time>2014-08-09T09:41:26Z</time>
      </trkpt>
      <trkpt lat="45.20396" lon="6.26324">
        <ele>1422</ele>
        <time>2014-08-09T09:41:31Z</time>
      </trkpt>
      <trkpt lat="45.20387" lon="6.2633">
        <ele>1424</ele>
        <time>2014-08-09T09:41:36Z</time>
      </trkpt>
      <trkpt lat="45.20378" lon="6.26337">
        <ele>1418</ele>
        <time>2014-08-09T09:41:42Z</time>
      </trkpt>
      <trkpt lat="45.20369" lon="6.26343">
        <ele>1419</ele>
        <time>2014-08-09T09:41:47Z</time>
      </trkpt>
      <trkpt lat="45.20361" lon="6.26349">
        <ele>1420</ele>
        <time>2014-08-09T09:41:53Z</time>
      </trkpt>
      <trkpt lat="45.20352" lon="6.26354">
        <ele>1422</ele>
        <time>2014-08-09T09:41:59Z</time>
      </trkpt>
      <trkpt lat="45.20341" lon="6.26359">
        <ele>1422</ele>
        <time>2014-08-09T09:42:05Z</time>
      </trkpt>
      <trkpt lat="45.20332" lon="6.26356">
        <ele>1433</ele>
        <time>2014-08-09T09:42:12Z</time>
      </trkpt>
      <trkpt lat="45.20336" lon="6.26343">
        <ele>1429</ele>
        <time>2014-08-09T09:42:21Z</time>
      </trkpt>
      <trkpt lat="45.20345" lon="6.26333">
        <ele>1433</ele>
        <time>2014-08-09T09:42:27Z</time>
      </trkpt>
      <trkpt lat="45.20352" lon="6.26324">
        <ele>1432</ele>
        <time>2014-08-09T09:42:33Z</time>
      </trkpt>
      <trkpt lat="45.20361" lon="6.26315">
        <ele>1431</ele>
        <time>2014-08-09T09:42:39Z</time>
      </trkpt>
      <trkpt lat="45.20369" lon="6.26307">
        <ele>1429</ele>
        <time>2014-08-09T09:42:45Z</time>
      </trkpt>
      <trkpt lat="45.20371" lon="6.26295">
        <ele>1430</ele>
        <time>2014-08-09T09:42:51Z</time>
      </trkpt>
      <trkpt lat="45.20362" lon="6.26288">
        <ele>1432</ele>
        <time>2014-08-09T09:42:58Z</time>
      </trkpt>
      <trkpt lat="45.20354" lon="6.26294">
        <ele>1433</ele>
        <time>2014-08-09T09:43:04Z</time>
      </trkpt>
      <trkpt lat="45.20345" lon="6.26299">
        <ele>1433</ele>
        <time>2014-08-09T09:43:10Z</time>
      </trkpt>
      <trkpt lat="45.20334" lon="6.26305">
        <ele>1434</ele>
        <time>2014-08-09T09:43:16Z</time>
      </trkpt>
      <trkpt lat="45.20326" lon="6.26314">
        <ele>1446</ele>
        <time>2014-08-09T09:43:22Z</time>
      </trkpt>
      <trkpt lat="45.20317" lon="6.26322">
        <ele>1446</ele>
        <time>2014-08-09T09:43:28Z</time>
      </trkpt>
      <trkpt lat="45.20308" lon="6.26331">
        <ele>1447</ele>
        <time>2014-08-09T09:43:35Z</time>
      </trkpt>
      <trkpt lat="45.203" lon="6.26338">
        <ele>1436</ele>
        <time>2014-08-09T09:43:41Z</time>
      </trkpt>
      <trkpt lat="45.20291" lon="6.26334">
        <ele>1437</ele>
        <time>2014-08-09T09:43:48Z</time>
      </trkpt>
      <trkpt lat="45.20291" lon="6.26319">
        <ele>1452</ele>
        <time>2014-08-09T09:43:56Z</time>
      </trkpt>
      <trkpt lat="45.20298" lon="6.2631">
        <ele>1452</ele>
        <time>2014-08-09T09:44:02Z</time>
      </trkpt>
      <trkpt lat="45.20307" lon="6.26301">
        <ele>1452</ele>
        <time>2014-08-09T09:44:08Z</time>
      </trkpt>
      <trkpt lat="45.20315" lon="6.26291">
        <ele>1452</ele>
        <time>2014-08-09T09:44:14Z</time>
      </trkpt>
      <trkpt lat="45.20322" lon="6.2628">
        <ele>1452</ele>
        <time>2014-08-09T09:44:20Z</time>
      </trkpt>
      <trkpt lat="45.20331" lon="6.2627">
        <ele>1453</ele>
        <time>2014-08-09T09:44:26Z</time>
      </trkpt>
      <trkpt lat="45.20337" lon="6.26258">
        <ele>1445</ele>
        <time>2014-08-09T09:44:32Z</time>
      </trkpt>
      <trkpt lat="45.20333" lon="6.26245">
        <ele>1455</ele>
        <time>2014-08-09T09:44:40Z</time>
      </trkpt>
      <trkpt lat="45.20324" lon="6.26253">
        <ele>1453</ele>
        <time>2014-08-09T09:44:48Z</time>
      </trkpt>
      <trkpt lat="45.20315" lon="6.26261">
        <ele>1454</ele>
        <time>2014-08-09T09:44:55Z</time>
      </trkpt>
      <trkpt lat="45.20306" lon="6.26267">
        <ele>1455</ele>
        <time>2014-08-09T09:45:02Z</time>
      </trkpt>
      <trkpt lat="45.20298" lon="6.26274">
        <ele>1456</ele>
        <time>2014-08-09T09:45:08Z</time>
      </trkpt>
      <trkpt lat="45.20289" lon="6.26282">
        <ele>1456</ele>
        <time>2014-08-09T09:45:14Z</time>
      </trkpt>
      <trkpt lat="45.20281" lon="6.26291">
        <ele>1456</ele>
        <time>2014-08-09T09:45:20Z</time>
      </trkpt>
      <trkpt lat="45.20272" lon="6.26298">
        <ele>1456</ele>
        <time>2014-08-09T09:45:26Z</time>
      </trkpt>
      <trkpt lat="45.20263" lon="6.26306">
        <ele>1456</ele>
        <time>2014-08-09T09:45:32Z</time>
      </trkpt>
      <trkpt lat="45.20253" lon="6.26307">
        <ele>1456</ele>
        <time>2014-08-09T09:45:39Z</time>
      </trkpt>
      <trkpt lat="45.20251" lon="6.26294">
        <ele>1458</ele>
        <time>2014-08-09T09:45:48Z</time>
      </trkpt>
      <trkpt lat="45.20258" lon="6.26282">
        <ele>1460</ele>
        <time>2014-08-09T09:45:55Z</time>
      </trkpt>
      <trkpt lat="45.20265" lon="6.26272">
        <ele>1462</ele>
        <time>2014-08-09T09:46:01Z</time>
      </trkpt>
      <trkpt lat="45.20274" lon="6.26263">
        <ele>1462</ele>
        <time>2014-08-09T09:46:06Z</time>
      </trkpt>
      <trkpt lat="45.20281" lon="6.26253">
        <ele>1461</ele>
        <time>2014-08-09T09:46:11Z</time>
      </trkpt>
      <trkpt lat="45.20288" lon="6.26243">
        <ele>1467</ele>
        <time>2014-08-09T09:46:16Z</time>
      </trkpt>
      <trkpt lat="45.20294" lon="6.26234">
        <ele>1465</ele>
        <time>2014-08-09T09:46:21Z</time>
      </trkpt>
      <trkpt lat="45.20298" lon="6.26221">
        <ele>1465</ele>
        <time>2014-08-09T09:46:26Z</time>
      </trkpt>
      <trkpt lat="45.20297" lon="6.26207">
        <ele>1466</ele>
        <time>2014-08-09T09:46:32Z</time>
      </trkpt>
      <trkpt lat="45.20295" lon="6.26193">
        <ele>1466</ele>
        <time>2014-08-09T09:46:37Z</time>
      </trkpt>
      <trkpt lat="45.20292" lon="6.26181">
        <ele>1468</ele>
        <time>2014-08-09T09:46:42Z</time>
      </trkpt>
      <trkpt lat="45.20287" lon="6.26168">
        <ele>1469</ele>
        <time>2014-08-09T09:46:47Z</time>
      </trkpt>
      <trkpt lat="45.20281" lon="6.26156">
        <ele>1471</ele>
        <time>2014-08-09T09:46:52Z</time>
      </trkpt>
      <trkpt lat="45.20274" lon="6.26145">
        <ele>1472</ele>
        <time>2014-08-09T09:46:58Z</time>
      </trkpt>
      <trkpt lat="45.2027" lon="6.2613">
        <ele>1471</ele>
        <time>2014-08-09T09:47:05Z</time>
      </trkpt>
      <trkpt lat="45.20265" lon="6.26118">
        <ele>1472</ele>
        <time>2014-08-09T09:47:12Z</time>
      </trkpt>
      <trkpt lat="45.20261" lon="6.26106">
        <ele>1473</ele>
        <time>2014-08-09T09:47:18Z</time>
      </trkpt>
      <trkpt lat="45.20256" lon="6.26093">
        <ele>1477</ele>
        <time>2014-08-09T09:47:25Z</time>
      </trkpt>
      <trkpt lat="45.20253" lon="6.2608">
        <ele>1478</ele>
        <time>2014-08-09T09:47:32Z</time>
      </trkpt>
      <trkpt lat="45.20251" lon="6.26066">
        <ele>1472</ele>
        <time>2014-08-09T09:47:39Z</time>
      </trkpt>
      <trkpt lat="45.20242" lon="6.26069">
        <ele>1488</ele>
        <time>2014-08-09T09:47:49Z</time>
      </trkpt>
      <trkpt lat="45.20243" lon="6.26084">
        <ele>1486</ele>
        <time>2014-08-09T09:47:55Z</time>
      </trkpt>
      <trkpt lat="45.20242" lon="6.26097">
        <ele>1489</ele>
        <time>2014-08-09T09:48:01Z</time>
      </trkpt>
      <trkpt lat="45.20241" lon="6.26112">
        <ele>1493</ele>
        <time>2014-08-09T09:48:07Z</time>
      </trkpt>
      <trkpt lat="45.2024" lon="6.26128">
        <ele>1494</ele>
        <time>2014-08-09T09:48:13Z</time>
      </trkpt>
      <trkpt lat="45.20239" lon="6.26141">
        <ele>1493</ele>
        <time>2014-08-09T09:48:18Z</time>
      </trkpt>
      <trkpt lat="45.2024" lon="6.26155">
        <ele>1492</ele>
        <time>2014-08-09T09:48:23Z</time>
      </trkpt>
      <trkpt lat="45.2024" lon="6.26169">
        <ele>1489</ele>
        <time>2014-08-09T09:48:28Z</time>
      </trkpt>
      <trkpt lat="45.2024" lon="6.26182">
        <ele>1490</ele>
        <time>2014-08-09T09:48:33Z</time>
      </trkpt>
      <trkpt lat="45.2024" lon="6.26196">
        <ele>1490</ele>
        <time>2014-08-09T09:48:38Z</time>
      </trkpt>
      <trkpt lat="45.20234" lon="6.26208">
        <ele>1490</ele>
        <time>2014-08-09T09:48:44Z</time>
      </trkpt>
      <trkpt lat="45.20224" lon="6.26212">
        <ele>1491</ele>
        <time>2014-08-09T09:48:49Z</time>
      </trkpt>
      <trkpt lat="45.20214" lon="6.26217">
        <ele>1492</ele>
        <time>2014-08-09T09:48:54Z</time>
      </trkpt>
      <trkpt lat="45.20205" lon="6.26226">
        <ele>1493</ele>
        <time>2014-08-09T09:48:59Z</time>
      </trkpt>
      <trkpt lat="45.20197" lon="6.26234">
        <ele>1494</ele>
        <time>2014-08-09T09:49:04Z</time>
      </trkpt>
      <trkpt lat="45.20187" lon="6.26237">
        <ele>1496</ele>
        <time>2014-08-09T09:49:08Z</time>
      </trkpt>
      <trkpt lat="45.20177" lon="6.26236">
        <ele>1497</ele>
        <time>2014-08-09T09:49:12Z</time>
      </trkpt>
      <trkpt lat="45.20167" lon="6.26236">
        <ele>1498</ele>
        <time>2014-08-09T09:49:15Z</time>
      </trkpt>
      <trkpt lat="45.20157" lon="6.26235">
        <ele>1503</ele>
        <time>2014-08-09T09:49:18Z</time>
      </trkpt>
      <trkpt lat="45.20146" lon="6.26234">
        <ele>1504</ele>
        <time>2014-08-09T09:49:21Z</time>
      </trkpt>
      <trkpt lat="45.20136" lon="6.2623">
        <ele>1505</ele>
        <time>2014-08-09T09:49:24Z</time>
      </trkpt>
      <trkpt lat="45.20124" lon="6.26228">
        <ele>1505</ele>
        <time>2014-08-09T09:49:27Z</time>
      </trkpt>
      <trkpt lat="45.20112" lon="6.26225">
        <ele>1505</ele>
        <time>2014-08-09T09:49:30Z</time>
      </trkpt>
      <trkpt lat="45.201" lon="6.26222">
        <ele>1505</ele>
        <time>2014-08-09T09:49:33Z</time>
      </trkpt>
      <trkpt lat="45.20089" lon="6.26218">
        <ele>1505</ele>
        <time>2014-08-09T09:49:36Z</time>
      </trkpt>
      <trkpt lat="45.20077" lon="6.26215">
        <ele>1506</ele>
        <time>2014-08-09T09:49:39Z</time>
      </trkpt>
      <trkpt lat="45.20065" lon="6.26209">
        <ele>1507</ele>
        <time>2014-08-09T09:49:42Z</time>
      </trkpt>
      <trkpt lat="45.20053" lon="6.26203">
        <ele>1507</ele>
        <time>2014-08-09T09:49:45Z</time>
      </trkpt>
      <trkpt lat="45.2004" lon="6.26197">
        <ele>1507</ele>
        <time>2014-08-09T09:49:48Z</time>
      </trkpt>
      <trkpt lat="45.20028" lon="6.2619">
        <ele>1508</ele>
        <time>2014-08-09T09:49:51Z</time>
      </trkpt>
      <trkpt lat="45.20016" lon="6.26179">
        <ele>1508</ele>
        <time>2014-08-09T09:49:54Z</time>
      </trkpt>
      <trkpt lat="45.20007" lon="6.26173">
        <ele>1509</ele>
        <time>2014-08-09T09:49:56Z</time>
      </trkpt>
      <trkpt lat="45.19997" lon="6.26167">
        <ele>1510</ele>
        <time>2014-08-09T09:49:58Z</time>
      </trkpt>
      <trkpt lat="45.19984" lon="6.26165">
        <ele>1514</ele>
        <time>2014-08-09T09:50:00Z</time>
      </trkpt>
      <trkpt lat="45.19972" lon="6.26169">
        <ele>1512</ele>
        <time>2014-08-09T09:50:02Z</time>
      </trkpt>
      <trkpt lat="45.1996" lon="6.26176">
        <ele>1513</ele>
        <time>2014-08-09T09:50:04Z</time>
      </trkpt>
      <trkpt lat="45.1995" lon="6.26192">
        <ele>1513</ele>
        <time>2014-08-09T09:50:06Z</time>
      </trkpt>
      <trkpt lat="45.1994" lon="6.26212">
        <ele>1512</ele>
        <time>2014-08-09T09:50:08Z</time>
      </trkpt>
      <trkpt lat="45.19931" lon="6.26233">
        <ele>1512</ele>
        <time>2014-08-09T09:50:10Z</time>
      </trkpt>
      <trkpt lat="45.1992" lon="6.26254">
        <ele>1510</ele>
        <time>2014-08-09T09:50:12Z</time>
      </trkpt>
      <trkpt lat="45.19916" lon="6.26266">
        <ele>1510</ele>
        <time>2014-08-09T09:50:13Z</time>
      </trkpt>
      <trkpt lat="45.19906" lon="6.26287">
        <ele>1508</ele>
        <time>2014-08-09T09:50:15Z</time>
      </trkpt>
      <trkpt lat="45.19902" lon="6.26299">
        <ele>1507</ele>
        <time>2014-08-09T09:50:16Z</time>
      </trkpt>
      <trkpt lat="45.19892" lon="6.2632">
        <ele>1506</ele>
        <time>2014-08-09T09:50:18Z</time>
      </trkpt>
      <trkpt lat="45.19885" lon="6.26331">
        <ele>1506</ele>
        <time>2014-08-09T09:50:19Z</time>
      </trkpt>
      <trkpt lat="45.19873" lon="6.26349">
        <ele>1502</ele>
        <time>2014-08-09T09:50:21Z</time>
      </trkpt>
      <trkpt lat="45.19859" lon="6.26365">
        <ele>1502</ele>
        <time>2014-08-09T09:50:23Z</time>
      </trkpt>
      <trkpt lat="45.19845" lon="6.2638">
        <ele>1502</ele>
        <time>2014-08-09T09:50:25Z</time>
      </trkpt>
      <trkpt lat="45.19835" lon="6.26398">
        <ele>1502</ele>
        <time>2014-08-09T09:50:27Z</time>
      </trkpt>
      <trkpt lat="45.19826" lon="6.26415">
        <ele>1502</ele>
        <time>2014-08-09T09:50:29Z</time>
      </trkpt>
      <trkpt lat="45.19818" lon="6.26431">
        <ele>1500</ele>
        <time>2014-08-09T09:50:31Z</time>
      </trkpt>
      <trkpt lat="45.19809" lon="6.26446">
        <ele>1499</ele>
        <time>2014-08-09T09:50:33Z</time>
      </trkpt>
      <trkpt lat="45.19802" lon="6.2646">
        <ele>1499</ele>
        <time>2014-08-09T09:50:35Z</time>
      </trkpt>
      <trkpt lat="45.19797" lon="6.26473">
        <ele>1498</ele>
        <time>2014-08-09T09:50:37Z</time>
      </trkpt>
      <trkpt lat="45.198" lon="6.26489">
        <ele>1498</ele>
        <time>2014-08-09T09:50:40Z</time>
      </trkpt>
      <trkpt lat="45.19807" lon="6.265">
        <ele>1498</ele>
        <time>2014-08-09T09:50:42Z</time>
      </trkpt>
      <trkpt lat="45.19812" lon="6.26512">
        <ele>1493</ele>
        <time>2014-08-09T09:50:44Z</time>
      </trkpt>
      <trkpt lat="45.19822" lon="6.26523">
        <ele>1493</ele>
        <time>2014-08-09T09:50:46Z</time>
      </trkpt>
      <trkpt lat="45.19835" lon="6.26535">
        <ele>1497</ele>
        <time>2014-08-09T09:50:48Z</time>
      </trkpt>
      <trkpt lat="45.19843" lon="6.26543">
        <ele>1497</ele>
        <time>2014-08-09T09:50:49Z</time>
      </trkpt>
      <trkpt lat="45.19857" lon="6.26559">
        <ele>1497</ele>
        <time>2014-08-09T09:50:51Z</time>
      </trkpt>
      <trkpt lat="45.19868" lon="6.2657">
        <ele>1497</ele>
        <time>2014-08-09T09:50:53Z</time>
      </trkpt>
      <trkpt lat="45.19879" lon="6.26578">
        <ele>1498</ele>
        <time>2014-08-09T09:50:55Z</time>
      </trkpt>
      <trkpt lat="45.1989" lon="6.26579">
        <ele>1499</ele>
        <time>2014-08-09T09:50:57Z</time>
      </trkpt>
      <trkpt lat="45.19901" lon="6.26576">
        <ele>1499</ele>
        <time>2014-08-09T09:51:00Z</time>
      </trkpt>
      <trkpt lat="45.19913" lon="6.26579">
        <ele>1500</ele>
        <time>2014-08-09T09:51:03Z</time>
      </trkpt>
      <trkpt lat="45.19923" lon="6.26584">
        <ele>1498</ele>
        <time>2014-08-09T09:51:05Z</time>
      </trkpt>
      <trkpt lat="45.19936" lon="6.26599">
        <ele>1493</ele>
        <time>2014-08-09T09:51:09Z</time>
      </trkpt>
      <trkpt lat="45.19941" lon="6.26612">
        <ele>1491</ele>
        <time>2014-08-09T09:51:12Z</time>
      </trkpt>
      <trkpt lat="45.19946" lon="6.26625">
        <ele>1490</ele>
        <time>2014-08-09T09:51:15Z</time>
      </trkpt>
      <trkpt lat="45.19951" lon="6.26641">
        <ele>1489</ele>
        <time>2014-08-09T09:51:18Z</time>
      </trkpt>
      <trkpt lat="45.19952" lon="6.26656">
        <ele>1488</ele>
        <time>2014-08-09T09:51:21Z</time>
      </trkpt>
      <trkpt lat="45.19951" lon="6.2667">
        <ele>1477</ele>
        <time>2014-08-09T09:51:24Z</time>
      </trkpt>
      <trkpt lat="45.19949" lon="6.26684">
        <ele>1476</ele>
        <time>2014-08-09T09:51:28Z</time>
      </trkpt>
      <trkpt lat="45.19944" lon="6.26699">
        <ele>1474</ele>
        <time>2014-08-09T09:51:36Z</time>
      </trkpt>
      <trkpt lat="45.1995" lon="6.26712">
        <ele>1472</ele>
        <time>2014-08-09T09:51:39Z</time>
      </trkpt>
      <trkpt lat="45.19955" lon="6.26727">
        <ele>1470</ele>
        <time>2014-08-09T09:51:43Z</time>
      </trkpt>
      <trkpt lat="45.19957" lon="6.2674">
        <ele>1469</ele>
        <time>2014-08-09T09:51:47Z</time>
      </trkpt>
      <trkpt lat="45.19958" lon="6.26756">
        <ele>1455</ele>
        <time>2014-08-09T09:51:52Z</time>
      </trkpt>
      <trkpt lat="45.1996" lon="6.26772">
        <ele>1453</ele>
        <time>2014-08-09T09:51:57Z</time>
      </trkpt>
      <trkpt lat="45.19959" lon="6.26785">
        <ele>1452</ele>
        <time>2014-08-09T09:52:00Z</time>
      </trkpt>
      <trkpt lat="45.19958" lon="6.26802">
        <ele>1449</ele>
        <time>2014-08-09T09:52:03Z</time>
      </trkpt>
      <trkpt lat="45.19956" lon="6.2682">
        <ele>1447</ele>
        <time>2014-08-09T09:52:06Z</time>
      </trkpt>
      <trkpt lat="45.19956" lon="6.26835">
        <ele>1433</ele>
        <time>2014-08-09T09:52:09Z</time>
      </trkpt>
      <trkpt lat="45.1996" lon="6.26847">
        <ele>1432</ele>
        <time>2014-08-09T09:52:12Z</time>
      </trkpt>
      <trkpt lat="45.19963" lon="6.2686">
        <ele>1431</ele>
        <time>2014-08-09T09:52:15Z</time>
      </trkpt>
      <trkpt lat="45.19967" lon="6.26874">
        <ele>1429</ele>
        <time>2014-08-09T09:52:20Z</time>
      </trkpt>
      <trkpt lat="45.19967" lon="6.26888">
        <ele>1428</ele>
        <time>2014-08-09T09:52:24Z</time>
      </trkpt>
      <trkpt lat="45.19969" lon="6.26902">
        <ele>1426</ele>
        <time>2014-08-09T09:52:28Z</time>
      </trkpt>
      <trkpt lat="45.19968" lon="6.26915">
        <ele>1425</ele>
        <time>2014-08-09T09:52:32Z</time>
      </trkpt>
      <trkpt lat="45.19969" lon="6.2693">
        <ele>1414</ele>
        <time>2014-08-09T09:52:37Z</time>
      </trkpt>
      <trkpt lat="45.19972" lon="6.26943">
        <ele>1413</ele>
        <time>2014-08-09T09:52:47Z</time>
      </trkpt>
      <trkpt lat="45.19976" lon="6.26956">
        <ele>1412</ele>
        <time>2014-08-09T09:52:54Z</time>
      </trkpt>
      <trkpt lat="45.19978" lon="6.26971">
        <ele>1410</ele>
        <time>2014-08-09T09:53:00Z</time>
      </trkpt>
      <trkpt lat="45.19977" lon="6.26985">
        <ele>1409</ele>
        <time>2014-08-09T09:53:06Z</time>
      </trkpt>
      <trkpt lat="45.19978" lon="6.27">
        <ele>1408</ele>
        <time>2014-08-09T09:53:12Z</time>
      </trkpt>
      <trkpt lat="45.19977" lon="6.27013">
        <ele>1399</ele>
        <time>2014-08-09T09:53:17Z</time>
      </trkpt>
      <trkpt lat="45.19979" lon="6.27027">
        <ele>1397</ele>
        <time>2014-08-09T09:53:25Z</time>
      </trkpt>
      <trkpt lat="45.19986" lon="6.27039">
        <ele>1396</ele>
        <time>2014-08-09T09:53:31Z</time>
      </trkpt>
      <trkpt lat="45.19997" lon="6.27042">
        <ele>1396</ele>
        <time>2014-08-09T09:53:36Z</time>
      </trkpt>
      <trkpt lat="45.20007" lon="6.27046">
        <ele>1388</ele>
        <time>2014-08-09T09:53:43Z</time>
      </trkpt>
      <trkpt lat="45.20006" lon="6.27061">
        <ele>1387</ele>
        <time>2014-08-09T09:53:51Z</time>
      </trkpt>
      <trkpt lat="45.20001" lon="6.27074">
        <ele>1387</ele>
        <time>2014-08-09T09:53:56Z</time>
      </trkpt>
      <trkpt lat="45.19999" lon="6.27087">
        <ele>1387</ele>
        <time>2014-08-09T09:54:03Z</time>
      </trkpt>
      <trkpt lat="45.19993" lon="6.27099">
        <ele>1385</ele>
        <time>2014-08-09T09:54:08Z</time>
      </trkpt>
      <trkpt lat="45.19983" lon="6.27097">
        <ele>1384</ele>
        <time>2014-08-09T09:54:17Z</time>
      </trkpt>
      <trkpt lat="45.19974" lon="6.2709">
        <ele>1384</ele>
        <time>2014-08-09T09:54:25Z</time>
      </trkpt>
      <trkpt lat="45.19965" lon="6.27086">
        <ele>1384</ele>
        <time>2014-08-09T09:54:32Z</time>
      </trkpt>
      <trkpt lat="45.19957" lon="6.2708">
        <ele>1392</ele>
        <time>2014-08-09T09:54:41Z</time>
      </trkpt>
      <trkpt lat="45.1996" lon="6.27092">
        <ele>1384</ele>
        <time>2014-08-09T09:54:52Z</time>
      </trkpt>
      <trkpt lat="45.19962" lon="6.27105">
        <ele>1383</ele>
        <time>2014-08-09T09:55:00Z</time>
      </trkpt>
      <trkpt lat="45.19953" lon="6.27106">
        <ele>1383</ele>
        <time>2014-08-09T09:55:20Z</time>
      </trkpt>
      <trkpt lat="45.19943" lon="6.27102">
        <ele>1384</ele>
        <time>2014-08-09T09:55:26Z</time>
      </trkpt>
      <trkpt lat="45.19935" lon="6.27095">
        <ele>1384</ele>
        <time>2014-08-09T09:55:31Z</time>
      </trkpt>
      <trkpt lat="45.19928" lon="6.27104">
        <ele>1384</ele>
        <time>2014-08-09T09:55:36Z</time>
      </trkpt>
      <trkpt lat="45.1993" lon="6.27118">
        <ele>1383</ele>
        <time>2014-08-09T09:55:41Z</time>
      </trkpt>
      <trkpt lat="45.19938" lon="6.27128">
        <ele>1382</ele>
        <time>2014-08-09T09:55:46Z</time>
      </trkpt>
      <trkpt lat="45.19943" lon="6.27141">
        <ele>1382</ele>
        <time>2014-08-09T09:55:53Z</time>
      </trkpt>
      <trkpt lat="45.19948" lon="6.27153">
        <ele>1381</ele>
        <time>2014-08-09T09:55:58Z</time>
      </trkpt>
      <trkpt lat="45.19952" lon="6.27171">
        <ele>1376</ele>
        <time>2014-08-09T09:56:02Z</time>
      </trkpt>
      <trkpt lat="45.19956" lon="6.27185">
        <ele>1376</ele>
        <time>2014-08-09T09:56:04Z</time>
      </trkpt>
      <trkpt lat="45.19965" lon="6.27197">
        <ele>1375</ele>
        <time>2014-08-09T09:56:06Z</time>
      </trkpt>
      <trkpt lat="45.19977" lon="6.27209">
        <ele>1373</ele>
        <time>2014-08-09T09:56:08Z</time>
      </trkpt>
      <trkpt lat="45.19991" lon="6.27217">
        <ele>1371</ele>
        <time>2014-08-09T09:56:10Z</time>
      </trkpt>
      <trkpt lat="45.20005" lon="6.27222">
        <ele>1364</ele>
        <time>2014-08-09T09:56:12Z</time>
      </trkpt>
      <trkpt lat="45.20019" lon="6.27223">
        <ele>1363</ele>
        <time>2014-08-09T09:56:14Z</time>
      </trkpt>
      <trkpt lat="45.20033" lon="6.2722">
        <ele>1363</ele>
        <time>2014-08-09T09:56:16Z</time>
      </trkpt>
      <trkpt lat="45.20043" lon="6.27217">
        <ele>1363</ele>
        <time>2014-08-09T09:56:17Z</time>
      </trkpt>
      <trkpt lat="45.20058" lon="6.27214">
        <ele>1363</ele>
        <time>2014-08-09T09:56:19Z</time>
      </trkpt>
      <trkpt lat="45.20072" lon="6.27216">
        <ele>1362</ele>
        <time>2014-08-09T09:56:21Z</time>
      </trkpt>
      <trkpt lat="45.20081" lon="6.27227">
        <ele>1361</ele>
        <time>2014-08-09T09:56:23Z</time>
      </trkpt>
      <trkpt lat="45.20089" lon="6.27236">
        <ele>1364</ele>
        <time>2014-08-09T09:56:25Z</time>
      </trkpt>
      <trkpt lat="45.20091" lon="6.27253">
        <ele>1362</ele>
        <time>2014-08-09T09:56:28Z</time>
      </trkpt>
      <trkpt lat="45.20082" lon="6.27266">
        <ele>1359</ele>
        <time>2014-08-09T09:56:31Z</time>
      </trkpt>
      <trkpt lat="45.20075" lon="6.27282">
        <ele>1359</ele>
        <time>2014-08-09T09:56:34Z</time>
      </trkpt>
      <trkpt lat="45.20072" lon="6.27295">
        <ele>1359</ele>
        <time>2014-08-09T09:56:36Z</time>
      </trkpt>
      <trkpt lat="45.20073" lon="6.2731">
        <ele>1358</ele>
        <time>2014-08-09T09:56:39Z</time>
      </trkpt>
      <trkpt lat="45.20077" lon="6.27322">
        <ele>1358</ele>
        <time>2014-08-09T09:56:41Z</time>
      </trkpt>
      <trkpt lat="45.20086" lon="6.27339">
        <ele>1358</ele>
        <time>2014-08-09T09:56:44Z</time>
      </trkpt>
      <trkpt lat="45.20093" lon="6.27348">
        <ele>1361</ele>
        <time>2014-08-09T09:56:46Z</time>
      </trkpt>
      <trkpt lat="45.20099" lon="6.27361">
        <ele>1363</ele>
        <time>2014-08-09T09:56:48Z</time>
      </trkpt>
      <trkpt lat="45.20106" lon="6.27374">
        <ele>1364</ele>
        <time>2014-08-09T09:56:50Z</time>
      </trkpt>
      <trkpt lat="45.2011" lon="6.2739">
        <ele>1363</ele>
        <time>2014-08-09T09:56:52Z</time>
      </trkpt>
      <trkpt lat="45.20112" lon="6.27405">
        <ele>1363</ele>
        <time>2014-08-09T09:56:54Z</time>
      </trkpt>
      <trkpt lat="45.2011" lon="6.27421">
        <ele>1362</ele>
        <time>2014-08-09T09:56:56Z</time>
      </trkpt>
      <trkpt lat="45.20107" lon="6.27438">
        <ele>1363</ele>
        <time>2014-08-09T09:56:58Z</time>
      </trkpt>
      <trkpt lat="45.20101" lon="6.27453">
        <ele>1363</ele>
        <time>2014-08-09T09:57:00Z</time>
      </trkpt>
      <trkpt lat="45.20094" lon="6.27466">
        <ele>1363</ele>
        <time>2014-08-09T09:57:02Z</time>
      </trkpt>
      <trkpt lat="45.20085" lon="6.2748">
        <ele>1363</ele>
        <time>2014-08-09T09:57:04Z</time>
      </trkpt>
      <trkpt lat="45.20076" lon="6.27493">
        <ele>1358</ele>
        <time>2014-08-09T09:57:06Z</time>
      </trkpt>
      <trkpt lat="45.20068" lon="6.27508">
        <ele>1360</ele>
        <time>2014-08-09T09:57:08Z</time>
      </trkpt>
      <trkpt lat="45.2006" lon="6.27523">
        <ele>1360</ele>
        <time>2014-08-09T09:57:10Z</time>
      </trkpt>
      <trkpt lat="45.20051" lon="6.27533">
        <ele>1360</ele>
        <time>2014-08-09T09:57:12Z</time>
      </trkpt>
      <trkpt lat="45.20041" lon="6.2755">
        <ele>1360</ele>
        <time>2014-08-09T09:57:14Z</time>
      </trkpt>
      <trkpt lat="45.20031" lon="6.27564">
        <ele>1360</ele>
        <time>2014-08-09T09:57:16Z</time>
      </trkpt>
      <trkpt lat="45.20018" lon="6.27579">
        <ele>1357</ele>
        <time>2014-08-09T09:57:18Z</time>
      </trkpt>
      <trkpt lat="45.2001" lon="6.27587">
        <ele>1360</ele>
        <time>2014-08-09T09:57:19Z</time>
      </trkpt>
      <trkpt lat="45.20002" lon="6.27595">
        <ele>1360</ele>
        <time>2014-08-09T09:57:20Z</time>
      </trkpt>
      <trkpt lat="45.19995" lon="6.27605">
        <ele>1353</ele>
        <time>2014-08-09T09:57:21Z</time>
      </trkpt>
      <trkpt lat="45.19983" lon="6.27624">
        <ele>1353</ele>
        <time>2014-08-09T09:57:23Z</time>
      </trkpt>
      <trkpt lat="45.19971" lon="6.27643">
        <ele>1354</ele>
        <time>2014-08-09T09:57:25Z</time>
      </trkpt>
      <trkpt lat="45.19957" lon="6.27661">
        <ele>1353</ele>
        <time>2014-08-09T09:57:27Z</time>
      </trkpt>
      <trkpt lat="45.19943" lon="6.27674">
        <ele>1355</ele>
        <time>2014-08-09T09:57:29Z</time>
      </trkpt>
      <trkpt lat="45.19929" lon="6.27691">
        <ele>1354</ele>
        <time>2014-08-09T09:57:31Z</time>
      </trkpt>
      <trkpt lat="45.19924" lon="6.27702">
        <ele>1355</ele>
        <time>2014-08-09T09:57:32Z</time>
      </trkpt>
      <trkpt lat="45.19918" lon="6.27715">
        <ele>1356</ele>
        <time>2014-08-09T09:57:33Z</time>
      </trkpt>
      <trkpt lat="45.19914" lon="6.27727">
        <ele>1346</ele>
        <time>2014-08-09T09:57:34Z</time>
      </trkpt>
      <trkpt lat="45.1991" lon="6.27739">
        <ele>1348</ele>
        <time>2014-08-09T09:57:35Z</time>
      </trkpt>
      <trkpt lat="45.19905" lon="6.27753">
        <ele>1349</ele>
        <time>2014-08-09T09:57:36Z</time>
      </trkpt>
      <trkpt lat="45.19899" lon="6.27763">
        <ele>1348</ele>
        <time>2014-08-09T09:57:37Z</time>
      </trkpt>
      <trkpt lat="45.19893" lon="6.27773">
        <ele>1347</ele>
        <time>2014-08-09T09:57:38Z</time>
      </trkpt>
      <trkpt lat="45.19885" lon="6.27782">
        <ele>1346</ele>
        <time>2014-08-09T09:57:39Z</time>
      </trkpt>
      <trkpt lat="45.19876" lon="6.2779">
        <ele>1345</ele>
        <time>2014-08-09T09:57:40Z</time>
      </trkpt>
      <trkpt lat="45.19868" lon="6.27798">
        <ele>1344</ele>
        <time>2014-08-09T09:57:41Z</time>
      </trkpt>
      <trkpt lat="45.19859" lon="6.27806">
        <ele>1343</ele>
        <time>2014-08-09T09:57:42Z</time>
      </trkpt>
      <trkpt lat="45.1985" lon="6.27815">
        <ele>1342</ele>
        <time>2014-08-09T09:57:43Z</time>
      </trkpt>
      <trkpt lat="45.19841" lon="6.27825">
        <ele>1339</ele>
        <time>2014-08-09T09:57:44Z</time>
      </trkpt>
      <trkpt lat="45.19832" lon="6.27834">
        <ele>1336</ele>
        <time>2014-08-09T09:57:45Z</time>
      </trkpt>
      <trkpt lat="45.19825" lon="6.27845">
        <ele>1336</ele>
        <time>2014-08-09T09:57:46Z</time>
      </trkpt>
      <trkpt lat="45.19819" lon="6.27859">
        <ele>1336</ele>
        <time>2014-08-09T09:57:47Z</time>
      </trkpt>
      <trkpt lat="45.19814" lon="6.27873">
        <ele>1336</ele>
        <time>2014-08-09T09:57:48Z</time>
      </trkpt>
      <trkpt lat="45.1981" lon="6.27888">
        <ele>1337</ele>
        <time>2014-08-09T09:57:49Z</time>
      </trkpt>
      <trkpt lat="45.19806" lon="6.27904">
        <ele>1338</ele>
        <time>2014-08-09T09:57:50Z</time>
      </trkpt>
      <trkpt lat="45.19802" lon="6.27921">
        <ele>1341</ele>
        <time>2014-08-09T09:57:51Z</time>
      </trkpt>
      <trkpt lat="45.19795" lon="6.27934">
        <ele>1341</ele>
        <time>2014-08-09T09:57:52Z</time>
      </trkpt>
      <trkpt lat="45.19788" lon="6.27945">
        <ele>1340</ele>
        <time>2014-08-09T09:57:53Z</time>
      </trkpt>
      <trkpt lat="45.19779" lon="6.27954">
        <ele>1339</ele>
        <time>2014-08-09T09:57:54Z</time>
      </trkpt>
      <trkpt lat="45.19769" lon="6.27964">
        <ele>1338</ele>
        <time>2014-08-09T09:57:55Z</time>
      </trkpt>
      <trkpt lat="45.19758" lon="6.27974">
        <ele>1337</ele>
        <time>2014-08-09T09:57:56Z</time>
      </trkpt>
      <trkpt lat="45.19748" lon="6.27982">
        <ele>1329</ele>
        <time>2014-08-09T09:57:57Z</time>
      </trkpt>
      <trkpt lat="45.19734" lon="6.2799">
        <ele>1329</ele>
        <time>2014-08-09T09:57:58Z</time>
      </trkpt>
      <trkpt lat="45.19722" lon="6.27996">
        <ele>1329</ele>
        <time>2014-08-09T09:57:59Z</time>
      </trkpt>
      <trkpt lat="45.19714" lon="6.28004">
        <ele>1328</ele>
        <time>2014-08-09T09:58:00Z</time>
      </trkpt>
      <trkpt lat="45.19708" lon="6.28015">
        <ele>1328</ele>
        <time>2014-08-09T09:58:01Z</time>
      </trkpt>
      <trkpt lat="45.19702" lon="6.28032">
        <ele>1327</ele>
        <time>2014-08-09T09:58:02Z</time>
      </trkpt>
      <trkpt lat="45.19698" lon="6.28049">
        <ele>1327</ele>
        <time>2014-08-09T09:58:03Z</time>
      </trkpt>
      <trkpt lat="45.19695" lon="6.28068">
        <ele>1326</ele>
        <time>2014-08-09T09:58:04Z</time>
      </trkpt>
      <trkpt lat="45.1969" lon="6.28086">
        <ele>1328</ele>
        <time>2014-08-09T09:58:05Z</time>
      </trkpt>
      <trkpt lat="45.19685" lon="6.28104">
        <ele>1329</ele>
        <time>2014-08-09T09:58:06Z</time>
      </trkpt>
      <trkpt lat="45.1968" lon="6.28121">
        <ele>1330</ele>
        <time>2014-08-09T09:58:07Z</time>
      </trkpt>
      <trkpt lat="45.19675" lon="6.28136">
        <ele>1329</ele>
        <time>2014-08-09T09:58:08Z</time>
      </trkpt>
      <trkpt lat="45.1967" lon="6.28151">
        <ele>1327</ele>
        <time>2014-08-09T09:58:09Z</time>
      </trkpt>
      <trkpt lat="45.19662" lon="6.28165">
        <ele>1321</ele>
        <time>2014-08-09T09:58:10Z</time>
      </trkpt>
      <trkpt lat="45.19656" lon="6.28177">
        <ele>1320</ele>
        <time>2014-08-09T09:58:11Z</time>
      </trkpt>
      <trkpt lat="45.19649" lon="6.28187">
        <ele>1319</ele>
        <time>2014-08-09T09:58:12Z</time>
      </trkpt>
      <trkpt lat="45.19636" lon="6.28196">
        <ele>1319</ele>
        <time>2014-08-09T09:58:14Z</time>
      </trkpt>
      <trkpt lat="45.19624" lon="6.28193">
        <ele>1318</ele>
        <time>2014-08-09T09:58:16Z</time>
      </trkpt>
      <trkpt lat="45.19614" lon="6.28178">
        <ele>1317</ele>
        <time>2014-08-09T09:58:18Z</time>
      </trkpt>
      <trkpt lat="45.196" lon="6.28169">
        <ele>1316</ele>
        <time>2014-08-09T09:58:20Z</time>
      </trkpt>
      <trkpt lat="45.19589" lon="6.28181">
        <ele>1316</ele>
        <time>2014-08-09T09:58:22Z</time>
      </trkpt>
      <trkpt lat="45.1958" lon="6.28191">
        <ele>1318</ele>
        <time>2014-08-09T09:58:23Z</time>
      </trkpt>
      <trkpt lat="45.19572" lon="6.28202">
        <ele>1318</ele>
        <time>2014-08-09T09:58:24Z</time>
      </trkpt>
      <trkpt lat="45.19567" lon="6.28213">
        <ele>1318</ele>
        <time>2014-08-09T09:58:25Z</time>
      </trkpt>
      <trkpt lat="45.19562" lon="6.28224">
        <ele>1317</ele>
        <time>2014-08-09T09:58:26Z</time>
      </trkpt>
      <trkpt lat="45.19556" lon="6.28236">
        <ele>1317</ele>
        <time>2014-08-09T09:58:27Z</time>
      </trkpt>
      <trkpt lat="45.19553" lon="6.28249">
        <ele>1317</ele>
        <time>2014-08-09T09:58:28Z</time>
      </trkpt>
      <trkpt lat="45.19548" lon="6.2826">
        <ele>1312</ele>
        <time>2014-08-09T09:58:29Z</time>
      </trkpt>
      <trkpt lat="45.19543" lon="6.28273">
        <ele>1312</ele>
        <time>2014-08-09T09:58:30Z</time>
      </trkpt>
      <trkpt lat="45.19539" lon="6.28285">
        <ele>1312</ele>
        <time>2014-08-09T09:58:31Z</time>
      </trkpt>
      <trkpt lat="45.19534" lon="6.28298">
        <ele>1311</ele>
        <time>2014-08-09T09:58:32Z</time>
      </trkpt>
      <trkpt lat="45.19527" lon="6.2831">
        <ele>1310</ele>
        <time>2014-08-09T09:58:33Z</time>
      </trkpt>
      <trkpt lat="45.19522" lon="6.28322">
        <ele>1309</ele>
        <time>2014-08-09T09:58:34Z</time>
      </trkpt>
      <trkpt lat="45.19515" lon="6.28333">
        <ele>1308</ele>
        <time>2014-08-09T09:58:35Z</time>
      </trkpt>
      <trkpt lat="45.19508" lon="6.28345">
        <ele>1306</ele>
        <time>2014-08-09T09:58:36Z</time>
      </trkpt>
      <trkpt lat="45.19499" lon="6.28355">
        <ele>1305</ele>
        <time>2014-08-09T09:58:37Z</time>
      </trkpt>
      <trkpt lat="45.19489" lon="6.28365">
        <ele>1305</ele>
        <time>2014-08-09T09:58:38Z</time>
      </trkpt>
      <trkpt lat="45.19482" lon="6.28375">
        <ele>1305</ele>
        <time>2014-08-09T09:58:39Z</time>
      </trkpt>
      <trkpt lat="45.19474" lon="6.28385">
        <ele>1305</ele>
        <time>2014-08-09T09:58:40Z</time>
      </trkpt>
      <trkpt lat="45.19464" lon="6.28393">
        <ele>1304</ele>
        <time>2014-08-09T09:58:41Z</time>
      </trkpt>
      <trkpt lat="45.19455" lon="6.284">
        <ele>1304</ele>
        <time>2014-08-09T09:58:42Z</time>
      </trkpt>
      <trkpt lat="45.19445" lon="6.28407">
        <ele>1304</ele>
        <time>2014-08-09T09:58:43Z</time>
      </trkpt>
      <trkpt lat="45.19435" lon="6.28413">
        <ele>1303</ele>
        <time>2014-08-09T09:58:44Z</time>
      </trkpt>
      <trkpt lat="45.19424" lon="6.28417">
        <ele>1299</ele>
        <time>2014-08-09T09:58:45Z</time>
      </trkpt>
      <trkpt lat="45.19414" lon="6.28422">
        <ele>1299</ele>
        <time>2014-08-09T09:58:46Z</time>
      </trkpt>
      <trkpt lat="45.19405" lon="6.28426">
        <ele>1300</ele>
        <time>2014-08-09T09:58:47Z</time>
      </trkpt>
      <trkpt lat="45.19395" lon="6.2843">
        <ele>1300</ele>
        <time>2014-08-09T09:58:48Z</time>
      </trkpt>
      <trkpt lat="45.19386" lon="6.28434">
        <ele>1300</ele>
        <time>2014-08-09T09:58:49Z</time>
      </trkpt>
      <trkpt lat="45.1937" lon="6.28444">
        <ele>1301</ele>
        <time>2014-08-09T09:58:51Z</time>
      </trkpt>
      <trkpt lat="45.19353" lon="6.28454">
        <ele>1300</ele>
        <time>2014-08-09T09:58:53Z</time>
      </trkpt>
      <trkpt lat="45.19337" lon="6.28469">
        <ele>1298</ele>
        <time>2014-08-09T09:58:55Z</time>
      </trkpt>
      <trkpt lat="45.19323" lon="6.28485">
        <ele>1302</ele>
        <time>2014-08-09T09:58:57Z</time>
      </trkpt>
      <trkpt lat="45.19316" lon="6.28495">
        <ele>1302</ele>
        <time>2014-08-09T09:58:58Z</time>
      </trkpt>
      <trkpt lat="45.19308" lon="6.28504">
        <ele>1295</ele>
        <time>2014-08-09T09:58:59Z</time>
      </trkpt>
      <trkpt lat="45.19301" lon="6.28513">
        <ele>1296</ele>
        <time>2014-08-09T09:59:00Z</time>
      </trkpt>
      <trkpt lat="45.19294" lon="6.28522">
        <ele>1296</ele>
        <time>2014-08-09T09:59:01Z</time>
      </trkpt>
      <trkpt lat="45.19287" lon="6.28531">
        <ele>1296</ele>
        <time>2014-08-09T09:59:02Z</time>
      </trkpt>
      <trkpt lat="45.1928" lon="6.2854">
        <ele>1296</ele>
        <time>2014-08-09T09:59:03Z</time>
      </trkpt>
      <trkpt lat="45.19273" lon="6.2855">
        <ele>1295</ele>
        <time>2014-08-09T09:59:04Z</time>
      </trkpt>
      <trkpt lat="45.19259" lon="6.28567">
        <ele>1292</ele>
        <time>2014-08-09T09:59:06Z</time>
      </trkpt>
      <trkpt lat="45.19248" lon="6.28584">
        <ele>1288</ele>
        <time>2014-08-09T09:59:08Z</time>
      </trkpt>
      <trkpt lat="45.1924" lon="6.286">
        <ele>1287</ele>
        <time>2014-08-09T09:59:10Z</time>
      </trkpt>
      <trkpt lat="45.1923" lon="6.28612">
        <ele>1287</ele>
        <time>2014-08-09T09:59:12Z</time>
      </trkpt>
      <trkpt lat="45.19219" lon="6.28624">
        <ele>1286</ele>
        <time>2014-08-09T09:59:14Z</time>
      </trkpt>
      <trkpt lat="45.19208" lon="6.28635">
        <ele>1286</ele>
        <time>2014-08-09T09:59:16Z</time>
      </trkpt>
      <trkpt lat="45.19198" lon="6.28641">
        <ele>1286</ele>
        <time>2014-08-09T09:59:18Z</time>
      </trkpt>
      <trkpt lat="45.19189" lon="6.28629">
        <ele>1286</ele>
        <time>2014-08-09T09:59:24Z</time>
      </trkpt>
      <trkpt lat="45.19184" lon="6.28618">
        <ele>1287</ele>
        <time>2014-08-09T09:59:27Z</time>
      </trkpt>
      <trkpt lat="45.19177" lon="6.28609">
        <ele>1288</ele>
        <time>2014-08-09T09:59:31Z</time>
      </trkpt>
      <trkpt lat="45.19163" lon="6.28599">
        <ele>1290</ele>
        <time>2014-08-09T09:59:36Z</time>
      </trkpt>
      <trkpt lat="45.19156" lon="6.28588">
        <ele>1290</ele>
        <time>2014-08-09T09:59:41Z</time>
      </trkpt>
      <trkpt lat="45.19146" lon="6.28584">
        <ele>1290</ele>
        <time>2014-08-09T09:59:43Z</time>
      </trkpt>
      <trkpt lat="45.19137" lon="6.28576">
        <ele>1293</ele>
        <time>2014-08-09T09:59:46Z</time>
      </trkpt>
      <trkpt lat="45.1913" lon="6.28567">
        <ele>1293</ele>
        <time>2014-08-09T09:59:51Z</time>
      </trkpt>
      <trkpt lat="45.19125" lon="6.28556">
        <ele>1293</ele>
        <time>2014-08-09T09:59:56Z</time>
      </trkpt>
      <trkpt lat="45.1912" lon="6.28542">
        <ele>1294</ele>
        <time>2014-08-09T10:00:00Z</time>
      </trkpt>
      <trkpt lat="45.19111" lon="6.28537">
        <ele>1293</ele>
        <time>2014-08-09T10:00:04Z</time>
      </trkpt>
      <trkpt lat="45.19102" lon="6.28533">
        <ele>1293</ele>
        <time>2014-08-09T10:00:14Z</time>
      </trkpt>
      <trkpt lat="45.19092" lon="6.28527">
        <ele>1292</ele>
        <time>2014-08-09T10:00:20Z</time>
      </trkpt>
      <trkpt lat="45.19081" lon="6.28528">
        <ele>1291</ele>
        <time>2014-08-09T10:00:24Z</time>
      </trkpt>
      <trkpt lat="45.19072" lon="6.2852">
        <ele>1291</ele>
        <time>2014-08-09T10:00:27Z</time>
      </trkpt>
      <trkpt lat="45.19065" lon="6.28508">
        <ele>1291</ele>
        <time>2014-08-09T10:00:30Z</time>
      </trkpt>
      <trkpt lat="45.19056" lon="6.28498">
        <ele>1294</ele>
        <time>2014-08-09T10:00:34Z</time>
      </trkpt>
      <trkpt lat="45.19046" lon="6.2849">
        <ele>1295</ele>
        <time>2014-08-09T10:00:38Z</time>
      </trkpt>
      <trkpt lat="45.19039" lon="6.28478">
        <ele>1295</ele>
        <time>2014-08-09T10:00:42Z</time>
      </trkpt>
      <trkpt lat="45.19032" lon="6.28467">
        <ele>1295</ele>
        <time>2014-08-09T10:00:46Z</time>
      </trkpt>
      <trkpt lat="45.19024" lon="6.28456">
        <ele>1296</ele>
        <time>2014-08-09T10:00:50Z</time>
      </trkpt>
      <trkpt lat="45.19015" lon="6.28452">
        <ele>1296</ele>
        <time>2014-08-09T10:00:53Z</time>
      </trkpt>
      <trkpt lat="45.19006" lon="6.28445">
        <ele>1295</ele>
        <time>2014-08-09T10:00:57Z</time>
      </trkpt>
      <trkpt lat="45.18995" lon="6.28443">
        <ele>1296</ele>
        <time>2014-08-09T10:01:01Z</time>
      </trkpt>
      <trkpt lat="45.18985" lon="6.28436">
        <ele>1296</ele>
        <time>2014-08-09T10:01:07Z</time>
      </trkpt>
      <trkpt lat="45.18975" lon="6.28436">
        <ele>1296</ele>
        <time>2014-08-09T10:01:11Z</time>
      </trkpt>
      <trkpt lat="45.18963" lon="6.28433">
        <ele>1297</ele>
        <time>2014-08-09T10:01:13Z</time>
      </trkpt>
      <trkpt lat="45.1895" lon="6.28425">
        <ele>1297</ele>
        <time>2014-08-09T10:01:15Z</time>
      </trkpt>
      <trkpt lat="45.18938" lon="6.28424">
        <ele>1297</ele>
        <time>2014-08-09T10:01:17Z</time>
      </trkpt>
      <trkpt lat="45.18928" lon="6.28424">
        <ele>1297</ele>
        <time>2014-08-09T10:01:20Z</time>
      </trkpt>
      <trkpt lat="45.18918" lon="6.28423">
        <ele>1296</ele>
        <time>2014-08-09T10:01:23Z</time>
      </trkpt>
      <trkpt lat="45.18909" lon="6.28418">
        <ele>1298</ele>
        <time>2014-08-09T10:01:26Z</time>
      </trkpt>
      <trkpt lat="45.18898" lon="6.28413">
        <ele>1301</ele>
        <time>2014-08-09T10:01:29Z</time>
      </trkpt>
      <trkpt lat="45.18887" lon="6.28409">
        <ele>1302</ele>
        <time>2014-08-09T10:01:31Z</time>
      </trkpt>
      <trkpt lat="45.18876" lon="6.28404">
        <ele>1304</ele>
        <time>2014-08-09T10:01:34Z</time>
      </trkpt>
      <trkpt lat="45.18867" lon="6.28401">
        <ele>1304</ele>
        <time>2014-08-09T10:01:36Z</time>
      </trkpt>
      <trkpt lat="45.18854" lon="6.28399">
        <ele>1305</ele>
        <time>2014-08-09T10:01:39Z</time>
      </trkpt>
      <trkpt lat="45.18844" lon="6.28399">
        <ele>1305</ele>
        <time>2014-08-09T10:01:42Z</time>
      </trkpt>
      <trkpt lat="45.18833" lon="6.28401">
        <ele>1309</ele>
        <time>2014-08-09T10:01:46Z</time>
      </trkpt>
      <trkpt lat="45.18822" lon="6.28407">
        <ele>1309</ele>
        <time>2014-08-09T10:01:50Z</time>
      </trkpt>
      <trkpt lat="45.18812" lon="6.28411">
        <ele>1311</ele>
        <time>2014-08-09T10:01:55Z</time>
      </trkpt>
      <trkpt lat="45.18802" lon="6.28418">
        <ele>1311</ele>
        <time>2014-08-09T10:02:01Z</time>
      </trkpt>
      <trkpt lat="45.18794" lon="6.28425">
        <ele>1312</ele>
        <time>2014-08-09T10:02:06Z</time>
      </trkpt>
      <trkpt lat="45.18784" lon="6.28432">
        <ele>1312</ele>
        <time>2014-08-09T10:02:11Z</time>
      </trkpt>
      <trkpt lat="45.18775" lon="6.28438">
        <ele>1313</ele>
        <time>2014-08-09T10:02:17Z</time>
      </trkpt>
      <trkpt lat="45.18766" lon="6.28443">
        <ele>1313</ele>
        <time>2014-08-09T10:02:23Z</time>
      </trkpt>
      <trkpt lat="45.18756" lon="6.28449">
        <ele>1314</ele>
        <time>2014-08-09T10:02:30Z</time>
      </trkpt>
      <trkpt lat="45.18747" lon="6.28453">
        <ele>1318</ele>
        <time>2014-08-09T10:02:37Z</time>
      </trkpt>
      <trkpt lat="45.18738" lon="6.28457">
        <ele>1318</ele>
        <time>2014-08-09T10:02:43Z</time>
      </trkpt>
      <trkpt lat="45.18729" lon="6.28453">
        <ele>1318</ele>
        <time>2014-08-09T10:02:51Z</time>
      </trkpt>
      <trkpt lat="45.18719" lon="6.28452">
        <ele>1319</ele>
        <time>2014-08-09T10:02:56Z</time>
      </trkpt>
      <trkpt lat="45.18708" lon="6.28458">
        <ele>1320</ele>
        <time>2014-08-09T10:03:02Z</time>
      </trkpt>
      <trkpt lat="45.18699" lon="6.28464">
        <ele>1321</ele>
        <time>2014-08-09T10:03:09Z</time>
      </trkpt>
      <trkpt lat="45.18689" lon="6.2847">
        <ele>1322</ele>
        <time>2014-08-09T10:03:15Z</time>
      </trkpt>
      <trkpt lat="45.1868" lon="6.2847">
        <ele>1322</ele>
        <time>2014-08-09T10:03:20Z</time>
      </trkpt>
      <trkpt lat="45.1867" lon="6.28476">
        <ele>1323</ele>
        <time>2014-08-09T10:03:29Z</time>
      </trkpt>
      <trkpt lat="45.18662" lon="6.28487">
        <ele>1329</ele>
        <time>2014-08-09T10:03:35Z</time>
      </trkpt>
      <trkpt lat="45.18672" lon="6.28492">
        <ele>1326</ele>
        <time>2014-08-09T10:03:45Z</time>
      </trkpt>
      <trkpt lat="45.18681" lon="6.28496">
        <ele>1325</ele>
        <time>2014-08-09T10:03:52Z</time>
      </trkpt>
      <trkpt lat="45.1869" lon="6.28491">
        <ele>1323</ele>
        <time>2014-08-09T10:03:58Z</time>
      </trkpt>
      <trkpt lat="45.187" lon="6.28492">
        <ele>1322</ele>
        <time>2014-08-09T10:04:06Z</time>
      </trkpt>
      <trkpt lat="45.18708" lon="6.285">
        <ele>1335</ele>
        <time>2014-08-09T10:04:12Z</time>
      </trkpt>
      <trkpt lat="45.18716" lon="6.28508">
        <ele>1335</ele>
        <time>2014-08-09T10:04:21Z</time>
      </trkpt>
      <trkpt lat="45.18726" lon="6.28512">
        <ele>1334</ele>
        <time>2014-08-09T10:04:30Z</time>
      </trkpt>
      <trkpt lat="45.18717" lon="6.28519">
        <ele>1337</ele>
        <time>2014-08-09T10:04:58Z</time>
      </trkpt>
      <trkpt lat="45.18706" lon="6.28517">
        <ele>1337</ele>
        <time>2014-08-09T10:05:04Z</time>
      </trkpt>
      <trkpt lat="45.18696" lon="6.28521">
        <ele>1338</ele>
        <time>2014-08-09T10:05:11Z</time>
      </trkpt>
      <trkpt lat="45.18687" lon="6.28515">
        <ele>1337</ele>
        <time>2014-08-09T10:05:20Z</time>
      </trkpt>
      <trkpt lat="45.18678" lon="6.2852">
        <ele>1337</ele>
        <time>2014-08-09T10:05:35Z</time>
      </trkpt>
      <trkpt lat="45.18671" lon="6.2853">
        <ele>1340</ele>
        <time>2014-08-09T10:05:44Z</time>
      </trkpt>
      <trkpt lat="45.18663" lon="6.28539">
        <ele>1348</ele>
        <time>2014-08-09T10:05:49Z</time>
      </trkpt>
      <trkpt lat="45.18653" lon="6.28541">
        <ele>1349</ele>
        <time>2014-08-09T10:05:56Z</time>
      </trkpt>
      <trkpt lat="45.18643" lon="6.28545">
        <ele>1350</ele>
        <time>2014-08-09T10:06:03Z</time>
      </trkpt>
      <trkpt lat="45.18634" lon="6.28548">
        <ele>1351</ele>
        <time>2014-08-09T10:06:10Z</time>
      </trkpt>
      <trkpt lat="45.18625" lon="6.28551">
        <ele>1352</ele>
        <time>2014-08-09T10:06:17Z</time>
      </trkpt>
      <trkpt lat="45.18634" lon="6.28553">
        <ele>1352</ele>
        <time>2014-08-09T10:06:27Z</time>
      </trkpt>
      <trkpt lat="45.18644" lon="6.28551">
        <ele>1352</ele>
        <time>2014-08-09T10:06:36Z</time>
      </trkpt>
      <trkpt lat="45.18653" lon="6.28545">
        <ele>1350</ele>
        <time>2014-08-09T10:06:46Z</time>
      </trkpt>
      <trkpt lat="45.18661" lon="6.28539">
        <ele>1348</ele>
        <time>2014-08-09T10:06:53Z</time>
      </trkpt>
      <trkpt lat="45.18671" lon="6.28538">
        <ele>1342</ele>
        <time>2014-08-09T10:06:59Z</time>
      </trkpt>
      <trkpt lat="45.18681" lon="6.28537">
        <ele>1342</ele>
        <time>2014-08-09T10:07:08Z</time>
      </trkpt>
      <trkpt lat="45.18691" lon="6.28534">
        <ele>1341</ele>
        <time>2014-08-09T10:07:20Z</time>
      </trkpt>
      <trkpt lat="45.18701" lon="6.28538">
        <ele>1341</ele>
        <time>2014-08-09T10:07:28Z</time>
      </trkpt>
      <trkpt lat="45.18711" lon="6.2854">
        <ele>1341</ele>
        <time>2014-08-09T10:07:36Z</time>
      </trkpt>
      <trkpt lat="45.18714" lon="6.28555">
        <ele>1344</ele>
        <time>2014-08-09T10:07:41Z</time>
      </trkpt>
      <trkpt lat="45.18717" lon="6.28567">
        <ele>1346</ele>
        <time>2014-08-09T10:07:47Z</time>
      </trkpt>
      <trkpt lat="45.18721" lon="6.28581">
        <ele>1347</ele>
        <time>2014-08-09T10:07:57Z</time>
      </trkpt>
      <trkpt lat="45.18726" lon="6.28593">
        <ele>1369</ele>
        <time>2014-08-09T10:08:09Z</time>
      </trkpt>
      <trkpt lat="45.18733" lon="6.28602">
        <ele>1370</ele>
        <time>2014-08-09T10:08:18Z</time>
      </trkpt>
      <trkpt lat="45.18743" lon="6.28599">
        <ele>1366</ele>
        <time>2014-08-09T10:08:26Z</time>
      </trkpt>
      <trkpt lat="45.18752" lon="6.28603">
        <ele>1364</ele>
        <time>2014-08-09T10:08:34Z</time>
      </trkpt>
      <trkpt lat="45.18762" lon="6.28598">
        <ele>1362</ele>
        <time>2014-08-09T10:08:43Z</time>
      </trkpt>
      <trkpt lat="45.18771" lon="6.28594">
        <ele>1363</ele>
        <time>2014-08-09T10:08:54Z</time>
      </trkpt>
      <trkpt lat="45.1878" lon="6.28591">
        <ele>1364</ele>
        <time>2014-08-09T10:09:00Z</time>
      </trkpt>
      <trkpt lat="45.18789" lon="6.28594">
        <ele>1364</ele>
        <time>2014-08-09T10:09:09Z</time>
      </trkpt>
      <trkpt lat="45.18798" lon="6.28592">
        <ele>1364</ele>
        <time>2014-08-09T10:09:15Z</time>
      </trkpt>
      <trkpt lat="45.18804" lon="6.28602">
        <ele>1365</ele>
        <time>2014-08-09T10:09:23Z</time>
      </trkpt>
      <trkpt lat="45.18812" lon="6.28611">
        <ele>1366</ele>
        <time>2014-08-09T10:09:32Z</time>
      </trkpt>
      <trkpt lat="45.18822" lon="6.2862">
        <ele>1368</ele>
        <time>2014-08-09T10:09:39Z</time>
      </trkpt>
      <trkpt lat="45.18829" lon="6.2863">
        <ele>1370</ele>
        <time>2014-08-09T10:09:47Z</time>
      </trkpt>
      <trkpt lat="45.18838" lon="6.28636">
        <ele>1365</ele>
        <time>2014-08-09T10:09:54Z</time>
      </trkpt>
      <trkpt lat="45.18845" lon="6.28645">
        <ele>1368</ele>
        <time>2014-08-09T10:10:00Z</time>
      </trkpt>
      <trkpt lat="45.18848" lon="6.28658">
        <ele>1371</ele>
        <time>2014-08-09T10:10:08Z</time>
      </trkpt>
      <trkpt lat="45.18855" lon="6.28667">
        <ele>1386</ele>
        <time>2014-08-09T10:10:20Z</time>
      </trkpt>
      <trkpt lat="45.18858" lon="6.28681">
        <ele>1387</ele>
        <time>2014-08-09T10:10:30Z</time>
      </trkpt>
      <trkpt lat="45.18868" lon="6.28684">
        <ele>1387</ele>
        <time>2014-08-09T10:10:52Z</time>
      </trkpt>
      <trkpt lat="45.18877" lon="6.2868">
        <ele>1385</ele>
        <time>2014-08-09T10:11:01Z</time>
      </trkpt>
      <trkpt lat="45.18886" lon="6.28679">
        <ele>1384</ele>
        <time>2014-08-09T10:11:08Z</time>
      </trkpt>
      <trkpt lat="45.18897" lon="6.28677">
        <ele>1381</ele>
        <time>2014-08-09T10:11:18Z</time>
      </trkpt>
      <trkpt lat="45.18906" lon="6.28682">
        <ele>1379</ele>
        <time>2014-08-09T10:11:29Z</time>
      </trkpt>
      <trkpt lat="45.18916" lon="6.28686">
        <ele>1379</ele>
        <time>2014-08-09T10:11:37Z</time>
      </trkpt>
      <trkpt lat="45.18921" lon="6.28699">
        <ele>1367</ele>
        <time>2014-08-09T10:11:45Z</time>
      </trkpt>
      <trkpt lat="45.18917" lon="6.28712">
        <ele>1370</ele>
        <time>2014-08-09T10:11:52Z</time>
      </trkpt>
      <trkpt lat="45.18911" lon="6.28723">
        <ele>1391</ele>
        <time>2014-08-09T10:12:00Z</time>
      </trkpt>
      <trkpt lat="45.18903" lon="6.28735">
        <ele>1393</ele>
        <time>2014-08-09T10:12:07Z</time>
      </trkpt>
      <trkpt lat="45.18896" lon="6.28745">
        <ele>1394</ele>
        <time>2014-08-09T10:12:12Z</time>
      </trkpt>
      <trkpt lat="45.18888" lon="6.28753">
        <ele>1409</ele>
        <time>2014-08-09T10:12:20Z</time>
      </trkpt>
      <trkpt lat="45.18879" lon="6.28759">
        <ele>1411</ele>
        <time>2014-08-09T10:12:29Z</time>
      </trkpt>
      <trkpt lat="45.1887" lon="6.28762">
        <ele>1413</ele>
        <time>2014-08-09T10:12:42Z</time>
      </trkpt>
      <trkpt lat="45.1886" lon="6.28764">
        <ele>1415</ele>
        <time>2014-08-09T10:12:52Z</time>
      </trkpt>
      <trkpt lat="45.18851" lon="6.28761">
        <ele>1416</ele>
        <time>2014-08-09T10:13:19Z</time>
      </trkpt>
      <trkpt lat="45.18844" lon="6.28749">
        <ele>1408</ele>
        <time>2014-08-09T10:13:31Z</time>
      </trkpt>
      <trkpt lat="45.18836" lon="6.28743">
        <ele>1410</ele>
        <time>2014-08-09T10:13:37Z</time>
      </trkpt>
      <trkpt lat="45.18827" lon="6.28737">
        <ele>1412</ele>
        <time>2014-08-09T10:13:45Z</time>
      </trkpt>
      <trkpt lat="45.18818" lon="6.28734">
        <ele>1410</ele>
        <time>2014-08-09T10:13:52Z</time>
      </trkpt>
      <trkpt lat="45.18807" lon="6.28734">
        <ele>1410</ele>
        <time>2014-08-09T10:13:59Z</time>
      </trkpt>
      <trkpt lat="45.18797" lon="6.28735">
        <ele>1411</ele>
        <time>2014-08-09T10:14:06Z</time>
      </trkpt>
      <trkpt lat="45.18787" lon="6.28735">
        <ele>1411</ele>
        <time>2014-08-09T10:14:17Z</time>
      </trkpt>
      <trkpt lat="45.1878" lon="6.28743">
        <ele>1414</ele>
        <time>2014-08-09T10:14:26Z</time>
      </trkpt>
      <trkpt lat="45.18772" lon="6.28754">
        <ele>1433</ele>
        <time>2014-08-09T10:14:34Z</time>
      </trkpt>
      <trkpt lat="45.18762" lon="6.28756">
        <ele>1433</ele>
        <time>2014-08-09T10:14:41Z</time>
      </trkpt>
      <trkpt lat="45.18753" lon="6.28761">
        <ele>1433</ele>
        <time>2014-08-09T10:14:51Z</time>
      </trkpt>
      <trkpt lat="45.18743" lon="6.28762">
        <ele>1439</ele>
        <time>2014-08-09T10:15:03Z</time>
      </trkpt>
      <trkpt lat="45.18735" lon="6.28769">
        <ele>1444</ele>
        <time>2014-08-09T10:15:14Z</time>
      </trkpt>
      <trkpt lat="45.18724" lon="6.28768">
        <ele>1445</ele>
        <time>2014-08-09T10:15:21Z</time>
      </trkpt>
      <trkpt lat="45.18715" lon="6.28771">
        <ele>1447</ele>
        <time>2014-08-09T10:15:29Z</time>
      </trkpt>
      <trkpt lat="45.18705" lon="6.28775">
        <ele>1449</ele>
        <time>2014-08-09T10:15:40Z</time>
      </trkpt>
      <trkpt lat="45.18701" lon="6.28788">
        <ele>1451</ele>
        <time>2014-08-09T10:15:52Z</time>
      </trkpt>
      <trkpt lat="45.18695" lon="6.28797">
        <ele>1454</ele>
        <time>2014-08-09T10:16:03Z</time>
      </trkpt>
      <trkpt lat="45.18688" lon="6.28788">
        <ele>1452</ele>
        <time>2014-08-09T10:16:12Z</time>
      </trkpt>
      <trkpt lat="45.18681" lon="6.28779">
        <ele>1450</ele>
        <time>2014-08-09T10:16:23Z</time>
      </trkpt>
      <trkpt lat="45.18674" lon="6.2877">
        <ele>1447</ele>
        <time>2014-08-09T10:16:34Z</time>
      </trkpt>
      <trkpt lat="45.18666" lon="6.28761">
        <ele>1448</ele>
        <time>2014-08-09T10:16:44Z</time>
      </trkpt>
      <trkpt lat="45.18658" lon="6.28754">
        <ele>1447</ele>
        <time>2014-08-09T10:16:50Z</time>
      </trkpt>
      <trkpt lat="45.18649" lon="6.28751">
        <ele>1450</ele>
        <time>2014-08-09T10:17:01Z</time>
      </trkpt>
      <trkpt lat="45.18638" lon="6.28748">
        <ele>1431</ele>
        <time>2014-08-09T10:17:08Z</time>
      </trkpt>
      <trkpt lat="45.18628" lon="6.2875">
        <ele>1431</ele>
        <time>2014-08-09T10:17:18Z</time>
      </trkpt>
      <trkpt lat="45.18618" lon="6.28748">
        <ele>1432</ele>
        <time>2014-08-09T10:17:26Z</time>
      </trkpt>
      <trkpt lat="45.18609" lon="6.28754">
        <ele>1455</ele>
        <time>2014-08-09T10:17:33Z</time>
      </trkpt>
      <trkpt lat="45.18601" lon="6.28761">
        <ele>1455</ele>
        <time>2014-08-09T10:17:42Z</time>
      </trkpt>
      <trkpt lat="45.18593" lon="6.28769">
        <ele>1456</ele>
        <time>2014-08-09T10:18:00Z</time>
      </trkpt>
      <trkpt lat="45.18583" lon="6.28773">
        <ele>1464</ele>
        <time>2014-08-09T10:18:05Z</time>
      </trkpt>
      <trkpt lat="45.18593" lon="6.28776">
        <ele>1458</ele>
        <time>2014-08-09T10:18:23Z</time>
      </trkpt>
      <trkpt lat="45.186" lon="6.28784">
        <ele>1461</ele>
        <time>2014-08-09T10:18:30Z</time>
      </trkpt>
      <trkpt lat="45.18609" lon="6.28777">
        <ele>1459</ele>
        <time>2014-08-09T10:18:38Z</time>
      </trkpt>
      <trkpt lat="45.18618" lon="6.28773">
        <ele>1458</ele>
        <time>2014-08-09T10:18:48Z</time>
      </trkpt>
      <trkpt lat="45.18627" lon="6.28778">
        <ele>1459</ele>
        <time>2014-08-09T10:18:57Z</time>
      </trkpt>
      <trkpt lat="45.18635" lon="6.28785">
        <ele>1460</ele>
        <time>2014-08-09T10:19:09Z</time>
      </trkpt>
      <trkpt lat="45.18639" lon="6.28799">
        <ele>1463</ele>
        <time>2014-08-09T10:19:23Z</time>
      </trkpt>
      <trkpt lat="45.18644" lon="6.28811">
        <ele>1466</ele>
        <time>2014-08-09T10:19:39Z</time>
      </trkpt>
      <trkpt lat="45.18646" lon="6.28824">
        <ele>1468</ele>
        <time>2014-08-09T10:19:47Z</time>
      </trkpt>
      <trkpt lat="45.18648" lon="6.28837">
        <ele>1486</ele>
        <time>2014-08-09T10:19:59Z</time>
      </trkpt>
      <trkpt lat="45.18649" lon="6.28851">
        <ele>1488</ele>
        <time>2014-08-09T10:20:11Z</time>
      </trkpt>
      <trkpt lat="45.18655" lon="6.28862">
        <ele>1490</ele>
        <time>2014-08-09T10:20:23Z</time>
      </trkpt>
      <trkpt lat="45.18664" lon="6.28866">
        <ele>1491</ele>
        <time>2014-08-09T10:20:36Z</time>
      </trkpt>
      <trkpt lat="45.18673" lon="6.28871">
        <ele>1482</ele>
        <time>2014-08-09T10:20:51Z</time>
      </trkpt>
      <trkpt lat="45.18682" lon="6.28874">
        <ele>1482</ele>
        <time>2014-08-09T10:20:58Z</time>
      </trkpt>
      <trkpt lat="45.18692" lon="6.28876">
        <ele>1482</ele>
        <time>2014-08-09T10:21:05Z</time>
      </trkpt>
      <trkpt lat="45.18702" lon="6.28878">
        <ele>1481</ele>
        <time>2014-08-09T10:21:13Z</time>
      </trkpt>
      <trkpt lat="45.18698" lon="6.28893">
        <ele>1484</ele>
        <time>2014-08-09T10:21:20Z</time>
      </trkpt>
      <trkpt lat="45.18689" lon="6.289">
        <ele>1486</ele>
        <time>2014-08-09T10:21:24Z</time>
      </trkpt>
      <trkpt lat="45.18698" lon="6.28897">
        <ele>1484</ele>
        <time>2014-08-09T10:21:28Z</time>
      </trkpt>
      <trkpt lat="45.18708" lon="6.28893">
        <ele>1483</ele>
        <time>2014-08-09T10:21:31Z</time>
      </trkpt>
      <trkpt lat="45.18721" lon="6.28892">
        <ele>1482</ele>
        <time>2014-08-09T10:21:35Z</time>
      </trkpt>
      <trkpt lat="45.1873" lon="6.28894">
        <ele>1482</ele>
        <time>2014-08-09T10:21:39Z</time>
      </trkpt>
      <trkpt lat="45.18736" lon="6.28904">
        <ele>1484</ele>
        <time>2014-08-09T10:21:44Z</time>
      </trkpt>
      <trkpt lat="45.18742" lon="6.28916">
        <ele>1485</ele>
        <time>2014-08-09T10:21:49Z</time>
      </trkpt>
      <trkpt lat="45.18743" lon="6.28929">
        <ele>1492</ele>
        <time>2014-08-09T10:21:53Z</time>
      </trkpt>
      <trkpt lat="45.18742" lon="6.28943">
        <ele>1495</ele>
        <time>2014-08-09T10:21:56Z</time>
      </trkpt>
      <trkpt lat="45.18741" lon="6.28956">
        <ele>1496</ele>
        <time>2014-08-09T10:21:59Z</time>
      </trkpt>
      <trkpt lat="45.18742" lon="6.2897">
        <ele>1497</ele>
        <time>2014-08-09T10:22:03Z</time>
      </trkpt>
      <trkpt lat="45.18749" lon="6.28981">
        <ele>1497</ele>
        <time>2014-08-09T10:22:08Z</time>
      </trkpt>
      <trkpt lat="45.18754" lon="6.28992">
        <ele>1488</ele>
        <time>2014-08-09T10:22:12Z</time>
      </trkpt>
      <trkpt lat="45.18761" lon="6.29001">
        <ele>1489</ele>
        <time>2014-08-09T10:22:16Z</time>
      </trkpt>
      <trkpt lat="45.18766" lon="6.29014">
        <ele>1486</ele>
        <time>2014-08-09T10:22:20Z</time>
      </trkpt>
      <trkpt lat="45.18766" lon="6.29027">
        <ele>1485</ele>
        <time>2014-08-09T10:22:24Z</time>
      </trkpt>
      <trkpt lat="45.18763" lon="6.2904">
        <ele>1486</ele>
        <time>2014-08-09T10:22:27Z</time>
      </trkpt>
      <trkpt lat="45.18757" lon="6.29054">
        <ele>1489</ele>
        <time>2014-08-09T10:22:31Z</time>
      </trkpt>
      <trkpt lat="45.18754" lon="6.29067">
        <ele>1494</ele>
        <time>2014-08-09T10:22:35Z</time>
      </trkpt>
      <trkpt lat="45.18754" lon="6.29081">
        <ele>1504</ele>
        <time>2014-08-09T10:22:39Z</time>
      </trkpt>
      <trkpt lat="45.18757" lon="6.29096">
        <ele>1500</ele>
        <time>2014-08-09T10:22:46Z</time>
      </trkpt>
      <trkpt lat="45.18764" lon="6.29106">
        <ele>1496</ele>
        <time>2014-08-09T10:22:51Z</time>
      </trkpt>
      <trkpt lat="45.18769" lon="6.29119">
        <ele>1494</ele>
        <time>2014-08-09T10:22:56Z</time>
      </trkpt>
      <trkpt lat="45.18766" lon="6.29134">
        <ele>1496</ele>
        <time>2014-08-09T10:23:00Z</time>
      </trkpt>
      <trkpt lat="45.18761" lon="6.29147">
        <ele>1500</ele>
        <time>2014-08-09T10:23:04Z</time>
      </trkpt>
      <trkpt lat="45.18759" lon="6.2916">
        <ele>1506</ele>
        <time>2014-08-09T10:23:09Z</time>
      </trkpt>
      <trkpt lat="45.18759" lon="6.29176">
        <ele>1507</ele>
        <time>2014-08-09T10:23:16Z</time>
      </trkpt>
      <trkpt lat="45.1876" lon="6.2919">
        <ele>1503</ele>
        <time>2014-08-09T10:23:23Z</time>
      </trkpt>
      <trkpt lat="45.18763" lon="6.29204">
        <ele>1501</ele>
        <time>2014-08-09T10:23:27Z</time>
      </trkpt>
      <trkpt lat="45.18764" lon="6.2922">
        <ele>1503</ele>
        <time>2014-08-09T10:23:31Z</time>
      </trkpt>
      <trkpt lat="45.18766" lon="6.29235">
        <ele>1506</ele>
        <time>2014-08-09T10:23:35Z</time>
      </trkpt>
      <trkpt lat="45.18765" lon="6.29252">
        <ele>1511</ele>
        <time>2014-08-09T10:23:39Z</time>
      </trkpt>
      <trkpt lat="45.18762" lon="6.29268">
        <ele>1508</ele>
        <time>2014-08-09T10:23:42Z</time>
      </trkpt>
      <trkpt lat="45.18764" lon="6.29282">
        <ele>1506</ele>
        <time>2014-08-09T10:23:45Z</time>
      </trkpt>
      <trkpt lat="45.18772" lon="6.29291">
        <ele>1503</ele>
        <time>2014-08-09T10:23:50Z</time>
      </trkpt>
      <trkpt lat="45.18775" lon="6.29308">
        <ele>1504</ele>
        <time>2014-08-09T10:23:54Z</time>
      </trkpt>
      <trkpt lat="45.18778" lon="6.29322">
        <ele>1504</ele>
        <time>2014-08-09T10:23:57Z</time>
      </trkpt>
      <trkpt lat="45.18784" lon="6.2934">
        <ele>1505</ele>
        <time>2014-08-09T10:24:00Z</time>
      </trkpt>
      <trkpt lat="45.18792" lon="6.29357">
        <ele>1502</ele>
        <time>2014-08-09T10:24:02Z</time>
      </trkpt>
      <trkpt lat="45.18797" lon="6.29373">
        <ele>1500</ele>
        <time>2014-08-09T10:24:04Z</time>
      </trkpt>
      <trkpt lat="45.18797" lon="6.29391">
        <ele>1501</ele>
        <time>2014-08-09T10:24:06Z</time>
      </trkpt>
      <trkpt lat="45.18796" lon="6.29406">
        <ele>1502</ele>
        <time>2014-08-09T10:24:08Z</time>
      </trkpt>
      <trkpt lat="45.18797" lon="6.29421">
        <ele>1506</ele>
        <time>2014-08-09T10:24:10Z</time>
      </trkpt>
      <trkpt lat="45.18797" lon="6.29437">
        <ele>1506</ele>
        <time>2014-08-09T10:24:12Z</time>
      </trkpt>
      <trkpt lat="45.18801" lon="6.2945">
        <ele>1506</ele>
        <time>2014-08-09T10:24:14Z</time>
      </trkpt>
      <trkpt lat="45.18801" lon="6.29469">
        <ele>1507</ele>
        <time>2014-08-09T10:24:16Z</time>
      </trkpt>
      <trkpt lat="45.18806" lon="6.29486">
        <ele>1504</ele>
        <time>2014-08-09T10:24:18Z</time>
      </trkpt>
      <trkpt lat="45.18812" lon="6.29503">
        <ele>1505</ele>
        <time>2014-08-09T10:24:20Z</time>
      </trkpt>
      <trkpt lat="45.18817" lon="6.2952">
        <ele>1507</ele>
        <time>2014-08-09T10:24:22Z</time>
      </trkpt>
      <trkpt lat="45.18822" lon="6.29538">
        <ele>1510</ele>
        <time>2014-08-09T10:24:24Z</time>
      </trkpt>
      <trkpt lat="45.18827" lon="6.2955">
        <ele>1511</ele>
        <time>2014-08-09T10:24:26Z</time>
      </trkpt>
      <trkpt lat="45.18834" lon="6.29558">
        <ele>1490</ele>
        <time>2014-08-09T10:24:29Z</time>
      </trkpt>
      <trkpt lat="45.18843" lon="6.2955">
        <ele>1486</ele>
        <time>2014-08-09T10:24:35Z</time>
      </trkpt>
      <trkpt lat="45.18844" lon="6.29536">
        <ele>1483</ele>
        <time>2014-08-09T10:24:41Z</time>
      </trkpt>
      <trkpt lat="45.18853" lon="6.29539">
        <ele>1483</ele>
        <time>2014-08-09T10:24:46Z</time>
      </trkpt>
      <trkpt lat="45.18858" lon="6.29551">
        <ele>1484</ele>
        <time>2014-08-09T10:24:53Z</time>
      </trkpt>
      <trkpt lat="45.18867" lon="6.29556">
        <ele>1483</ele>
        <time>2014-08-09T10:24:59Z</time>
      </trkpt>
      <trkpt lat="45.18871" lon="6.29567">
        <ele>1483</ele>
        <time>2014-08-09T10:25:06Z</time>
      </trkpt>
      <trkpt lat="45.18881" lon="6.29574">
        <ele>1481</ele>
        <time>2014-08-09T10:25:10Z</time>
      </trkpt>
      <trkpt lat="45.18889" lon="6.29581">
        <ele>1480</ele>
        <time>2014-08-09T10:25:14Z</time>
      </trkpt>
      <trkpt lat="45.18897" lon="6.29589">
        <ele>1494</ele>
        <time>2014-08-09T10:25:20Z</time>
      </trkpt>
      <trkpt lat="45.18903" lon="6.296">
        <ele>1495</ele>
        <time>2014-08-09T10:25:25Z</time>
      </trkpt>
      <trkpt lat="45.1891" lon="6.29609">
        <ele>1497</ele>
        <time>2014-08-09T10:25:31Z</time>
      </trkpt>
      <trkpt lat="45.18918" lon="6.29616">
        <ele>1481</ele>
        <time>2014-08-09T10:25:37Z</time>
      </trkpt>
      <trkpt lat="45.18928" lon="6.29618">
        <ele>1481</ele>
        <time>2014-08-09T10:25:44Z</time>
      </trkpt>
      <trkpt lat="45.18938" lon="6.2962">
        <ele>1480</ele>
        <time>2014-08-09T10:25:53Z</time>
      </trkpt>
      <trkpt lat="45.18944" lon="6.29632">
        <ele>1481</ele>
        <time>2014-08-09T10:26:02Z</time>
      </trkpt>
      <trkpt lat="45.18949" lon="6.29644">
        <ele>1483</ele>
        <time>2014-08-09T10:26:08Z</time>
      </trkpt>
      <trkpt lat="45.18952" lon="6.29658">
        <ele>1484</ele>
        <time>2014-08-09T10:26:13Z</time>
      </trkpt>
      <trkpt lat="45.18958" lon="6.29671">
        <ele>1502</ele>
        <time>2014-08-09T10:26:19Z</time>
      </trkpt>
      <trkpt lat="45.1896" lon="6.29685">
        <ele>1502</ele>
        <time>2014-08-09T10:26:23Z</time>
      </trkpt>
      <trkpt lat="45.18965" lon="6.29698">
        <ele>1503</ele>
        <time>2014-08-09T10:26:29Z</time>
      </trkpt>
      <trkpt lat="45.18968" lon="6.29715">
        <ele>1505</ele>
        <time>2014-08-09T10:26:34Z</time>
      </trkpt>
      <trkpt lat="45.18973" lon="6.29729">
        <ele>1505</ele>
        <time>2014-08-09T10:26:40Z</time>
      </trkpt>
      <trkpt lat="45.18977" lon="6.29742">
        <ele>1504</ele>
        <time>2014-08-09T10:26:45Z</time>
      </trkpt>
      <trkpt lat="45.1898" lon="6.29754">
        <ele>1517</ele>
        <time>2014-08-09T10:26:51Z</time>
      </trkpt>
      <trkpt lat="45.18984" lon="6.29768">
        <ele>1519</ele>
        <time>2014-08-09T10:26:57Z</time>
      </trkpt>
      <trkpt lat="45.18988" lon="6.29781">
        <ele>1524</ele>
        <time>2014-08-09T10:27:03Z</time>
      </trkpt>
      <trkpt lat="45.1899" lon="6.29796">
        <ele>1527</ele>
        <time>2014-08-09T10:27:10Z</time>
      </trkpt>
      <trkpt lat="45.18993" lon="6.2981">
        <ele>1528</ele>
        <time>2014-08-09T10:27:16Z</time>
      </trkpt>
      <trkpt lat="45.18996" lon="6.29822">
        <ele>1526</ele>
        <time>2014-08-09T10:27:22Z</time>
      </trkpt>
      <trkpt lat="45.19002" lon="6.29833">
        <ele>1517</ele>
        <time>2014-08-09T10:27:29Z</time>
      </trkpt>
      <trkpt lat="45.19006" lon="6.29845">
        <ele>1513</ele>
        <time>2014-08-09T10:27:37Z</time>
      </trkpt>
      <trkpt lat="45.1901" lon="6.29859">
        <ele>1509</ele>
        <time>2014-08-09T10:27:43Z</time>
      </trkpt>
      <trkpt lat="45.19012" lon="6.29874">
        <ele>1510</ele>
        <time>2014-08-09T10:27:50Z</time>
      </trkpt>
      <trkpt lat="45.19015" lon="6.29886">
        <ele>1513</ele>
        <time>2014-08-09T10:27:53Z</time>
      </trkpt>
      <trkpt lat="45.19018" lon="6.29901">
        <ele>1517</ele>
        <time>2014-08-09T10:27:58Z</time>
      </trkpt>
      <trkpt lat="45.19024" lon="6.29911">
        <ele>1516</ele>
        <time>2014-08-09T10:28:07Z</time>
      </trkpt>
      <trkpt lat="45.19027" lon="6.29924">
        <ele>1526</ele>
        <time>2014-08-09T10:28:13Z</time>
      </trkpt>
      <trkpt lat="45.19029" lon="6.29939">
        <ele>1525</ele>
        <time>2014-08-09T10:28:18Z</time>
      </trkpt>
      <trkpt lat="45.19034" lon="6.29953">
        <ele>1523</ele>
        <time>2014-08-09T10:28:23Z</time>
      </trkpt>
      <trkpt lat="45.19037" lon="6.29965">
        <ele>1523</ele>
        <time>2014-08-09T10:28:27Z</time>
      </trkpt>
      <trkpt lat="45.19043" lon="6.29978">
        <ele>1522</ele>
        <time>2014-08-09T10:28:33Z</time>
      </trkpt>
      <trkpt lat="45.19045" lon="6.2999">
        <ele>1522</ele>
        <time>2014-08-09T10:28:39Z</time>
      </trkpt>
      <trkpt lat="45.1905" lon="6.30002">
        <ele>1528</ele>
        <time>2014-08-09T10:28:45Z</time>
      </trkpt>
      <trkpt lat="45.19054" lon="6.30015">
        <ele>1527</ele>
        <time>2014-08-09T10:28:51Z</time>
      </trkpt>
      <trkpt lat="45.19055" lon="6.30033">
        <ele>1529</ele>
        <time>2014-08-09T10:28:58Z</time>
      </trkpt>
      <trkpt lat="45.19058" lon="6.30046">
        <ele>1530</ele>
        <time>2014-08-09T10:29:03Z</time>
      </trkpt>
      <trkpt lat="45.19059" lon="6.3006">
        <ele>1530</ele>
        <time>2014-08-09T10:29:10Z</time>
      </trkpt>
      <trkpt lat="45.19065" lon="6.30071">
        <ele>1527</ele>
        <time>2014-08-09T10:29:20Z</time>
      </trkpt>
      <trkpt lat="45.19069" lon="6.3006">
        <ele>1527</ele>
        <time>2014-08-09T10:29:26Z</time>
      </trkpt>
      <trkpt lat="45.19072" lon="6.30045">
        <ele>1526</ele>
        <time>2014-08-09T10:29:30Z</time>
      </trkpt>
      <trkpt lat="45.19071" lon="6.30032">
        <ele>1525</ele>
        <time>2014-08-09T10:29:34Z</time>
      </trkpt>
      <trkpt lat="45.19069" lon="6.30016">
        <ele>1521</ele>
        <time>2014-08-09T10:29:38Z</time>
      </trkpt>
      <trkpt lat="45.19066" lon="6.30003">
        <ele>1519</ele>
        <time>2014-08-09T10:29:42Z</time>
      </trkpt>
      <trkpt lat="45.19066" lon="6.29988">
        <ele>1513</ele>
        <time>2014-08-09T10:29:47Z</time>
      </trkpt>
      <trkpt lat="45.19069" lon="6.29974">
        <ele>1513</ele>
        <time>2014-08-09T10:29:51Z</time>
      </trkpt>
      <trkpt lat="45.19078" lon="6.29971">
        <ele>1511</ele>
        <time>2014-08-09T10:30:09Z</time>
      </trkpt>
      <trkpt lat="45.19088" lon="6.29975">
        <ele>1477</ele>
        <time>2014-08-09T10:30:13Z</time>
      </trkpt>
      <trkpt lat="45.19095" lon="6.29987">
        <ele>1481</ele>
        <time>2014-08-09T10:30:17Z</time>
      </trkpt>
      <trkpt lat="45.19104" lon="6.29994">
        <ele>1478</ele>
        <time>2014-08-09T10:30:22Z</time>
      </trkpt>
      <trkpt lat="45.19113" lon="6.30004">
        <ele>1486</ele>
        <time>2014-08-09T10:30:27Z</time>
      </trkpt>
      <trkpt lat="45.19121" lon="6.30016">
        <ele>1483</ele>
        <time>2014-08-09T10:30:31Z</time>
      </trkpt>
      <trkpt lat="45.19129" lon="6.30024">
        <ele>1480</ele>
        <time>2014-08-09T10:30:35Z</time>
      </trkpt>
      <trkpt lat="45.19139" lon="6.30033">
        <ele>1478</ele>
        <time>2014-08-09T10:30:39Z</time>
      </trkpt>
      <trkpt lat="45.19145" lon="6.30043">
        <ele>1477</ele>
        <time>2014-08-09T10:30:45Z</time>
      </trkpt>
      <trkpt lat="45.19154" lon="6.30051">
        <ele>1475</ele>
        <time>2014-08-09T10:30:50Z</time>
      </trkpt>
      <trkpt lat="45.19163" lon="6.30063">
        <ele>1472</ele>
        <time>2014-08-09T10:30:55Z</time>
      </trkpt>
      <trkpt lat="45.1917" lon="6.30073">
        <ele>1453</ele>
        <time>2014-08-09T10:31:00Z</time>
      </trkpt>
      <trkpt lat="45.1917" lon="6.30058">
        <ele>1446</ele>
        <time>2014-08-09T10:31:11Z</time>
      </trkpt>
      <trkpt lat="45.19174" lon="6.30045">
        <ele>1442</ele>
        <time>2014-08-09T10:31:16Z</time>
      </trkpt>
      <trkpt lat="45.19174" lon="6.3003">
        <ele>1441</ele>
        <time>2014-08-09T10:31:21Z</time>
      </trkpt>
      <trkpt lat="45.19179" lon="6.30015">
        <ele>1441</ele>
        <time>2014-08-09T10:31:26Z</time>
      </trkpt>
      <trkpt lat="45.19182" lon="6.3">
        <ele>1441</ele>
        <time>2014-08-09T10:31:30Z</time>
      </trkpt>
      <trkpt lat="45.19179" lon="6.29988">
        <ele>1428</ele>
        <time>2014-08-09T10:31:33Z</time>
      </trkpt>
      <trkpt lat="45.19188" lon="6.2998">
        <ele>1419</ele>
        <time>2014-08-09T10:31:43Z</time>
      </trkpt>
      <trkpt lat="45.19199" lon="6.29982">
        <ele>1414</ele>
        <time>2014-08-09T10:31:47Z</time>
      </trkpt>
      <trkpt lat="45.19211" lon="6.29984">
        <ele>1410</ele>
        <time>2014-08-09T10:31:51Z</time>
      </trkpt>
      <trkpt lat="45.19221" lon="6.29991">
        <ele>1407</ele>
        <time>2014-08-09T10:31:55Z</time>
      </trkpt>
      <trkpt lat="45.19231" lon="6.29996">
        <ele>1404</ele>
        <time>2014-08-09T10:32:00Z</time>
      </trkpt>
      <trkpt lat="45.1924" lon="6.30003">
        <ele>1411</ele>
        <time>2014-08-09T10:32:03Z</time>
      </trkpt>
      <trkpt lat="45.1925" lon="6.30007">
        <ele>1407</ele>
        <time>2014-08-09T10:32:12Z</time>
      </trkpt>
      <trkpt lat="45.1926" lon="6.30011">
        <ele>1392</ele>
        <time>2014-08-09T10:32:31Z</time>
      </trkpt>
      <trkpt lat="45.19266" lon="6.30023">
        <ele>1389</ele>
        <time>2014-08-09T10:32:37Z</time>
      </trkpt>
      <trkpt lat="45.19278" lon="6.30024">
        <ele>1385</ele>
        <time>2014-08-09T10:32:40Z</time>
      </trkpt>
      <trkpt lat="45.1929" lon="6.30027">
        <ele>1381</ele>
        <time>2014-08-09T10:32:45Z</time>
      </trkpt>
      <trkpt lat="45.19298" lon="6.30033">
        <ele>1379</ele>
        <time>2014-08-09T10:32:49Z</time>
      </trkpt>
      <trkpt lat="45.19302" lon="6.30047">
        <ele>1381</ele>
        <time>2014-08-09T10:32:53Z</time>
      </trkpt>
      <trkpt lat="45.19307" lon="6.30061">
        <ele>1381</ele>
        <time>2014-08-09T10:32:58Z</time>
      </trkpt>
      <trkpt lat="45.1931" lon="6.30077">
        <ele>1380</ele>
        <time>2014-08-09T10:33:01Z</time>
      </trkpt>
      <trkpt lat="45.19313" lon="6.30089">
        <ele>1390</ele>
        <time>2014-08-09T10:33:04Z</time>
      </trkpt>
      <trkpt lat="45.19317" lon="6.30104">
        <ele>1392</ele>
        <time>2014-08-09T10:33:09Z</time>
      </trkpt>
      <trkpt lat="45.19325" lon="6.30115">
        <ele>1393</ele>
        <time>2014-08-09T10:33:14Z</time>
      </trkpt>
      <trkpt lat="45.1933" lon="6.30129">
        <ele>1395</ele>
        <time>2014-08-09T10:33:19Z</time>
      </trkpt>
      <trkpt lat="45.19334" lon="6.30142">
        <ele>1369</ele>
        <time>2014-08-09T10:33:23Z</time>
      </trkpt>
      <trkpt lat="45.19332" lon="6.30157">
        <ele>1393</ele>
        <time>2014-08-09T10:33:26Z</time>
      </trkpt>
      <trkpt lat="45.19331" lon="6.30172">
        <ele>1393</ele>
        <time>2014-08-09T10:33:31Z</time>
      </trkpt>
      <trkpt lat="45.19338" lon="6.30181">
        <ele>1377</ele>
        <time>2014-08-09T10:33:55Z</time>
      </trkpt>
      <trkpt lat="45.19339" lon="6.30194">
        <ele>1373</ele>
        <time>2014-08-09T10:34:03Z</time>
      </trkpt>
      <trkpt lat="45.1933" lon="6.30201">
        <ele>1401</ele>
        <time>2014-08-09T10:34:11Z</time>
      </trkpt>
      <trkpt lat="45.19338" lon="6.30192">
        <ele>1373</ele>
        <time>2014-08-09T10:34:35Z</time>
      </trkpt>
      <trkpt lat="45.19344" lon="6.30181">
        <ele>1375</ele>
        <time>2014-08-09T10:34:40Z</time>
      </trkpt>
      <trkpt lat="45.19347" lon="6.30167">
        <ele>1377</ele>
        <time>2014-08-09T10:34:46Z</time>
      </trkpt>
      <trkpt lat="45.19356" lon="6.30177">
        <ele>1370</ele>
        <time>2014-08-09T10:35:07Z</time>
      </trkpt>
      <trkpt lat="45.19358" lon="6.30191">
        <ele>1368</ele>
        <time>2014-08-09T10:35:12Z</time>
      </trkpt>
      <trkpt lat="45.1936" lon="6.30175">
        <ele>1368</ele>
        <time>2014-08-09T10:35:31Z</time>
      </trkpt>
      <trkpt lat="45.19368" lon="6.30166">
        <ele>1360</ele>
        <time>2014-08-09T10:35:41Z</time>
      </trkpt>
      <trkpt lat="45.19381" lon="6.30157">
        <ele>1353</ele>
        <time>2014-08-09T10:35:44Z</time>
      </trkpt>
      <trkpt lat="45.19391" lon="6.30149">
        <ele>1350</ele>
        <time>2014-08-09T10:35:47Z</time>
      </trkpt>
      <trkpt lat="45.19398" lon="6.30137">
        <ele>1348</ele>
        <time>2014-08-09T10:35:52Z</time>
      </trkpt>
      <trkpt lat="45.19405" lon="6.30126">
        <ele>1346</ele>
        <time>2014-08-09T10:35:58Z</time>
      </trkpt>
      <trkpt lat="45.19406" lon="6.30113">
        <ele>1344</ele>
        <time>2014-08-09T10:36:05Z</time>
      </trkpt>
      <trkpt lat="45.19408" lon="6.30098">
        <ele>1339</ele>
        <time>2014-08-09T10:36:17Z</time>
      </trkpt>
      <trkpt lat="45.19417" lon="6.30092">
        <ele>1321</ele>
        <time>2014-08-09T10:36:25Z</time>
      </trkpt>
      <trkpt lat="45.19426" lon="6.30083">
        <ele>1316</ele>
        <time>2014-08-09T10:36:32Z</time>
      </trkpt>
      <trkpt lat="45.19438" lon="6.30088">
        <ele>1315</ele>
        <time>2014-08-09T10:36:39Z</time>
      </trkpt>
      <trkpt lat="45.19448" lon="6.30094">
        <ele>1312</ele>
        <time>2014-08-09T10:36:47Z</time>
      </trkpt>
      <trkpt lat="45.19455" lon="6.30107">
        <ele>1310</ele>
        <time>2014-08-09T10:36:52Z</time>
      </trkpt>
      <trkpt lat="45.19464" lon="6.30115">
        <ele>1308</ele>
        <time>2014-08-09T10:36:58Z</time>
      </trkpt>
      <trkpt lat="45.19466" lon="6.30129">
        <ele>1308</ele>
        <time>2014-08-09T10:37:04Z</time>
      </trkpt>
      <trkpt lat="45.19472" lon="6.30139">
        <ele>1306</ele>
        <time>2014-08-09T10:37:12Z</time>
      </trkpt>
      <trkpt lat="45.19478" lon="6.30152">
        <ele>1304</ele>
        <time>2014-08-09T10:37:24Z</time>
      </trkpt>
      <trkpt lat="45.19483" lon="6.30164">
        <ele>1301</ele>
        <time>2014-08-09T10:37:29Z</time>
      </trkpt>
      <trkpt lat="45.19492" lon="6.3017">
        <ele>1296</ele>
        <time>2014-08-09T10:37:35Z</time>
      </trkpt>
      <trkpt lat="45.19504" lon="6.30164">
        <ele>1289</ele>
        <time>2014-08-09T10:37:43Z</time>
      </trkpt>
      <trkpt lat="45.19512" lon="6.3017">
        <ele>1285</ele>
        <time>2014-08-09T10:37:55Z</time>
      </trkpt>
      <trkpt lat="45.19522" lon="6.30177">
        <ele>1282</ele>
        <time>2014-08-09T10:38:03Z</time>
      </trkpt>
      <trkpt lat="45.19529" lon="6.30187">
        <ele>1280</ele>
        <time>2014-08-09T10:38:09Z</time>
      </trkpt>
      <trkpt lat="45.19537" lon="6.30197">
        <ele>1278</ele>
        <time>2014-08-09T10:38:17Z</time>
      </trkpt>
      <trkpt lat="45.19541" lon="6.3021">
        <ele>1277</ele>
        <time>2014-08-09T10:38:28Z</time>
      </trkpt>
      <trkpt lat="45.19546" lon="6.30223">
        <ele>1275</ele>
        <time>2014-08-09T10:38:41Z</time>
      </trkpt>
      <trkpt lat="45.19555" lon="6.30229">
        <ele>1273</ele>
        <time>2014-08-09T10:38:52Z</time>
      </trkpt>
      <trkpt lat="45.19565" lon="6.30234">
        <ele>1271</ele>
        <time>2014-08-09T10:39:09Z</time>
      </trkpt>
      <trkpt lat="45.19579" lon="6.30239">
        <ele>1267</ele>
        <time>2014-08-09T10:39:21Z</time>
      </trkpt>
      <trkpt lat="45.19588" lon="6.30234">
        <ele>1259</ele>
        <time>2014-08-09T10:39:24Z</time>
      </trkpt>
      <trkpt lat="45.19596" lon="6.3024">
        <ele>1258</ele>
        <time>2014-08-09T10:39:29Z</time>
      </trkpt>
      <trkpt lat="45.19607" lon="6.30244">
        <ele>1257</ele>
        <time>2014-08-09T10:39:34Z</time>
      </trkpt>
      <trkpt lat="45.19617" lon="6.30249">
        <ele>1256</ele>
        <time>2014-08-09T10:39:38Z</time>
      </trkpt>
      <trkpt lat="45.19628" lon="6.30254">
        <ele>1251</ele>
        <time>2014-08-09T10:39:41Z</time>
      </trkpt>
      <trkpt lat="45.19638" lon="6.30256">
        <ele>1250</ele>
        <time>2014-08-09T10:39:44Z</time>
      </trkpt>
      <trkpt lat="45.19648" lon="6.30257">
        <ele>1249</ele>
        <time>2014-08-09T10:39:47Z</time>
      </trkpt>
      <trkpt lat="45.19663" lon="6.30256">
        <ele>1248</ele>
        <time>2014-08-09T10:39:53Z</time>
      </trkpt>
      <trkpt lat="45.19673" lon="6.30256">
        <ele>1243</ele>
        <time>2014-08-09T10:39:57Z</time>
      </trkpt>
      <trkpt lat="45.19684" lon="6.30255">
        <ele>1240</ele>
        <time>2014-08-09T10:40:02Z</time>
      </trkpt>
      <trkpt lat="45.19688" lon="6.30268">
        <ele>1238</ele>
        <time>2014-08-09T10:40:08Z</time>
      </trkpt>
      <trkpt lat="45.19689" lon="6.30283">
        <ele>1237</ele>
        <time>2014-08-09T10:40:16Z</time>
      </trkpt>
      <trkpt lat="45.1969" lon="6.30298">
        <ele>1236</ele>
        <time>2014-08-09T10:40:19Z</time>
      </trkpt>
      <trkpt lat="45.19688" lon="6.30314">
        <ele>1235</ele>
        <time>2014-08-09T10:40:23Z</time>
      </trkpt>
      <trkpt lat="45.19672" lon="6.30315">
        <ele>1236</ele>
        <time>2014-08-09T10:40:25Z</time>
      </trkpt>
      <trkpt lat="45.19662" lon="6.30315">
        <ele>1244</ele>
        <time>2014-08-09T10:40:27Z</time>
      </trkpt>
      <trkpt lat="45.19652" lon="6.30321">
        <ele>1244</ele>
        <time>2014-08-09T10:40:30Z</time>
      </trkpt>
      <trkpt lat="45.19652" lon="6.30337">
        <ele>1246</ele>
        <time>2014-08-09T10:40:35Z</time>
      </trkpt>
      <trkpt lat="45.19654" lon="6.30352">
        <ele>1249</ele>
        <time>2014-08-09T10:40:41Z</time>
      </trkpt>
      <trkpt lat="45.19659" lon="6.30365">
        <ele>1251</ele>
        <time>2014-08-09T10:40:49Z</time>
      </trkpt>
      <trkpt lat="45.19664" lon="6.30378">
        <ele>1253</ele>
        <time>2014-08-09T10:40:58Z</time>
      </trkpt>
      <trkpt lat="45.19668" lon="6.3039">
        <ele>1242</ele>
        <time>2014-08-09T10:41:06Z</time>
      </trkpt>
      <trkpt lat="45.19675" lon="6.30399">
        <ele>1244</ele>
        <time>2014-08-09T10:41:18Z</time>
      </trkpt>
      <trkpt lat="45.19683" lon="6.30407">
        <ele>1244</ele>
        <time>2014-08-09T10:41:31Z</time>
      </trkpt>
      <trkpt lat="45.19685" lon="6.30421">
        <ele>1254</ele>
        <time>2014-08-09T10:41:44Z</time>
      </trkpt>
      <trkpt lat="45.19691" lon="6.30432">
        <ele>1254</ele>
        <time>2014-08-09T10:42:20Z</time>
      </trkpt>
      <trkpt lat="45.19701" lon="6.30433">
        <ele>1253</ele>
        <time>2014-08-09T10:42:30Z</time>
      </trkpt>
      <trkpt lat="45.1971" lon="6.30437">
        <ele>1252</ele>
        <time>2014-08-09T10:42:37Z</time>
      </trkpt>
      <trkpt lat="45.19718" lon="6.3044">
        <ele>1250</ele>
        <time>2014-08-09T10:42:44Z</time>
      </trkpt>
      <trkpt lat="45.19724" lon="6.30451">
        <ele>1251</ele>
        <time>2014-08-09T10:42:52Z</time>
      </trkpt>
      <trkpt lat="45.19732" lon="6.30461">
        <ele>1252</ele>
        <time>2014-08-09T10:42:59Z</time>
      </trkpt>
      <trkpt lat="45.19736" lon="6.30475">
        <ele>1254</ele>
        <time>2014-08-09T10:43:05Z</time>
      </trkpt>
      <trkpt lat="45.19744" lon="6.30484">
        <ele>1255</ele>
        <time>2014-08-09T10:43:16Z</time>
      </trkpt>
      <trkpt lat="45.1975" lon="6.30493">
        <ele>1250</ele>
        <time>2014-08-09T10:43:22Z</time>
      </trkpt>
      <trkpt lat="45.1976" lon="6.30501">
        <ele>1255</ele>
        <time>2014-08-09T10:43:32Z</time>
      </trkpt>
      <trkpt lat="45.19764" lon="6.30513">
        <ele>1256</ele>
        <time>2014-08-09T10:43:36Z</time>
      </trkpt>
      <trkpt lat="45.19772" lon="6.30519">
        <ele>1256</ele>
        <time>2014-08-09T10:43:42Z</time>
      </trkpt>
      <trkpt lat="45.19778" lon="6.3053">
        <ele>1256</ele>
        <time>2014-08-09T10:43:47Z</time>
      </trkpt>
      <trkpt lat="45.19786" lon="6.30537">
        <ele>1256</ele>
        <time>2014-08-09T10:43:53Z</time>
      </trkpt>
      <trkpt lat="45.19795" lon="6.30546">
        <ele>1256</ele>
        <time>2014-08-09T10:44:03Z</time>
      </trkpt>
      <trkpt lat="45.19802" lon="6.30556">
        <ele>1257</ele>
        <time>2014-08-09T10:44:11Z</time>
      </trkpt>
      <trkpt lat="45.19812" lon="6.30559">
        <ele>1257</ele>
        <time>2014-08-09T10:44:17Z</time>
      </trkpt>
      <trkpt lat="45.19819" lon="6.30569">
        <ele>1257</ele>
        <time>2014-08-09T10:44:24Z</time>
      </trkpt>
      <trkpt lat="45.19827" lon="6.30578">
        <ele>1258</ele>
        <time>2014-08-09T10:44:31Z</time>
      </trkpt>
      <trkpt lat="45.19834" lon="6.3059">
        <ele>1260</ele>
        <time>2014-08-09T10:44:39Z</time>
      </trkpt>
      <trkpt lat="45.19842" lon="6.30598">
        <ele>1260</ele>
        <time>2014-08-09T10:44:46Z</time>
      </trkpt>
      <trkpt lat="45.19852" lon="6.306">
        <ele>1260</ele>
        <time>2014-08-09T10:44:55Z</time>
      </trkpt>
      <trkpt lat="45.19864" lon="6.30603">
        <ele>1259</ele>
        <time>2014-08-09T10:45:08Z</time>
      </trkpt>
      <trkpt lat="45.19873" lon="6.30607">
        <ele>1258</ele>
        <time>2014-08-09T10:45:17Z</time>
      </trkpt>
      <trkpt lat="45.19882" lon="6.30616">
        <ele>1258</ele>
        <time>2014-08-09T10:45:23Z</time>
      </trkpt>
      <trkpt lat="45.19891" lon="6.30623">
        <ele>1258</ele>
        <time>2014-08-09T10:45:27Z</time>
      </trkpt>
      <trkpt lat="45.19899" lon="6.30632">
        <ele>1259</ele>
        <time>2014-08-09T10:45:31Z</time>
      </trkpt>
      <trkpt lat="45.19905" lon="6.30643">
        <ele>1261</ele>
        <time>2014-08-09T10:45:35Z</time>
      </trkpt>
      <trkpt lat="45.19912" lon="6.30656">
        <ele>1263</ele>
        <time>2014-08-09T10:45:41Z</time>
      </trkpt>
      <trkpt lat="45.1992" lon="6.30663">
        <ele>1259</ele>
        <time>2014-08-09T10:45:46Z</time>
      </trkpt>
      <trkpt lat="45.19926" lon="6.30675">
        <ele>1262</ele>
        <time>2014-08-09T10:45:52Z</time>
      </trkpt>
      <trkpt lat="45.19926" lon="6.30689">
        <ele>1262</ele>
        <time>2014-08-09T10:46:00Z</time>
      </trkpt>
      <trkpt lat="45.19926" lon="6.30705">
        <ele>1263</ele>
        <time>2014-08-09T10:46:04Z</time>
      </trkpt>
      <trkpt lat="45.19927" lon="6.30721">
        <ele>1266</ele>
        <time>2014-08-09T10:46:10Z</time>
      </trkpt>
      <trkpt lat="45.19924" lon="6.30736">
        <ele>1271</ele>
        <time>2014-08-09T10:46:16Z</time>
      </trkpt>
      <trkpt lat="45.19923" lon="6.30749">
        <ele>1277</ele>
        <time>2014-08-09T10:46:20Z</time>
      </trkpt>
      <trkpt lat="45.19921" lon="6.30765">
        <ele>1275</ele>
        <time>2014-08-09T10:46:25Z</time>
      </trkpt>
      <trkpt lat="45.19918" lon="6.30778">
        <ele>1273</ele>
        <time>2014-08-09T10:46:31Z</time>
      </trkpt>
      <trkpt lat="45.19915" lon="6.30791">
        <ele>1294</ele>
        <time>2014-08-09T10:46:37Z</time>
      </trkpt>
      <trkpt lat="45.19911" lon="6.30802">
        <ele>1295</ele>
        <time>2014-08-09T10:46:44Z</time>
      </trkpt>
      <trkpt lat="45.19906" lon="6.30815">
        <ele>1294</ele>
        <time>2014-08-09T10:46:50Z</time>
      </trkpt>
      <trkpt lat="45.19913" lon="6.30826">
        <ele>1290</ele>
        <time>2014-08-09T10:46:57Z</time>
      </trkpt>
      <trkpt lat="45.19915" lon="6.30839">
        <ele>1290</ele>
        <time>2014-08-09T10:47:03Z</time>
      </trkpt>
      <trkpt lat="45.19911" lon="6.30851">
        <ele>1297</ele>
        <time>2014-08-09T10:47:12Z</time>
      </trkpt>
      <trkpt lat="45.19902" lon="6.30857">
        <ele>1301</ele>
        <time>2014-08-09T10:47:22Z</time>
      </trkpt>
      <trkpt lat="45.19898" lon="6.30846">
        <ele>1300</ele>
        <time>2014-08-09T10:47:39Z</time>
      </trkpt>
      <trkpt lat="45.19901" lon="6.30832">
        <ele>1293</ele>
        <time>2014-08-09T10:47:46Z</time>
      </trkpt>
      <trkpt lat="45.19906" lon="6.30819">
        <ele>1293</ele>
        <time>2014-08-09T10:47:58Z</time>
      </trkpt>
      <trkpt lat="45.1991" lon="6.30805">
        <ele>1294</ele>
        <time>2014-08-09T10:48:03Z</time>
      </trkpt>
      <trkpt lat="45.19917" lon="6.30795">
        <ele>1273</ele>
        <time>2014-08-09T10:48:09Z</time>
      </trkpt>
      <trkpt lat="45.19925" lon="6.30785">
        <ele>1272</ele>
        <time>2014-08-09T10:48:16Z</time>
      </trkpt>
      <trkpt lat="45.19934" lon="6.30778">
        <ele>1271</ele>
        <time>2014-08-09T10:48:30Z</time>
      </trkpt>
      <trkpt lat="45.19942" lon="6.30785">
        <ele>1269</ele>
        <time>2014-08-09T10:48:41Z</time>
      </trkpt>
      <trkpt lat="45.1995" lon="6.30792">
        <ele>1267</ele>
        <time>2014-08-09T10:48:51Z</time>
      </trkpt>
      <trkpt lat="45.19959" lon="6.30795">
        <ele>1266</ele>
        <time>2014-08-09T10:49:01Z</time>
      </trkpt>
      <trkpt lat="45.19967" lon="6.30802">
        <ele>1264</ele>
        <time>2014-08-09T10:49:12Z</time>
      </trkpt>
      <trkpt lat="45.19977" lon="6.30808">
        <ele>1262</ele>
        <time>2014-08-09T10:49:26Z</time>
      </trkpt>
      <trkpt lat="45.19987" lon="6.30804">
        <ele>1260</ele>
        <time>2014-08-09T10:49:29Z</time>
      </trkpt>
      <trkpt lat="45.19997" lon="6.30805">
        <ele>1259</ele>
        <time>2014-08-09T10:49:37Z</time>
      </trkpt>
      <trkpt lat="45.20006" lon="6.30809">
        <ele>1237</ele>
        <time>2014-08-09T10:49:47Z</time>
      </trkpt>
      <trkpt lat="45.20013" lon="6.30818">
        <ele>1237</ele>
        <time>2014-08-09T10:49:57Z</time>
      </trkpt>
      <trkpt lat="45.20021" lon="6.30824">
        <ele>1236</ele>
        <time>2014-08-09T10:50:07Z</time>
      </trkpt>
      <trkpt lat="45.20031" lon="6.30823">
        <ele>1232</ele>
        <time>2014-08-09T10:50:15Z</time>
      </trkpt>
      <trkpt lat="45.20039" lon="6.3083">
        <ele>1230</ele>
        <time>2014-08-09T10:50:26Z</time>
      </trkpt>
      <trkpt lat="45.20048" lon="6.30838">
        <ele>1238</ele>
        <time>2014-08-09T10:50:35Z</time>
      </trkpt>
      <trkpt lat="45.20058" lon="6.30842">
        <ele>1235</ele>
        <time>2014-08-09T10:50:45Z</time>
      </trkpt>
      <trkpt lat="45.20066" lon="6.30849">
        <ele>1233</ele>
        <time>2014-08-09T10:50:54Z</time>
      </trkpt>
      <trkpt lat="45.20075" lon="6.30855">
        <ele>1233</ele>
        <time>2014-08-09T10:51:02Z</time>
      </trkpt>
      <trkpt lat="45.20084" lon="6.30864">
        <ele>1215</ele>
        <time>2014-08-09T10:51:11Z</time>
      </trkpt>
      <trkpt lat="45.20096" lon="6.30923">
        <ele>1248</ele>
        <time>2014-08-09T10:51:12Z</time>
      </trkpt>
      <trkpt lat="45.20105" lon="6.30964">
        <ele>1254</ele>
        <time>2014-08-09T10:51:14Z</time>
      </trkpt>
      <trkpt lat="45.2011" lon="6.31006">
        <ele>1282</ele>
        <time>2014-08-09T10:51:16Z</time>
      </trkpt>
      <trkpt lat="45.20115" lon="6.31037">
        <ele>1287</ele>
        <time>2014-08-09T10:51:18Z</time>
      </trkpt>
      <trkpt lat="45.20117" lon="6.31056">
        <ele>1291</ele>
        <time>2014-08-09T10:51:20Z</time>
      </trkpt>
      <trkpt lat="45.20117" lon="6.31073">
        <ele>1295</ele>
        <time>2014-08-09T10:51:22Z</time>
      </trkpt>
      <trkpt lat="45.20118" lon="6.31089">
        <ele>1313</ele>
        <time>2014-08-09T10:51:24Z</time>
      </trkpt>
      <trkpt lat="45.20117" lon="6.31104">
        <ele>1314</ele>
        <time>2014-08-09T10:51:27Z</time>
      </trkpt>
      <trkpt lat="45.20119" lon="6.3112">
        <ele>1316</ele>
        <time>2014-08-09T10:51:30Z</time>
      </trkpt>
      <trkpt lat="45.20119" lon="6.31134">
        <ele>1317</ele>
        <time>2014-08-09T10:51:32Z</time>
      </trkpt>
      <trkpt lat="45.20118" lon="6.31151">
        <ele>1320</ele>
        <time>2014-08-09T10:51:35Z</time>
      </trkpt>
      <trkpt lat="45.20117" lon="6.31166">
        <ele>1322</ele>
        <time>2014-08-09T10:51:39Z</time>
      </trkpt>
      <trkpt lat="45.20116" lon="6.3118">
        <ele>1332</ele>
        <time>2014-08-09T10:51:42Z</time>
      </trkpt>
      <trkpt lat="45.20115" lon="6.31193">
        <ele>1333</ele>
        <time>2014-08-09T10:51:47Z</time>
      </trkpt>
      <trkpt lat="45.20115" lon="6.31207">
        <ele>1334</ele>
        <time>2014-08-09T10:51:55Z</time>
      </trkpt>
      <trkpt lat="45.2011" lon="6.31219">
        <ele>1336</ele>
        <time>2014-08-09T10:52:04Z</time>
      </trkpt>
      <trkpt lat="45.20119" lon="6.31226">
        <ele>1335</ele>
        <time>2014-08-09T10:52:18Z</time>
      </trkpt>
      <trkpt lat="45.20129" lon="6.31226">
        <ele>1332</ele>
        <time>2014-08-09T10:52:22Z</time>
      </trkpt>
      <trkpt lat="45.20139" lon="6.31229">
        <ele>1330</ele>
        <time>2014-08-09T10:52:24Z</time>
      </trkpt>
      <trkpt lat="45.20151" lon="6.31232">
        <ele>1327</ele>
        <time>2014-08-09T10:52:27Z</time>
      </trkpt>
      <trkpt lat="45.2016" lon="6.31236">
        <ele>1325</ele>
        <time>2014-08-09T10:52:31Z</time>
      </trkpt>
      <trkpt lat="45.20158" lon="6.31251">
        <ele>1328</ele>
        <time>2014-08-09T10:52:42Z</time>
      </trkpt>
      <trkpt lat="45.20159" lon="6.31264">
        <ele>1332</ele>
        <time>2014-08-09T10:52:47Z</time>
      </trkpt>
      <trkpt lat="45.2015" lon="6.31277">
        <ele>1338</ele>
        <time>2014-08-09T10:52:51Z</time>
      </trkpt>
      <trkpt lat="45.20146" lon="6.31288">
        <ele>1341</ele>
        <time>2014-08-09T10:52:55Z</time>
      </trkpt>
      <trkpt lat="45.20147" lon="6.31305">
        <ele>1341</ele>
        <time>2014-08-09T10:53:00Z</time>
      </trkpt>
      <trkpt lat="45.20147" lon="6.31319">
        <ele>1341</ele>
        <time>2014-08-09T10:53:04Z</time>
      </trkpt>
      <trkpt lat="45.20147" lon="6.31333">
        <ele>1340</ele>
        <time>2014-08-09T10:53:09Z</time>
      </trkpt>
      <trkpt lat="45.20148" lon="6.31347">
        <ele>1347</ele>
        <time>2014-08-09T10:53:15Z</time>
      </trkpt>
      <trkpt lat="45.20143" lon="6.31358">
        <ele>1351</ele>
        <time>2014-08-09T10:53:20Z</time>
      </trkpt>
      <trkpt lat="45.20142" lon="6.31372">
        <ele>1353</ele>
        <time>2014-08-09T10:53:26Z</time>
      </trkpt>
      <trkpt lat="45.20145" lon="6.31385">
        <ele>1352</ele>
        <time>2014-08-09T10:53:32Z</time>
      </trkpt>
      <trkpt lat="45.20147" lon="6.31398">
        <ele>1351</ele>
        <time>2014-08-09T10:53:37Z</time>
      </trkpt>
      <trkpt lat="45.20142" lon="6.31411">
        <ele>1352</ele>
        <time>2014-08-09T10:53:45Z</time>
      </trkpt>
      <trkpt lat="45.20148" lon="6.31421">
        <ele>1355</ele>
        <time>2014-08-09T10:53:50Z</time>
      </trkpt>
      <trkpt lat="45.20156" lon="6.31435">
        <ele>1356</ele>
        <time>2014-08-09T10:53:55Z</time>
      </trkpt>
      <trkpt lat="45.20166" lon="6.31445">
        <ele>1357</ele>
        <time>2014-08-09T10:54:00Z</time>
      </trkpt>
      <trkpt lat="45.20173" lon="6.31456">
        <ele>1334</ele>
        <time>2014-08-09T10:54:02Z</time>
      </trkpt>
      <trkpt lat="45.20177" lon="6.31468">
        <ele>1335</ele>
        <time>2014-08-09T10:54:08Z</time>
      </trkpt>
      <trkpt lat="45.20182" lon="6.31481">
        <ele>1337</ele>
        <time>2014-08-09T10:54:15Z</time>
      </trkpt>
      <trkpt lat="45.20186" lon="6.31494">
        <ele>1339</ele>
        <time>2014-08-09T10:54:20Z</time>
      </trkpt>
      <trkpt lat="45.2019" lon="6.31506">
        <ele>1345</ele>
        <time>2014-08-09T10:54:25Z</time>
      </trkpt>
      <trkpt lat="45.20192" lon="6.31519">
        <ele>1344</ele>
        <time>2014-08-09T10:54:30Z</time>
      </trkpt>
      <trkpt lat="45.20195" lon="6.31532">
        <ele>1344</ele>
        <time>2014-08-09T10:54:35Z</time>
      </trkpt>
      <trkpt lat="45.20197" lon="6.31546">
        <ele>1345</ele>
        <time>2014-08-09T10:54:41Z</time>
      </trkpt>
      <trkpt lat="45.202" lon="6.3156">
        <ele>1345</ele>
        <time>2014-08-09T10:54:48Z</time>
      </trkpt>
      <trkpt lat="45.202" lon="6.31573">
        <ele>1346</ele>
        <time>2014-08-09T10:54:54Z</time>
      </trkpt>
      <trkpt lat="45.202" lon="6.31587">
        <ele>1354</ele>
        <time>2014-08-09T10:55:00Z</time>
      </trkpt>
      <trkpt lat="45.20201" lon="6.31601">
        <ele>1354</ele>
        <time>2014-08-09T10:55:07Z</time>
      </trkpt>
      <trkpt lat="45.20201" lon="6.31615">
        <ele>1355</ele>
        <time>2014-08-09T10:55:13Z</time>
      </trkpt>
      <trkpt lat="45.20201" lon="6.3163">
        <ele>1356</ele>
        <time>2014-08-09T10:55:20Z</time>
      </trkpt>
      <trkpt lat="45.20204" lon="6.31642">
        <ele>1356</ele>
        <time>2014-08-09T10:55:26Z</time>
      </trkpt>
      <trkpt lat="45.20209" lon="6.31657">
        <ele>1356</ele>
        <time>2014-08-09T10:55:32Z</time>
      </trkpt>
      <trkpt lat="45.20213" lon="6.31669">
        <ele>1358</ele>
        <time>2014-08-09T10:55:37Z</time>
      </trkpt>
      <trkpt lat="45.20211" lon="6.31683">
        <ele>1359</ele>
        <time>2014-08-09T10:55:43Z</time>
      </trkpt>
      <trkpt lat="45.20212" lon="6.31696">
        <ele>1358</ele>
        <time>2014-08-09T10:55:49Z</time>
      </trkpt>
      <trkpt lat="45.20206" lon="6.31709">
        <ele>1360</ele>
        <time>2014-08-09T10:55:54Z</time>
      </trkpt>
      <trkpt lat="45.20199" lon="6.31719">
        <ele>1363</ele>
        <time>2014-08-09T10:55:58Z</time>
      </trkpt>
      <trkpt lat="45.20191" lon="6.31729">
        <ele>1366</ele>
        <time>2014-08-09T10:56:03Z</time>
      </trkpt>
      <trkpt lat="45.20185" lon="6.31739">
        <ele>1371</ele>
        <time>2014-08-09T10:56:08Z</time>
      </trkpt>
      <trkpt lat="45.20177" lon="6.3175">
        <ele>1377</ele>
        <time>2014-08-09T10:56:13Z</time>
      </trkpt>
      <trkpt lat="45.20176" lon="6.31765">
        <ele>1373</ele>
        <time>2014-08-09T10:56:22Z</time>
      </trkpt>
      <trkpt lat="45.20174" lon="6.3178">
        <ele>1368</ele>
        <time>2014-08-09T10:56:30Z</time>
      </trkpt>
      <trkpt lat="45.2018" lon="6.31791">
        <ele>1365</ele>
        <time>2014-08-09T10:56:34Z</time>
      </trkpt>
      <trkpt lat="45.20184" lon="6.31805">
        <ele>1365</ele>
        <time>2014-08-09T10:56:39Z</time>
      </trkpt>
      <trkpt lat="45.20184" lon="6.31818">
        <ele>1367</ele>
        <time>2014-08-09T10:56:44Z</time>
      </trkpt>
      <trkpt lat="45.20177" lon="6.31828">
        <ele>1374</ele>
        <time>2014-08-09T10:56:50Z</time>
      </trkpt>
      <trkpt lat="45.20171" lon="6.3184">
        <ele>1375</ele>
        <time>2014-08-09T10:56:55Z</time>
      </trkpt>
      <trkpt lat="45.20169" lon="6.31855">
        <ele>1366</ele>
        <time>2014-08-09T10:57:01Z</time>
      </trkpt>
      <trkpt lat="45.20166" lon="6.31869">
        <ele>1391</ele>
        <time>2014-08-09T10:57:06Z</time>
      </trkpt>
      <trkpt lat="45.2017" lon="6.31884">
        <ele>1361</ele>
        <time>2014-08-09T10:57:11Z</time>
      </trkpt>
      <trkpt lat="45.20173" lon="6.319">
        <ele>1365</ele>
        <time>2014-08-09T10:57:18Z</time>
      </trkpt>
      <trkpt lat="45.20173" lon="6.31914">
        <ele>1371</ele>
        <time>2014-08-09T10:57:23Z</time>
      </trkpt>
      <trkpt lat="45.2017" lon="6.31928">
        <ele>1363</ele>
        <time>2014-08-09T10:57:31Z</time>
      </trkpt>
      <trkpt lat="45.20163" lon="6.31938">
        <ele>1377</ele>
        <time>2014-08-09T10:57:38Z</time>
      </trkpt>
      <trkpt lat="45.20153" lon="6.3195">
        <ele>1376</ele>
        <time>2014-08-09T10:57:44Z</time>
      </trkpt>
      <trkpt lat="45.20139" lon="6.31959">
        <ele>1376</ele>
        <time>2014-08-09T10:57:48Z</time>
      </trkpt>
      <trkpt lat="45.2013" lon="6.31963">
        <ele>1377</ele>
        <time>2014-08-09T10:57:51Z</time>
      </trkpt>
      <trkpt lat="45.2012" lon="6.31964">
        <ele>1377</ele>
        <time>2014-08-09T10:57:56Z</time>
      </trkpt>
      <trkpt lat="45.2011" lon="6.31968">
        <ele>1378</ele>
        <time>2014-08-09T10:58:01Z</time>
      </trkpt>
      <trkpt lat="45.20101" lon="6.31964">
        <ele>1379</ele>
        <time>2014-08-09T10:58:06Z</time>
      </trkpt>
      <trkpt lat="45.20091" lon="6.31959">
        <ele>1381</ele>
        <time>2014-08-09T10:58:12Z</time>
      </trkpt>
      <trkpt lat="45.20081" lon="6.31959">
        <ele>1397</ele>
        <time>2014-08-09T10:58:18Z</time>
      </trkpt>
      <trkpt lat="45.20072" lon="6.31954">
        <ele>1399</ele>
        <time>2014-08-09T10:58:23Z</time>
      </trkpt>
      <trkpt lat="45.20063" lon="6.31948">
        <ele>1402</ele>
        <time>2014-08-09T10:58:28Z</time>
      </trkpt>
      <trkpt lat="45.20054" lon="6.31941">
        <ele>1404</ele>
        <time>2014-08-09T10:58:32Z</time>
      </trkpt>
      <trkpt lat="45.20044" lon="6.31944">
        <ele>1406</ele>
        <time>2014-08-09T10:58:37Z</time>
      </trkpt>
      <trkpt lat="45.20035" lon="6.31951">
        <ele>1406</ele>
        <time>2014-08-09T10:58:47Z</time>
      </trkpt>
      <trkpt lat="45.20024" lon="6.31957">
        <ele>1407</ele>
        <time>2014-08-09T10:58:53Z</time>
      </trkpt>
      <trkpt lat="45.20014" lon="6.31964">
        <ele>1407</ele>
        <time>2014-08-09T10:58:58Z</time>
      </trkpt>
      <trkpt lat="45.20004" lon="6.31974">
        <ele>1407</ele>
        <time>2014-08-09T10:59:04Z</time>
      </trkpt>
      <trkpt lat="45.20005" lon="6.31987">
        <ele>1406</ele>
        <time>2014-08-09T10:59:10Z</time>
      </trkpt>
      <trkpt lat="45.20003" lon="6.32001">
        <ele>1403</ele>
        <time>2014-08-09T10:59:16Z</time>
      </trkpt>
      <trkpt lat="45.20004" lon="6.32015">
        <ele>1394</ele>
        <time>2014-08-09T10:59:21Z</time>
      </trkpt>
      <trkpt lat="45.20001" lon="6.32029">
        <ele>1388</ele>
        <time>2014-08-09T10:59:26Z</time>
      </trkpt>
      <trkpt lat="45.19993" lon="6.32037">
        <ele>1406</ele>
        <time>2014-08-09T10:59:30Z</time>
      </trkpt>
      <trkpt lat="45.19987" lon="6.32047">
        <ele>1405</ele>
        <time>2014-08-09T10:59:35Z</time>
      </trkpt>
      <trkpt lat="45.19978" lon="6.3205">
        <ele>1406</ele>
        <time>2014-08-09T10:59:38Z</time>
      </trkpt>
      <trkpt lat="45.19967" lon="6.32057">
        <ele>1407</ele>
        <time>2014-08-09T10:59:43Z</time>
      </trkpt>
      <trkpt lat="45.19959" lon="6.32066">
        <ele>1407</ele>
        <time>2014-08-09T10:59:48Z</time>
      </trkpt>
      <trkpt lat="45.19953" lon="6.32079">
        <ele>1407</ele>
        <time>2014-08-09T10:59:53Z</time>
      </trkpt>
      <trkpt lat="45.19942" lon="6.32086">
        <ele>1394</ele>
        <time>2014-08-09T10:59:58Z</time>
      </trkpt>
      <trkpt lat="45.19933" lon="6.3209">
        <ele>1397</ele>
        <time>2014-08-09T11:00:01Z</time>
      </trkpt>
      <trkpt lat="45.19924" lon="6.32092">
        <ele>1400</ele>
        <time>2014-08-09T11:00:06Z</time>
      </trkpt>
      <trkpt lat="45.19912" lon="6.32095">
        <ele>1411</ele>
        <time>2014-08-09T11:00:11Z</time>
      </trkpt>
      <trkpt lat="45.19902" lon="6.32098">
        <ele>1413</ele>
        <time>2014-08-09T11:00:18Z</time>
      </trkpt>
      <trkpt lat="45.19892" lon="6.32103">
        <ele>1415</ele>
        <time>2014-08-09T11:00:23Z</time>
      </trkpt>
      <trkpt lat="45.19884" lon="6.32109">
        <ele>1416</ele>
        <time>2014-08-09T11:00:27Z</time>
      </trkpt>
      <trkpt lat="45.19876" lon="6.32118">
        <ele>1417</ele>
        <time>2014-08-09T11:00:31Z</time>
      </trkpt>
      <trkpt lat="45.1987" lon="6.32127">
        <ele>1417</ele>
        <time>2014-08-09T11:00:36Z</time>
      </trkpt>
      <trkpt lat="45.19863" lon="6.32137">
        <ele>1417</ele>
        <time>2014-08-09T11:00:40Z</time>
      </trkpt>
      <trkpt lat="45.19856" lon="6.32146">
        <ele>1417</ele>
        <time>2014-08-09T11:00:44Z</time>
      </trkpt>
      <trkpt lat="45.19852" lon="6.32159">
        <ele>1418</ele>
        <time>2014-08-09T11:00:50Z</time>
      </trkpt>
      <trkpt lat="45.19852" lon="6.32173">
        <ele>1409</ele>
        <time>2014-08-09T11:00:57Z</time>
      </trkpt>
      <trkpt lat="45.19851" lon="6.32189">
        <ele>1406</ele>
        <time>2014-08-09T11:01:04Z</time>
      </trkpt>
      <trkpt lat="45.19851" lon="6.32202">
        <ele>1404</ele>
        <time>2014-08-09T11:01:10Z</time>
      </trkpt>
      <trkpt lat="45.19845" lon="6.32214">
        <ele>1404</ele>
        <time>2014-08-09T11:01:14Z</time>
      </trkpt>
      <trkpt lat="45.19837" lon="6.32221">
        <ele>1404</ele>
        <time>2014-08-09T11:01:18Z</time>
      </trkpt>
      <trkpt lat="45.1983" lon="6.32232">
        <ele>1418</ele>
        <time>2014-08-09T11:01:22Z</time>
      </trkpt>
      <trkpt lat="45.19826" lon="6.32245">
        <ele>1413</ele>
        <time>2014-08-09T11:01:29Z</time>
      </trkpt>
      <trkpt lat="45.1982" lon="6.32257">
        <ele>1410</ele>
        <time>2014-08-09T11:01:35Z</time>
      </trkpt>
      <trkpt lat="45.19819" lon="6.32271">
        <ele>1411</ele>
        <time>2014-08-09T11:01:41Z</time>
      </trkpt>
      <trkpt lat="45.19814" lon="6.32283">
        <ele>1411</ele>
        <time>2014-08-09T11:01:46Z</time>
      </trkpt>
      <trkpt lat="45.19804" lon="6.3229">
        <ele>1412</ele>
        <time>2014-08-09T11:01:50Z</time>
      </trkpt>
      <trkpt lat="45.19795" lon="6.32299">
        <ele>1412</ele>
        <time>2014-08-09T11:01:54Z</time>
      </trkpt>
      <trkpt lat="45.19784" lon="6.32305">
        <ele>1413</ele>
        <time>2014-08-09T11:01:57Z</time>
      </trkpt>
      <trkpt lat="45.19777" lon="6.32314">
        <ele>1414</ele>
        <time>2014-08-09T11:02:02Z</time>
      </trkpt>
      <trkpt lat="45.19768" lon="6.32319">
        <ele>1415</ele>
        <time>2014-08-09T11:02:08Z</time>
      </trkpt>
      <trkpt lat="45.1976" lon="6.32327">
        <ele>1416</ele>
        <time>2014-08-09T11:02:13Z</time>
      </trkpt>
      <trkpt lat="45.19757" lon="6.3234">
        <ele>1413</ele>
        <time>2014-08-09T11:02:21Z</time>
      </trkpt>
      <trkpt lat="45.19758" lon="6.32355">
        <ele>1410</ele>
        <time>2014-08-09T11:02:26Z</time>
      </trkpt>
      <trkpt lat="45.19751" lon="6.32367">
        <ele>1409</ele>
        <time>2014-08-09T11:02:32Z</time>
      </trkpt>
      <trkpt lat="45.19746" lon="6.32379">
        <ele>1426</ele>
        <time>2014-08-09T11:02:39Z</time>
      </trkpt>
      <trkpt lat="45.19748" lon="6.32393">
        <ele>1425</ele>
        <time>2014-08-09T11:02:44Z</time>
      </trkpt>
      <trkpt lat="45.19737" lon="6.32401">
        <ele>1425</ele>
        <time>2014-08-09T11:02:49Z</time>
      </trkpt>
      <trkpt lat="45.19734" lon="6.32413">
        <ele>1424</ele>
        <time>2014-08-09T11:02:55Z</time>
      </trkpt>
      <trkpt lat="45.19734" lon="6.32427">
        <ele>1421</ele>
        <time>2014-08-09T11:03:01Z</time>
      </trkpt>
      <trkpt lat="45.19731" lon="6.32443">
        <ele>1423</ele>
        <time>2014-08-09T11:03:07Z</time>
      </trkpt>
      <trkpt lat="45.19724" lon="6.32453">
        <ele>1423</ele>
        <time>2014-08-09T11:03:11Z</time>
      </trkpt>
      <trkpt lat="45.19718" lon="6.32464">
        <ele>1424</ele>
        <time>2014-08-09T11:03:16Z</time>
      </trkpt>
      <trkpt lat="45.19715" lon="6.32479">
        <ele>1423</ele>
        <time>2014-08-09T11:03:22Z</time>
      </trkpt>
      <trkpt lat="45.19708" lon="6.32489">
        <ele>1424</ele>
        <time>2014-08-09T11:03:28Z</time>
      </trkpt>
      <trkpt lat="45.19699" lon="6.32497">
        <ele>1426</ele>
        <time>2014-08-09T11:03:33Z</time>
      </trkpt>
      <trkpt lat="45.19691" lon="6.32507">
        <ele>1423</ele>
        <time>2014-08-09T11:03:39Z</time>
      </trkpt>
      <trkpt lat="45.19683" lon="6.32515">
        <ele>1424</ele>
        <time>2014-08-09T11:03:44Z</time>
      </trkpt>
      <trkpt lat="45.19678" lon="6.32526">
        <ele>1423</ele>
        <time>2014-08-09T11:03:51Z</time>
      </trkpt>
      <trkpt lat="45.19675" lon="6.32539">
        <ele>1421</ele>
        <time>2014-08-09T11:03:57Z</time>
      </trkpt>
      <trkpt lat="45.19676" lon="6.32553">
        <ele>1421</ele>
        <time>2014-08-09T11:04:03Z</time>
      </trkpt>
      <trkpt lat="45.19666" lon="6.32562">
        <ele>1434</ele>
        <time>2014-08-09T11:04:09Z</time>
      </trkpt>
      <trkpt lat="45.19657" lon="6.3257">
        <ele>1433</ele>
        <time>2014-08-09T11:04:16Z</time>
      </trkpt>
      <trkpt lat="45.19648" lon="6.32577">
        <ele>1435</ele>
        <time>2014-08-09T11:04:23Z</time>
      </trkpt>
      <trkpt lat="45.19638" lon="6.32576">
        <ele>1438</ele>
        <time>2014-08-09T11:04:26Z</time>
      </trkpt>
      <trkpt lat="45.19632" lon="6.32586">
        <ele>1436</ele>
        <time>2014-08-09T11:04:32Z</time>
      </trkpt>
      <trkpt lat="45.19624" lon="6.32592">
        <ele>1438</ele>
        <time>2014-08-09T11:04:36Z</time>
      </trkpt>
      <trkpt lat="45.19612" lon="6.32597">
        <ele>1440</ele>
        <time>2014-08-09T11:04:43Z</time>
      </trkpt>
      <trkpt lat="45.19608" lon="6.32609">
        <ele>1440</ele>
        <time>2014-08-09T11:04:48Z</time>
      </trkpt>
      <trkpt lat="45.19612" lon="6.32622">
        <ele>1439</ele>
        <time>2014-08-09T11:04:53Z</time>
      </trkpt>
      <trkpt lat="45.19618" lon="6.32634">
        <ele>1438</ele>
        <time>2014-08-09T11:04:57Z</time>
      </trkpt>
      <trkpt lat="45.19626" lon="6.32642">
        <ele>1436</ele>
        <time>2014-08-09T11:05:00Z</time>
      </trkpt>
      <trkpt lat="45.1962" lon="6.32653">
        <ele>1437</ele>
        <time>2014-08-09T11:05:07Z</time>
      </trkpt>
      <trkpt lat="45.19617" lon="6.32666">
        <ele>1438</ele>
        <time>2014-08-09T11:05:14Z</time>
      </trkpt>
      <trkpt lat="45.19609" lon="6.32671">
        <ele>1439</ele>
        <time>2014-08-09T11:05:19Z</time>
      </trkpt>
      <trkpt lat="45.19599" lon="6.32673">
        <ele>1441</ele>
        <time>2014-08-09T11:05:21Z</time>
      </trkpt>
      <trkpt lat="45.19588" lon="6.32675">
        <ele>1443</ele>
        <time>2014-08-09T11:05:23Z</time>
      </trkpt>
      <trkpt lat="45.19579" lon="6.32681">
        <ele>1451</ele>
        <time>2014-08-09T11:05:26Z</time>
      </trkpt>
      <trkpt lat="45.19581" lon="6.32695">
        <ele>1453</ele>
        <time>2014-08-09T11:05:36Z</time>
      </trkpt>
      <trkpt lat="45.19583" lon="6.3271">
        <ele>1453</ele>
        <time>2014-08-09T11:05:44Z</time>
      </trkpt>
      <trkpt lat="45.19593" lon="6.32718">
        <ele>1440</ele>
        <time>2014-08-09T11:05:48Z</time>
      </trkpt>
      <trkpt lat="45.19599" lon="6.32728">
        <ele>1440</ele>
        <time>2014-08-09T11:05:52Z</time>
      </trkpt>
      <trkpt lat="45.19607" lon="6.3274">
        <ele>1440</ele>
        <time>2014-08-09T11:05:56Z</time>
      </trkpt>
      <trkpt lat="45.19616" lon="6.32749">
        <ele>1438</ele>
        <time>2014-08-09T11:05:59Z</time>
      </trkpt>
      <trkpt lat="45.1962" lon="6.32762">
        <ele>1439</ele>
        <time>2014-08-09T11:06:03Z</time>
      </trkpt>
      <trkpt lat="45.19623" lon="6.32774">
        <ele>1438</ele>
        <time>2014-08-09T11:06:11Z</time>
      </trkpt>
      <trkpt lat="45.19619" lon="6.32787">
        <ele>1439</ele>
        <time>2014-08-09T11:06:18Z</time>
      </trkpt>
      <trkpt lat="45.19609" lon="6.32793">
        <ele>1440</ele>
        <time>2014-08-09T11:06:23Z</time>
      </trkpt>
      <trkpt lat="45.19614" lon="6.32807">
        <ele>1440</ele>
        <time>2014-08-09T11:06:28Z</time>
      </trkpt>
      <trkpt lat="45.19621" lon="6.32816">
        <ele>1440</ele>
        <time>2014-08-09T11:06:32Z</time>
      </trkpt>
      <trkpt lat="45.19625" lon="6.32829">
        <ele>1439</ele>
        <time>2014-08-09T11:06:36Z</time>
      </trkpt>
      <trkpt lat="45.19631" lon="6.32842">
        <ele>1440</ele>
        <time>2014-08-09T11:06:39Z</time>
      </trkpt>
      <trkpt lat="45.19632" lon="6.32856">
        <ele>1440</ele>
        <time>2014-08-09T11:06:45Z</time>
      </trkpt>
      <trkpt lat="45.19624" lon="6.32864">
        <ele>1441</ele>
        <time>2014-08-09T11:06:48Z</time>
      </trkpt>
      <trkpt lat="45.19614" lon="6.32874">
        <ele>1442</ele>
        <time>2014-08-09T11:06:51Z</time>
      </trkpt>
      <trkpt lat="45.19607" lon="6.32886">
        <ele>1444</ele>
        <time>2014-08-09T11:06:54Z</time>
      </trkpt>
      <trkpt lat="45.19599" lon="6.32896">
        <ele>1445</ele>
        <time>2014-08-09T11:06:57Z</time>
      </trkpt>
      <trkpt lat="45.19591" lon="6.32906">
        <ele>1448</ele>
        <time>2014-08-09T11:07:00Z</time>
      </trkpt>
      <trkpt lat="45.19587" lon="6.32919">
        <ele>1451</ele>
        <time>2014-08-09T11:07:04Z</time>
      </trkpt>
      <trkpt lat="45.19596" lon="6.3293">
        <ele>1447</ele>
        <time>2014-08-09T11:07:06Z</time>
      </trkpt>
      <trkpt lat="45.19606" lon="6.32941">
        <ele>1445</ele>
        <time>2014-08-09T11:07:08Z</time>
      </trkpt>
      <trkpt lat="45.19607" lon="6.32955">
        <ele>1445</ele>
        <time>2014-08-09T11:07:10Z</time>
      </trkpt>
      <trkpt lat="45.19602" lon="6.32972">
        <ele>1445</ele>
        <time>2014-08-09T11:07:12Z</time>
      </trkpt>
      <trkpt lat="45.19596" lon="6.32986">
        <ele>1447</ele>
        <time>2014-08-09T11:07:14Z</time>
      </trkpt>
      <trkpt lat="45.19591" lon="6.32999">
        <ele>1450</ele>
        <time>2014-08-09T11:07:16Z</time>
      </trkpt>
      <trkpt lat="45.19586" lon="6.33011">
        <ele>1449</ele>
        <time>2014-08-09T11:07:18Z</time>
      </trkpt>
      <trkpt lat="45.19584" lon="6.33026">
        <ele>1446</ele>
        <time>2014-08-09T11:07:20Z</time>
      </trkpt>
      <trkpt lat="45.19583" lon="6.33039">
        <ele>1462</ele>
        <time>2014-08-09T11:07:22Z</time>
      </trkpt>
      <trkpt lat="45.1958" lon="6.33052">
        <ele>1461</ele>
        <time>2014-08-09T11:07:24Z</time>
      </trkpt>
      <trkpt lat="45.19576" lon="6.33065">
        <ele>1459</ele>
        <time>2014-08-09T11:07:26Z</time>
      </trkpt>
      <trkpt lat="45.19577" lon="6.33079">
        <ele>1455</ele>
        <time>2014-08-09T11:07:28Z</time>
      </trkpt>
      <trkpt lat="45.1958" lon="6.33092">
        <ele>1454</ele>
        <time>2014-08-09T11:07:30Z</time>
      </trkpt>
      <trkpt lat="45.19584" lon="6.33105">
        <ele>1446</ele>
        <time>2014-08-09T11:07:32Z</time>
      </trkpt>
      <trkpt lat="45.19589" lon="6.33117">
        <ele>1445</ele>
        <time>2014-08-09T11:07:34Z</time>
      </trkpt>
      <trkpt lat="45.19596" lon="6.3313">
        <ele>1445</ele>
        <time>2014-08-09T11:07:36Z</time>
      </trkpt>
      <trkpt lat="45.19604" lon="6.33144">
        <ele>1445</ele>
        <time>2014-08-09T11:07:38Z</time>
      </trkpt>
      <trkpt lat="45.19614" lon="6.33159">
        <ele>1444</ele>
        <time>2014-08-09T11:07:40Z</time>
      </trkpt>
      <trkpt lat="45.19621" lon="6.33174">
        <ele>1446</ele>
        <time>2014-08-09T11:07:42Z</time>
      </trkpt>
      <trkpt lat="45.19628" lon="6.33189">
        <ele>1446</ele>
        <time>2014-08-09T11:07:44Z</time>
      </trkpt>
      <trkpt lat="45.19637" lon="6.33204">
        <ele>1446</ele>
        <time>2014-08-09T11:07:46Z</time>
      </trkpt>
      <trkpt lat="45.19646" lon="6.33216">
        <ele>1446</ele>
        <time>2014-08-09T11:07:48Z</time>
      </trkpt>
      <trkpt lat="45.19657" lon="6.33224">
        <ele>1446</ele>
        <time>2014-08-09T11:07:50Z</time>
      </trkpt>
      <trkpt lat="45.19671" lon="6.33232">
        <ele>1442</ele>
        <time>2014-08-09T11:07:52Z</time>
      </trkpt>
      <trkpt lat="45.19682" lon="6.3324">
        <ele>1442</ele>
        <time>2014-08-09T11:07:54Z</time>
      </trkpt>
      <trkpt lat="45.19692" lon="6.33248">
        <ele>1442</ele>
        <time>2014-08-09T11:07:56Z</time>
      </trkpt>
      <trkpt lat="45.19702" lon="6.33253">
        <ele>1449</ele>
        <time>2014-08-09T11:07:59Z</time>
      </trkpt>
      <trkpt lat="45.19713" lon="6.3326">
        <ele>1449</ele>
        <time>2014-08-09T11:08:02Z</time>
      </trkpt>
      <trkpt lat="45.19724" lon="6.33266">
        <ele>1448</ele>
        <time>2014-08-09T11:08:03Z</time>
      </trkpt>
      <trkpt lat="45.19736" lon="6.33271">
        <ele>1448</ele>
        <time>2014-08-09T11:08:04Z</time>
      </trkpt>
      <trkpt lat="45.19718" lon="6.33266">
        <ele>1449</ele>
        <time>2014-08-09T11:08:08Z</time>
      </trkpt>
      <trkpt lat="45.19729" lon="6.33269">
        <ele>1448</ele>
        <time>2014-08-09T11:08:10Z</time>
      </trkpt>
      <trkpt lat="45.19729" lon="6.33283">
        <ele>1450</ele>
        <time>2014-08-09T11:08:16Z</time>
      </trkpt>
      <trkpt lat="45.19719" lon="6.33288">
        <ele>1451</ele>
        <time>2014-08-09T11:08:20Z</time>
      </trkpt>
      <trkpt lat="45.19709" lon="6.33294">
        <ele>1452</ele>
        <time>2014-08-09T11:08:23Z</time>
      </trkpt>
      <trkpt lat="45.19718" lon="6.33308">
        <ele>1453</ele>
        <time>2014-08-09T11:08:29Z</time>
      </trkpt>
      <trkpt lat="45.1973" lon="6.33313">
        <ele>1453</ele>
        <time>2014-08-09T11:08:31Z</time>
      </trkpt>
      <trkpt lat="45.19745" lon="6.33319">
        <ele>1453</ele>
        <time>2014-08-09T11:08:34Z</time>
      </trkpt>
      <trkpt lat="45.19758" lon="6.33321">
        <ele>1452</ele>
        <time>2014-08-09T11:08:36Z</time>
      </trkpt>
      <trkpt lat="45.19767" lon="6.33317">
        <ele>1451</ele>
        <time>2014-08-09T11:08:44Z</time>
      </trkpt>
      <trkpt lat="45.19781" lon="6.33318">
        <ele>1451</ele>
        <time>2014-08-09T11:08:47Z</time>
      </trkpt>
      <trkpt lat="45.1979" lon="6.33317">
        <ele>1451</ele>
        <time>2014-08-09T11:08:51Z</time>
      </trkpt>
      <trkpt lat="45.19806" lon="6.33317">
        <ele>1452</ele>
        <time>2014-08-09T11:08:56Z</time>
      </trkpt>
      <trkpt lat="45.19817" lon="6.33314">
        <ele>1452</ele>
        <time>2014-08-09T11:08:59Z</time>
      </trkpt>
      <trkpt lat="45.19827" lon="6.33313">
        <ele>1453</ele>
        <time>2014-08-09T11:09:19Z</time>
      </trkpt>
      <trkpt lat="45.19819" lon="6.33303">
        <ele>1451</ele>
        <time>2014-08-09T11:09:39Z</time>
      </trkpt>
      <trkpt lat="45.19808" lon="6.33302">
        <ele>1450</ele>
        <time>2014-08-09T11:09:45Z</time>
      </trkpt>
      <trkpt lat="45.19797" lon="6.33301">
        <ele>1450</ele>
        <time>2014-08-09T11:09:49Z</time>
      </trkpt>
      <trkpt lat="45.19786" lon="6.33299">
        <ele>1450</ele>
        <time>2014-08-09T11:09:53Z</time>
      </trkpt>
      <trkpt lat="45.19796" lon="6.33299">
        <ele>1450</ele>
        <time>2014-08-09T11:09:57Z</time>
      </trkpt>
      <trkpt lat="45.19806" lon="6.33302">
        <ele>1450</ele>
        <time>2014-08-09T11:09:59Z</time>
      </trkpt>
      <trkpt lat="45.19815" lon="6.33308">
        <ele>1451</ele>
        <time>2014-08-09T11:10:02Z</time>
      </trkpt>
      <trkpt lat="45.19824" lon="6.33311">
        <ele>1452</ele>
        <time>2014-08-09T11:10:04Z</time>
      </trkpt>
      <trkpt lat="45.19833" lon="6.33316">
        <ele>1453</ele>
        <time>2014-08-09T11:10:07Z</time>
      </trkpt>
      <trkpt lat="45.19842" lon="6.33323">
        <ele>1455</ele>
        <time>2014-08-09T11:10:10Z</time>
      </trkpt>
      <trkpt lat="45.19849" lon="6.33335">
        <ele>1462</ele>
        <time>2014-08-09T11:10:15Z</time>
      </trkpt>
      <trkpt lat="45.19856" lon="6.33345">
        <ele>1464</ele>
        <time>2014-08-09T11:10:18Z</time>
      </trkpt>
      <trkpt lat="45.19865" lon="6.33352">
        <ele>1465</ele>
        <time>2014-08-09T11:10:21Z</time>
      </trkpt>
      <trkpt lat="45.19858" lon="6.33364">
        <ele>1467</ele>
        <time>2014-08-09T11:10:32Z</time>
      </trkpt>
      <trkpt lat="45.19846" lon="6.33366">
        <ele>1467</ele>
        <time>2014-08-09T11:10:35Z</time>
      </trkpt>
      <trkpt lat="45.19834" lon="6.33367">
        <ele>1467</ele>
        <time>2014-08-09T11:10:42Z</time>
      </trkpt>
      <trkpt lat="45.19826" lon="6.33361">
        <ele>1465</ele>
        <time>2014-08-09T11:10:49Z</time>
      </trkpt>
      <trkpt lat="45.19814" lon="6.33363">
        <ele>1466</ele>
        <time>2014-08-09T11:10:58Z</time>
      </trkpt>
      <trkpt lat="45.19824" lon="6.33363">
        <ele>1466</ele>
        <time>2014-08-09T11:11:09Z</time>
      </trkpt>
      <trkpt lat="45.19835" lon="6.33361">
        <ele>1466</ele>
        <time>2014-08-09T11:11:13Z</time>
      </trkpt>
      <trkpt lat="45.19845" lon="6.3336">
        <ele>1466</ele>
        <time>2014-08-09T11:11:18Z</time>
      </trkpt>
      <trkpt lat="45.19856" lon="6.3336">
        <ele>1466</ele>
        <time>2014-08-09T11:11:22Z</time>
      </trkpt>
      <trkpt lat="45.19868" lon="6.33358">
        <ele>1466</ele>
        <time>2014-08-09T11:11:25Z</time>
      </trkpt>
      <trkpt lat="45.1988" lon="6.33356">
        <ele>1466</ele>
        <time>2014-08-09T11:11:28Z</time>
      </trkpt>
      <trkpt lat="45.19892" lon="6.33358">
        <ele>1466</ele>
        <time>2014-08-09T11:11:31Z</time>
      </trkpt>
      <trkpt lat="45.19902" lon="6.33359">
        <ele>1466</ele>
        <time>2014-08-09T11:11:33Z</time>
      </trkpt>
      <trkpt lat="45.19912" lon="6.33355">
        <ele>1465</ele>
        <time>2014-08-09T11:11:36Z</time>
      </trkpt>
      <trkpt lat="45.19924" lon="6.33354">
        <ele>1463</ele>
        <time>2014-08-09T11:11:37Z</time>
      </trkpt>
      <trkpt lat="45.19935" lon="6.33354">
        <ele>1464</ele>
        <time>2014-08-09T11:11:38Z</time>
      </trkpt>
      <trkpt lat="45.19952" lon="6.33349">
        <ele>1464</ele>
        <time>2014-08-09T11:11:40Z</time>
      </trkpt>
      <trkpt lat="45.19967" lon="6.33346">
        <ele>1463</ele>
        <time>2014-08-09T11:11:42Z</time>
      </trkpt>
      <trkpt lat="45.19978" lon="6.33346">
        <ele>1462</ele>
        <time>2014-08-09T11:11:44Z</time>
      </trkpt>
      <trkpt lat="45.1999" lon="6.33344">
        <ele>1461</ele>
        <time>2014-08-09T11:11:47Z</time>
      </trkpt>
      <trkpt lat="45.20001" lon="6.33344">
        <ele>1462</ele>
        <time>2014-08-09T11:11:49Z</time>
      </trkpt>
      <trkpt lat="45.20021" lon="6.33346">
        <ele>1465</ele>
        <time>2014-08-09T11:11:50Z</time>
      </trkpt>
      <trkpt lat="45.20035" lon="6.3335">
        <ele>1466</ele>
        <time>2014-08-09T11:11:51Z</time>
      </trkpt>
      <trkpt lat="45.20051" lon="6.33352">
        <ele>1467</ele>
        <time>2014-08-09T11:11:53Z</time>
      </trkpt>
      <trkpt lat="45.20065" lon="6.33352">
        <ele>1467</ele>
        <time>2014-08-09T11:11:55Z</time>
      </trkpt>
      <trkpt lat="45.20075" lon="6.3335">
        <ele>1467</ele>
        <time>2014-08-09T11:11:57Z</time>
      </trkpt>
      <trkpt lat="45.20084" lon="6.33346">
        <ele>1470</ele>
        <time>2014-08-09T11:12:02Z</time>
      </trkpt>
      <trkpt lat="45.20097" lon="6.33341">
        <ele>1471</ele>
        <time>2014-08-09T11:12:06Z</time>
      </trkpt>
      <trkpt lat="45.20105" lon="6.33331">
        <ele>1465</ele>
        <time>2014-08-09T11:12:10Z</time>
      </trkpt>
      <trkpt lat="45.20119" lon="6.33328">
        <ele>1466</ele>
        <time>2014-08-09T11:12:13Z</time>
      </trkpt>
      <trkpt lat="45.20138" lon="6.33329">
        <ele>1469</ele>
        <time>2014-08-09T11:12:18Z</time>
      </trkpt>
      <trkpt lat="45.20148" lon="6.33332">
        <ele>1471</ele>
        <time>2014-08-09T11:12:20Z</time>
      </trkpt>
      <trkpt lat="45.20158" lon="6.33333">
        <ele>1474</ele>
        <time>2014-08-09T11:12:23Z</time>
      </trkpt>
      <trkpt lat="45.20167" lon="6.33337">
        <ele>1479</ele>
        <time>2014-08-09T11:12:27Z</time>
      </trkpt>
      <trkpt lat="45.20176" lon="6.33342">
        <ele>1482</ele>
        <time>2014-08-09T11:12:32Z</time>
      </trkpt>
      <trkpt lat="45.20185" lon="6.33346">
        <ele>1484</ele>
        <time>2014-08-09T11:12:42Z</time>
      </trkpt>
      <trkpt lat="45.20195" lon="6.33347">
        <ele>1485</ele>
        <time>2014-08-09T11:12:48Z</time>
      </trkpt>
      <trkpt lat="45.20204" lon="6.33347">
        <ele>1486</ele>
        <time>2014-08-09T11:12:54Z</time>
      </trkpt>
      <trkpt lat="45.20214" lon="6.33345">
        <ele>1486</ele>
        <time>2014-08-09T11:13:04Z</time>
      </trkpt>
      <trkpt lat="45.20223" lon="6.33338">
        <ele>1486</ele>
        <time>2014-08-09T11:13:10Z</time>
      </trkpt>
      <trkpt lat="45.20234" lon="6.3334">
        <ele>1486</ele>
        <time>2014-08-09T11:13:16Z</time>
      </trkpt>
      <trkpt lat="45.20244" lon="6.33342">
        <ele>1485</ele>
        <time>2014-08-09T11:13:24Z</time>
      </trkpt>
      <trkpt lat="45.20253" lon="6.3334">
        <ele>1486</ele>
        <time>2014-08-09T11:13:31Z</time>
      </trkpt>
      <trkpt lat="45.20262" lon="6.33344">
        <ele>1488</ele>
        <time>2014-08-09T11:13:40Z</time>
      </trkpt>
      <trkpt lat="45.20272" lon="6.33344">
        <ele>1488</ele>
        <time>2014-08-09T11:13:47Z</time>
      </trkpt>
      <trkpt lat="45.20282" lon="6.33343">
        <ele>1489</ele>
        <time>2014-08-09T11:13:53Z</time>
      </trkpt>
      <trkpt lat="45.20293" lon="6.33344">
        <ele>1489</ele>
        <time>2014-08-09T11:13:59Z</time>
      </trkpt>
      <trkpt lat="45.20304" lon="6.3335">
        <ele>1489</ele>
        <time>2014-08-09T11:14:03Z</time>
      </trkpt>
      <trkpt lat="45.20313" lon="6.33354">
        <ele>1489</ele>
        <time>2014-08-09T11:14:07Z</time>
      </trkpt>
      <trkpt lat="45.20322" lon="6.33359">
        <ele>1490</ele>
        <time>2014-08-09T11:14:13Z</time>
      </trkpt>
      <trkpt lat="45.20332" lon="6.33358">
        <ele>1489</ele>
        <time>2014-08-09T11:14:21Z</time>
      </trkpt>
      <trkpt lat="45.20342" lon="6.33358">
        <ele>1495</ele>
        <time>2014-08-09T11:14:28Z</time>
      </trkpt>
      <trkpt lat="45.20352" lon="6.33358">
        <ele>1496</ele>
        <time>2014-08-09T11:14:35Z</time>
      </trkpt>
      <trkpt lat="45.20362" lon="6.33355">
        <ele>1497</ele>
        <time>2014-08-09T11:14:40Z</time>
      </trkpt>
      <trkpt lat="45.20371" lon="6.33351">
        <ele>1498</ele>
        <time>2014-08-09T11:14:47Z</time>
      </trkpt>
      <trkpt lat="45.20379" lon="6.33337">
        <ele>1498</ele>
        <time>2014-08-09T11:14:55Z</time>
      </trkpt>
      <trkpt lat="45.20388" lon="6.33333">
        <ele>1488</ele>
        <time>2014-08-09T11:15:00Z</time>
      </trkpt>
      <trkpt lat="45.20397" lon="6.33329">
        <ele>1490</ele>
        <time>2014-08-09T11:15:06Z</time>
      </trkpt>
      <trkpt lat="45.20402" lon="6.33318">
        <ele>1490</ele>
        <time>2014-08-09T11:15:15Z</time>
      </trkpt>
      <trkpt lat="45.20409" lon="6.33304">
        <ele>1487</ele>
        <time>2014-08-09T11:15:19Z</time>
      </trkpt>
      <trkpt lat="45.20413" lon="6.33291">
        <ele>1484</ele>
        <time>2014-08-09T11:15:25Z</time>
      </trkpt>
      <trkpt lat="45.20421" lon="6.33278">
        <ele>1500</ele>
        <time>2014-08-09T11:15:30Z</time>
      </trkpt>
      <trkpt lat="45.20428" lon="6.33267">
        <ele>1497</ele>
        <time>2014-08-09T11:15:34Z</time>
      </trkpt>
      <trkpt lat="45.20432" lon="6.33251">
        <ele>1494</ele>
        <time>2014-08-09T11:15:40Z</time>
      </trkpt>
      <trkpt lat="45.20432" lon="6.33234">
        <ele>1487</ele>
        <time>2014-08-09T11:15:46Z</time>
      </trkpt>
      <trkpt lat="45.20437" lon="6.33217">
        <ele>1487</ele>
        <time>2014-08-09T11:15:49Z</time>
      </trkpt>
      <trkpt lat="45.20442" lon="6.33202">
        <ele>1486</ele>
        <time>2014-08-09T11:15:52Z</time>
      </trkpt>
      <trkpt lat="45.20448" lon="6.33192">
        <ele>1486</ele>
        <time>2014-08-09T11:15:54Z</time>
      </trkpt>
      <trkpt lat="45.2046" lon="6.33183">
        <ele>1488</ele>
        <time>2014-08-09T11:15:57Z</time>
      </trkpt>
      <trkpt lat="45.20468" lon="6.33176">
        <ele>1490</ele>
        <time>2014-08-09T11:16:01Z</time>
      </trkpt>
      <trkpt lat="45.20477" lon="6.33171">
        <ele>1492</ele>
        <time>2014-08-09T11:16:05Z</time>
      </trkpt>
      <trkpt lat="45.20487" lon="6.3317">
        <ele>1494</ele>
        <time>2014-08-09T11:16:10Z</time>
      </trkpt>
      <trkpt lat="45.20496" lon="6.33163">
        <ele>1492</ele>
        <time>2014-08-09T11:16:16Z</time>
      </trkpt>
      <trkpt lat="45.20501" lon="6.33152">
        <ele>1497</ele>
        <time>2014-08-09T11:16:19Z</time>
      </trkpt>
      <trkpt lat="45.20503" lon="6.33138">
        <ele>1495</ele>
        <time>2014-08-09T11:16:24Z</time>
      </trkpt>
      <trkpt lat="45.20514" lon="6.33127">
        <ele>1494</ele>
        <time>2014-08-09T11:16:27Z</time>
      </trkpt>
      <trkpt lat="45.20533" lon="6.33111">
        <ele>1495</ele>
        <time>2014-08-09T11:16:33Z</time>
      </trkpt>
      <trkpt lat="45.20539" lon="6.33099">
        <ele>1495</ele>
        <time>2014-08-09T11:16:37Z</time>
      </trkpt>
      <trkpt lat="45.20546" lon="6.33088">
        <ele>1496</ele>
        <time>2014-08-09T11:16:42Z</time>
      </trkpt>
      <trkpt lat="45.20552" lon="6.33077">
        <ele>1484</ele>
        <time>2014-08-09T11:16:45Z</time>
      </trkpt>
      <trkpt lat="45.20558" lon="6.33065">
        <ele>1485</ele>
        <time>2014-08-09T11:16:51Z</time>
      </trkpt>
      <trkpt lat="45.20566" lon="6.33049">
        <ele>1484</ele>
        <time>2014-08-09T11:16:56Z</time>
      </trkpt>
      <trkpt lat="45.20566" lon="6.33034">
        <ele>1482</ele>
        <time>2014-08-09T11:17:00Z</time>
      </trkpt>
      <trkpt lat="45.20567" lon="6.33018">
        <ele>1482</ele>
        <time>2014-08-09T11:17:05Z</time>
      </trkpt>
      <trkpt lat="45.20573" lon="6.33005">
        <ele>1485</ele>
        <time>2014-08-09T11:17:08Z</time>
      </trkpt>
      <trkpt lat="45.2058" lon="6.32992">
        <ele>1482</ele>
        <time>2014-08-09T11:17:11Z</time>
      </trkpt>
      <trkpt lat="45.20587" lon="6.3298">
        <ele>1499</ele>
        <time>2014-08-09T11:17:14Z</time>
      </trkpt>
      <trkpt lat="45.20592" lon="6.32967">
        <ele>1501</ele>
        <time>2014-08-09T11:17:17Z</time>
      </trkpt>
      <trkpt lat="45.20595" lon="6.32954">
        <ele>1501</ele>
        <time>2014-08-09T11:17:20Z</time>
      </trkpt>
      <trkpt lat="45.20594" lon="6.32937">
        <ele>1497</ele>
        <time>2014-08-09T11:17:23Z</time>
      </trkpt>
      <trkpt lat="45.20592" lon="6.32922">
        <ele>1490</ele>
        <time>2014-08-09T11:17:26Z</time>
      </trkpt>
      <trkpt lat="45.2059" lon="6.32909">
        <ele>1488</ele>
        <time>2014-08-09T11:17:29Z</time>
      </trkpt>
      <trkpt lat="45.20588" lon="6.32896">
        <ele>1493</ele>
        <time>2014-08-09T11:17:33Z</time>
      </trkpt>
      <trkpt lat="45.20587" lon="6.32879">
        <ele>1495</ele>
        <time>2014-08-09T11:17:37Z</time>
      </trkpt>
      <trkpt lat="45.20588" lon="6.32862">
        <ele>1494</ele>
        <time>2014-08-09T11:17:41Z</time>
      </trkpt>
      <trkpt lat="45.2059" lon="6.32847">
        <ele>1490</ele>
        <time>2014-08-09T11:17:45Z</time>
      </trkpt>
      <trkpt lat="45.20593" lon="6.32834">
        <ele>1487</ele>
        <time>2014-08-09T11:17:48Z</time>
      </trkpt>
      <trkpt lat="45.20595" lon="6.32816">
        <ele>1493</ele>
        <time>2014-08-09T11:17:52Z</time>
      </trkpt>
      <trkpt lat="45.20594" lon="6.328">
        <ele>1496</ele>
        <time>2014-08-09T11:17:55Z</time>
      </trkpt>
      <trkpt lat="45.20593" lon="6.32777">
        <ele>1495</ele>
        <time>2014-08-09T11:17:59Z</time>
      </trkpt>
      <trkpt lat="45.20594" lon="6.32762">
        <ele>1491</ele>
        <time>2014-08-09T11:18:01Z</time>
      </trkpt>
      <trkpt lat="45.20594" lon="6.32747">
        <ele>1489</ele>
        <time>2014-08-09T11:18:03Z</time>
      </trkpt>
      <trkpt lat="45.20592" lon="6.32729">
        <ele>1494</ele>
        <time>2014-08-09T11:18:06Z</time>
      </trkpt>
      <trkpt lat="45.2059" lon="6.32714">
        <ele>1497</ele>
        <time>2014-08-09T11:18:09Z</time>
      </trkpt>
      <trkpt lat="45.20589" lon="6.32697">
        <ele>1496</ele>
        <time>2014-08-09T11:18:12Z</time>
      </trkpt>
      <trkpt lat="45.20588" lon="6.32678">
        <ele>1489</ele>
        <time>2014-08-09T11:18:16Z</time>
      </trkpt>
      <trkpt lat="45.20588" lon="6.32664">
        <ele>1483</ele>
        <time>2014-08-09T11:18:19Z</time>
      </trkpt>
      <trkpt lat="45.20589" lon="6.32648">
        <ele>1489</ele>
        <time>2014-08-09T11:18:23Z</time>
      </trkpt>
      <trkpt lat="45.20592" lon="6.32633">
        <ele>1491</ele>
        <time>2014-08-09T11:18:27Z</time>
      </trkpt>
      <trkpt lat="45.20597" lon="6.32621">
        <ele>1491</ele>
        <time>2014-08-09T11:18:30Z</time>
      </trkpt>
      <trkpt lat="45.20599" lon="6.32608">
        <ele>1489</ele>
        <time>2014-08-09T11:18:33Z</time>
      </trkpt>
      <trkpt lat="45.20605" lon="6.32595">
        <ele>1488</ele>
        <time>2014-08-09T11:18:36Z</time>
      </trkpt>
      <trkpt lat="45.20611" lon="6.32584">
        <ele>1490</ele>
        <time>2014-08-09T11:18:38Z</time>
      </trkpt>
      <trkpt lat="45.20618" lon="6.32572">
        <ele>1481</ele>
        <time>2014-08-09T11:18:40Z</time>
      </trkpt>
      <trkpt lat="45.20623" lon="6.32561">
        <ele>1482</ele>
        <time>2014-08-09T11:18:42Z</time>
      </trkpt>
      <trkpt lat="45.2063" lon="6.32551">
        <ele>1483</ele>
        <time>2014-08-09T11:18:44Z</time>
      </trkpt>
      <trkpt lat="45.20636" lon="6.32542">
        <ele>1483</ele>
        <time>2014-08-09T11:18:46Z</time>
      </trkpt>
      <trkpt lat="45.20644" lon="6.32533">
        <ele>1483</ele>
        <time>2014-08-09T11:18:48Z</time>
      </trkpt>
      <trkpt lat="45.20654" lon="6.32524">
        <ele>1484</ele>
        <time>2014-08-09T11:18:51Z</time>
      </trkpt>
      <trkpt lat="45.20662" lon="6.32515">
        <ele>1485</ele>
        <time>2014-08-09T11:18:53Z</time>
      </trkpt>
      <trkpt lat="45.2067" lon="6.32507">
        <ele>1494</ele>
        <time>2014-08-09T11:18:55Z</time>
      </trkpt>
      <trkpt lat="45.20679" lon="6.32498">
        <ele>1485</ele>
        <time>2014-08-09T11:18:57Z</time>
      </trkpt>
      <trkpt lat="45.20691" lon="6.32483">
        <ele>1483</ele>
        <time>2014-08-09T11:19:00Z</time>
      </trkpt>
      <trkpt lat="45.20699" lon="6.32473">
        <ele>1482</ele>
        <time>2014-08-09T11:19:02Z</time>
      </trkpt>
      <trkpt lat="45.20708" lon="6.32464">
        <ele>1481</ele>
        <time>2014-08-09T11:19:05Z</time>
      </trkpt>
      <trkpt lat="45.20717" lon="6.3246">
        <ele>1482</ele>
        <time>2014-08-09T11:19:08Z</time>
      </trkpt>
      <trkpt lat="45.20731" lon="6.32454">
        <ele>1482</ele>
        <time>2014-08-09T11:19:12Z</time>
      </trkpt>
      <trkpt lat="45.20742" lon="6.32449">
        <ele>1481</ele>
        <time>2014-08-09T11:19:15Z</time>
      </trkpt>
      <trkpt lat="45.20753" lon="6.32454">
        <ele>1479</ele>
        <time>2014-08-09T11:19:20Z</time>
      </trkpt>
      <trkpt lat="45.20764" lon="6.32462">
        <ele>1480</ele>
        <time>2014-08-09T11:19:24Z</time>
      </trkpt>
      <trkpt lat="45.20756" lon="6.32474">
        <ele>1486</ele>
        <time>2014-08-09T11:19:30Z</time>
      </trkpt>
      <trkpt lat="45.20744" lon="6.3248">
        <ele>1492</ele>
        <time>2014-08-09T11:19:35Z</time>
      </trkpt>
      <trkpt lat="45.20729" lon="6.32479">
        <ele>1488</ele>
        <time>2014-08-09T11:19:39Z</time>
      </trkpt>
      <trkpt lat="45.20716" lon="6.32482">
        <ele>1486</ele>
        <time>2014-08-09T11:19:41Z</time>
      </trkpt>
      <trkpt lat="45.20705" lon="6.32485">
        <ele>1485</ele>
        <time>2014-08-09T11:19:43Z</time>
      </trkpt>
      <trkpt lat="45.20834" lon="6.32578">
        <ele>1511</ele>
        <time>2014-08-09T11:20:28Z</time>
      </trkpt>
      <trkpt lat="45.20848" lon="6.3258">
        <ele>1501</ele>
        <time>2014-08-09T11:20:29Z</time>
      </trkpt>
      <trkpt lat="45.21039" lon="6.32702">
        <ele>1520</ele>
        <time>2014-08-09T11:22:24Z</time>
      </trkpt>
      <trkpt lat="45.21053" lon="6.32698">
        <ele>1517</ele>
        <time>2014-08-09T11:22:26Z</time>
      </trkpt>
      <trkpt lat="45.21061" lon="6.32705">
        <ele>1518</ele>
        <time>2014-08-09T11:22:34Z</time>
      </trkpt>
      <trkpt lat="45.2107" lon="6.32704">
        <ele>1517</ele>
        <time>2014-08-09T11:22:46Z</time>
      </trkpt>
      <trkpt lat="45.21081" lon="6.3271">
        <ele>1518</ele>
        <time>2014-08-09T11:22:55Z</time>
      </trkpt>
      <trkpt lat="45.2109" lon="6.32701">
        <ele>1518</ele>
        <time>2014-08-09T11:23:00Z</time>
      </trkpt>
      <trkpt lat="45.211" lon="6.3271">
        <ele>1523</ele>
        <time>2014-08-09T11:23:05Z</time>
      </trkpt>
      <trkpt lat="45.2111" lon="6.3271">
        <ele>1524</ele>
        <time>2014-08-09T11:23:08Z</time>
      </trkpt>
      <trkpt lat="45.2112" lon="6.32701">
        <ele>1523</ele>
        <time>2014-08-09T11:23:15Z</time>
      </trkpt>
      <trkpt lat="45.21128" lon="6.32692">
        <ele>1523</ele>
        <time>2014-08-09T11:23:18Z</time>
      </trkpt>
      <trkpt lat="45.21135" lon="6.32682">
        <ele>1522</ele>
        <time>2014-08-09T11:23:22Z</time>
      </trkpt>
      <trkpt lat="45.21147" lon="6.32669">
        <ele>1522</ele>
        <time>2014-08-09T11:23:28Z</time>
      </trkpt>
      <trkpt lat="45.21156" lon="6.32658">
        <ele>1506</ele>
        <time>2014-08-09T11:23:33Z</time>
      </trkpt>
      <trkpt lat="45.21163" lon="6.32646">
        <ele>1501</ele>
        <time>2014-08-09T11:23:37Z</time>
      </trkpt>
      <trkpt lat="45.21171" lon="6.32635">
        <ele>1512</ele>
        <time>2014-08-09T11:23:41Z</time>
      </trkpt>
      <trkpt lat="45.21179" lon="6.32619">
        <ele>1508</ele>
        <time>2014-08-09T11:23:47Z</time>
      </trkpt>
      <trkpt lat="45.21187" lon="6.32605">
        <ele>1506</ele>
        <time>2014-08-09T11:23:51Z</time>
      </trkpt>
      <trkpt lat="45.21197" lon="6.32598">
        <ele>1506</ele>
        <time>2014-08-09T11:23:53Z</time>
      </trkpt>
      <trkpt lat="45.21206" lon="6.32593">
        <ele>1508</ele>
        <time>2014-08-09T11:23:55Z</time>
      </trkpt>
      <trkpt lat="45.21216" lon="6.32586">
        <ele>1509</ele>
        <time>2014-08-09T11:23:59Z</time>
      </trkpt>
      <trkpt lat="45.21227" lon="6.32581">
        <ele>1492</ele>
        <time>2014-08-09T11:24:02Z</time>
      </trkpt>
      <trkpt lat="45.21237" lon="6.32578">
        <ele>1496</ele>
        <time>2014-08-09T11:24:07Z</time>
      </trkpt>
      <trkpt lat="45.21248" lon="6.32582">
        <ele>1507</ele>
        <time>2014-08-09T11:24:12Z</time>
      </trkpt>
      <trkpt lat="45.21262" lon="6.32584">
        <ele>1508</ele>
        <time>2014-08-09T11:24:15Z</time>
      </trkpt>
      <trkpt lat="45.2127" lon="6.32578">
        <ele>1490</ele>
        <time>2014-08-09T11:24:21Z</time>
      </trkpt>
      <trkpt lat="45.21278" lon="6.32586">
        <ele>1505</ele>
        <time>2014-08-09T11:24:29Z</time>
      </trkpt>
      <trkpt lat="45.21282" lon="6.32598">
        <ele>1504</ele>
        <time>2014-08-09T11:24:37Z</time>
      </trkpt>
      <trkpt lat="45.21285" lon="6.32611">
        <ele>1505</ele>
        <time>2014-08-09T11:24:42Z</time>
      </trkpt>
      <trkpt lat="45.21295" lon="6.3262">
        <ele>1504</ele>
        <time>2014-08-09T11:24:46Z</time>
      </trkpt>
      <trkpt lat="45.21298" lon="6.32634">
        <ele>1505</ele>
        <time>2014-08-09T11:24:51Z</time>
      </trkpt>
      <trkpt lat="45.21295" lon="6.32648">
        <ele>1507</ele>
        <time>2014-08-09T11:24:55Z</time>
      </trkpt>
      <trkpt lat="45.213" lon="6.32662">
        <ele>1506</ele>
        <time>2014-08-09T11:25:03Z</time>
      </trkpt>
      <trkpt lat="45.21292" lon="6.32674">
        <ele>1524</ele>
        <time>2014-08-09T11:25:08Z</time>
      </trkpt>
      <trkpt lat="45.21288" lon="6.32688">
        <ele>1526</ele>
        <time>2014-08-09T11:25:15Z</time>
      </trkpt>
      <trkpt lat="45.213" lon="6.32692">
        <ele>1523</ele>
        <time>2014-08-09T11:25:18Z</time>
      </trkpt>
      <trkpt lat="45.21302" lon="6.32705">
        <ele>1524</ele>
        <time>2014-08-09T11:25:22Z</time>
      </trkpt>
      <trkpt lat="45.21293" lon="6.32711">
        <ele>1528</ele>
        <time>2014-08-09T11:25:25Z</time>
      </trkpt>
      <trkpt lat="45.21297" lon="6.32724">
        <ele>1528</ele>
        <time>2014-08-09T11:25:29Z</time>
      </trkpt>
      <trkpt lat="45.21308" lon="6.32731">
        <ele>1524</ele>
        <time>2014-08-09T11:25:33Z</time>
      </trkpt>
      <trkpt lat="45.21328" lon="6.32732">
        <ele>1518</ele>
        <time>2014-08-09T11:25:35Z</time>
      </trkpt>
      <trkpt lat="45.21338" lon="6.32731">
        <ele>1491</ele>
        <time>2014-08-09T11:25:36Z</time>
      </trkpt>
      <trkpt lat="45.21349" lon="6.32733">
        <ele>1488</ele>
        <time>2014-08-09T11:25:37Z</time>
      </trkpt>
      <trkpt lat="45.21358" lon="6.32738">
        <ele>1485</ele>
        <time>2014-08-09T11:25:39Z</time>
      </trkpt>
      <trkpt lat="45.21367" lon="6.32747">
        <ele>1481</ele>
        <time>2014-08-09T11:25:43Z</time>
      </trkpt>
      <trkpt lat="45.21368" lon="6.32763">
        <ele>1490</ele>
        <time>2014-08-09T11:25:48Z</time>
      </trkpt>
      <trkpt lat="45.21361" lon="6.32772">
        <ele>1492</ele>
        <time>2014-08-09T11:25:53Z</time>
      </trkpt>
      <trkpt lat="45.21354" lon="6.32786">
        <ele>1494</ele>
        <time>2014-08-09T11:25:57Z</time>
      </trkpt>
      <trkpt lat="45.21356" lon="6.328">
        <ele>1496</ele>
        <time>2014-08-09T11:26:02Z</time>
      </trkpt>
      <trkpt lat="45.2135" lon="6.32812">
        <ele>1500</ele>
        <time>2014-08-09T11:26:08Z</time>
      </trkpt>
      <trkpt lat="45.21347" lon="6.32828">
        <ele>1508</ele>
        <time>2014-08-09T11:26:11Z</time>
      </trkpt>
      <trkpt lat="45.21349" lon="6.32849">
        <ele>1508</ele>
        <time>2014-08-09T11:26:15Z</time>
      </trkpt>
      <trkpt lat="45.21356" lon="6.32862">
        <ele>1504</ele>
        <time>2014-08-09T11:26:18Z</time>
      </trkpt>
      <trkpt lat="45.21366" lon="6.32875">
        <ele>1500</ele>
        <time>2014-08-09T11:26:23Z</time>
      </trkpt>
      <trkpt lat="45.21363" lon="6.3289">
        <ele>1503</ele>
        <time>2014-08-09T11:26:25Z</time>
      </trkpt>
      <trkpt lat="45.2136" lon="6.32904">
        <ele>1506</ele>
        <time>2014-08-09T11:26:28Z</time>
      </trkpt>
      <trkpt lat="45.21363" lon="6.3292">
        <ele>1508</ele>
        <time>2014-08-09T11:26:31Z</time>
      </trkpt>
      <trkpt lat="45.21359" lon="6.32931">
        <ele>1510</ele>
        <time>2014-08-09T11:26:34Z</time>
      </trkpt>
      <trkpt lat="45.21357" lon="6.32949">
        <ele>1509</ele>
        <time>2014-08-09T11:26:39Z</time>
      </trkpt>
      <trkpt lat="45.21356" lon="6.32966">
        <ele>1510</ele>
        <time>2014-08-09T11:26:43Z</time>
      </trkpt>
      <trkpt lat="45.21349" lon="6.32977">
        <ele>1514</ele>
        <time>2014-08-09T11:26:46Z</time>
      </trkpt>
      <trkpt lat="45.21341" lon="6.32991">
        <ele>1522</ele>
        <time>2014-08-09T11:26:49Z</time>
      </trkpt>
      <trkpt lat="45.21334" lon="6.33002">
        <ele>1532</ele>
        <time>2014-08-09T11:26:52Z</time>
      </trkpt>
      <trkpt lat="45.21339" lon="6.33015">
        <ele>1524</ele>
        <time>2014-08-09T11:26:56Z</time>
      </trkpt>
      <trkpt lat="45.21332" lon="6.33029">
        <ele>1555</ele>
        <time>2014-08-09T11:27:01Z</time>
      </trkpt>
      <trkpt lat="45.21314" lon="6.33041">
        <ele>1561</ele>
        <time>2014-08-09T11:27:03Z</time>
      </trkpt>
      <trkpt lat="45.21305" lon="6.33049">
        <ele>1564</ele>
        <time>2014-08-09T11:27:04Z</time>
      </trkpt>
      <trkpt lat="45.21297" lon="6.33066">
        <ele>1567</ele>
        <time>2014-08-09T11:27:06Z</time>
      </trkpt>
      <trkpt lat="45.21276" lon="6.33098">
        <ele>1583</ele>
        <time>2014-08-09T11:27:10Z</time>
      </trkpt>
      <trkpt lat="45.21277" lon="6.33116">
        <ele>1582</ele>
        <time>2014-08-09T11:27:14Z</time>
      </trkpt>
      <trkpt lat="45.21307" lon="6.33284">
        <ele>1604</ele>
        <time>2014-08-09T11:28:17Z</time>
      </trkpt>
      <trkpt lat="45.21302" lon="6.33299">
        <ele>1607</ele>
        <time>2014-08-09T11:28:20Z</time>
      </trkpt>
      <trkpt lat="45.2131" lon="6.33309">
        <ele>1604</ele>
        <time>2014-08-09T11:28:22Z</time>
      </trkpt>
      <trkpt lat="45.21325" lon="6.33321">
        <ele>1596</ele>
        <time>2014-08-09T11:28:25Z</time>
      </trkpt>
      <trkpt lat="45.21378" lon="6.33338">
        <ele>1569</ele>
        <time>2014-08-09T11:28:27Z</time>
      </trkpt>
      <trkpt lat="45.21415" lon="6.33351">
        <ele>1560</ele>
        <time>2014-08-09T11:28:29Z</time>
      </trkpt>
      <trkpt lat="45.21443" lon="6.33363">
        <ele>1540</ele>
        <time>2014-08-09T11:28:31Z</time>
      </trkpt>
      <trkpt lat="45.21459" lon="6.33369">
        <ele>1537</ele>
        <time>2014-08-09T11:28:32Z</time>
      </trkpt>
      <trkpt lat="45.21472" lon="6.33373">
        <ele>1535</ele>
        <time>2014-08-09T11:28:33Z</time>
      </trkpt>
      <trkpt lat="45.21482" lon="6.33378">
        <ele>1533</ele>
        <time>2014-08-09T11:28:34Z</time>
      </trkpt>
      <trkpt lat="45.21497" lon="6.33386">
        <ele>1532</ele>
        <time>2014-08-09T11:28:36Z</time>
      </trkpt>
      <trkpt lat="45.2151" lon="6.33395">
        <ele>1516</ele>
        <time>2014-08-09T11:28:38Z</time>
      </trkpt>
      <trkpt lat="45.21519" lon="6.33403">
        <ele>1516</ele>
        <time>2014-08-09T11:28:40Z</time>
      </trkpt>
      <trkpt lat="45.21529" lon="6.33412">
        <ele>1515</ele>
        <time>2014-08-09T11:28:42Z</time>
      </trkpt>
      <trkpt lat="45.21538" lon="6.33421">
        <ele>1518</ele>
        <time>2014-08-09T11:28:44Z</time>
      </trkpt>
      <trkpt lat="45.21546" lon="6.33429">
        <ele>1517</ele>
        <time>2014-08-09T11:28:46Z</time>
      </trkpt>
      <trkpt lat="45.21559" lon="6.33437">
        <ele>1515</ele>
        <time>2014-08-09T11:28:48Z</time>
      </trkpt>
      <trkpt lat="45.21572" lon="6.33448">
        <ele>1514</ele>
        <time>2014-08-09T11:28:50Z</time>
      </trkpt>
      <trkpt lat="45.2158" lon="6.33458">
        <ele>1515</ele>
        <time>2014-08-09T11:28:52Z</time>
      </trkpt>
      <trkpt lat="45.21588" lon="6.3347">
        <ele>1507</ele>
        <time>2014-08-09T11:28:55Z</time>
      </trkpt>
      <trkpt lat="45.21597" lon="6.33483">
        <ele>1508</ele>
        <time>2014-08-09T11:28:58Z</time>
      </trkpt>
      <trkpt lat="45.2161" lon="6.33495">
        <ele>1507</ele>
        <time>2014-08-09T11:29:01Z</time>
      </trkpt>
      <trkpt lat="45.21618" lon="6.33503">
        <ele>1511</ele>
        <time>2014-08-09T11:29:03Z</time>
      </trkpt>
      <trkpt lat="45.21628" lon="6.33515">
        <ele>1511</ele>
        <time>2014-08-09T11:29:06Z</time>
      </trkpt>
      <trkpt lat="45.21637" lon="6.33529">
        <ele>1511</ele>
        <time>2014-08-09T11:29:09Z</time>
      </trkpt>
      <trkpt lat="45.21643" lon="6.33539">
        <ele>1511</ele>
        <time>2014-08-09T11:29:11Z</time>
      </trkpt>
      <trkpt lat="45.21651" lon="6.33549">
        <ele>1511</ele>
        <time>2014-08-09T11:29:13Z</time>
      </trkpt>
      <trkpt lat="45.21662" lon="6.33558">
        <ele>1511</ele>
        <time>2014-08-09T11:29:16Z</time>
      </trkpt>
      <trkpt lat="45.21672" lon="6.33564">
        <ele>1506</ele>
        <time>2014-08-09T11:29:19Z</time>
      </trkpt>
      <trkpt lat="45.21683" lon="6.33569">
        <ele>1506</ele>
        <time>2014-08-09T11:29:22Z</time>
      </trkpt>
      <trkpt lat="45.21692" lon="6.33576">
        <ele>1506</ele>
        <time>2014-08-09T11:29:25Z</time>
      </trkpt>
      <trkpt lat="45.21702" lon="6.33585">
        <ele>1509</ele>
        <time>2014-08-09T11:29:28Z</time>
      </trkpt>
      <trkpt lat="45.21709" lon="6.33597">
        <ele>1509</ele>
        <time>2014-08-09T11:29:31Z</time>
      </trkpt>
      <trkpt lat="45.21716" lon="6.33611">
        <ele>1509</ele>
        <time>2014-08-09T11:29:34Z</time>
      </trkpt>
      <trkpt lat="45.21724" lon="6.33622">
        <ele>1510</ele>
        <time>2014-08-09T11:29:37Z</time>
      </trkpt>
      <trkpt lat="45.2173" lon="6.33635">
        <ele>1510</ele>
        <time>2014-08-09T11:29:40Z</time>
      </trkpt>
      <trkpt lat="45.2174" lon="6.33646">
        <ele>1510</ele>
        <time>2014-08-09T11:29:43Z</time>
      </trkpt>
      <trkpt lat="45.21748" lon="6.33659">
        <ele>1511</ele>
        <time>2014-08-09T11:29:46Z</time>
      </trkpt>
      <trkpt lat="45.21757" lon="6.33671">
        <ele>1511</ele>
        <time>2014-08-09T11:29:49Z</time>
      </trkpt>
      <trkpt lat="45.21763" lon="6.33686">
        <ele>1510</ele>
        <time>2014-08-09T11:29:52Z</time>
      </trkpt>
      <trkpt lat="45.21769" lon="6.337">
        <ele>1511</ele>
        <time>2014-08-09T11:29:55Z</time>
      </trkpt>
      <trkpt lat="45.21775" lon="6.33715">
        <ele>1511</ele>
        <time>2014-08-09T11:29:58Z</time>
      </trkpt>
      <trkpt lat="45.2178" lon="6.33731">
        <ele>1511</ele>
        <time>2014-08-09T11:30:02Z</time>
      </trkpt>
      <trkpt lat="45.21782" lon="6.33745">
        <ele>1512</ele>
        <time>2014-08-09T11:30:05Z</time>
      </trkpt>
      <trkpt lat="45.21782" lon="6.33763">
        <ele>1514</ele>
        <time>2014-08-09T11:30:08Z</time>
      </trkpt>
      <trkpt lat="45.21784" lon="6.33777">
        <ele>1514</ele>
        <time>2014-08-09T11:30:10Z</time>
      </trkpt>
      <trkpt lat="45.21786" lon="6.33791">
        <ele>1514</ele>
        <time>2014-08-09T11:30:12Z</time>
      </trkpt>
      <trkpt lat="45.21792" lon="6.33802">
        <ele>1514</ele>
        <time>2014-08-09T11:30:14Z</time>
      </trkpt>
      <trkpt lat="45.21801" lon="6.33812">
        <ele>1513</ele>
        <time>2014-08-09T11:30:16Z</time>
      </trkpt>
      <trkpt lat="45.21812" lon="6.33814">
        <ele>1512</ele>
        <time>2014-08-09T11:30:18Z</time>
      </trkpt>
      <trkpt lat="45.21822" lon="6.33814">
        <ele>1511</ele>
        <time>2014-08-09T11:30:20Z</time>
      </trkpt>
      <trkpt lat="45.21831" lon="6.33823">
        <ele>1510</ele>
        <time>2014-08-09T11:30:23Z</time>
      </trkpt>
      <trkpt lat="45.21833" lon="6.33839">
        <ele>1510</ele>
        <time>2014-08-09T11:30:27Z</time>
      </trkpt>
      <trkpt lat="45.21831" lon="6.33855">
        <ele>1513</ele>
        <time>2014-08-09T11:30:32Z</time>
      </trkpt>
      <trkpt lat="45.21829" lon="6.33868">
        <ele>1514</ele>
        <time>2014-08-09T11:30:35Z</time>
      </trkpt>
      <trkpt lat="45.21829" lon="6.33883">
        <ele>1514</ele>
        <time>2014-08-09T11:30:38Z</time>
      </trkpt>
      <trkpt lat="45.21828" lon="6.33897">
        <ele>1514</ele>
        <time>2014-08-09T11:30:41Z</time>
      </trkpt>
      <trkpt lat="45.21822" lon="6.3391">
        <ele>1514</ele>
        <time>2014-08-09T11:30:44Z</time>
      </trkpt>
      <trkpt lat="45.21821" lon="6.33924">
        <ele>1515</ele>
        <time>2014-08-09T11:30:47Z</time>
      </trkpt>
      <trkpt lat="45.21822" lon="6.33938">
        <ele>1516</ele>
        <time>2014-08-09T11:30:51Z</time>
      </trkpt>
      <trkpt lat="45.21825" lon="6.33953">
        <ele>1517</ele>
        <time>2014-08-09T11:30:54Z</time>
      </trkpt>
      <trkpt lat="45.21827" lon="6.33972">
        <ele>1518</ele>
        <time>2014-08-09T11:30:57Z</time>
      </trkpt>
      <trkpt lat="45.2183" lon="6.33989">
        <ele>1517</ele>
        <time>2014-08-09T11:31:00Z</time>
      </trkpt>
      <trkpt lat="45.2183" lon="6.34006">
        <ele>1518</ele>
        <time>2014-08-09T11:31:04Z</time>
      </trkpt>
      <trkpt lat="45.21832" lon="6.34022">
        <ele>1520</ele>
        <time>2014-08-09T11:31:07Z</time>
      </trkpt>
      <trkpt lat="45.21836" lon="6.34035">
        <ele>1518</ele>
        <time>2014-08-09T11:31:10Z</time>
      </trkpt>
      <trkpt lat="45.21842" lon="6.34049">
        <ele>1519</ele>
        <time>2014-08-09T11:31:14Z</time>
      </trkpt>
      <trkpt lat="45.21849" lon="6.34062">
        <ele>1519</ele>
        <time>2014-08-09T11:31:17Z</time>
      </trkpt>
      <trkpt lat="45.21855" lon="6.34071">
        <ele>1519</ele>
        <time>2014-08-09T11:31:22Z</time>
      </trkpt>
      <trkpt lat="45.21862" lon="6.34082">
        <ele>1519</ele>
        <time>2014-08-09T11:31:39Z</time>
      </trkpt>
      <trkpt lat="45.21871" lon="6.34087">
        <ele>1521</ele>
        <time>2014-08-09T11:31:47Z</time>
      </trkpt>
      <trkpt lat="45.21862" lon="6.34086">
        <ele>1520</ele>
        <time>2014-08-09T11:33:47Z</time>
      </trkpt>
      <trkpt lat="45.21852" lon="6.34085">
        <ele>1520</ele>
        <time>2014-08-09T11:34:18Z</time>
      </trkpt>
      <trkpt lat="45.21862" lon="6.34081">
        <ele>1519</ele>
        <time>2014-08-09T11:34:35Z</time>
      </trkpt>
      <trkpt lat="45.21864" lon="6.34067">
        <ele>1519</ele>
        <time>2014-08-09T11:35:30Z</time>
      </trkpt>
      <trkpt lat="45.21865" lon="6.3408">
        <ele>1519</ele>
        <time>2014-08-09T11:35:45Z</time>
      </trkpt>
      <trkpt lat="45.21855" lon="6.34077">
        <ele>1519</ele>
        <time>2014-08-09T11:37:05Z</time>
      </trkpt>
      <trkpt lat="45.21845" lon="6.34077">
        <ele>1519</ele>
        <time>2014-08-09T11:39:30Z</time>
      </trkpt>
      <trkpt lat="45.21855" lon="6.34079">
        <ele>1519</ele>
        <time>2014-08-09T11:40:07Z</time>
      </trkpt>
      <trkpt lat="45.21862" lon="6.34088">
        <ele>1520</ele>
        <time>2014-08-09T11:40:13Z</time>
      </trkpt>
      <trkpt lat="45.2187" lon="6.34097">
        <ele>1521</ele>
        <time>2014-08-09T11:40:19Z</time>
      </trkpt>
      <trkpt lat="45.21879" lon="6.34101">
        <ele>1521</ele>
        <time>2014-08-09T11:40:24Z</time>
      </trkpt>
      <trkpt lat="45.21887" lon="6.34092">
        <ele>1521</ele>
        <time>2014-08-09T11:40:30Z</time>
      </trkpt>
      <trkpt lat="45.21897" lon="6.34084">
        <ele>1521</ele>
        <time>2014-08-09T11:40:36Z</time>
      </trkpt>
      <trkpt lat="45.21905" lon="6.34078">
        <ele>1521</ele>
        <time>2014-08-09T11:40:40Z</time>
      </trkpt>
      <trkpt lat="45.21914" lon="6.34073">
        <ele>1521</ele>
        <time>2014-08-09T11:40:45Z</time>
      </trkpt>
      <trkpt lat="45.21924" lon="6.3406">
        <ele>1520</ele>
        <time>2014-08-09T11:40:48Z</time>
      </trkpt>
      <trkpt lat="45.21932" lon="6.34053">
        <ele>1519</ele>
        <time>2014-08-09T11:40:49Z</time>
      </trkpt>
      <trkpt lat="45.21945" lon="6.34044">
        <ele>1519</ele>
        <time>2014-08-09T11:40:51Z</time>
      </trkpt>
      <trkpt lat="45.21958" lon="6.34035">
        <ele>1518</ele>
        <time>2014-08-09T11:40:53Z</time>
      </trkpt>
      <trkpt lat="45.21973" lon="6.34029">
        <ele>1518</ele>
        <time>2014-08-09T11:40:55Z</time>
      </trkpt>
      <trkpt lat="45.21983" lon="6.34027">
        <ele>1518</ele>
        <time>2014-08-09T11:40:56Z</time>
      </trkpt>
      <trkpt lat="45.22" lon="6.34022">
        <ele>1517</ele>
        <time>2014-08-09T11:40:59Z</time>
      </trkpt>
      <trkpt lat="45.22013" lon="6.34018">
        <ele>1516</ele>
        <time>2014-08-09T11:41:01Z</time>
      </trkpt>
      <trkpt lat="45.22023" lon="6.34015">
        <ele>1516</ele>
        <time>2014-08-09T11:41:03Z</time>
      </trkpt>
      <trkpt lat="45.22033" lon="6.34013">
        <ele>1516</ele>
        <time>2014-08-09T11:41:05Z</time>
      </trkpt>
      <trkpt lat="45.22043" lon="6.34015">
        <ele>1516</ele>
        <time>2014-08-09T11:41:08Z</time>
      </trkpt>
      <trkpt lat="45.22052" lon="6.34019">
        <ele>1516</ele>
        <time>2014-08-09T11:41:11Z</time>
      </trkpt>
      <trkpt lat="45.22062" lon="6.34018">
        <ele>1516</ele>
        <time>2014-08-09T11:41:14Z</time>
      </trkpt>
      <trkpt lat="45.22074" lon="6.34021">
        <ele>1515</ele>
        <time>2014-08-09T11:41:18Z</time>
      </trkpt>
      <trkpt lat="45.22084" lon="6.34024">
        <ele>1515</ele>
        <time>2014-08-09T11:41:21Z</time>
      </trkpt>
      <trkpt lat="45.22092" lon="6.34034">
        <ele>1516</ele>
        <time>2014-08-09T11:41:25Z</time>
      </trkpt>
      <trkpt lat="45.22095" lon="6.34049">
        <ele>1516</ele>
        <time>2014-08-09T11:41:29Z</time>
      </trkpt>
      <trkpt lat="45.22097" lon="6.34064">
        <ele>1516</ele>
        <time>2014-08-09T11:41:32Z</time>
      </trkpt>
      <trkpt lat="45.221" lon="6.34077">
        <ele>1517</ele>
        <time>2014-08-09T11:41:35Z</time>
      </trkpt>
      <trkpt lat="45.22102" lon="6.34091">
        <ele>1517</ele>
        <time>2014-08-09T11:41:39Z</time>
      </trkpt>
      <trkpt lat="45.22105" lon="6.34106">
        <ele>1517</ele>
        <time>2014-08-09T11:41:43Z</time>
      </trkpt>
      <trkpt lat="45.22107" lon="6.34119">
        <ele>1517</ele>
        <time>2014-08-09T11:41:46Z</time>
      </trkpt>
      <trkpt lat="45.22112" lon="6.34132">
        <ele>1517</ele>
        <time>2014-08-09T11:41:50Z</time>
      </trkpt>
      <trkpt lat="45.22117" lon="6.34144">
        <ele>1517</ele>
        <time>2014-08-09T11:41:53Z</time>
      </trkpt>
      <trkpt lat="45.22124" lon="6.34157">
        <ele>1516</ele>
        <time>2014-08-09T11:41:56Z</time>
      </trkpt>
      <trkpt lat="45.22132" lon="6.34168">
        <ele>1514</ele>
        <time>2014-08-09T11:41:59Z</time>
      </trkpt>
      <trkpt lat="45.22143" lon="6.34177">
        <ele>1513</ele>
        <time>2014-08-09T11:42:02Z</time>
      </trkpt>
      <trkpt lat="45.22156" lon="6.34183">
        <ele>1513</ele>
        <time>2014-08-09T11:42:05Z</time>
      </trkpt>
      <trkpt lat="45.22168" lon="6.34182">
        <ele>1508</ele>
        <time>2014-08-09T11:42:07Z</time>
      </trkpt>
      <trkpt lat="45.22178" lon="6.34177">
        <ele>1508</ele>
        <time>2014-08-09T11:42:09Z</time>
      </trkpt>
      <trkpt lat="45.22187" lon="6.3417">
        <ele>1508</ele>
        <time>2014-08-09T11:42:11Z</time>
      </trkpt>
      <trkpt lat="45.22198" lon="6.34162">
        <ele>1512</ele>
        <time>2014-08-09T11:42:14Z</time>
      </trkpt>
      <trkpt lat="45.2221" lon="6.34155">
        <ele>1512</ele>
        <time>2014-08-09T11:42:17Z</time>
      </trkpt>
      <trkpt lat="45.22222" lon="6.34149">
        <ele>1511</ele>
        <time>2014-08-09T11:42:20Z</time>
      </trkpt>
      <trkpt lat="45.22233" lon="6.34141">
        <ele>1511</ele>
        <time>2014-08-09T11:42:23Z</time>
      </trkpt>
      <trkpt lat="45.22246" lon="6.34134">
        <ele>1512</ele>
        <time>2014-08-09T11:42:26Z</time>
      </trkpt>
      <trkpt lat="45.22258" lon="6.3413">
        <ele>1506</ele>
        <time>2014-08-09T11:42:29Z</time>
      </trkpt>
      <trkpt lat="45.22272" lon="6.34127">
        <ele>1506</ele>
        <time>2014-08-09T11:42:32Z</time>
      </trkpt>
      <trkpt lat="45.22281" lon="6.34124">
        <ele>1505</ele>
        <time>2014-08-09T11:42:34Z</time>
      </trkpt>
      <trkpt lat="45.22292" lon="6.34118">
        <ele>1505</ele>
        <time>2014-08-09T11:42:36Z</time>
      </trkpt>
      <trkpt lat="45.22303" lon="6.34111">
        <ele>1504</ele>
        <time>2014-08-09T11:42:38Z</time>
      </trkpt>
      <trkpt lat="45.22314" lon="6.34103">
        <ele>1504</ele>
        <time>2014-08-09T11:42:40Z</time>
      </trkpt>
      <trkpt lat="45.22323" lon="6.34094">
        <ele>1504</ele>
        <time>2014-08-09T11:42:42Z</time>
      </trkpt>
      <trkpt lat="45.22332" lon="6.34082">
        <ele>1506</ele>
        <time>2014-08-09T11:42:44Z</time>
      </trkpt>
      <trkpt lat="45.2234" lon="6.34071">
        <ele>1504</ele>
        <time>2014-08-09T11:42:46Z</time>
      </trkpt>
      <trkpt lat="45.22349" lon="6.3406">
        <ele>1503</ele>
        <time>2014-08-09T11:42:48Z</time>
      </trkpt>
      <trkpt lat="45.22356" lon="6.34049">
        <ele>1503</ele>
        <time>2014-08-09T11:42:50Z</time>
      </trkpt>
      <trkpt lat="45.22364" lon="6.34038">
        <ele>1504</ele>
        <time>2014-08-09T11:42:52Z</time>
      </trkpt>
      <trkpt lat="45.22372" lon="6.34026">
        <ele>1504</ele>
        <time>2014-08-09T11:42:54Z</time>
      </trkpt>
      <trkpt lat="45.2238" lon="6.34016">
        <ele>1503</ele>
        <time>2014-08-09T11:42:56Z</time>
      </trkpt>
      <trkpt lat="45.22388" lon="6.34002">
        <ele>1502</ele>
        <time>2014-08-09T11:42:58Z</time>
      </trkpt>
      <trkpt lat="45.22396" lon="6.3399">
        <ele>1512</ele>
        <time>2014-08-09T11:43:00Z</time>
      </trkpt>
      <trkpt lat="45.22406" lon="6.33977">
        <ele>1513</ele>
        <time>2014-08-09T11:43:02Z</time>
      </trkpt>
      <trkpt lat="45.22415" lon="6.33965">
        <ele>1515</ele>
        <time>2014-08-09T11:43:04Z</time>
      </trkpt>
      <trkpt lat="45.22424" lon="6.33955">
        <ele>1502</ele>
        <time>2014-08-09T11:43:06Z</time>
      </trkpt>
      <trkpt lat="45.22433" lon="6.33946">
        <ele>1503</ele>
        <time>2014-08-09T11:43:08Z</time>
      </trkpt>
      <trkpt lat="45.22441" lon="6.33937">
        <ele>1503</ele>
        <time>2014-08-09T11:43:10Z</time>
      </trkpt>
      <trkpt lat="45.22451" lon="6.33925">
        <ele>1502</ele>
        <time>2014-08-09T11:43:12Z</time>
      </trkpt>
      <trkpt lat="45.2246" lon="6.33914">
        <ele>1511</ele>
        <time>2014-08-09T11:43:14Z</time>
      </trkpt>
      <trkpt lat="45.22469" lon="6.33903">
        <ele>1509</ele>
        <time>2014-08-09T11:43:16Z</time>
      </trkpt>
      <trkpt lat="45.22477" lon="6.33893">
        <ele>1508</ele>
        <time>2014-08-09T11:43:18Z</time>
      </trkpt>
      <trkpt lat="45.22486" lon="6.33881">
        <ele>1509</ele>
        <time>2014-08-09T11:43:20Z</time>
      </trkpt>
      <trkpt lat="45.22496" lon="6.33873">
        <ele>1509</ele>
        <time>2014-08-09T11:43:22Z</time>
      </trkpt>
      <trkpt lat="45.22507" lon="6.33863">
        <ele>1493</ele>
        <time>2014-08-09T11:43:25Z</time>
      </trkpt>
      <trkpt lat="45.22515" lon="6.33855">
        <ele>1494</ele>
        <time>2014-08-09T11:43:27Z</time>
      </trkpt>
      <trkpt lat="45.22526" lon="6.33843">
        <ele>1493</ele>
        <time>2014-08-09T11:43:30Z</time>
      </trkpt>
      <trkpt lat="45.22534" lon="6.33832">
        <ele>1496</ele>
        <time>2014-08-09T11:43:33Z</time>
      </trkpt>
      <trkpt lat="45.22543" lon="6.33822">
        <ele>1494</ele>
        <time>2014-08-09T11:43:36Z</time>
      </trkpt>
      <trkpt lat="45.22552" lon="6.33812">
        <ele>1493</ele>
        <time>2014-08-09T11:43:39Z</time>
      </trkpt>
      <trkpt lat="45.2256" lon="6.33801">
        <ele>1492</ele>
        <time>2014-08-09T11:43:42Z</time>
      </trkpt>
      <trkpt lat="45.22569" lon="6.33795">
        <ele>1491</ele>
        <time>2014-08-09T11:43:45Z</time>
      </trkpt>
      <trkpt lat="45.22578" lon="6.3379">
        <ele>1490</ele>
        <time>2014-08-09T11:43:47Z</time>
      </trkpt>
      <trkpt lat="45.22587" lon="6.33787">
        <ele>1476</ele>
        <time>2014-08-09T11:43:49Z</time>
      </trkpt>
      <trkpt lat="45.22597" lon="6.33783">
        <ele>1476</ele>
        <time>2014-08-09T11:43:51Z</time>
      </trkpt>
      <trkpt lat="45.22609" lon="6.33779">
        <ele>1475</ele>
        <time>2014-08-09T11:43:54Z</time>
      </trkpt>
      <trkpt lat="45.2262" lon="6.33774">
        <ele>1474</ele>
        <time>2014-08-09T11:43:57Z</time>
      </trkpt>
      <trkpt lat="45.22634" lon="6.3377">
        <ele>1472</ele>
        <time>2014-08-09T11:44:00Z</time>
      </trkpt>
      <trkpt lat="45.22643" lon="6.33767">
        <ele>1471</ele>
        <time>2014-08-09T11:44:02Z</time>
      </trkpt>
      <trkpt lat="45.22653" lon="6.33762">
        <ele>1470</ele>
        <time>2014-08-09T11:44:04Z</time>
      </trkpt>
      <trkpt lat="45.22665" lon="6.33757">
        <ele>1468</ele>
        <time>2014-08-09T11:44:07Z</time>
      </trkpt>
      <trkpt lat="45.22675" lon="6.33754">
        <ele>1463</ele>
        <time>2014-08-09T11:44:11Z</time>
      </trkpt>
      <trkpt lat="45.22681" lon="6.33768">
        <ele>1459</ele>
        <time>2014-08-09T11:44:18Z</time>
      </trkpt>
      <trkpt lat="45.22691" lon="6.33772">
        <ele>1458</ele>
        <time>2014-08-09T11:44:23Z</time>
      </trkpt>
      <trkpt lat="45.22702" lon="6.33768">
        <ele>1457</ele>
        <time>2014-08-09T11:44:28Z</time>
      </trkpt>
      <trkpt lat="45.22712" lon="6.33764">
        <ele>1456</ele>
        <time>2014-08-09T11:44:32Z</time>
      </trkpt>
      <trkpt lat="45.22721" lon="6.33761">
        <ele>1455</ele>
        <time>2014-08-09T11:44:36Z</time>
      </trkpt>
      <trkpt lat="45.22732" lon="6.33757">
        <ele>1454</ele>
        <time>2014-08-09T11:44:41Z</time>
      </trkpt>
      <trkpt lat="45.22741" lon="6.33752">
        <ele>1453</ele>
        <time>2014-08-09T11:44:45Z</time>
      </trkpt>
      <trkpt lat="45.22752" lon="6.33751">
        <ele>1451</ele>
        <time>2014-08-09T11:44:54Z</time>
      </trkpt>
      <trkpt lat="45.2276" lon="6.33743">
        <ele>1447</ele>
        <time>2014-08-09T11:44:59Z</time>
      </trkpt>
      <trkpt lat="45.2277" lon="6.33738">
        <ele>1444</ele>
        <time>2014-08-09T11:45:02Z</time>
      </trkpt>
      <trkpt lat="45.2278" lon="6.33734">
        <ele>1441</ele>
        <time>2014-08-09T11:45:07Z</time>
      </trkpt>
      <trkpt lat="45.2279" lon="6.33726">
        <ele>1439</ele>
        <time>2014-08-09T11:45:11Z</time>
      </trkpt>
      <trkpt lat="45.22799" lon="6.33723">
        <ele>1437</ele>
        <time>2014-08-09T11:45:22Z</time>
      </trkpt>
      <trkpt lat="45.22809" lon="6.33716">
        <ele>1436</ele>
        <time>2014-08-09T11:45:30Z</time>
      </trkpt>
      <trkpt lat="45.22819" lon="6.33715">
        <ele>1435</ele>
        <time>2014-08-09T11:45:35Z</time>
      </trkpt>
      <trkpt lat="45.22828" lon="6.33715">
        <ele>1434</ele>
        <time>2014-08-09T11:45:40Z</time>
      </trkpt>
      <trkpt lat="45.22838" lon="6.33713">
        <ele>1415</ele>
        <time>2014-08-09T11:45:45Z</time>
      </trkpt>
      <trkpt lat="45.22848" lon="6.33717">
        <ele>1414</ele>
        <time>2014-08-09T11:45:53Z</time>
      </trkpt>
      <trkpt lat="45.22857" lon="6.33721">
        <ele>1413</ele>
        <time>2014-08-09T11:45:59Z</time>
      </trkpt>
      <trkpt lat="45.22868" lon="6.3372">
        <ele>1411</ele>
        <time>2014-08-09T11:46:03Z</time>
      </trkpt>
      <trkpt lat="45.22879" lon="6.33715">
        <ele>1409</ele>
        <time>2014-08-09T11:46:07Z</time>
      </trkpt>
      <trkpt lat="45.22888" lon="6.33711">
        <ele>1407</ele>
        <time>2014-08-09T11:46:11Z</time>
      </trkpt>
      <trkpt lat="45.22897" lon="6.33707">
        <ele>1406</ele>
        <time>2014-08-09T11:46:14Z</time>
      </trkpt>
      <trkpt lat="45.22907" lon="6.33702">
        <ele>1404</ele>
        <time>2014-08-09T11:46:17Z</time>
      </trkpt>
      <trkpt lat="45.22917" lon="6.33696">
        <ele>1389</ele>
        <time>2014-08-09T11:46:20Z</time>
      </trkpt>
      <trkpt lat="45.22926" lon="6.3369">
        <ele>1389</ele>
        <time>2014-08-09T11:46:24Z</time>
      </trkpt>
      <trkpt lat="45.22936" lon="6.33687">
        <ele>1388</ele>
        <time>2014-08-09T11:46:28Z</time>
      </trkpt>
      <trkpt lat="45.22947" lon="6.33687">
        <ele>1387</ele>
        <time>2014-08-09T11:46:32Z</time>
      </trkpt>
      <trkpt lat="45.22958" lon="6.33688">
        <ele>1385</ele>
        <time>2014-08-09T11:46:37Z</time>
      </trkpt>
      <trkpt lat="45.22968" lon="6.33685">
        <ele>1384</ele>
        <time>2014-08-09T11:46:42Z</time>
      </trkpt>
      <trkpt lat="45.22979" lon="6.33685">
        <ele>1382</ele>
        <time>2014-08-09T11:46:47Z</time>
      </trkpt>
      <trkpt lat="45.22991" lon="6.33681">
        <ele>1381</ele>
        <time>2014-08-09T11:46:52Z</time>
      </trkpt>
      <trkpt lat="45.23003" lon="6.33676">
        <ele>1374</ele>
        <time>2014-08-09T11:46:57Z</time>
      </trkpt>
      <trkpt lat="45.23011" lon="6.3367">
        <ele>1373</ele>
        <time>2014-08-09T11:47:01Z</time>
      </trkpt>
      <trkpt lat="45.23019" lon="6.33662">
        <ele>1371</ele>
        <time>2014-08-09T11:47:06Z</time>
      </trkpt>
      <trkpt lat="45.23029" lon="6.33657">
        <ele>1368</ele>
        <time>2014-08-09T11:47:09Z</time>
      </trkpt>
      <trkpt lat="45.23033" lon="6.33642">
        <ele>1367</ele>
        <time>2014-08-09T11:47:12Z</time>
      </trkpt>
      <trkpt lat="45.23032" lon="6.33623">
        <ele>1366</ele>
        <time>2014-08-09T11:47:15Z</time>
      </trkpt>
      <trkpt lat="45.2303" lon="6.33609">
        <ele>1366</ele>
        <time>2014-08-09T11:47:17Z</time>
      </trkpt>
      <trkpt lat="45.23027" lon="6.33593">
        <ele>1365</ele>
        <time>2014-08-09T11:47:19Z</time>
      </trkpt>
      <trkpt lat="45.23021" lon="6.33576">
        <ele>1363</ele>
        <time>2014-08-09T11:47:22Z</time>
      </trkpt>
      <trkpt lat="45.2302" lon="6.33561">
        <ele>1362</ele>
        <time>2014-08-09T11:47:24Z</time>
      </trkpt>
      <trkpt lat="45.23019" lon="6.33541">
        <ele>1362</ele>
        <time>2014-08-09T11:47:27Z</time>
      </trkpt>
      <trkpt lat="45.23021" lon="6.33528">
        <ele>1361</ele>
        <time>2014-08-09T11:47:29Z</time>
      </trkpt>
      <trkpt lat="45.23024" lon="6.33512">
        <ele>1361</ele>
        <time>2014-08-09T11:47:31Z</time>
      </trkpt>
      <trkpt lat="45.23027" lon="6.33498">
        <ele>1360</ele>
        <time>2014-08-09T11:47:33Z</time>
      </trkpt>
      <trkpt lat="45.2303" lon="6.33483">
        <ele>1360</ele>
        <time>2014-08-09T11:47:36Z</time>
      </trkpt>
      <trkpt lat="45.23032" lon="6.3347">
        <ele>1360</ele>
        <time>2014-08-09T11:47:40Z</time>
      </trkpt>
      <trkpt lat="45.23033" lon="6.33456">
        <ele>1360</ele>
        <time>2014-08-09T11:47:47Z</time>
      </trkpt>
      <trkpt lat="45.23037" lon="6.33443">
        <ele>1360</ele>
        <time>2014-08-09T11:47:52Z</time>
      </trkpt>
      <trkpt lat="45.2304" lon="6.33429">
        <ele>1361</ele>
        <time>2014-08-09T11:47:57Z</time>
      </trkpt>
      <trkpt lat="45.23043" lon="6.33415">
        <ele>1357</ele>
        <time>2014-08-09T11:48:02Z</time>
      </trkpt>
      <trkpt lat="45.23048" lon="6.33401">
        <ele>1357</ele>
        <time>2014-08-09T11:48:07Z</time>
      </trkpt>
      <trkpt lat="45.23053" lon="6.33388">
        <ele>1357</ele>
        <time>2014-08-09T11:48:11Z</time>
      </trkpt>
      <trkpt lat="45.23058" lon="6.33376">
        <ele>1357</ele>
        <time>2014-08-09T11:48:16Z</time>
      </trkpt>
      <trkpt lat="45.2306" lon="6.33363">
        <ele>1357</ele>
        <time>2014-08-09T11:48:20Z</time>
      </trkpt>
      <trkpt lat="45.23063" lon="6.33347">
        <ele>1357</ele>
        <time>2014-08-09T11:48:24Z</time>
      </trkpt>
      <trkpt lat="45.23061" lon="6.33334">
        <ele>1357</ele>
        <time>2014-08-09T11:48:29Z</time>
      </trkpt>
      <trkpt lat="45.23071" lon="6.3332">
        <ele>1350</ele>
        <time>2014-08-09T11:48:34Z</time>
      </trkpt>
      <trkpt lat="45.23077" lon="6.33309">
        <ele>1347</ele>
        <time>2014-08-09T11:48:37Z</time>
      </trkpt>
      <trkpt lat="45.23084" lon="6.33301">
        <ele>1364</ele>
        <time>2014-08-09T11:48:44Z</time>
      </trkpt>
      <trkpt lat="45.23091" lon="6.3329">
        <ele>1363</ele>
        <time>2014-08-09T11:48:49Z</time>
      </trkpt>
      <trkpt lat="45.23098" lon="6.33278">
        <ele>1361</ele>
        <time>2014-08-09T11:48:53Z</time>
      </trkpt>
      <trkpt lat="45.23105" lon="6.33267">
        <ele>1361</ele>
        <time>2014-08-09T11:48:58Z</time>
      </trkpt>
      <trkpt lat="45.23115" lon="6.33267">
        <ele>1363</ele>
        <time>2014-08-09T11:49:06Z</time>
      </trkpt>
      <trkpt lat="45.23126" lon="6.33267">
        <ele>1366</ele>
        <time>2014-08-09T11:49:13Z</time>
      </trkpt>
      <trkpt lat="45.23136" lon="6.33262">
        <ele>1368</ele>
        <time>2014-08-09T11:49:19Z</time>
      </trkpt>
      <trkpt lat="45.23145" lon="6.33255">
        <ele>1370</ele>
        <time>2014-08-09T11:49:25Z</time>
      </trkpt>
      <trkpt lat="45.23152" lon="6.33246">
        <ele>1361</ele>
        <time>2014-08-09T11:49:32Z</time>
      </trkpt>
      <trkpt lat="45.2316" lon="6.3324">
        <ele>1363</ele>
        <time>2014-08-09T11:49:37Z</time>
      </trkpt>
      <trkpt lat="45.23169" lon="6.33236">
        <ele>1377</ele>
        <time>2014-08-09T11:49:42Z</time>
      </trkpt>
      <trkpt lat="45.23178" lon="6.33232">
        <ele>1378</ele>
        <time>2014-08-09T11:49:46Z</time>
      </trkpt>
      <trkpt lat="45.23186" lon="6.33229">
        <ele>1379</ele>
        <time>2014-08-09T11:49:52Z</time>
      </trkpt>
      <trkpt lat="45.23193" lon="6.33216">
        <ele>1379</ele>
        <time>2014-08-09T11:49:59Z</time>
      </trkpt>
      <trkpt lat="45.23198" lon="6.33204">
        <ele>1378</ele>
        <time>2014-08-09T11:50:03Z</time>
      </trkpt>
      <trkpt lat="45.23202" lon="6.33192">
        <ele>1378</ele>
        <time>2014-08-09T11:50:07Z</time>
      </trkpt>
      <trkpt lat="45.23195" lon="6.33179">
        <ele>1373</ele>
        <time>2014-08-09T11:50:12Z</time>
      </trkpt>
      <trkpt lat="45.23191" lon="6.33164">
        <ele>1359</ele>
        <time>2014-08-09T11:50:15Z</time>
      </trkpt>
      <trkpt lat="45.2319" lon="6.33149">
        <ele>1359</ele>
        <time>2014-08-09T11:50:18Z</time>
      </trkpt>
      <trkpt lat="45.23188" lon="6.33134">
        <ele>1359</ele>
        <time>2014-08-09T11:50:21Z</time>
      </trkpt>
      <trkpt lat="45.23188" lon="6.33109">
        <ele>1355</ele>
        <time>2014-08-09T11:50:26Z</time>
      </trkpt>
      <trkpt lat="45.23186" lon="6.33096">
        <ele>1351</ele>
        <time>2014-08-09T11:50:29Z</time>
      </trkpt>
      <trkpt lat="45.23181" lon="6.3308">
        <ele>1339</ele>
        <time>2014-08-09T11:50:33Z</time>
      </trkpt>
      <trkpt lat="45.23174" lon="6.33069">
        <ele>1339</ele>
        <time>2014-08-09T11:50:41Z</time>
      </trkpt>
      <trkpt lat="45.23167" lon="6.33057">
        <ele>1340</ele>
        <time>2014-08-09T11:50:45Z</time>
      </trkpt>
      <trkpt lat="45.23166" lon="6.33042">
        <ele>1309</ele>
        <time>2014-08-09T11:50:49Z</time>
      </trkpt>
      <trkpt lat="45.23171" lon="6.3303">
        <ele>1338</ele>
        <time>2014-08-09T11:50:52Z</time>
      </trkpt>
      <trkpt lat="45.23177" lon="6.3302">
        <ele>1336</ele>
        <time>2014-08-09T11:50:55Z</time>
      </trkpt>
      <trkpt lat="45.23186" lon="6.33012">
        <ele>1337</ele>
        <time>2014-08-09T11:50:59Z</time>
      </trkpt>
      <trkpt lat="45.23192" lon="6.32999">
        <ele>1325</ele>
        <time>2014-08-09T11:51:03Z</time>
      </trkpt>
      <trkpt lat="45.23202" lon="6.32993">
        <ele>1328</ele>
        <time>2014-08-09T11:51:06Z</time>
      </trkpt>
      <trkpt lat="45.23211" lon="6.32984">
        <ele>1330</ele>
        <time>2014-08-09T11:51:09Z</time>
      </trkpt>
      <trkpt lat="45.23219" lon="6.32975">
        <ele>1330</ele>
        <time>2014-08-09T11:51:12Z</time>
      </trkpt>
      <trkpt lat="45.23228" lon="6.32969">
        <ele>1331</ele>
        <time>2014-08-09T11:51:16Z</time>
      </trkpt>
      <trkpt lat="45.23238" lon="6.32958">
        <ele>1330</ele>
        <time>2014-08-09T11:51:19Z</time>
      </trkpt>
      <trkpt lat="45.23242" lon="6.32947">
        <ele>1327</ele>
        <time>2014-08-09T11:51:21Z</time>
      </trkpt>
      <trkpt lat="45.23244" lon="6.32932">
        <ele>1324</ele>
        <time>2014-08-09T11:51:24Z</time>
      </trkpt>
      <trkpt lat="45.2325" lon="6.32922">
        <ele>1323</ele>
        <time>2014-08-09T11:51:39Z</time>
      </trkpt>
      <trkpt lat="45.23256" lon="6.32909">
        <ele>1325</ele>
        <time>2014-08-09T11:51:45Z</time>
      </trkpt>
      <trkpt lat="45.23259" lon="6.32895">
        <ele>1326</ele>
        <time>2014-08-09T11:51:50Z</time>
      </trkpt>
      <trkpt lat="45.23263" lon="6.32879">
        <ele>1324</ele>
        <time>2014-08-09T11:51:53Z</time>
      </trkpt>
      <trkpt lat="45.23261" lon="6.32862">
        <ele>1319</ele>
        <time>2014-08-09T11:51:57Z</time>
      </trkpt>
      <trkpt lat="45.23256" lon="6.3285">
        <ele>1311</ele>
        <time>2014-08-09T11:52:01Z</time>
      </trkpt>
      <trkpt lat="45.23252" lon="6.32835">
        <ele>1297</ele>
        <time>2014-08-09T11:52:07Z</time>
      </trkpt>
      <trkpt lat="45.23252" lon="6.32819">
        <ele>1298</ele>
        <time>2014-08-09T11:52:11Z</time>
      </trkpt>
      <trkpt lat="45.23256" lon="6.32805">
        <ele>1299</ele>
        <time>2014-08-09T11:52:14Z</time>
      </trkpt>
      <trkpt lat="45.23258" lon="6.32786">
        <ele>1296</ele>
        <time>2014-08-09T11:52:17Z</time>
      </trkpt>
      <trkpt lat="45.23261" lon="6.32771">
        <ele>1292</ele>
        <time>2014-08-09T11:52:19Z</time>
      </trkpt>
      <trkpt lat="45.23275" lon="6.32752">
        <ele>1294</ele>
        <time>2014-08-09T11:52:23Z</time>
      </trkpt>
      <trkpt lat="45.23292" lon="6.32737">
        <ele>1282</ele>
        <time>2014-08-09T11:52:26Z</time>
      </trkpt>
      <trkpt lat="45.23303" lon="6.32719">
        <ele>1281</ele>
        <time>2014-08-09T11:52:28Z</time>
      </trkpt>
      <trkpt lat="45.23312" lon="6.32707">
        <ele>1280</ele>
        <time>2014-08-09T11:52:30Z</time>
      </trkpt>
      <trkpt lat="45.23321" lon="6.32696">
        <ele>1279</ele>
        <time>2014-08-09T11:52:32Z</time>
      </trkpt>
      <trkpt lat="45.2333" lon="6.32686">
        <ele>1277</ele>
        <time>2014-08-09T11:52:34Z</time>
      </trkpt>
      <trkpt lat="45.2334" lon="6.32677">
        <ele>1290</ele>
        <time>2014-08-09T11:52:36Z</time>
      </trkpt>
      <trkpt lat="45.2335" lon="6.32665">
        <ele>1275</ele>
        <time>2014-08-09T11:52:38Z</time>
      </trkpt>
      <trkpt lat="45.23361" lon="6.32653">
        <ele>1275</ele>
        <time>2014-08-09T11:52:41Z</time>
      </trkpt>
      <trkpt lat="45.23369" lon="6.32644">
        <ele>1275</ele>
        <time>2014-08-09T11:52:43Z</time>
      </trkpt>
      <trkpt lat="45.2338" lon="6.32634">
        <ele>1275</ele>
        <time>2014-08-09T11:52:45Z</time>
      </trkpt>
      <trkpt lat="45.2339" lon="6.32625">
        <ele>1275</ele>
        <time>2014-08-09T11:52:47Z</time>
      </trkpt>
      <trkpt lat="45.23401" lon="6.32616">
        <ele>1273</ele>
        <time>2014-08-09T11:52:49Z</time>
      </trkpt>
      <trkpt lat="45.23414" lon="6.32607">
        <ele>1272</ele>
        <time>2014-08-09T11:52:51Z</time>
      </trkpt>
      <trkpt lat="45.23426" lon="6.32596">
        <ele>1282</ele>
        <time>2014-08-09T11:52:53Z</time>
      </trkpt>
      <trkpt lat="45.23442" lon="6.32581">
        <ele>1267</ele>
        <time>2014-08-09T11:52:56Z</time>
      </trkpt>
      <trkpt lat="45.23452" lon="6.32572">
        <ele>1268</ele>
        <time>2014-08-09T11:52:59Z</time>
      </trkpt>
      <trkpt lat="45.23467" lon="6.32543">
        <ele>1266</ele>
        <time>2014-08-09T11:53:03Z</time>
      </trkpt>
      <trkpt lat="45.23473" lon="6.32525">
        <ele>1263</ele>
        <time>2014-08-09T11:53:05Z</time>
      </trkpt>
      <trkpt lat="45.23483" lon="6.32502">
        <ele>1262</ele>
        <time>2014-08-09T11:53:09Z</time>
      </trkpt>
      <trkpt lat="45.2349" lon="6.32492">
        <ele>1249</ele>
        <time>2014-08-09T11:53:11Z</time>
      </trkpt>
      <trkpt lat="45.2348" lon="6.325">
        <ele>1262</ele>
        <time>2014-08-09T11:53:21Z</time>
      </trkpt>
      <trkpt lat="45.23466" lon="6.32511">
        <ele>1260</ele>
        <time>2014-08-09T11:53:24Z</time>
      </trkpt>
      <trkpt lat="45.23456" lon="6.32516">
        <ele>1258</ele>
        <time>2014-08-09T11:53:25Z</time>
      </trkpt>
      <trkpt lat="45.23444" lon="6.32521">
        <ele>1255</ele>
        <time>2014-08-09T11:53:26Z</time>
      </trkpt>
      <trkpt lat="45.2343" lon="6.32524">
        <ele>1252</ele>
        <time>2014-08-09T11:53:28Z</time>
      </trkpt>
      <trkpt lat="45.23418" lon="6.3253">
        <ele>1253</ele>
        <time>2014-08-09T11:53:30Z</time>
      </trkpt>
      <trkpt lat="45.23405" lon="6.32532">
        <ele>1234</ele>
        <time>2014-08-09T11:53:32Z</time>
      </trkpt>
      <trkpt lat="45.23391" lon="6.32539">
        <ele>1235</ele>
        <time>2014-08-09T11:53:34Z</time>
      </trkpt>
      <trkpt lat="45.23374" lon="6.32545">
        <ele>1233</ele>
        <time>2014-08-09T11:53:36Z</time>
      </trkpt>
      <trkpt lat="45.23365" lon="6.3255">
        <ele>1233</ele>
        <time>2014-08-09T11:53:37Z</time>
      </trkpt>
      <trkpt lat="45.23355" lon="6.32553">
        <ele>1232</ele>
        <time>2014-08-09T11:53:38Z</time>
      </trkpt>
      <trkpt lat="45.23345" lon="6.32556">
        <ele>1232</ele>
        <time>2014-08-09T11:53:39Z</time>
      </trkpt>
      <trkpt lat="45.23328" lon="6.3256">
        <ele>1219</ele>
        <time>2014-08-09T11:53:41Z</time>
      </trkpt>
      <trkpt lat="45.23311" lon="6.32565">
        <ele>1217</ele>
        <time>2014-08-09T11:53:43Z</time>
      </trkpt>
      <trkpt lat="45.233" lon="6.32569">
        <ele>1215</ele>
        <time>2014-08-09T11:53:45Z</time>
      </trkpt>
      <trkpt lat="45.23286" lon="6.32573">
        <ele>1213</ele>
        <time>2014-08-09T11:53:48Z</time>
      </trkpt>
      <trkpt lat="45.23276" lon="6.32575">
        <ele>1212</ele>
        <time>2014-08-09T11:53:50Z</time>
      </trkpt>
      <trkpt lat="45.23265" lon="6.32578">
        <ele>1212</ele>
        <time>2014-08-09T11:53:52Z</time>
      </trkpt>
      <trkpt lat="45.23256" lon="6.32577">
        <ele>1212</ele>
        <time>2014-08-09T11:53:55Z</time>
      </trkpt>
      <trkpt lat="45.23245" lon="6.32576">
        <ele>1206</ele>
        <time>2014-08-09T11:53:57Z</time>
      </trkpt>
      <trkpt lat="45.23234" lon="6.32578">
        <ele>1201</ele>
        <time>2014-08-09T11:53:59Z</time>
      </trkpt>
      <trkpt lat="45.23219" lon="6.32579">
        <ele>1195</ele>
        <time>2014-08-09T11:54:02Z</time>
      </trkpt>
      <trkpt lat="45.23205" lon="6.32578">
        <ele>1192</ele>
        <time>2014-08-09T11:54:04Z</time>
      </trkpt>
      <trkpt lat="45.2319" lon="6.3258">
        <ele>1189</ele>
        <time>2014-08-09T11:54:06Z</time>
      </trkpt>
      <trkpt lat="45.23178" lon="6.32584">
        <ele>1194</ele>
        <time>2014-08-09T11:54:08Z</time>
      </trkpt>
      <trkpt lat="45.23169" lon="6.32589">
        <ele>1192</ele>
        <time>2014-08-09T11:54:10Z</time>
      </trkpt>
      <trkpt lat="45.23159" lon="6.32595">
        <ele>1178</ele>
        <time>2014-08-09T11:54:12Z</time>
      </trkpt>
      <trkpt lat="45.23148" lon="6.32591">
        <ele>1173</ele>
        <time>2014-08-09T11:54:15Z</time>
      </trkpt>
      <trkpt lat="45.23136" lon="6.32592">
        <ele>1167</ele>
        <time>2014-08-09T11:54:17Z</time>
      </trkpt>
      <trkpt lat="45.23147" lon="6.32584">
        <ele>1173</ele>
        <time>2014-08-09T11:54:21Z</time>
      </trkpt>
      <trkpt lat="45.23157" lon="6.32579">
        <ele>1174</ele>
        <time>2014-08-09T11:54:23Z</time>
      </trkpt>
      <trkpt lat="45.23167" lon="6.32575">
        <ele>1187</ele>
        <time>2014-08-09T11:54:25Z</time>
      </trkpt>
      <trkpt lat="45.23184" lon="6.32563">
        <ele>1187</ele>
        <time>2014-08-09T11:54:28Z</time>
      </trkpt>
      <trkpt lat="45.23193" lon="6.32556">
        <ele>1188</ele>
        <time>2014-08-09T11:54:30Z</time>
      </trkpt>
      <trkpt lat="45.23203" lon="6.32549">
        <ele>1188</ele>
        <time>2014-08-09T11:54:32Z</time>
      </trkpt>
      <trkpt lat="45.23213" lon="6.3254">
        <ele>1188</ele>
        <time>2014-08-09T11:54:34Z</time>
      </trkpt>
      <trkpt lat="45.23224" lon="6.32528">
        <ele>1187</ele>
        <time>2014-08-09T11:54:36Z</time>
      </trkpt>
      <trkpt lat="45.23233" lon="6.32517">
        <ele>1187</ele>
        <time>2014-08-09T11:54:38Z</time>
      </trkpt>
      <trkpt lat="45.23245" lon="6.32506">
        <ele>1185</ele>
        <time>2014-08-09T11:54:40Z</time>
      </trkpt>
      <trkpt lat="45.23255" lon="6.32493">
        <ele>1182</ele>
        <time>2014-08-09T11:54:42Z</time>
      </trkpt>
      <trkpt lat="45.23266" lon="6.3248">
        <ele>1180</ele>
        <time>2014-08-09T11:54:44Z</time>
      </trkpt>
      <trkpt lat="45.23273" lon="6.32468">
        <ele>1178</ele>
        <time>2014-08-09T11:54:46Z</time>
      </trkpt>
      <trkpt lat="45.2328" lon="6.32454">
        <ele>1176</ele>
        <time>2014-08-09T11:54:48Z</time>
      </trkpt>
      <trkpt lat="45.23286" lon="6.32443">
        <ele>1175</ele>
        <time>2014-08-09T11:54:50Z</time>
      </trkpt>
      <trkpt lat="45.23292" lon="6.32431">
        <ele>1174</ele>
        <time>2014-08-09T11:54:52Z</time>
      </trkpt>
      <trkpt lat="45.23298" lon="6.32421">
        <ele>1174</ele>
        <time>2014-08-09T11:54:54Z</time>
      </trkpt>
      <trkpt lat="45.23305" lon="6.32412">
        <ele>1159</ele>
        <time>2014-08-09T11:54:56Z</time>
      </trkpt>
      <trkpt lat="45.23313" lon="6.32402">
        <ele>1159</ele>
        <time>2014-08-09T11:54:59Z</time>
      </trkpt>
      <trkpt lat="45.23304" lon="6.32395">
        <ele>1156</ele>
        <time>2014-08-09T11:55:04Z</time>
      </trkpt>
      <trkpt lat="45.23292" lon="6.32401">
        <ele>1155</ele>
        <time>2014-08-09T11:55:06Z</time>
      </trkpt>
      <trkpt lat="45.23283" lon="6.32408">
        <ele>1155</ele>
        <time>2014-08-09T11:55:08Z</time>
      </trkpt>
      <trkpt lat="45.23276" lon="6.32417">
        <ele>1169</ele>
        <time>2014-08-09T11:55:10Z</time>
      </trkpt>
      <trkpt lat="45.23265" lon="6.32427">
        <ele>1167</ele>
        <time>2014-08-09T11:55:12Z</time>
      </trkpt>
      <trkpt lat="45.23254" lon="6.32441">
        <ele>1170</ele>
        <time>2014-08-09T11:55:15Z</time>
      </trkpt>
      <trkpt lat="45.23242" lon="6.3245">
        <ele>1163</ele>
        <time>2014-08-09T11:55:17Z</time>
      </trkpt>
      <trkpt lat="45.23231" lon="6.32455">
        <ele>1164</ele>
        <time>2014-08-09T11:55:19Z</time>
      </trkpt>
      <trkpt lat="45.23218" lon="6.32464">
        <ele>1164</ele>
        <time>2014-08-09T11:55:21Z</time>
      </trkpt>
      <trkpt lat="45.23209" lon="6.32467">
        <ele>1164</ele>
        <time>2014-08-09T11:55:22Z</time>
      </trkpt>
      <trkpt lat="45.23199" lon="6.32466">
        <ele>1163</ele>
        <time>2014-08-09T11:55:23Z</time>
      </trkpt>
      <trkpt lat="45.23185" lon="6.3247">
        <ele>1162</ele>
        <time>2014-08-09T11:55:25Z</time>
      </trkpt>
      <trkpt lat="45.23171" lon="6.32472">
        <ele>1162</ele>
        <time>2014-08-09T11:55:27Z</time>
      </trkpt>
      <trkpt lat="45.23161" lon="6.32472">
        <ele>1143</ele>
        <time>2014-08-09T11:55:28Z</time>
      </trkpt>
      <trkpt lat="45.2315" lon="6.32463">
        <ele>1138</ele>
        <time>2014-08-09T11:55:30Z</time>
      </trkpt>
      <trkpt lat="45.23157" lon="6.3245">
        <ele>1137</ele>
        <time>2014-08-09T11:55:32Z</time>
      </trkpt>
      <trkpt lat="45.23158" lon="6.32436">
        <ele>1137</ele>
        <time>2014-08-09T11:55:34Z</time>
      </trkpt>
      <trkpt lat="45.23159" lon="6.32421">
        <ele>1139</ele>
        <time>2014-08-09T11:55:36Z</time>
      </trkpt>
      <trkpt lat="45.23155" lon="6.324">
        <ele>1120</ele>
        <time>2014-08-09T11:55:41Z</time>
      </trkpt>
      <trkpt lat="45.23146" lon="6.32415">
        <ele>1121</ele>
        <time>2014-08-09T11:55:46Z</time>
      </trkpt>
      <trkpt lat="45.23139" lon="6.32427">
        <ele>1132</ele>
        <time>2014-08-09T11:55:47Z</time>
      </trkpt>
      <trkpt lat="45.23133" lon="6.3244">
        <ele>1131</ele>
        <time>2014-08-09T11:55:49Z</time>
      </trkpt>
      <trkpt lat="45.23132" lon="6.32427">
        <ele>1130</ele>
        <time>2014-08-09T11:56:15Z</time>
      </trkpt>
      <trkpt lat="45.23125" lon="6.32418">
        <ele>1126</ele>
        <time>2014-08-09T11:56:17Z</time>
      </trkpt>
      <trkpt lat="45.23119" lon="6.32407">
        <ele>1106</ele>
        <time>2014-08-09T11:56:20Z</time>
      </trkpt>
      <trkpt lat="45.23101" lon="6.32377">
        <ele>1096</ele>
        <time>2014-08-09T11:56:28Z</time>
      </trkpt>
      <trkpt lat="45.23093" lon="6.32368">
        <ele>1092</ele>
        <time>2014-08-09T11:56:29Z</time>
      </trkpt>
      <trkpt lat="45.23084" lon="6.32374">
        <ele>1093</ele>
        <time>2014-08-09T11:56:33Z</time>
      </trkpt>
      <trkpt lat="45.23083" lon="6.32357">
        <ele>1048</ele>
        <time>2014-08-09T11:56:40Z</time>
      </trkpt>
      <trkpt lat="45.23091" lon="6.32348">
        <ele>1081</ele>
        <time>2014-08-09T11:56:43Z</time>
      </trkpt>
      <trkpt lat="45.23101" lon="6.32342">
        <ele>1084</ele>
        <time>2014-08-09T11:56:47Z</time>
      </trkpt>
      <trkpt lat="45.23113" lon="6.3234">
        <ele>1091</ele>
        <time>2014-08-09T11:56:50Z</time>
      </trkpt>
      <trkpt lat="45.23124" lon="6.3234">
        <ele>1096</ele>
        <time>2014-08-09T11:56:54Z</time>
      </trkpt>
      <trkpt lat="45.23133" lon="6.32336">
        <ele>1099</ele>
        <time>2014-08-09T11:56:56Z</time>
      </trkpt>
      <trkpt lat="45.23131" lon="6.32322">
        <ele>1080</ele>
        <time>2014-08-09T11:57:03Z</time>
      </trkpt>
      <trkpt lat="45.23121" lon="6.3231">
        <ele>1075</ele>
        <time>2014-08-09T11:57:08Z</time>
      </trkpt>
      <trkpt lat="45.231" lon="6.32292">
        <ele>1067</ele>
        <time>2014-08-09T11:57:15Z</time>
      </trkpt>
      <trkpt lat="45.23089" lon="6.32283">
        <ele>1062</ele>
        <time>2014-08-09T11:57:20Z</time>
      </trkpt>
      <trkpt lat="45.23082" lon="6.32271">
        <ele>1024</ele>
        <time>2014-08-09T11:57:23Z</time>
      </trkpt>
      <trkpt lat="45.23076" lon="6.32259">
        <ele>1026</ele>
        <time>2014-08-09T11:57:27Z</time>
      </trkpt>
      <trkpt lat="45.23073" lon="6.32245">
        <ele>1020</ele>
        <time>2014-08-09T11:57:29Z</time>
      </trkpt>
      <trkpt lat="45.23066" lon="6.32237">
        <ele>1010</ele>
        <time>2014-08-09T11:57:36Z</time>
      </trkpt>
      <trkpt lat="45.23059" lon="6.32227">
        <ele>1002</ele>
        <time>2014-08-09T11:57:43Z</time>
      </trkpt>
      <trkpt lat="45.23062" lon="6.32213">
        <ele>1000</ele>
        <time>2014-08-09T11:57:50Z</time>
      </trkpt>
      <trkpt lat="45.23069" lon="6.32204">
        <ele>1001</ele>
        <time>2014-08-09T11:57:54Z</time>
      </trkpt>
      <trkpt lat="45.23069" lon="6.32187">
        <ele>1002</ele>
        <time>2014-08-09T11:58:00Z</time>
      </trkpt>
      <trkpt lat="45.23067" lon="6.32171">
        <ele>1003</ele>
        <time>2014-08-09T11:58:06Z</time>
      </trkpt>
      <trkpt lat="45.23063" lon="6.32157">
        <ele>993</ele>
        <time>2014-08-09T11:58:12Z</time>
      </trkpt>
      <trkpt lat="45.23073" lon="6.32151">
        <ele>996</ele>
        <time>2014-08-09T11:58:18Z</time>
      </trkpt>
      <trkpt lat="45.2307" lon="6.32137">
        <ele>990</ele>
        <time>2014-08-09T11:58:28Z</time>
      </trkpt>
      <trkpt lat="45.23061" lon="6.32126">
        <ele>986</ele>
        <time>2014-08-09T11:58:33Z</time>
      </trkpt>
      <trkpt lat="45.23058" lon="6.32112">
        <ele>984</ele>
        <time>2014-08-09T11:58:37Z</time>
      </trkpt>
      <trkpt lat="45.23055" lon="6.32094">
        <ele>983</ele>
        <time>2014-08-09T11:58:42Z</time>
      </trkpt>
      <trkpt lat="45.23058" lon="6.32079">
        <ele>976</ele>
        <time>2014-08-09T11:58:47Z</time>
      </trkpt>
      <trkpt lat="45.23067" lon="6.32064">
        <ele>977</ele>
        <time>2014-08-09T11:58:51Z</time>
      </trkpt>
      <trkpt lat="45.23072" lon="6.32052">
        <ele>974</ele>
        <time>2014-08-09T11:59:00Z</time>
      </trkpt>
      <trkpt lat="45.23068" lon="6.32034">
        <ele>970</ele>
        <time>2014-08-09T11:59:06Z</time>
      </trkpt>
      <trkpt lat="45.23072" lon="6.32018">
        <ele>971</ele>
        <time>2014-08-09T11:59:11Z</time>
      </trkpt>
      <trkpt lat="45.23078" lon="6.32007">
        <ele>975</ele>
        <time>2014-08-09T11:59:14Z</time>
      </trkpt>
      <trkpt lat="45.23082" lon="6.31994">
        <ele>971</ele>
        <time>2014-08-09T11:59:26Z</time>
      </trkpt>
      <trkpt lat="45.23072" lon="6.32001">
        <ele>973</ele>
        <time>2014-08-09T11:59:33Z</time>
      </trkpt>
      <trkpt lat="45.23077" lon="6.31988">
        <ele>962</ele>
        <time>2014-08-09T11:59:56Z</time>
      </trkpt>
      <trkpt lat="45.23067" lon="6.31986">
        <ele>956</ele>
        <time>2014-08-09T12:00:05Z</time>
      </trkpt>
      <trkpt lat="45.23055" lon="6.31985">
        <ele>948</ele>
        <time>2014-08-09T12:00:10Z</time>
      </trkpt>
      <trkpt lat="45.23044" lon="6.31983">
        <ele>942</ele>
        <time>2014-08-09T12:00:14Z</time>
      </trkpt>
      <trkpt lat="45.23034" lon="6.31982">
        <ele>938</ele>
        <time>2014-08-09T12:00:18Z</time>
      </trkpt>
      <trkpt lat="45.23025" lon="6.31981">
        <ele>935</ele>
        <time>2014-08-09T12:00:22Z</time>
      </trkpt>
      <trkpt lat="45.23016" lon="6.31987">
        <ele>932</ele>
        <time>2014-08-09T12:00:25Z</time>
      </trkpt>
      <trkpt lat="45.23007" lon="6.31994">
        <ele>928</ele>
        <time>2014-08-09T12:00:30Z</time>
      </trkpt>
      <trkpt lat="45.23013" lon="6.31979">
        <ele>932</ele>
        <time>2014-08-09T12:00:40Z</time>
      </trkpt>
      <trkpt lat="45.23021" lon="6.3197">
        <ele>933</ele>
        <time>2014-08-09T12:00:43Z</time>
      </trkpt>
      <trkpt lat="45.23029" lon="6.3196">
        <ele>934</ele>
        <time>2014-08-09T12:00:47Z</time>
      </trkpt>
      <trkpt lat="45.23039" lon="6.31953">
        <ele>936</ele>
        <time>2014-08-09T12:00:52Z</time>
      </trkpt>
      <trkpt lat="45.23043" lon="6.31932">
        <ele>934</ele>
        <time>2014-08-09T12:01:29Z</time>
      </trkpt>
      <trkpt lat="45.23051" lon="6.31909">
        <ele>918</ele>
        <time>2014-08-09T12:01:34Z</time>
      </trkpt>
      <trkpt lat="45.23058" lon="6.319">
        <ele>920</ele>
        <time>2014-08-09T12:01:42Z</time>
      </trkpt>
      <trkpt lat="45.23054" lon="6.31886">
        <ele>914</ele>
        <time>2014-08-09T12:01:52Z</time>
      </trkpt>
      <trkpt lat="45.23064" lon="6.31865">
        <ele>912</ele>
        <time>2014-08-09T12:02:00Z</time>
      </trkpt>
      <trkpt lat="45.23068" lon="6.31852">
        <ele>911</ele>
        <time>2014-08-09T12:02:08Z</time>
      </trkpt>
      <trkpt lat="45.23079" lon="6.31845">
        <ele>912</ele>
        <time>2014-08-09T12:02:13Z</time>
      </trkpt>
      <trkpt lat="45.23079" lon="6.31827">
        <ele>905</ele>
        <time>2014-08-09T12:02:47Z</time>
      </trkpt>
      <trkpt lat="45.23072" lon="6.31819">
        <ele>896</ele>
        <time>2014-08-09T12:02:51Z</time>
      </trkpt>
      <trkpt lat="45.2306" lon="6.31819">
        <ele>892</ele>
        <time>2014-08-09T12:02:56Z</time>
      </trkpt>
      <trkpt lat="45.23049" lon="6.31818">
        <ele>888</ele>
        <time>2014-08-09T12:03:01Z</time>
      </trkpt>
      <trkpt lat="45.23049" lon="6.31801">
        <ele>885</ele>
        <time>2014-08-09T12:03:11Z</time>
      </trkpt>
      <trkpt lat="45.23048" lon="6.31785">
        <ele>882</ele>
        <time>2014-08-09T12:03:16Z</time>
      </trkpt>
      <trkpt lat="45.23046" lon="6.31772">
        <ele>880</ele>
        <time>2014-08-09T12:03:21Z</time>
      </trkpt>
      <trkpt lat="45.23051" lon="6.31759">
        <ele>879</ele>
        <time>2014-08-09T12:03:28Z</time>
      </trkpt>
      <trkpt lat="45.23051" lon="6.31743">
        <ele>865</ele>
        <time>2014-08-09T12:03:39Z</time>
      </trkpt>
      <trkpt lat="45.23053" lon="6.31727">
        <ele>863</ele>
        <time>2014-08-09T12:03:42Z</time>
      </trkpt>
      <trkpt lat="45.23055" lon="6.31713">
        <ele>862</ele>
        <time>2014-08-09T12:03:46Z</time>
      </trkpt>
      <trkpt lat="45.23053" lon="6.31697">
        <ele>860</ele>
        <time>2014-08-09T12:03:53Z</time>
      </trkpt>
      <trkpt lat="45.23048" lon="6.31684">
        <ele>858</ele>
        <time>2014-08-09T12:03:57Z</time>
      </trkpt>
      <trkpt lat="45.23043" lon="6.31671">
        <ele>857</ele>
        <time>2014-08-09T12:04:02Z</time>
      </trkpt>
      <trkpt lat="45.23039" lon="6.31655">
        <ele>846</ele>
        <time>2014-08-09T12:04:06Z</time>
      </trkpt>
      <trkpt lat="45.23033" lon="6.31644">
        <ele>845</ele>
        <time>2014-08-09T12:04:09Z</time>
      </trkpt>
      <trkpt lat="45.23032" lon="6.31658">
        <ele>845</ele>
        <time>2014-08-09T12:04:34Z</time>
      </trkpt>
      <trkpt lat="45.23025" lon="6.31645">
        <ele>844</ele>
        <time>2014-08-09T12:05:18Z</time>
      </trkpt>
      <trkpt lat="45.23013" lon="6.31639">
        <ele>844</ele>
        <time>2014-08-09T12:05:23Z</time>
      </trkpt>
      <trkpt lat="45.2301" lon="6.31626">
        <ele>842</ele>
        <time>2014-08-09T12:05:26Z</time>
      </trkpt>
      <trkpt lat="45.23011" lon="6.3161">
        <ele>840</ele>
        <time>2014-08-09T12:05:29Z</time>
      </trkpt>
      <trkpt lat="45.23011" lon="6.31597">
        <ele>838</ele>
        <time>2014-08-09T12:05:35Z</time>
      </trkpt>
      <trkpt lat="45.23002" lon="6.31601">
        <ele>838</ele>
        <time>2014-08-09T12:06:16Z</time>
      </trkpt>
      <trkpt lat="45.22998" lon="6.31614">
        <ele>847</ele>
        <time>2014-08-09T12:06:38Z</time>
      </trkpt>
      <trkpt lat="45.22987" lon="6.3161">
        <ele>848</ele>
        <time>2014-08-09T12:06:50Z</time>
      </trkpt>
      <trkpt lat="45.22986" lon="6.31596">
        <ele>844</ele>
        <time>2014-08-09T12:06:54Z</time>
      </trkpt>
      <trkpt lat="45.22991" lon="6.31582">
        <ele>835</ele>
        <time>2014-08-09T12:06:57Z</time>
      </trkpt>
      <trkpt lat="45.22995" lon="6.31567">
        <ele>835</ele>
        <time>2014-08-09T12:07:01Z</time>
      </trkpt>
      <trkpt lat="45.23" lon="6.31554">
        <ele>835</ele>
        <time>2014-08-09T12:07:04Z</time>
      </trkpt>
      <trkpt lat="45.23005" lon="6.31542">
        <ele>827</ele>
        <time>2014-08-09T12:07:10Z</time>
      </trkpt>
      <trkpt lat="45.23005" lon="6.31526">
        <ele>825</ele>
        <time>2014-08-09T12:07:13Z</time>
      </trkpt>
      <trkpt lat="45.23011" lon="6.31509">
        <ele>823</ele>
        <time>2014-08-09T12:07:16Z</time>
      </trkpt>
      <trkpt lat="45.23018" lon="6.31499">
        <ele>816</ele>
        <time>2014-08-09T12:07:18Z</time>
      </trkpt>
      <trkpt lat="45.2303" lon="6.31489">
        <ele>814</ele>
        <time>2014-08-09T12:07:20Z</time>
      </trkpt>
      <trkpt lat="45.23042" lon="6.31478">
        <ele>813</ele>
        <time>2014-08-09T12:07:22Z</time>
      </trkpt>
      <trkpt lat="45.23053" lon="6.3147">
        <ele>812</ele>
        <time>2014-08-09T12:07:24Z</time>
      </trkpt>
      <trkpt lat="45.23063" lon="6.31467">
        <ele>812</ele>
        <time>2014-08-09T12:07:26Z</time>
      </trkpt>
      <trkpt lat="45.23073" lon="6.31465">
        <ele>811</ele>
        <time>2014-08-09T12:07:28Z</time>
      </trkpt>
      <trkpt lat="45.23086" lon="6.31462">
        <ele>808</ele>
        <time>2014-08-09T12:07:30Z</time>
      </trkpt>
      <trkpt lat="45.23099" lon="6.31455">
        <ele>806</ele>
        <time>2014-08-09T12:07:32Z</time>
      </trkpt>
      <trkpt lat="45.23112" lon="6.31451">
        <ele>805</ele>
        <time>2014-08-09T12:07:34Z</time>
      </trkpt>
      <trkpt lat="45.23125" lon="6.31455">
        <ele>805</ele>
        <time>2014-08-09T12:07:36Z</time>
      </trkpt>
      <trkpt lat="45.23134" lon="6.31466">
        <ele>806</ele>
        <time>2014-08-09T12:07:38Z</time>
      </trkpt>
      <trkpt lat="45.23139" lon="6.31478">
        <ele>807</ele>
        <time>2014-08-09T12:07:40Z</time>
      </trkpt>
      <trkpt lat="45.23145" lon="6.31495">
        <ele>809</ele>
        <time>2014-08-09T12:07:44Z</time>
      </trkpt>
      <trkpt lat="45.23157" lon="6.31501">
        <ele>817</ele>
        <time>2014-08-09T12:07:47Z</time>
      </trkpt>
      <trkpt lat="45.23167" lon="6.31504">
        <ele>812</ele>
        <time>2014-08-09T12:07:49Z</time>
      </trkpt>
      <trkpt lat="45.23177" lon="6.31506">
        <ele>812</ele>
        <time>2014-08-09T12:07:51Z</time>
      </trkpt>
      <trkpt lat="45.23186" lon="6.31508">
        <ele>812</ele>
        <time>2014-08-09T12:07:53Z</time>
      </trkpt>
      <trkpt lat="45.23197" lon="6.31514">
        <ele>811</ele>
        <time>2014-08-09T12:07:56Z</time>
      </trkpt>
      <trkpt lat="45.2321" lon="6.31514">
        <ele>809</ele>
        <time>2014-08-09T12:08:01Z</time>
      </trkpt>
      <trkpt lat="45.23223" lon="6.31507">
        <ele>806</ele>
        <time>2014-08-09T12:08:03Z</time>
      </trkpt>
      <trkpt lat="45.23237" lon="6.31501">
        <ele>800</ele>
        <time>2014-08-09T12:08:06Z</time>
      </trkpt>
      <trkpt lat="45.23247" lon="6.31497">
        <ele>792</ele>
        <time>2014-08-09T12:08:09Z</time>
      </trkpt>
      <trkpt lat="45.23257" lon="6.31495">
        <ele>787</ele>
        <time>2014-08-09T12:08:12Z</time>
      </trkpt>
      <trkpt lat="45.2327" lon="6.31495">
        <ele>783</ele>
        <time>2014-08-09T12:08:16Z</time>
      </trkpt>
      <trkpt lat="45.2328" lon="6.31501">
        <ele>791</ele>
        <time>2014-08-09T12:08:18Z</time>
      </trkpt>
      <trkpt lat="45.23291" lon="6.31507">
        <ele>790</ele>
        <time>2014-08-09T12:08:22Z</time>
      </trkpt>
      <trkpt lat="45.233" lon="6.31509">
        <ele>788</ele>
        <time>2014-08-09T12:08:27Z</time>
      </trkpt>
      <trkpt lat="45.23315" lon="6.31509">
        <ele>784</ele>
        <time>2014-08-09T12:08:34Z</time>
      </trkpt>
      <trkpt lat="45.23306" lon="6.31506">
        <ele>786</ele>
        <time>2014-08-09T12:08:41Z</time>
      </trkpt>
      <trkpt lat="45.23296" lon="6.31488">
        <ele>777</ele>
        <time>2014-08-09T12:08:44Z</time>
      </trkpt>
      <trkpt lat="45.23288" lon="6.31475">
        <ele>778</ele>
        <time>2014-08-09T12:08:46Z</time>
      </trkpt>
      <trkpt lat="45.23281" lon="6.31463">
        <ele>777</ele>
        <time>2014-08-09T12:08:48Z</time>
      </trkpt>
      <trkpt lat="45.23273" lon="6.3145">
        <ele>777</ele>
        <time>2014-08-09T12:08:51Z</time>
      </trkpt>
      <trkpt lat="45.23285" lon="6.31451">
        <ele>776</ele>
        <time>2014-08-09T12:08:56Z</time>
      </trkpt>
      <trkpt lat="45.23298" lon="6.31456">
        <ele>775</ele>
        <time>2014-08-09T12:08:58Z</time>
      </trkpt>
      <trkpt lat="45.23312" lon="6.31454">
        <ele>773</ele>
        <time>2014-08-09T12:09:00Z</time>
      </trkpt>
      <trkpt lat="45.23325" lon="6.31448">
        <ele>771</ele>
        <time>2014-08-09T12:09:02Z</time>
      </trkpt>
      <trkpt lat="45.23337" lon="6.31441">
        <ele>762</ele>
        <time>2014-08-09T12:09:04Z</time>
      </trkpt>
      <trkpt lat="45.23349" lon="6.31434">
        <ele>761</ele>
        <time>2014-08-09T12:09:06Z</time>
      </trkpt>
      <trkpt lat="45.23362" lon="6.31429">
        <ele>761</ele>
        <time>2014-08-09T12:09:08Z</time>
      </trkpt>
      <trkpt lat="45.23376" lon="6.31428">
        <ele>760</ele>
        <time>2014-08-09T12:09:10Z</time>
      </trkpt>
      <trkpt lat="45.2339" lon="6.31429">
        <ele>760</ele>
        <time>2014-08-09T12:09:12Z</time>
      </trkpt>
      <trkpt lat="45.23405" lon="6.31431">
        <ele>759</ele>
        <time>2014-08-09T12:09:14Z</time>
      </trkpt>
      <trkpt lat="45.23421" lon="6.31437">
        <ele>755</ele>
        <time>2014-08-09T12:09:16Z</time>
      </trkpt>
      <trkpt lat="45.23437" lon="6.31443">
        <ele>755</ele>
        <time>2014-08-09T12:09:18Z</time>
      </trkpt>
      <trkpt lat="45.23453" lon="6.3145">
        <ele>754</ele>
        <time>2014-08-09T12:09:20Z</time>
      </trkpt>
      <trkpt lat="45.2347" lon="6.31456">
        <ele>754</ele>
        <time>2014-08-09T12:09:22Z</time>
      </trkpt>
      <trkpt lat="45.23485" lon="6.3146">
        <ele>753</ele>
        <time>2014-08-09T12:09:24Z</time>
      </trkpt>
      <trkpt lat="45.23495" lon="6.31464">
        <ele>753</ele>
        <time>2014-08-09T12:09:25Z</time>
      </trkpt>
      <trkpt lat="45.23504" lon="6.31466">
        <ele>749</ele>
        <time>2014-08-09T12:09:26Z</time>
      </trkpt>
      <trkpt lat="45.23523" lon="6.31471">
        <ele>748</ele>
        <time>2014-08-09T12:09:28Z</time>
      </trkpt>
      <trkpt lat="45.23532" lon="6.31475">
        <ele>748</ele>
        <time>2014-08-09T12:09:29Z</time>
      </trkpt>
      <trkpt lat="45.23541" lon="6.31478">
        <ele>747</ele>
        <time>2014-08-09T12:09:30Z</time>
      </trkpt>
      <trkpt lat="45.23551" lon="6.31482">
        <ele>746</ele>
        <time>2014-08-09T12:09:31Z</time>
      </trkpt>
      <trkpt lat="45.2356" lon="6.31485">
        <ele>746</ele>
        <time>2014-08-09T12:09:32Z</time>
      </trkpt>
      <trkpt lat="45.2357" lon="6.31488">
        <ele>744</ele>
        <time>2014-08-09T12:09:33Z</time>
      </trkpt>
      <trkpt lat="45.23587" lon="6.31494">
        <ele>742</ele>
        <time>2014-08-09T12:09:35Z</time>
      </trkpt>
      <trkpt lat="45.23605" lon="6.315">
        <ele>742</ele>
        <time>2014-08-09T12:09:37Z</time>
      </trkpt>
      <trkpt lat="45.23614" lon="6.31502">
        <ele>740</ele>
        <time>2014-08-09T12:09:38Z</time>
      </trkpt>
      <trkpt lat="45.23624" lon="6.31506">
        <ele>739</ele>
        <time>2014-08-09T12:09:39Z</time>
      </trkpt>
      <trkpt lat="45.23642" lon="6.31512">
        <ele>739</ele>
        <time>2014-08-09T12:09:41Z</time>
      </trkpt>
      <trkpt lat="45.23652" lon="6.31515">
        <ele>738</ele>
        <time>2014-08-09T12:09:42Z</time>
      </trkpt>
      <trkpt lat="45.23663" lon="6.31518">
        <ele>738</ele>
        <time>2014-08-09T12:09:43Z</time>
      </trkpt>
      <trkpt lat="45.23672" lon="6.31521">
        <ele>737</ele>
        <time>2014-08-09T12:09:44Z</time>
      </trkpt>
      <trkpt lat="45.2369" lon="6.31527">
        <ele>737</ele>
        <time>2014-08-09T12:09:46Z</time>
      </trkpt>
      <trkpt lat="45.23705" lon="6.31528">
        <ele>737</ele>
        <time>2014-08-09T12:09:48Z</time>
      </trkpt>
      <trkpt lat="45.23716" lon="6.3152">
        <ele>738</ele>
        <time>2014-08-09T12:09:50Z</time>
      </trkpt>
      <trkpt lat="45.23725" lon="6.31508">
        <ele>738</ele>
        <time>2014-08-09T12:09:52Z</time>
      </trkpt>
      <trkpt lat="45.23732" lon="6.31498">
        <ele>743</ele>
        <time>2014-08-09T12:09:55Z</time>
      </trkpt>
      <trkpt lat="45.23741" lon="6.31506">
        <ele>739</ele>
        <time>2014-08-09T12:10:08Z</time>
      </trkpt>
      <trkpt lat="45.23749" lon="6.31514">
        <ele>739</ele>
        <time>2014-08-09T12:10:16Z</time>
      </trkpt>
      <trkpt lat="45.23757" lon="6.31524">
        <ele>741</ele>
        <time>2014-08-09T12:10:23Z</time>
      </trkpt>
      <trkpt lat="45.23767" lon="6.31533">
        <ele>741</ele>
        <time>2014-08-09T12:10:29Z</time>
      </trkpt>
      <trkpt lat="45.23775" lon="6.31538">
        <ele>741</ele>
        <time>2014-08-09T12:10:34Z</time>
      </trkpt>
      <trkpt lat="45.23784" lon="6.31545">
        <ele>742</ele>
        <time>2014-08-09T12:10:39Z</time>
      </trkpt>
      <trkpt lat="45.23793" lon="6.3155">
        <ele>742</ele>
        <time>2014-08-09T12:10:47Z</time>
      </trkpt>
      <trkpt lat="45.23803" lon="6.31552">
        <ele>742</ele>
        <time>2014-08-09T12:10:53Z</time>
      </trkpt>
      <trkpt lat="45.23813" lon="6.31553">
        <ele>743</ele>
        <time>2014-08-09T12:10:58Z</time>
      </trkpt>
      <trkpt lat="45.23822" lon="6.31554">
        <ele>743</ele>
        <time>2014-08-09T12:11:35Z</time>
      </trkpt>
      <trkpt lat="45.23828" lon="6.31543">
        <ele>743</ele>
        <time>2014-08-09T12:11:44Z</time>
      </trkpt>
      <trkpt lat="45.23833" lon="6.31528">
        <ele>744</ele>
        <time>2014-08-09T12:11:50Z</time>
      </trkpt>
      <trkpt lat="45.23839" lon="6.31517">
        <ele>751</ele>
        <time>2014-08-09T12:11:58Z</time>
      </trkpt>
      <trkpt lat="45.23847" lon="6.31507">
        <ele>751</ele>
        <time>2014-08-09T12:12:05Z</time>
      </trkpt>
      <trkpt lat="45.23855" lon="6.315">
        <ele>752</ele>
        <time>2014-08-09T12:12:12Z</time>
      </trkpt>
      <trkpt lat="45.23864" lon="6.31496">
        <ele>760</ele>
        <time>2014-08-09T12:12:18Z</time>
      </trkpt>
      <trkpt lat="45.23874" lon="6.31491">
        <ele>763</ele>
        <time>2014-08-09T12:12:23Z</time>
      </trkpt>
      <trkpt lat="45.23882" lon="6.31482">
        <ele>765</ele>
        <time>2014-08-09T12:12:28Z</time>
      </trkpt>
      <trkpt lat="45.23888" lon="6.31472">
        <ele>766</ele>
        <time>2014-08-09T12:12:39Z</time>
      </trkpt>
      <trkpt lat="45.23884" lon="6.3146">
        <ele>766</ele>
        <time>2014-08-09T12:12:48Z</time>
      </trkpt>
      <trkpt lat="45.2388" lon="6.31447">
        <ele>767</ele>
        <time>2014-08-09T12:12:55Z</time>
      </trkpt>
      <trkpt lat="45.23881" lon="6.31432">
        <ele>768</ele>
        <time>2014-08-09T12:13:01Z</time>
      </trkpt>
      <trkpt lat="45.23882" lon="6.31418">
        <ele>769</ele>
        <time>2014-08-09T12:13:07Z</time>
      </trkpt>
      <trkpt lat="45.23884" lon="6.31404">
        <ele>777</ele>
        <time>2014-08-09T12:13:14Z</time>
      </trkpt>
      <trkpt lat="45.23886" lon="6.3139">
        <ele>778</ele>
        <time>2014-08-09T12:13:23Z</time>
      </trkpt>
      <trkpt lat="45.23885" lon="6.31376">
        <ele>779</ele>
        <time>2014-08-09T12:13:38Z</time>
      </trkpt>
      <trkpt lat="45.23883" lon="6.31363">
        <ele>780</ele>
        <time>2014-08-09T12:13:49Z</time>
      </trkpt>
      <trkpt lat="45.2388" lon="6.3135">
        <ele>780</ele>
        <time>2014-08-09T12:13:56Z</time>
      </trkpt>
      <trkpt lat="45.23882" lon="6.31336">
        <ele>781</ele>
        <time>2014-08-09T12:14:01Z</time>
      </trkpt>
      <trkpt lat="45.23884" lon="6.31323">
        <ele>791</ele>
        <time>2014-08-09T12:14:10Z</time>
      </trkpt>
      <trkpt lat="45.23881" lon="6.31309">
        <ele>792</ele>
        <time>2014-08-09T12:14:21Z</time>
      </trkpt>
      <trkpt lat="45.23884" lon="6.31297">
        <ele>793</ele>
        <time>2014-08-09T12:14:28Z</time>
      </trkpt>
      <trkpt lat="45.23886" lon="6.31283">
        <ele>794</ele>
        <time>2014-08-09T12:14:37Z</time>
      </trkpt>
      <trkpt lat="45.23885" lon="6.31269">
        <ele>795</ele>
        <time>2014-08-09T12:14:46Z</time>
      </trkpt>
      <trkpt lat="45.23881" lon="6.31256">
        <ele>796</ele>
        <time>2014-08-09T12:14:56Z</time>
      </trkpt>
      <trkpt lat="45.23882" lon="6.31243">
        <ele>806</ele>
        <time>2014-08-09T12:15:11Z</time>
      </trkpt>
      <trkpt lat="45.23883" lon="6.31228">
        <ele>807</ele>
        <time>2014-08-09T12:15:20Z</time>
      </trkpt>
      <trkpt lat="45.23887" lon="6.31216">
        <ele>807</ele>
        <time>2014-08-09T12:15:26Z</time>
      </trkpt>
      <trkpt lat="45.2389" lon="6.31202">
        <ele>808</ele>
        <time>2014-08-09T12:15:36Z</time>
      </trkpt>
      <trkpt lat="45.23891" lon="6.31189">
        <ele>807</ele>
        <time>2014-08-09T12:15:42Z</time>
      </trkpt>
      <trkpt lat="45.23895" lon="6.31175">
        <ele>805</ele>
        <time>2014-08-09T12:15:52Z</time>
      </trkpt>
      <trkpt lat="45.23899" lon="6.31188">
        <ele>805</ele>
        <time>2014-08-09T12:16:28Z</time>
      </trkpt>
      <trkpt lat="45.23901" lon="6.31201">
        <ele>805</ele>
        <time>2014-08-09T12:16:41Z</time>
      </trkpt>
      <trkpt lat="45.23907" lon="6.31211">
        <ele>803</ele>
        <time>2014-08-09T12:16:47Z</time>
      </trkpt>
      <trkpt lat="45.23907" lon="6.31225">
        <ele>801</ele>
        <time>2014-08-09T12:16:56Z</time>
      </trkpt>
      <trkpt lat="45.23911" lon="6.31239">
        <ele>795</ele>
        <time>2014-08-09T12:17:07Z</time>
      </trkpt>
      <trkpt lat="45.23918" lon="6.31248">
        <ele>788</ele>
        <time>2014-08-09T12:17:14Z</time>
      </trkpt>
      <trkpt lat="45.23917" lon="6.31261">
        <ele>794</ele>
        <time>2014-08-09T12:17:22Z</time>
      </trkpt>
      <trkpt lat="45.23911" lon="6.31271">
        <ele>790</ele>
        <time>2014-08-09T12:17:30Z</time>
      </trkpt>
      <trkpt lat="45.23913" lon="6.31284">
        <ele>791</ele>
        <time>2014-08-09T12:17:38Z</time>
      </trkpt>
      <trkpt lat="45.23921" lon="6.31294">
        <ele>801</ele>
        <time>2014-08-09T12:17:45Z</time>
      </trkpt>
      <trkpt lat="45.23928" lon="6.31302">
        <ele>802</ele>
        <time>2014-08-09T12:17:51Z</time>
      </trkpt>
      <trkpt lat="45.23927" lon="6.31315">
        <ele>798</ele>
        <time>2014-08-09T12:18:05Z</time>
      </trkpt>
      <trkpt lat="45.23932" lon="6.31328">
        <ele>796</ele>
        <time>2014-08-09T12:18:14Z</time>
      </trkpt>
      <trkpt lat="45.23938" lon="6.3134">
        <ele>798</ele>
        <time>2014-08-09T12:18:19Z</time>
      </trkpt>
      <trkpt lat="45.23942" lon="6.31356">
        <ele>802</ele>
        <time>2014-08-09T12:18:25Z</time>
      </trkpt>
      <trkpt lat="45.23944" lon="6.31369">
        <ele>804</ele>
        <time>2014-08-09T12:18:30Z</time>
      </trkpt>
      <trkpt lat="45.23942" lon="6.31384">
        <ele>803</ele>
        <time>2014-08-09T12:18:35Z</time>
      </trkpt>
      <trkpt lat="45.23944" lon="6.31397">
        <ele>802</ele>
        <time>2014-08-09T12:18:41Z</time>
      </trkpt>
      <trkpt lat="45.23947" lon="6.3141">
        <ele>802</ele>
        <time>2014-08-09T12:18:45Z</time>
      </trkpt>
      <trkpt lat="45.23949" lon="6.31425">
        <ele>799</ele>
        <time>2014-08-09T12:18:50Z</time>
      </trkpt>
      <trkpt lat="45.23948" lon="6.31441">
        <ele>799</ele>
        <time>2014-08-09T12:18:56Z</time>
      </trkpt>
      <trkpt lat="45.23947" lon="6.31456">
        <ele>799</ele>
        <time>2014-08-09T12:19:01Z</time>
      </trkpt>
      <trkpt lat="45.23951" lon="6.31469">
        <ele>799</ele>
        <time>2014-08-09T12:19:06Z</time>
      </trkpt>
      <trkpt lat="45.23952" lon="6.31483">
        <ele>798</ele>
        <time>2014-08-09T12:19:12Z</time>
      </trkpt>
      <trkpt lat="45.23947" lon="6.31495">
        <ele>795</ele>
        <time>2014-08-09T12:19:17Z</time>
      </trkpt>
      <trkpt lat="45.23942" lon="6.31506">
        <ele>783</ele>
        <time>2014-08-09T12:19:23Z</time>
      </trkpt>
      <trkpt lat="45.23948" lon="6.31517">
        <ele>786</ele>
        <time>2014-08-09T12:19:29Z</time>
      </trkpt>
      <trkpt lat="45.23956" lon="6.31526">
        <ele>788</ele>
        <time>2014-08-09T12:19:32Z</time>
      </trkpt>
      <trkpt lat="45.23965" lon="6.31536">
        <ele>790</ele>
        <time>2014-08-09T12:19:38Z</time>
      </trkpt>
      <trkpt lat="45.23972" lon="6.31547">
        <ele>791</ele>
        <time>2014-08-09T12:19:43Z</time>
      </trkpt>
      <trkpt lat="45.2398" lon="6.31559">
        <ele>792</ele>
        <time>2014-08-09T12:19:53Z</time>
      </trkpt>
      <trkpt lat="45.23989" lon="6.31564">
        <ele>794</ele>
        <time>2014-08-09T12:19:58Z</time>
      </trkpt>
      <trkpt lat="45.23998" lon="6.3157">
        <ele>796</ele>
        <time>2014-08-09T12:20:03Z</time>
      </trkpt>
      <trkpt lat="45.24007" lon="6.31575">
        <ele>810</ele>
        <time>2014-08-09T12:20:08Z</time>
      </trkpt>
      <trkpt lat="45.24017" lon="6.31578">
        <ele>814</ele>
        <time>2014-08-09T12:20:14Z</time>
      </trkpt>
      <trkpt lat="45.24026" lon="6.31583">
        <ele>818</ele>
        <time>2014-08-09T12:20:20Z</time>
      </trkpt>
      <trkpt lat="45.24034" lon="6.31588">
        <ele>809</ele>
        <time>2014-08-09T12:20:25Z</time>
      </trkpt>
      <trkpt lat="45.24043" lon="6.31595">
        <ele>811</ele>
        <time>2014-08-09T12:20:32Z</time>
      </trkpt>
      <trkpt lat="45.24053" lon="6.316">
        <ele>813</ele>
        <time>2014-08-09T12:20:39Z</time>
      </trkpt>
      <trkpt lat="45.24062" lon="6.31605">
        <ele>815</ele>
        <time>2014-08-09T12:20:43Z</time>
      </trkpt>
      <trkpt lat="45.24072" lon="6.31608">
        <ele>816</ele>
        <time>2014-08-09T12:20:49Z</time>
      </trkpt>
      <trkpt lat="45.24082" lon="6.3161">
        <ele>817</ele>
        <time>2014-08-09T12:20:55Z</time>
      </trkpt>
      <trkpt lat="45.24092" lon="6.31608">
        <ele>827</ele>
        <time>2014-08-09T12:21:00Z</time>
      </trkpt>
      <trkpt lat="45.241" lon="6.31605">
        <ele>827</ele>
        <time>2014-08-09T12:21:06Z</time>
      </trkpt>
      <trkpt lat="45.24109" lon="6.31601">
        <ele>827</ele>
        <time>2014-08-09T12:21:12Z</time>
      </trkpt>
      <trkpt lat="45.24119" lon="6.31598">
        <ele>828</ele>
        <time>2014-08-09T12:21:18Z</time>
      </trkpt>
      <trkpt lat="45.24128" lon="6.31605">
        <ele>828</ele>
        <time>2014-08-09T12:21:36Z</time>
      </trkpt>
      <trkpt lat="45.24139" lon="6.31609">
        <ele>828</ele>
        <time>2014-08-09T12:21:44Z</time>
      </trkpt>
      <trkpt lat="45.2415" lon="6.31612">
        <ele>828</ele>
        <time>2014-08-09T12:21:49Z</time>
      </trkpt>
      <trkpt lat="45.2416" lon="6.31615">
        <ele>828</ele>
        <time>2014-08-09T12:21:53Z</time>
      </trkpt>
      <trkpt lat="45.2417" lon="6.31608">
        <ele>830</ele>
        <time>2014-08-09T12:22:00Z</time>
      </trkpt>
      <trkpt lat="45.24179" lon="6.31598">
        <ele>831</ele>
        <time>2014-08-09T12:22:05Z</time>
      </trkpt>
      <trkpt lat="45.24187" lon="6.31587">
        <ele>831</ele>
        <time>2014-08-09T12:22:09Z</time>
      </trkpt>
      <trkpt lat="45.24195" lon="6.31579">
        <ele>843</ele>
        <time>2014-08-09T12:22:14Z</time>
      </trkpt>
      <trkpt lat="45.24205" lon="6.31571">
        <ele>844</ele>
        <time>2014-08-09T12:22:20Z</time>
      </trkpt>
      <trkpt lat="45.24213" lon="6.31567">
        <ele>844</ele>
        <time>2014-08-09T12:22:24Z</time>
      </trkpt>
      <trkpt lat="45.24225" lon="6.31565">
        <ele>843</ele>
        <time>2014-08-09T12:22:29Z</time>
      </trkpt>
      <trkpt lat="45.24236" lon="6.31565">
        <ele>842</ele>
        <time>2014-08-09T12:22:34Z</time>
      </trkpt>
      <trkpt lat="45.24248" lon="6.31565">
        <ele>841</ele>
        <time>2014-08-09T12:22:38Z</time>
      </trkpt>
      <trkpt lat="45.2426" lon="6.31565">
        <ele>842</ele>
        <time>2014-08-09T12:22:42Z</time>
      </trkpt>
      <trkpt lat="45.24272" lon="6.31567">
        <ele>843</ele>
        <time>2014-08-09T12:22:45Z</time>
      </trkpt>
      <trkpt lat="45.24282" lon="6.3157">
        <ele>844</ele>
        <time>2014-08-09T12:22:48Z</time>
      </trkpt>
      <trkpt lat="45.24293" lon="6.31574">
        <ele>845</ele>
        <time>2014-08-09T12:22:51Z</time>
      </trkpt>
      <trkpt lat="45.24304" lon="6.3158">
        <ele>845</ele>
        <time>2014-08-09T12:22:54Z</time>
      </trkpt>
      <trkpt lat="45.24314" lon="6.31587">
        <ele>834</ele>
        <time>2014-08-09T12:22:58Z</time>
      </trkpt>
      <trkpt lat="45.24323" lon="6.31592">
        <ele>835</ele>
        <time>2014-08-09T12:23:01Z</time>
      </trkpt>
      <trkpt lat="45.24334" lon="6.31598">
        <ele>839</ele>
        <time>2014-08-09T12:23:05Z</time>
      </trkpt>
      <trkpt lat="45.24344" lon="6.31605">
        <ele>838</ele>
        <time>2014-08-09T12:23:10Z</time>
      </trkpt>
      <trkpt lat="45.24356" lon="6.31611">
        <ele>838</ele>
        <time>2014-08-09T12:23:14Z</time>
      </trkpt>
      <trkpt lat="45.24365" lon="6.31614">
        <ele>838</ele>
        <time>2014-08-09T12:23:18Z</time>
      </trkpt>
      <trkpt lat="45.24375" lon="6.31613">
        <ele>839</ele>
        <time>2014-08-09T12:23:22Z</time>
      </trkpt>
      <trkpt lat="45.24385" lon="6.31614">
        <ele>840</ele>
        <time>2014-08-09T12:23:25Z</time>
      </trkpt>
      <trkpt lat="45.24397" lon="6.31616">
        <ele>840</ele>
        <time>2014-08-09T12:23:29Z</time>
      </trkpt>
      <trkpt lat="45.24406" lon="6.31626">
        <ele>839</ele>
        <time>2014-08-09T12:23:35Z</time>
      </trkpt>
      <trkpt lat="45.24413" lon="6.31641">
        <ele>835</ele>
        <time>2014-08-09T12:23:39Z</time>
      </trkpt>
      <trkpt lat="45.24423" lon="6.31649">
        <ele>840</ele>
        <time>2014-08-09T12:23:44Z</time>
      </trkpt>
      <trkpt lat="45.24432" lon="6.31653">
        <ele>840</ele>
        <time>2014-08-09T12:23:47Z</time>
      </trkpt>
      <trkpt lat="45.24444" lon="6.3166">
        <ele>842</ele>
        <time>2014-08-09T12:23:51Z</time>
      </trkpt>
      <trkpt lat="45.24454" lon="6.31666">
        <ele>844</ele>
        <time>2014-08-09T12:23:54Z</time>
      </trkpt>
      <trkpt lat="45.24464" lon="6.3167">
        <ele>826</ele>
        <time>2014-08-09T12:23:57Z</time>
      </trkpt>
      <trkpt lat="45.24474" lon="6.31674">
        <ele>828</ele>
        <time>2014-08-09T12:24:00Z</time>
      </trkpt>
      <trkpt lat="45.24485" lon="6.31679">
        <ele>830</ele>
        <time>2014-08-09T12:24:04Z</time>
      </trkpt>
      <trkpt lat="45.24496" lon="6.31682">
        <ele>831</ele>
        <time>2014-08-09T12:24:08Z</time>
      </trkpt>
      <trkpt lat="45.24508" lon="6.31678">
        <ele>837</ele>
        <time>2014-08-09T12:24:12Z</time>
      </trkpt>
      <trkpt lat="45.24519" lon="6.31671">
        <ele>837</ele>
        <time>2014-08-09T12:24:16Z</time>
      </trkpt>
      <trkpt lat="45.24526" lon="6.31662">
        <ele>852</ele>
        <time>2014-08-09T12:24:19Z</time>
      </trkpt>
      <trkpt lat="45.24534" lon="6.31654">
        <ele>854</ele>
        <time>2014-08-09T12:24:22Z</time>
      </trkpt>
      <trkpt lat="45.24542" lon="6.31646">
        <ele>855</ele>
        <time>2014-08-09T12:24:25Z</time>
      </trkpt>
      <trkpt lat="45.24553" lon="6.31641">
        <ele>856</ele>
        <time>2014-08-09T12:24:29Z</time>
      </trkpt>
      <trkpt lat="45.24562" lon="6.31636">
        <ele>857</ele>
        <time>2014-08-09T12:24:33Z</time>
      </trkpt>
      <trkpt lat="45.24573" lon="6.31638">
        <ele>856</ele>
        <time>2014-08-09T12:24:37Z</time>
      </trkpt>
      <trkpt lat="45.24582" lon="6.31644">
        <ele>855</ele>
        <time>2014-08-09T12:24:42Z</time>
      </trkpt>
      <trkpt lat="45.24585" lon="6.3166">
        <ele>852</ele>
        <time>2014-08-09T12:24:49Z</time>
      </trkpt>
      <trkpt lat="45.24592" lon="6.31674">
        <ele>846</ele>
        <time>2014-08-09T12:24:53Z</time>
      </trkpt>
      <trkpt lat="45.24595" lon="6.31686">
        <ele>844</ele>
        <time>2014-08-09T12:24:56Z</time>
      </trkpt>
      <trkpt lat="45.24599" lon="6.317">
        <ele>842</ele>
        <time>2014-08-09T12:25:00Z</time>
      </trkpt>
      <trkpt lat="45.246" lon="6.31714">
        <ele>839</ele>
        <time>2014-08-09T12:25:04Z</time>
      </trkpt>
      <trkpt lat="45.24595" lon="6.31727">
        <ele>836</ele>
        <time>2014-08-09T12:25:08Z</time>
      </trkpt>
      <trkpt lat="45.24603" lon="6.31738">
        <ele>835</ele>
        <time>2014-08-09T12:25:12Z</time>
      </trkpt>
      <trkpt lat="45.24613" lon="6.31745">
        <ele>836</ele>
        <time>2014-08-09T12:25:14Z</time>
      </trkpt>
      <trkpt lat="45.24627" lon="6.31748">
        <ele>838</ele>
        <time>2014-08-09T12:25:17Z</time>
      </trkpt>
      <trkpt lat="45.24637" lon="6.31746">
        <ele>838</ele>
        <time>2014-08-09T12:25:20Z</time>
      </trkpt>
      <trkpt lat="45.24646" lon="6.31738">
        <ele>839</ele>
        <time>2014-08-09T12:25:23Z</time>
      </trkpt>
      <trkpt lat="45.24654" lon="6.31728">
        <ele>840</ele>
        <time>2014-08-09T12:25:27Z</time>
      </trkpt>
      <trkpt lat="45.24664" lon="6.31721">
        <ele>841</ele>
        <time>2014-08-09T12:25:30Z</time>
      </trkpt>
      <trkpt lat="45.24672" lon="6.31711">
        <ele>836</ele>
        <time>2014-08-09T12:25:34Z</time>
      </trkpt>
      <trkpt lat="45.24677" lon="6.31696">
        <ele>838</ele>
        <time>2014-08-09T12:25:37Z</time>
      </trkpt>
      <trkpt lat="45.24686" lon="6.31684">
        <ele>840</ele>
        <time>2014-08-09T12:25:39Z</time>
      </trkpt>
      <trkpt lat="45.24693" lon="6.31669">
        <ele>840</ele>
        <time>2014-08-09T12:25:41Z</time>
      </trkpt>
      <trkpt lat="45.247" lon="6.3165">
        <ele>853</ele>
        <time>2014-08-09T12:25:44Z</time>
      </trkpt>
      <trkpt lat="45.24707" lon="6.31635">
        <ele>853</ele>
        <time>2014-08-09T12:25:46Z</time>
      </trkpt>
      <trkpt lat="45.24717" lon="6.31623">
        <ele>853</ele>
        <time>2014-08-09T12:25:48Z</time>
      </trkpt>
      <trkpt lat="45.24727" lon="6.31615">
        <ele>853</ele>
        <time>2014-08-09T12:25:51Z</time>
      </trkpt>
      <trkpt lat="45.24739" lon="6.31609">
        <ele>852</ele>
        <time>2014-08-09T12:25:53Z</time>
      </trkpt>
      <trkpt lat="45.24752" lon="6.31601">
        <ele>842</ele>
        <time>2014-08-09T12:25:55Z</time>
      </trkpt>
      <trkpt lat="45.24763" lon="6.31587">
        <ele>844</ele>
        <time>2014-08-09T12:25:57Z</time>
      </trkpt>
      <trkpt lat="45.24774" lon="6.31576">
        <ele>857</ele>
        <time>2014-08-09T12:25:59Z</time>
      </trkpt>
      <trkpt lat="45.24786" lon="6.31568">
        <ele>857</ele>
        <time>2014-08-09T12:26:01Z</time>
      </trkpt>
      <trkpt lat="45.248" lon="6.31568">
        <ele>855</ele>
        <time>2014-08-09T12:26:03Z</time>
      </trkpt>
      <trkpt lat="45.24816" lon="6.31566">
        <ele>852</ele>
        <time>2014-08-09T12:26:05Z</time>
      </trkpt>
      <trkpt lat="45.2483" lon="6.31566">
        <ele>849</ele>
        <time>2014-08-09T12:26:07Z</time>
      </trkpt>
      <trkpt lat="45.24842" lon="6.31567">
        <ele>846</ele>
        <time>2014-08-09T12:26:09Z</time>
      </trkpt>
      <trkpt lat="45.24859" lon="6.31566">
        <ele>849</ele>
        <time>2014-08-09T12:26:12Z</time>
      </trkpt>
      <trkpt lat="45.24873" lon="6.31558">
        <ele>852</ele>
        <time>2014-08-09T12:26:14Z</time>
      </trkpt>
      <trkpt lat="45.24882" lon="6.31564">
        <ele>851</ele>
        <time>2014-08-09T12:26:16Z</time>
      </trkpt>
      <trkpt lat="45.2489" lon="6.3157">
        <ele>850</ele>
        <time>2014-08-09T12:26:18Z</time>
      </trkpt>
      <trkpt lat="45.24899" lon="6.31583">
        <ele>847</ele>
        <time>2014-08-09T12:26:21Z</time>
      </trkpt>
      <trkpt lat="45.24911" lon="6.31589">
        <ele>836</ele>
        <time>2014-08-09T12:26:23Z</time>
      </trkpt>
      <trkpt lat="45.24921" lon="6.31596">
        <ele>837</ele>
        <time>2014-08-09T12:26:26Z</time>
      </trkpt>
      <trkpt lat="45.2493" lon="6.31598">
        <ele>836</ele>
        <time>2014-08-09T12:26:28Z</time>
      </trkpt>
      <trkpt lat="45.24927" lon="6.31611">
        <ele>834</ele>
        <time>2014-08-09T12:26:35Z</time>
      </trkpt>
      <trkpt lat="45.24937" lon="6.31614">
        <ele>833</ele>
        <time>2014-08-09T12:26:38Z</time>
      </trkpt>
      <trkpt lat="45.24948" lon="6.31615">
        <ele>834</ele>
        <time>2014-08-09T12:26:42Z</time>
      </trkpt>
      <trkpt lat="45.24961" lon="6.31616">
        <ele>834</ele>
        <time>2014-08-09T12:26:44Z</time>
      </trkpt>
      <trkpt lat="45.2497" lon="6.31617">
        <ele>835</ele>
        <time>2014-08-09T12:26:46Z</time>
      </trkpt>
      <trkpt lat="45.24983" lon="6.31617">
        <ele>836</ele>
        <time>2014-08-09T12:26:48Z</time>
      </trkpt>
      <trkpt lat="45.24995" lon="6.31614">
        <ele>838</ele>
        <time>2014-08-09T12:26:51Z</time>
      </trkpt>
      <trkpt lat="45.25005" lon="6.31607">
        <ele>845</ele>
        <time>2014-08-09T12:26:54Z</time>
      </trkpt>
      <trkpt lat="45.25016" lon="6.31603">
        <ele>845</ele>
        <time>2014-08-09T12:26:56Z</time>
      </trkpt>
      <trkpt lat="45.25026" lon="6.31597">
        <ele>845</ele>
        <time>2014-08-09T12:26:58Z</time>
      </trkpt>
      <trkpt lat="45.25038" lon="6.3159">
        <ele>845</ele>
        <time>2014-08-09T12:27:00Z</time>
      </trkpt>
      <trkpt lat="45.2505" lon="6.31585">
        <ele>846</ele>
        <time>2014-08-09T12:27:02Z</time>
      </trkpt>
      <trkpt lat="45.25062" lon="6.31587">
        <ele>846</ele>
        <time>2014-08-09T12:27:04Z</time>
      </trkpt>
      <trkpt lat="45.2507" lon="6.31599">
        <ele>846</ele>
        <time>2014-08-09T12:27:06Z</time>
      </trkpt>
      <trkpt lat="45.25072" lon="6.31618">
        <ele>844</ele>
        <time>2014-08-09T12:27:08Z</time>
      </trkpt>
      <trkpt lat="45.25074" lon="6.31638">
        <ele>842</ele>
        <time>2014-08-09T12:27:10Z</time>
      </trkpt>
      <trkpt lat="45.25072" lon="6.31652">
        <ele>841</ele>
        <time>2014-08-09T12:27:12Z</time>
      </trkpt>
      <trkpt lat="45.25068" lon="6.31666">
        <ele>841</ele>
        <time>2014-08-09T12:27:14Z</time>
      </trkpt>
      <trkpt lat="45.25072" lon="6.31681">
        <ele>831</ele>
        <time>2014-08-09T12:27:16Z</time>
      </trkpt>
      <trkpt lat="45.25076" lon="6.31699">
        <ele>827</ele>
        <time>2014-08-09T12:27:19Z</time>
      </trkpt>
      <trkpt lat="45.2508" lon="6.31713">
        <ele>824</ele>
        <time>2014-08-09T12:27:23Z</time>
      </trkpt>
      <trkpt lat="45.2509" lon="6.31721">
        <ele>832</ele>
        <time>2014-08-09T12:27:28Z</time>
      </trkpt>
      <trkpt lat="45.25102" lon="6.31723">
        <ele>833</ele>
        <time>2014-08-09T12:27:30Z</time>
      </trkpt>
      <trkpt lat="45.25113" lon="6.31726">
        <ele>834</ele>
        <time>2014-08-09T12:27:34Z</time>
      </trkpt>
      <trkpt lat="45.25123" lon="6.31727">
        <ele>835</ele>
        <time>2014-08-09T12:27:37Z</time>
      </trkpt>
      <trkpt lat="45.25132" lon="6.31727">
        <ele>837</ele>
        <time>2014-08-09T12:27:41Z</time>
      </trkpt>
      <trkpt lat="45.25142" lon="6.31726">
        <ele>837</ele>
        <time>2014-08-09T12:27:45Z</time>
      </trkpt>
      <trkpt lat="45.25153" lon="6.31724">
        <ele>838</ele>
        <time>2014-08-09T12:27:50Z</time>
      </trkpt>
      <trkpt lat="45.25163" lon="6.31722">
        <ele>839</ele>
        <time>2014-08-09T12:27:55Z</time>
      </trkpt>
      <trkpt lat="45.25173" lon="6.31719">
        <ele>844</ele>
        <time>2014-08-09T12:28:01Z</time>
      </trkpt>
      <trkpt lat="45.25182" lon="6.31714">
        <ele>845</ele>
        <time>2014-08-09T12:28:06Z</time>
      </trkpt>
      <trkpt lat="45.25191" lon="6.31708">
        <ele>846</ele>
        <time>2014-08-09T12:28:11Z</time>
      </trkpt>
      <trkpt lat="45.252" lon="6.31701">
        <ele>846</ele>
        <time>2014-08-09T12:28:16Z</time>
      </trkpt>
      <trkpt lat="45.25206" lon="6.31691">
        <ele>847</ele>
        <time>2014-08-09T12:28:23Z</time>
      </trkpt>
      <trkpt lat="45.25212" lon="6.31679">
        <ele>848</ele>
        <time>2014-08-09T12:28:30Z</time>
      </trkpt>
      <trkpt lat="45.25217" lon="6.31667">
        <ele>857</ele>
        <time>2014-08-09T12:28:37Z</time>
      </trkpt>
      <trkpt lat="45.25223" lon="6.31655">
        <ele>857</ele>
        <time>2014-08-09T12:28:43Z</time>
      </trkpt>
      <trkpt lat="45.25231" lon="6.31649">
        <ele>858</ele>
        <time>2014-08-09T12:28:49Z</time>
      </trkpt>
      <trkpt lat="45.25241" lon="6.3165">
        <ele>857</ele>
        <time>2014-08-09T12:28:58Z</time>
      </trkpt>
      <trkpt lat="45.25251" lon="6.31658">
        <ele>858</ele>
        <time>2014-08-09T12:29:10Z</time>
      </trkpt>
      <trkpt lat="45.25262" lon="6.31661">
        <ele>860</ele>
        <time>2014-08-09T12:29:15Z</time>
      </trkpt>
      <trkpt lat="45.25273" lon="6.31665">
        <ele>863</ele>
        <time>2014-08-09T12:29:19Z</time>
      </trkpt>
      <trkpt lat="45.25282" lon="6.31668">
        <ele>855</ele>
        <time>2014-08-09T12:29:25Z</time>
      </trkpt>
      <trkpt lat="45.25292" lon="6.31673">
        <ele>856</ele>
        <time>2014-08-09T12:29:34Z</time>
      </trkpt>
      <trkpt lat="45.25302" lon="6.31676">
        <ele>857</ele>
        <time>2014-08-09T12:29:44Z</time>
      </trkpt>
      <trkpt lat="45.2531" lon="6.31684">
        <ele>858</ele>
        <time>2014-08-09T12:29:51Z</time>
      </trkpt>
      <trkpt lat="45.25319" lon="6.31692">
        <ele>858</ele>
        <time>2014-08-09T12:29:57Z</time>
      </trkpt>
      <trkpt lat="45.25326" lon="6.317">
        <ele>858</ele>
        <time>2014-08-09T12:30:03Z</time>
      </trkpt>
      <trkpt lat="45.25333" lon="6.3171">
        <ele>857</ele>
        <time>2014-08-09T12:30:06Z</time>
      </trkpt>
      <trkpt lat="45.25336" lon="6.31722">
        <ele>867</ele>
        <time>2014-08-09T12:30:10Z</time>
      </trkpt>
      <trkpt lat="45.25342" lon="6.31733">
        <ele>865</ele>
        <time>2014-08-09T12:30:14Z</time>
      </trkpt>
      <trkpt lat="45.25349" lon="6.31741">
        <ele>865</ele>
        <time>2014-08-09T12:30:20Z</time>
      </trkpt>
      <trkpt lat="45.25351" lon="6.31728">
        <ele>868</ele>
        <time>2014-08-09T12:30:27Z</time>
      </trkpt>
      <trkpt lat="45.25351" lon="6.31712">
        <ele>871</ele>
        <time>2014-08-09T12:30:32Z</time>
      </trkpt>
      <trkpt lat="45.2535" lon="6.31696">
        <ele>871</ele>
        <time>2014-08-09T12:30:37Z</time>
      </trkpt>
      <trkpt lat="45.25347" lon="6.31683">
        <ele>871</ele>
        <time>2014-08-09T12:30:43Z</time>
      </trkpt>
      <trkpt lat="45.25344" lon="6.31668">
        <ele>870</ele>
        <time>2014-08-09T12:30:49Z</time>
      </trkpt>
      <trkpt lat="45.25335" lon="6.31663">
        <ele>870</ele>
        <time>2014-08-09T12:30:56Z</time>
      </trkpt>
      <trkpt lat="45.25325" lon="6.31659">
        <ele>868</ele>
        <time>2014-08-09T12:31:02Z</time>
      </trkpt>
      <trkpt lat="45.25315" lon="6.31657">
        <ele>868</ele>
        <time>2014-08-09T12:31:08Z</time>
      </trkpt>
      <trkpt lat="45.25306" lon="6.31651">
        <ele>868</ele>
        <time>2014-08-09T12:31:15Z</time>
      </trkpt>
      <trkpt lat="45.25297" lon="6.31648">
        <ele>868</ele>
        <time>2014-08-09T12:31:21Z</time>
      </trkpt>
      <trkpt lat="45.25286" lon="6.31643">
        <ele>867</ele>
        <time>2014-08-09T12:31:27Z</time>
      </trkpt>
      <trkpt lat="45.25278" lon="6.31636">
        <ele>867</ele>
        <time>2014-08-09T12:31:32Z</time>
      </trkpt>
      <trkpt lat="45.25271" lon="6.31626">
        <ele>868</ele>
        <time>2014-08-09T12:31:41Z</time>
      </trkpt>
      <trkpt lat="45.25266" lon="6.3161">
        <ele>870</ele>
        <time>2014-08-09T12:31:46Z</time>
      </trkpt>
      <trkpt lat="45.2526" lon="6.31595">
        <ele>871</ele>
        <time>2014-08-09T12:31:49Z</time>
      </trkpt>
      <trkpt lat="45.25258" lon="6.31579">
        <ele>876</ele>
        <time>2014-08-09T12:31:53Z</time>
      </trkpt>
      <trkpt lat="45.25266" lon="6.3157">
        <ele>881</ele>
        <time>2014-08-09T12:32:00Z</time>
      </trkpt>
      <trkpt lat="45.25274" lon="6.31577">
        <ele>882</ele>
        <time>2014-08-09T12:32:11Z</time>
      </trkpt>
      <trkpt lat="45.25283" lon="6.31578">
        <ele>885</ele>
        <time>2014-08-09T12:32:16Z</time>
      </trkpt>
      <trkpt lat="45.25293" lon="6.31579">
        <ele>886</ele>
        <time>2014-08-09T12:32:20Z</time>
      </trkpt>
      <trkpt lat="45.25303" lon="6.31581">
        <ele>888</ele>
        <time>2014-08-09T12:32:27Z</time>
      </trkpt>
      <trkpt lat="45.25312" lon="6.31584">
        <ele>879</ele>
        <time>2014-08-09T12:32:35Z</time>
      </trkpt>
      <trkpt lat="45.25323" lon="6.31585">
        <ele>883</ele>
        <time>2014-08-09T12:32:42Z</time>
      </trkpt>
      <trkpt lat="45.25335" lon="6.31587">
        <ele>889</ele>
        <time>2014-08-09T12:32:47Z</time>
      </trkpt>
      <trkpt lat="45.25345" lon="6.31588">
        <ele>889</ele>
        <time>2014-08-09T12:32:52Z</time>
      </trkpt>
      <trkpt lat="45.25355" lon="6.31588">
        <ele>890</ele>
        <time>2014-08-09T12:32:57Z</time>
      </trkpt>
      <trkpt lat="45.25361" lon="6.31599">
        <ele>890</ele>
        <time>2014-08-09T12:33:05Z</time>
      </trkpt>
      <trkpt lat="45.25366" lon="6.31611">
        <ele>889</ele>
        <time>2014-08-09T12:33:19Z</time>
      </trkpt>
      <trkpt lat="45.25374" lon="6.31619">
        <ele>889</ele>
        <time>2014-08-09T12:33:29Z</time>
      </trkpt>
      <trkpt lat="45.25383" lon="6.31625">
        <ele>890</ele>
        <time>2014-08-09T12:33:36Z</time>
      </trkpt>
      <trkpt lat="45.25391" lon="6.31633">
        <ele>890</ele>
        <time>2014-08-09T12:33:42Z</time>
      </trkpt>
      <trkpt lat="45.25396" lon="6.31645">
        <ele>890</ele>
        <time>2014-08-09T12:33:49Z</time>
      </trkpt>
      <trkpt lat="45.25403" lon="6.31654">
        <ele>891</ele>
        <time>2014-08-09T12:33:55Z</time>
      </trkpt>
      <trkpt lat="45.2541" lon="6.31664">
        <ele>892</ele>
        <time>2014-08-09T12:34:02Z</time>
      </trkpt>
      <trkpt lat="45.25418" lon="6.31671">
        <ele>893</ele>
        <time>2014-08-09T12:34:07Z</time>
      </trkpt>
      <trkpt lat="45.25424" lon="6.31682">
        <ele>893</ele>
        <time>2014-08-09T12:34:14Z</time>
      </trkpt>
      <trkpt lat="45.25433" lon="6.31692">
        <ele>893</ele>
        <time>2014-08-09T12:34:20Z</time>
      </trkpt>
      <trkpt lat="45.25442" lon="6.31701">
        <ele>893</ele>
        <time>2014-08-09T12:34:28Z</time>
      </trkpt>
      <trkpt lat="45.25453" lon="6.31703">
        <ele>893</ele>
        <time>2014-08-09T12:34:31Z</time>
      </trkpt>
      <trkpt lat="45.2545" lon="6.31715">
        <ele>892</ele>
        <time>2014-08-09T12:34:40Z</time>
      </trkpt>
      <trkpt lat="45.25459" lon="6.3172">
        <ele>892</ele>
        <time>2014-08-09T12:34:49Z</time>
      </trkpt>
      <trkpt lat="45.2547" lon="6.31719">
        <ele>893</ele>
        <time>2014-08-09T12:34:55Z</time>
      </trkpt>
      <trkpt lat="45.2548" lon="6.31717">
        <ele>894</ele>
        <time>2014-08-09T12:35:02Z</time>
      </trkpt>
      <trkpt lat="45.2549" lon="6.31712">
        <ele>895</ele>
        <time>2014-08-09T12:35:10Z</time>
      </trkpt>
      <trkpt lat="45.25499" lon="6.31704">
        <ele>896</ele>
        <time>2014-08-09T12:35:16Z</time>
      </trkpt>
      <trkpt lat="45.25509" lon="6.31696">
        <ele>902</ele>
        <time>2014-08-09T12:35:23Z</time>
      </trkpt>
      <trkpt lat="45.25515" lon="6.31687">
        <ele>903</ele>
        <time>2014-08-09T12:35:32Z</time>
      </trkpt>
      <trkpt lat="45.25526" lon="6.31684">
        <ele>903</ele>
        <time>2014-08-09T12:35:40Z</time>
      </trkpt>
      <trkpt lat="45.25535" lon="6.31678">
        <ele>903</ele>
        <time>2014-08-09T12:35:46Z</time>
      </trkpt>
      <trkpt lat="45.25543" lon="6.31675">
        <ele>903</ele>
        <time>2014-08-09T12:35:53Z</time>
      </trkpt>
      <trkpt lat="45.25552" lon="6.31671">
        <ele>904</ele>
        <time>2014-08-09T12:35:59Z</time>
      </trkpt>
      <trkpt lat="45.25562" lon="6.31668">
        <ele>905</ele>
        <time>2014-08-09T12:36:09Z</time>
      </trkpt>
      <trkpt lat="45.25571" lon="6.31664">
        <ele>916</ele>
        <time>2014-08-09T12:36:16Z</time>
      </trkpt>
      <trkpt lat="45.25581" lon="6.31662">
        <ele>914</ele>
        <time>2014-08-09T12:36:24Z</time>
      </trkpt>
      <trkpt lat="45.25592" lon="6.31659">
        <ele>919</ele>
        <time>2014-08-09T12:36:38Z</time>
      </trkpt>
      <trkpt lat="45.25602" lon="6.31656">
        <ele>923</ele>
        <time>2014-08-09T12:36:44Z</time>
      </trkpt>
      <trkpt lat="45.25612" lon="6.31656">
        <ele>925</ele>
        <time>2014-08-09T12:36:56Z</time>
      </trkpt>
      <trkpt lat="45.25621" lon="6.31661">
        <ele>926</ele>
        <time>2014-08-09T12:37:04Z</time>
      </trkpt>
      <trkpt lat="45.25627" lon="6.31672">
        <ele>913</ele>
        <time>2014-08-09T12:37:12Z</time>
      </trkpt>
      <trkpt lat="45.2562" lon="6.31683">
        <ele>911</ele>
        <time>2014-08-09T12:37:19Z</time>
      </trkpt>
      <trkpt lat="45.25613" lon="6.31691">
        <ele>910</ele>
        <time>2014-08-09T12:37:24Z</time>
      </trkpt>
      <trkpt lat="45.25616" lon="6.31706">
        <ele>908</ele>
        <time>2014-08-09T12:37:35Z</time>
      </trkpt>
      <trkpt lat="45.25625" lon="6.31713">
        <ele>908</ele>
        <time>2014-08-09T12:37:40Z</time>
      </trkpt>
      <trkpt lat="45.25632" lon="6.31723">
        <ele>907</ele>
        <time>2014-08-09T12:37:45Z</time>
      </trkpt>
      <trkpt lat="45.25639" lon="6.31731">
        <ele>907</ele>
        <time>2014-08-09T12:37:51Z</time>
      </trkpt>
      <trkpt lat="45.25651" lon="6.31736">
        <ele>908</ele>
        <time>2014-08-09T12:37:55Z</time>
      </trkpt>
      <trkpt lat="45.25661" lon="6.31741">
        <ele>908</ele>
        <time>2014-08-09T12:37:59Z</time>
      </trkpt>
      <trkpt lat="45.2567" lon="6.31744">
        <ele>911</ele>
        <time>2014-08-09T12:38:02Z</time>
      </trkpt>
      <trkpt lat="45.25682" lon="6.31745">
        <ele>914</ele>
        <time>2014-08-09T12:38:06Z</time>
      </trkpt>
      <trkpt lat="45.25691" lon="6.3174">
        <ele>917</ele>
        <time>2014-08-09T12:38:14Z</time>
      </trkpt>
      <trkpt lat="45.25698" lon="6.3173">
        <ele>919</ele>
        <time>2014-08-09T12:38:23Z</time>
      </trkpt>
      <trkpt lat="45.25706" lon="6.31721">
        <ele>921</ele>
        <time>2014-08-09T12:38:32Z</time>
      </trkpt>
      <trkpt lat="45.25713" lon="6.31712">
        <ele>923</ele>
        <time>2014-08-09T12:38:42Z</time>
      </trkpt>
      <trkpt lat="45.25704" lon="6.31716">
        <ele>921</ele>
        <time>2014-08-09T12:38:55Z</time>
      </trkpt>
      <trkpt lat="45.25698" lon="6.31705">
        <ele>923</ele>
        <time>2014-08-09T12:39:05Z</time>
      </trkpt>
      <trkpt lat="45.25694" lon="6.31692">
        <ele>924</ele>
        <time>2014-08-09T12:39:20Z</time>
      </trkpt>
      <trkpt lat="45.25685" lon="6.31686">
        <ele>924</ele>
        <time>2014-08-09T12:39:30Z</time>
      </trkpt>
      <trkpt lat="45.25675" lon="6.31681">
        <ele>925</ele>
        <time>2014-08-09T12:39:39Z</time>
      </trkpt>
      <trkpt lat="45.2567" lon="6.31669">
        <ele>927</ele>
        <time>2014-08-09T12:39:46Z</time>
      </trkpt>
      <trkpt lat="45.25664" lon="6.31659">
        <ele>929</ele>
        <time>2014-08-09T12:39:55Z</time>
      </trkpt>
      <trkpt lat="45.2566" lon="6.31644">
        <ele>930</ele>
        <time>2014-08-09T12:40:04Z</time>
      </trkpt>
      <trkpt lat="45.25661" lon="6.3163">
        <ele>932</ele>
        <time>2014-08-09T12:40:11Z</time>
      </trkpt>
      <trkpt lat="45.25663" lon="6.31612">
        <ele>935</ele>
        <time>2014-08-09T12:40:20Z</time>
      </trkpt>
      <trkpt lat="45.25662" lon="6.31598">
        <ele>939</ele>
        <time>2014-08-09T12:40:39Z</time>
      </trkpt>
      <trkpt lat="45.25656" lon="6.31588">
        <ele>940</ele>
        <time>2014-08-09T12:41:11Z</time>
      </trkpt>
      <trkpt lat="45.25653" lon="6.31576">
        <ele>949</ele>
        <time>2014-08-09T12:41:33Z</time>
      </trkpt>
      <trkpt lat="45.25652" lon="6.31561">
        <ele>951</ele>
        <time>2014-08-09T12:41:48Z</time>
      </trkpt>
      <trkpt lat="45.25651" lon="6.31547">
        <ele>953</ele>
        <time>2014-08-09T12:41:56Z</time>
      </trkpt>
      <trkpt lat="45.25645" lon="6.31535">
        <ele>955</ele>
        <time>2014-08-09T12:42:13Z</time>
      </trkpt>
      <trkpt lat="45.25635" lon="6.31538">
        <ele>954</ele>
        <time>2014-08-09T12:42:24Z</time>
      </trkpt>
      <trkpt lat="45.25628" lon="6.31529">
        <ele>955</ele>
        <time>2014-08-09T12:42:36Z</time>
      </trkpt>
      <trkpt lat="45.25621" lon="6.3152">
        <ele>956</ele>
        <time>2014-08-09T12:42:48Z</time>
      </trkpt>
      <trkpt lat="45.25611" lon="6.31522">
        <ele>956</ele>
        <time>2014-08-09T12:42:57Z</time>
      </trkpt>
      <trkpt lat="45.25601" lon="6.31524">
        <ele>956</ele>
        <time>2014-08-09T12:43:05Z</time>
      </trkpt>
      <trkpt lat="45.25592" lon="6.31527">
        <ele>955</ele>
        <time>2014-08-09T12:43:13Z</time>
      </trkpt>
      <trkpt lat="45.25581" lon="6.31528">
        <ele>950</ele>
        <time>2014-08-09T12:43:23Z</time>
      </trkpt>
      <trkpt lat="45.25575" lon="6.31517">
        <ele>953</ele>
        <time>2014-08-09T12:43:35Z</time>
      </trkpt>
      <trkpt lat="45.25566" lon="6.31518">
        <ele>951</ele>
        <time>2014-08-09T12:43:50Z</time>
      </trkpt>
      <trkpt lat="45.25565" lon="6.31505">
        <ele>953</ele>
        <time>2014-08-09T12:43:55Z</time>
      </trkpt>
      <trkpt lat="45.25559" lon="6.31493">
        <ele>963</ele>
        <time>2014-08-09T12:44:06Z</time>
      </trkpt>
      <trkpt lat="45.25559" lon="6.31478">
        <ele>964</ele>
        <time>2014-08-09T12:44:24Z</time>
      </trkpt>
      <trkpt lat="45.25555" lon="6.31464">
        <ele>966</ele>
        <time>2014-08-09T12:44:42Z</time>
      </trkpt>
      <trkpt lat="45.25557" lon="6.3145">
        <ele>968</ele>
        <time>2014-08-09T12:45:04Z</time>
      </trkpt>
      <trkpt lat="45.25554" lon="6.31437">
        <ele>970</ele>
        <time>2014-08-09T12:45:20Z</time>
      </trkpt>
      <trkpt lat="45.25546" lon="6.31428">
        <ele>969</ele>
        <time>2014-08-09T12:45:47Z</time>
      </trkpt>
      <trkpt lat="45.25543" lon="6.31413">
        <ele>985</ele>
        <time>2014-08-09T12:46:03Z</time>
      </trkpt>
      <trkpt lat="45.2554" lon="6.31401">
        <ele>986</ele>
        <time>2014-08-09T12:46:17Z</time>
      </trkpt>
      <trkpt lat="45.25533" lon="6.31392">
        <ele>986</ele>
        <time>2014-08-09T12:46:38Z</time>
      </trkpt>
      <trkpt lat="45.25528" lon="6.3138">
        <ele>987</ele>
        <time>2014-08-09T12:46:49Z</time>
      </trkpt>
      <trkpt lat="45.25523" lon="6.31368">
        <ele>989</ele>
        <time>2014-08-09T12:47:04Z</time>
      </trkpt>
      <trkpt lat="45.25518" lon="6.31356">
        <ele>990</ele>
        <time>2014-08-09T12:47:23Z</time>
      </trkpt>
      <trkpt lat="45.25514" lon="6.31342">
        <ele>991</ele>
        <time>2014-08-09T12:47:37Z</time>
      </trkpt>
      <trkpt lat="45.25509" lon="6.31331">
        <ele>1001</ele>
        <time>2014-08-09T12:47:56Z</time>
      </trkpt>
      <trkpt lat="45.25506" lon="6.31318">
        <ele>1005</ele>
        <time>2014-08-09T12:48:14Z</time>
      </trkpt>
      <trkpt lat="45.25497" lon="6.31312">
        <ele>994</ele>
        <time>2014-08-09T12:48:36Z</time>
      </trkpt>
      <trkpt lat="45.25492" lon="6.31299">
        <ele>996</ele>
        <time>2014-08-09T12:48:50Z</time>
      </trkpt>
      <trkpt lat="45.25485" lon="6.31289">
        <ele>998</ele>
        <time>2014-08-09T12:49:03Z</time>
      </trkpt>
      <trkpt lat="45.25481" lon="6.31276">
        <ele>1000</ele>
        <time>2014-08-09T12:49:12Z</time>
      </trkpt>
      <trkpt lat="45.25474" lon="6.31267">
        <ele>1001</ele>
        <time>2014-08-09T12:49:25Z</time>
      </trkpt>
      <trkpt lat="45.25469" lon="6.31255">
        <ele>1001</ele>
        <time>2014-08-09T12:49:35Z</time>
      </trkpt>
      <trkpt lat="45.25462" lon="6.31246">
        <ele>1012</ele>
        <time>2014-08-09T12:49:53Z</time>
      </trkpt>
      <trkpt lat="45.25458" lon="6.31232">
        <ele>1012</ele>
        <time>2014-08-09T12:50:28Z</time>
      </trkpt>
      <trkpt lat="45.25453" lon="6.3122">
        <ele>1012</ele>
        <time>2014-08-09T12:50:39Z</time>
      </trkpt>
      <trkpt lat="45.25451" lon="6.31208">
        <ele>1013</ele>
        <time>2014-08-09T12:50:53Z</time>
      </trkpt>
      <trkpt lat="45.25449" lon="6.31194">
        <ele>1014</ele>
        <time>2014-08-09T12:51:05Z</time>
      </trkpt>
      <trkpt lat="45.25447" lon="6.31181">
        <ele>1014</ele>
        <time>2014-08-09T12:51:29Z</time>
      </trkpt>
      <trkpt lat="45.25451" lon="6.31168">
        <ele>1016</ele>
        <time>2014-08-09T12:51:47Z</time>
      </trkpt>
      <trkpt lat="45.25453" lon="6.31155">
        <ele>1030</ele>
        <time>2014-08-09T12:51:59Z</time>
      </trkpt>
      <trkpt lat="45.25453" lon="6.31141">
        <ele>1032</ele>
        <time>2014-08-09T12:52:12Z</time>
      </trkpt>
      <trkpt lat="45.25453" lon="6.31128">
        <ele>1034</ele>
        <time>2014-08-09T12:52:25Z</time>
      </trkpt>
      <trkpt lat="45.25453" lon="6.31107">
        <ele>1037</ele>
        <time>2014-08-09T12:52:41Z</time>
      </trkpt>
      <trkpt lat="45.25456" lon="6.31093">
        <ele>1038</ele>
        <time>2014-08-09T12:52:47Z</time>
      </trkpt>
      <trkpt lat="45.25446" lon="6.31094">
        <ele>1036</ele>
        <time>2014-08-09T12:53:00Z</time>
      </trkpt>
      <trkpt lat="45.25444" lon="6.31081">
        <ele>1050</ele>
        <time>2014-08-09T12:53:06Z</time>
      </trkpt>
      <trkpt lat="45.25439" lon="6.3107">
        <ele>1049</ele>
        <time>2014-08-09T12:53:14Z</time>
      </trkpt>
      <trkpt lat="45.25429" lon="6.31073">
        <ele>1045</ele>
        <time>2014-08-09T12:53:22Z</time>
      </trkpt>
      <trkpt lat="45.2542" lon="6.31079">
        <ele>1037</ele>
        <time>2014-08-09T12:53:29Z</time>
      </trkpt>
      <trkpt lat="45.25409" lon="6.3108">
        <ele>1034</ele>
        <time>2014-08-09T12:53:36Z</time>
      </trkpt>
      <trkpt lat="45.25401" lon="6.31074">
        <ele>1036</ele>
        <time>2014-08-09T12:53:46Z</time>
      </trkpt>
      <trkpt lat="45.25392" lon="6.3107">
        <ele>1037</ele>
        <time>2014-08-09T12:53:56Z</time>
      </trkpt>
      <trkpt lat="45.25383" lon="6.31074">
        <ele>1036</ele>
        <time>2014-08-09T12:54:06Z</time>
      </trkpt>
      <trkpt lat="45.25374" lon="6.31069">
        <ele>1036</ele>
        <time>2014-08-09T12:54:17Z</time>
      </trkpt>
      <trkpt lat="45.25365" lon="6.31065">
        <ele>1035</ele>
        <time>2014-08-09T12:54:35Z</time>
      </trkpt>
      <trkpt lat="45.25359" lon="6.31054">
        <ele>1036</ele>
        <time>2014-08-09T12:54:54Z</time>
      </trkpt>
      <trkpt lat="45.25352" lon="6.31045">
        <ele>1038</ele>
        <time>2014-08-09T12:55:20Z</time>
      </trkpt>
      <trkpt lat="45.25352" lon="6.31032">
        <ele>1040</ele>
        <time>2014-08-09T12:55:32Z</time>
      </trkpt>
      <trkpt lat="45.25351" lon="6.31017">
        <ele>1043</ele>
        <time>2014-08-09T12:55:48Z</time>
      </trkpt>
      <trkpt lat="45.25351" lon="6.31004">
        <ele>1044</ele>
        <time>2014-08-09T12:56:08Z</time>
      </trkpt>
      <trkpt lat="45.25351" lon="6.30989">
        <ele>1059</ele>
        <time>2014-08-09T12:56:25Z</time>
      </trkpt>
      <trkpt lat="45.25354" lon="6.30977">
        <ele>1062</ele>
        <time>2014-08-09T12:56:40Z</time>
      </trkpt>
      <trkpt lat="45.25354" lon="6.30963">
        <ele>1065</ele>
        <time>2014-08-09T12:57:01Z</time>
      </trkpt>
      <trkpt lat="45.25345" lon="6.3096">
        <ele>1065</ele>
        <time>2014-08-09T12:57:28Z</time>
      </trkpt>
      <trkpt lat="45.25341" lon="6.30946">
        <ele>1068</ele>
        <time>2014-08-09T12:57:42Z</time>
      </trkpt>
      <trkpt lat="45.25332" lon="6.30943">
        <ele>1060</ele>
        <time>2014-08-09T12:57:59Z</time>
      </trkpt>
      <trkpt lat="45.25323" lon="6.30946">
        <ele>1058</ele>
        <time>2014-08-09T12:58:18Z</time>
      </trkpt>
      <trkpt lat="45.25317" lon="6.30936">
        <ele>1060</ele>
        <time>2014-08-09T12:58:27Z</time>
      </trkpt>
      <trkpt lat="45.25311" lon="6.30925">
        <ele>1061</ele>
        <time>2014-08-09T12:58:38Z</time>
      </trkpt>
      <trkpt lat="45.25301" lon="6.3092">
        <ele>1059</ele>
        <time>2014-08-09T12:58:52Z</time>
      </trkpt>
      <trkpt lat="45.25297" lon="6.30908">
        <ele>1074</ele>
        <time>2014-08-09T12:58:58Z</time>
      </trkpt>
      <trkpt lat="45.25294" lon="6.30895">
        <ele>1075</ele>
        <time>2014-08-09T12:59:04Z</time>
      </trkpt>
      <trkpt lat="45.2529" lon="6.30882">
        <ele>1076</ele>
        <time>2014-08-09T12:59:19Z</time>
      </trkpt>
      <trkpt lat="45.25283" lon="6.30869">
        <ele>1077</ele>
        <time>2014-08-09T12:59:30Z</time>
      </trkpt>
      <trkpt lat="45.25279" lon="6.30855">
        <ele>1078</ele>
        <time>2014-08-09T12:59:38Z</time>
      </trkpt>
      <trkpt lat="45.25272" lon="6.30846">
        <ele>1078</ele>
        <time>2014-08-09T12:59:46Z</time>
      </trkpt>
      <trkpt lat="45.25266" lon="6.30836">
        <ele>1079</ele>
        <time>2014-08-09T12:59:59Z</time>
      </trkpt>
      <trkpt lat="45.2526" lon="6.30824">
        <ele>1086</ele>
        <time>2014-08-09T13:00:07Z</time>
      </trkpt>
      <trkpt lat="45.25251" lon="6.30819">
        <ele>1086</ele>
        <time>2014-08-09T13:00:18Z</time>
      </trkpt>
      <trkpt lat="45.25245" lon="6.30805">
        <ele>1081</ele>
        <time>2014-08-09T13:00:27Z</time>
      </trkpt>
      <trkpt lat="45.25238" lon="6.30793">
        <ele>1082</ele>
        <time>2014-08-09T13:00:34Z</time>
      </trkpt>
      <trkpt lat="45.25234" lon="6.3078">
        <ele>1084</ele>
        <time>2014-08-09T13:00:45Z</time>
      </trkpt>
      <trkpt lat="45.25231" lon="6.30766">
        <ele>1085</ele>
        <time>2014-08-09T13:00:53Z</time>
      </trkpt>
      <trkpt lat="45.25222" lon="6.30763">
        <ele>1085</ele>
        <time>2014-08-09T13:01:04Z</time>
      </trkpt>
      <trkpt lat="45.25212" lon="6.30766">
        <ele>1083</ele>
        <time>2014-08-09T13:01:14Z</time>
      </trkpt>
      <trkpt lat="45.25202" lon="6.30763">
        <ele>1083</ele>
        <time>2014-08-09T13:01:28Z</time>
      </trkpt>
      <trkpt lat="45.25194" lon="6.30753">
        <ele>1083</ele>
        <time>2014-08-09T13:01:35Z</time>
      </trkpt>
      <trkpt lat="45.2519" lon="6.30741">
        <ele>1094</ele>
        <time>2014-08-09T13:01:39Z</time>
      </trkpt>
      <trkpt lat="45.25183" lon="6.30731">
        <ele>1094</ele>
        <time>2014-08-09T13:01:44Z</time>
      </trkpt>
      <trkpt lat="45.25177" lon="6.30717">
        <ele>1096</ele>
        <time>2014-08-09T13:01:48Z</time>
      </trkpt>
      <trkpt lat="45.25172" lon="6.30702">
        <ele>1098</ele>
        <time>2014-08-09T13:01:52Z</time>
      </trkpt>
      <trkpt lat="45.25167" lon="6.3069">
        <ele>1099</ele>
        <time>2014-08-09T13:01:55Z</time>
      </trkpt>
      <trkpt lat="45.25161" lon="6.30678">
        <ele>1094</ele>
        <time>2014-08-09T13:01:58Z</time>
      </trkpt>
      <trkpt lat="45.25157" lon="6.30665">
        <ele>1102</ele>
        <time>2014-08-09T13:02:01Z</time>
      </trkpt>
      <trkpt lat="45.25151" lon="6.30652">
        <ele>1104</ele>
        <time>2014-08-09T13:02:06Z</time>
      </trkpt>
      <trkpt lat="45.25141" lon="6.30655">
        <ele>1104</ele>
        <time>2014-08-09T13:02:11Z</time>
      </trkpt>
      <trkpt lat="45.25149" lon="6.30665">
        <ele>1103</ele>
        <time>2014-08-09T13:02:31Z</time>
      </trkpt>
      <trkpt lat="45.25158" lon="6.3067">
        <ele>1096</ele>
        <time>2014-08-09T13:02:36Z</time>
      </trkpt>
      <trkpt lat="45.25166" lon="6.30678">
        <ele>1095</ele>
        <time>2014-08-09T13:02:42Z</time>
      </trkpt>
      <trkpt lat="45.25174" lon="6.30685">
        <ele>1099</ele>
        <time>2014-08-09T13:02:47Z</time>
      </trkpt>
      <trkpt lat="45.25182" lon="6.30694">
        <ele>1099</ele>
        <time>2014-08-09T13:02:53Z</time>
      </trkpt>
      <trkpt lat="45.25189" lon="6.30702">
        <ele>1098</ele>
        <time>2014-08-09T13:02:58Z</time>
      </trkpt>
      <trkpt lat="45.25199" lon="6.30705">
        <ele>1099</ele>
        <time>2014-08-09T13:03:03Z</time>
      </trkpt>
      <trkpt lat="45.2521" lon="6.30705">
        <ele>1100</ele>
        <time>2014-08-09T13:03:08Z</time>
      </trkpt>
      <trkpt lat="45.2522" lon="6.30704">
        <ele>1100</ele>
        <time>2014-08-09T13:03:12Z</time>
      </trkpt>
      <trkpt lat="45.25231" lon="6.30704">
        <ele>1101</ele>
        <time>2014-08-09T13:03:17Z</time>
      </trkpt>
      <trkpt lat="45.25239" lon="6.3071">
        <ele>1101</ele>
        <time>2014-08-09T13:03:24Z</time>
      </trkpt>
      <trkpt lat="45.25249" lon="6.30713">
        <ele>1100</ele>
        <time>2014-08-09T13:03:29Z</time>
      </trkpt>
      <trkpt lat="45.2526" lon="6.30713">
        <ele>1111</ele>
        <time>2014-08-09T13:03:34Z</time>
      </trkpt>
      <trkpt lat="45.25268" lon="6.30704">
        <ele>1113</ele>
        <time>2014-08-09T13:03:38Z</time>
      </trkpt>
      <trkpt lat="45.2527" lon="6.3069">
        <ele>1115</ele>
        <time>2014-08-09T13:03:44Z</time>
      </trkpt>
      <trkpt lat="45.25262" lon="6.307">
        <ele>1113</ele>
        <time>2014-08-09T13:03:50Z</time>
      </trkpt>
      <trkpt lat="45.25252" lon="6.30703">
        <ele>1112</ele>
        <time>2014-08-09T13:03:56Z</time>
      </trkpt>
      <trkpt lat="45.25243" lon="6.30696">
        <ele>1104</ele>
        <time>2014-08-09T13:04:02Z</time>
      </trkpt>
      <trkpt lat="45.25234" lon="6.30687">
        <ele>1105</ele>
        <time>2014-08-09T13:04:07Z</time>
      </trkpt>
      <trkpt lat="45.25227" lon="6.30671">
        <ele>1106</ele>
        <time>2014-08-09T13:04:12Z</time>
      </trkpt>
      <trkpt lat="45.25221" lon="6.30656">
        <ele>1118</ele>
        <time>2014-08-09T13:04:16Z</time>
      </trkpt>
      <trkpt lat="45.25214" lon="6.30643">
        <ele>1119</ele>
        <time>2014-08-09T13:04:21Z</time>
      </trkpt>
      <trkpt lat="45.25212" lon="6.30631">
        <ele>1120</ele>
        <time>2014-08-09T13:04:24Z</time>
      </trkpt>
      <trkpt lat="45.25208" lon="6.30617">
        <ele>1122</ele>
        <time>2014-08-09T13:04:28Z</time>
      </trkpt>
      <trkpt lat="45.25203" lon="6.30604">
        <ele>1123</ele>
        <time>2014-08-09T13:04:33Z</time>
      </trkpt>
      <trkpt lat="45.25198" lon="6.30591">
        <ele>1124</ele>
        <time>2014-08-09T13:04:38Z</time>
      </trkpt>
      <trkpt lat="45.25188" lon="6.30589">
        <ele>1123</ele>
        <time>2014-08-09T13:04:44Z</time>
      </trkpt>
      <trkpt lat="45.25179" lon="6.30593">
        <ele>1123</ele>
        <time>2014-08-09T13:04:49Z</time>
      </trkpt>
      <trkpt lat="45.25168" lon="6.3059">
        <ele>1124</ele>
        <time>2014-08-09T13:04:55Z</time>
      </trkpt>
      <trkpt lat="45.25158" lon="6.30586">
        <ele>1119</ele>
        <time>2014-08-09T13:05:00Z</time>
      </trkpt>
      <trkpt lat="45.25147" lon="6.30585">
        <ele>1115</ele>
        <time>2014-08-09T13:05:05Z</time>
      </trkpt>
      <trkpt lat="45.25139" lon="6.30577">
        <ele>1130</ele>
        <time>2014-08-09T13:05:09Z</time>
      </trkpt>
      <trkpt lat="45.2513" lon="6.30571">
        <ele>1130</ele>
        <time>2014-08-09T13:05:14Z</time>
      </trkpt>
      <trkpt lat="45.25121" lon="6.30572">
        <ele>1129</ele>
        <time>2014-08-09T13:05:20Z</time>
      </trkpt>
      <trkpt lat="45.25113" lon="6.30579">
        <ele>1126</ele>
        <time>2014-08-09T13:05:26Z</time>
      </trkpt>
      <trkpt lat="45.25103" lon="6.30581">
        <ele>1124</ele>
        <time>2014-08-09T13:05:32Z</time>
      </trkpt>
      <trkpt lat="45.25094" lon="6.3059">
        <ele>1110</ele>
        <time>2014-08-09T13:05:38Z</time>
      </trkpt>
      <trkpt lat="45.25084" lon="6.30589">
        <ele>1111</ele>
        <time>2014-08-09T13:05:45Z</time>
      </trkpt>
      <trkpt lat="45.25073" lon="6.30587">
        <ele>1108</ele>
        <time>2014-08-09T13:05:52Z</time>
      </trkpt>
      <trkpt lat="45.25064" lon="6.30582">
        <ele>1119</ele>
        <time>2014-08-09T13:05:58Z</time>
      </trkpt>
      <trkpt lat="45.25054" lon="6.30577">
        <ele>1120</ele>
        <time>2014-08-09T13:06:04Z</time>
      </trkpt>
      <trkpt lat="45.25045" lon="6.30573">
        <ele>1121</ele>
        <time>2014-08-09T13:06:12Z</time>
      </trkpt>
      <trkpt lat="45.25042" lon="6.3056">
        <ele>1123</ele>
        <time>2014-08-09T13:06:16Z</time>
      </trkpt>
      <trkpt lat="45.25045" lon="6.30546">
        <ele>1125</ele>
        <time>2014-08-09T13:06:21Z</time>
      </trkpt>
      <trkpt lat="45.25048" lon="6.3053">
        <ele>1128</ele>
        <time>2014-08-09T13:06:23Z</time>
      </trkpt>
      <trkpt lat="45.25051" lon="6.30518">
        <ele>1130</ele>
        <time>2014-08-09T13:06:27Z</time>
      </trkpt>
      <trkpt lat="45.25061" lon="6.30516">
        <ele>1132</ele>
        <time>2014-08-09T13:06:39Z</time>
      </trkpt>
      <trkpt lat="45.25071" lon="6.30515">
        <ele>1134</ele>
        <time>2014-08-09T13:06:58Z</time>
      </trkpt>
      <trkpt lat="45.25081" lon="6.30513">
        <ele>1136</ele>
        <time>2014-08-09T13:07:09Z</time>
      </trkpt>
      <trkpt lat="45.2509" lon="6.30504">
        <ele>1141</ele>
        <time>2014-08-09T13:07:23Z</time>
      </trkpt>
      <trkpt lat="45.25101" lon="6.30504">
        <ele>1140</ele>
        <time>2014-08-09T13:07:32Z</time>
      </trkpt>
      <trkpt lat="45.25111" lon="6.30508">
        <ele>1139</ele>
        <time>2014-08-09T13:07:36Z</time>
      </trkpt>
      <trkpt lat="45.25121" lon="6.3051">
        <ele>1139</ele>
        <time>2014-08-09T13:07:42Z</time>
      </trkpt>
      <trkpt lat="45.2513" lon="6.30512">
        <ele>1140</ele>
        <time>2014-08-09T13:07:52Z</time>
      </trkpt>
      <trkpt lat="45.25139" lon="6.30519">
        <ele>1140</ele>
        <time>2014-08-09T13:07:58Z</time>
      </trkpt>
      <trkpt lat="45.25147" lon="6.30523">
        <ele>1140</ele>
        <time>2014-08-09T13:08:03Z</time>
      </trkpt>
      <trkpt lat="45.25156" lon="6.30527">
        <ele>1141</ele>
        <time>2014-08-09T13:08:08Z</time>
      </trkpt>
      <trkpt lat="45.25165" lon="6.30531">
        <ele>1140</ele>
        <time>2014-08-09T13:08:13Z</time>
      </trkpt>
      <trkpt lat="45.25175" lon="6.30528">
        <ele>1149</ele>
        <time>2014-08-09T13:08:18Z</time>
      </trkpt>
      <trkpt lat="45.25184" lon="6.30532">
        <ele>1148</ele>
        <time>2014-08-09T13:08:25Z</time>
      </trkpt>
      <trkpt lat="45.25194" lon="6.30533">
        <ele>1148</ele>
        <time>2014-08-09T13:08:29Z</time>
      </trkpt>
      <trkpt lat="45.25194" lon="6.30547">
        <ele>1146</ele>
        <time>2014-08-09T13:08:34Z</time>
      </trkpt>
      <trkpt lat="45.25196" lon="6.30561">
        <ele>1143</ele>
        <time>2014-08-09T13:08:45Z</time>
      </trkpt>
      <trkpt lat="45.25203" lon="6.3057">
        <ele>1143</ele>
        <time>2014-08-09T13:08:53Z</time>
      </trkpt>
      <trkpt lat="45.25211" lon="6.30581">
        <ele>1143</ele>
        <time>2014-08-09T13:09:02Z</time>
      </trkpt>
      <trkpt lat="45.25219" lon="6.30589">
        <ele>1127</ele>
        <time>2014-08-09T13:09:09Z</time>
      </trkpt>
      <trkpt lat="45.25229" lon="6.30592">
        <ele>1129</ele>
        <time>2014-08-09T13:09:15Z</time>
      </trkpt>
      <trkpt lat="45.25238" lon="6.30596">
        <ele>1131</ele>
        <time>2014-08-09T13:09:21Z</time>
      </trkpt>
      <trkpt lat="45.25248" lon="6.30595">
        <ele>1134</ele>
        <time>2014-08-09T13:09:25Z</time>
      </trkpt>
      <trkpt lat="45.25259" lon="6.30591">
        <ele>1141</ele>
        <time>2014-08-09T13:09:30Z</time>
      </trkpt>
      <trkpt lat="45.25269" lon="6.3059">
        <ele>1141</ele>
        <time>2014-08-09T13:09:34Z</time>
      </trkpt>
      <trkpt lat="45.25279" lon="6.30592">
        <ele>1141</ele>
        <time>2014-08-09T13:09:38Z</time>
      </trkpt>
      <trkpt lat="45.25292" lon="6.30597">
        <ele>1143</ele>
        <time>2014-08-09T13:09:43Z</time>
      </trkpt>
      <trkpt lat="45.25302" lon="6.30607">
        <ele>1143</ele>
        <time>2014-08-09T13:09:50Z</time>
      </trkpt>
      <trkpt lat="45.25312" lon="6.30608">
        <ele>1144</ele>
        <time>2014-08-09T13:09:54Z</time>
      </trkpt>
      <trkpt lat="45.25321" lon="6.30616">
        <ele>1144</ele>
        <time>2014-08-09T13:10:02Z</time>
      </trkpt>
      <trkpt lat="45.25328" lon="6.30625">
        <ele>1142</ele>
        <time>2014-08-09T13:10:11Z</time>
      </trkpt>
      <trkpt lat="45.25335" lon="6.30634">
        <ele>1156</ele>
        <time>2014-08-09T13:10:18Z</time>
      </trkpt>
      <trkpt lat="45.25334" lon="6.30648">
        <ele>1150</ele>
        <time>2014-08-09T13:10:30Z</time>
      </trkpt>
      <trkpt lat="45.25344" lon="6.3065">
        <ele>1151</ele>
        <time>2014-08-09T13:10:42Z</time>
      </trkpt>
      <trkpt lat="45.25353" lon="6.30646">
        <ele>1155</ele>
        <time>2014-08-09T13:10:48Z</time>
      </trkpt>
      <trkpt lat="45.25363" lon="6.30643">
        <ele>1158</ele>
        <time>2014-08-09T13:10:56Z</time>
      </trkpt>
      <trkpt lat="45.25371" lon="6.30647">
        <ele>1160</ele>
        <time>2014-08-09T13:11:11Z</time>
      </trkpt>
      <trkpt lat="45.25381" lon="6.30649">
        <ele>1161</ele>
        <time>2014-08-09T13:11:20Z</time>
      </trkpt>
      <trkpt lat="45.25385" lon="6.30661">
        <ele>1161</ele>
        <time>2014-08-09T13:11:31Z</time>
      </trkpt>
      <trkpt lat="45.25395" lon="6.30666">
        <ele>1162</ele>
        <time>2014-08-09T13:11:35Z</time>
      </trkpt>
      <trkpt lat="45.25404" lon="6.30667">
        <ele>1153</ele>
        <time>2014-08-09T13:11:53Z</time>
      </trkpt>
      <trkpt lat="45.25408" lon="6.3068">
        <ele>1151</ele>
        <time>2014-08-09T13:12:03Z</time>
      </trkpt>
      <trkpt lat="45.25418" lon="6.30683">
        <ele>1163</ele>
        <time>2014-08-09T13:12:21Z</time>
      </trkpt>
      <trkpt lat="45.25427" lon="6.30678">
        <ele>1163</ele>
        <time>2014-08-09T13:12:31Z</time>
      </trkpt>
      <trkpt lat="45.25437" lon="6.30676">
        <ele>1165</ele>
        <time>2014-08-09T13:12:41Z</time>
      </trkpt>
      <trkpt lat="45.25447" lon="6.30669">
        <ele>1167</ele>
        <time>2014-08-09T13:12:48Z</time>
      </trkpt>
      <trkpt lat="45.25457" lon="6.30671">
        <ele>1169</ele>
        <time>2014-08-09T13:13:04Z</time>
      </trkpt>
      <trkpt lat="45.2546" lon="6.30685">
        <ele>1168</ele>
        <time>2014-08-09T13:13:18Z</time>
      </trkpt>
      <trkpt lat="45.25465" lon="6.30696">
        <ele>1167</ele>
        <time>2014-08-09T13:13:27Z</time>
      </trkpt>
      <trkpt lat="45.25475" lon="6.30699">
        <ele>1169</ele>
        <time>2014-08-09T13:13:36Z</time>
      </trkpt>
      <trkpt lat="45.25484" lon="6.30702">
        <ele>1170</ele>
        <time>2014-08-09T13:13:46Z</time>
      </trkpt>
      <trkpt lat="45.25493" lon="6.30708">
        <ele>1169</ele>
        <time>2014-08-09T13:13:58Z</time>
      </trkpt>
      <trkpt lat="45.25502" lon="6.30713">
        <ele>1188</ele>
        <time>2014-08-09T13:14:06Z</time>
      </trkpt>
      <trkpt lat="45.2551" lon="6.30721">
        <ele>1186</ele>
        <time>2014-08-09T13:14:11Z</time>
      </trkpt>
      <trkpt lat="45.25517" lon="6.30733">
        <ele>1183</ele>
        <time>2014-08-09T13:14:16Z</time>
      </trkpt>
      <trkpt lat="45.25525" lon="6.30741">
        <ele>1184</ele>
        <time>2014-08-09T13:14:21Z</time>
      </trkpt>
      <trkpt lat="45.25535" lon="6.30748">
        <ele>1187</ele>
        <time>2014-08-09T13:14:24Z</time>
      </trkpt>
      <trkpt lat="45.25543" lon="6.3076">
        <ele>1171</ele>
        <time>2014-08-09T13:14:28Z</time>
      </trkpt>
      <trkpt lat="45.25549" lon="6.3077">
        <ele>1171</ele>
        <time>2014-08-09T13:14:35Z</time>
      </trkpt>
      <trkpt lat="45.25545" lon="6.30782">
        <ele>1168</ele>
        <time>2014-08-09T13:14:38Z</time>
      </trkpt>
      <trkpt lat="45.25552" lon="6.30792">
        <ele>1168</ele>
        <time>2014-08-09T13:14:42Z</time>
      </trkpt>
      <trkpt lat="45.25561" lon="6.30795">
        <ele>1169</ele>
        <time>2014-08-09T13:14:47Z</time>
      </trkpt>
      <trkpt lat="45.25569" lon="6.30806">
        <ele>1168</ele>
        <time>2014-08-09T13:14:52Z</time>
      </trkpt>
      <trkpt lat="45.25581" lon="6.30812">
        <ele>1168</ele>
        <time>2014-08-09T13:14:57Z</time>
      </trkpt>
      <trkpt lat="45.25591" lon="6.30819">
        <ele>1180</ele>
        <time>2014-08-09T13:15:02Z</time>
      </trkpt>
      <trkpt lat="45.25601" lon="6.30829">
        <ele>1180</ele>
        <time>2014-08-09T13:15:06Z</time>
      </trkpt>
      <trkpt lat="45.25611" lon="6.30836">
        <ele>1169</ele>
        <time>2014-08-09T13:15:09Z</time>
      </trkpt>
      <trkpt lat="45.25622" lon="6.30839">
        <ele>1170</ele>
        <time>2014-08-09T13:15:14Z</time>
      </trkpt>
      <trkpt lat="45.2563" lon="6.30847">
        <ele>1171</ele>
        <time>2014-08-09T13:15:23Z</time>
      </trkpt>
      <trkpt lat="45.25637" lon="6.30856">
        <ele>1171</ele>
        <time>2014-08-09T13:15:28Z</time>
      </trkpt>
      <trkpt lat="45.25639" lon="6.3087">
        <ele>1169</ele>
        <time>2014-08-09T13:15:34Z</time>
      </trkpt>
      <trkpt lat="45.25647" lon="6.30879">
        <ele>1169</ele>
        <time>2014-08-09T13:15:40Z</time>
      </trkpt>
      <trkpt lat="45.25654" lon="6.30888">
        <ele>1168</ele>
        <time>2014-08-09T13:15:44Z</time>
      </trkpt>
      <trkpt lat="45.25663" lon="6.30891">
        <ele>1169</ele>
        <time>2014-08-09T13:15:47Z</time>
      </trkpt>
      <trkpt lat="45.25674" lon="6.30897">
        <ele>1177</ele>
        <time>2014-08-09T13:15:51Z</time>
      </trkpt>
      <trkpt lat="45.25686" lon="6.30899">
        <ele>1178</ele>
        <time>2014-08-09T13:15:55Z</time>
      </trkpt>
      <trkpt lat="45.25695" lon="6.309">
        <ele>1179</ele>
        <time>2014-08-09T13:16:00Z</time>
      </trkpt>
      <trkpt lat="45.25706" lon="6.309">
        <ele>1181</ele>
        <time>2014-08-09T13:16:05Z</time>
      </trkpt>
      <trkpt lat="45.25713" lon="6.30888">
        <ele>1182</ele>
        <time>2014-08-09T13:16:11Z</time>
      </trkpt>
      <trkpt lat="45.25722" lon="6.30884">
        <ele>1183</ele>
        <time>2014-08-09T13:16:20Z</time>
      </trkpt>
      <trkpt lat="45.25731" lon="6.3089">
        <ele>1183</ele>
        <time>2014-08-09T13:16:35Z</time>
      </trkpt>
      <trkpt lat="45.25739" lon="6.30893">
        <ele>1182</ele>
        <time>2014-08-09T13:16:46Z</time>
      </trkpt>
      <trkpt lat="45.25743" lon="6.30907">
        <ele>1179</ele>
        <time>2014-08-09T13:16:59Z</time>
      </trkpt>
      <trkpt lat="45.25749" lon="6.30918">
        <ele>1175</ele>
        <time>2014-08-09T13:17:06Z</time>
      </trkpt>
      <trkpt lat="45.25758" lon="6.30926">
        <ele>1172</ele>
        <time>2014-08-09T13:17:13Z</time>
      </trkpt>
      <trkpt lat="45.25765" lon="6.30917">
        <ele>1181</ele>
        <time>2014-08-09T13:17:15Z</time>
      </trkpt>
      <trkpt lat="45.25774" lon="6.30908">
        <ele>1184</ele>
        <time>2014-08-09T13:17:19Z</time>
      </trkpt>
      <trkpt lat="45.25785" lon="6.30908">
        <ele>1185</ele>
        <time>2014-08-09T13:17:22Z</time>
      </trkpt>
      <trkpt lat="45.25795" lon="6.30904">
        <ele>1185</ele>
        <time>2014-08-09T13:17:27Z</time>
      </trkpt>
      <trkpt lat="45.25798" lon="6.3089">
        <ele>1187</ele>
        <time>2014-08-09T13:17:30Z</time>
      </trkpt>
      <trkpt lat="45.25804" lon="6.3088">
        <ele>1188</ele>
        <time>2014-08-09T13:17:36Z</time>
      </trkpt>
      <trkpt lat="45.25811" lon="6.3087">
        <ele>1190</ele>
        <time>2014-08-09T13:17:41Z</time>
      </trkpt>
      <trkpt lat="45.25817" lon="6.30858">
        <ele>1192</ele>
        <time>2014-08-09T13:17:47Z</time>
      </trkpt>
      <trkpt lat="45.25826" lon="6.30855">
        <ele>1193</ele>
        <time>2014-08-09T13:18:04Z</time>
      </trkpt>
      <trkpt lat="45.25834" lon="6.30862">
        <ele>1195</ele>
        <time>2014-08-09T13:18:16Z</time>
      </trkpt>
      <trkpt lat="45.25841" lon="6.30872">
        <ele>1194</ele>
        <time>2014-08-09T13:18:21Z</time>
      </trkpt>
      <trkpt lat="45.2585" lon="6.30872">
        <ele>1194</ele>
        <time>2014-08-09T13:18:27Z</time>
      </trkpt>
      <trkpt lat="45.25861" lon="6.30877">
        <ele>1194</ele>
        <time>2014-08-09T13:18:34Z</time>
      </trkpt>
      <trkpt lat="45.25871" lon="6.3088">
        <ele>1194</ele>
        <time>2014-08-09T13:18:39Z</time>
      </trkpt>
      <trkpt lat="45.2588" lon="6.30888">
        <ele>1194</ele>
        <time>2014-08-09T13:18:49Z</time>
      </trkpt>
      <trkpt lat="45.25888" lon="6.30903">
        <ele>1194</ele>
        <time>2014-08-09T13:19:02Z</time>
      </trkpt>
      <trkpt lat="45.25897" lon="6.30912">
        <ele>1194</ele>
        <time>2014-08-09T13:19:07Z</time>
      </trkpt>
      <trkpt lat="45.25909" lon="6.30917">
        <ele>1193</ele>
        <time>2014-08-09T13:19:10Z</time>
      </trkpt>
      <trkpt lat="45.25918" lon="6.30919">
        <ele>1194</ele>
        <time>2014-08-09T13:19:13Z</time>
      </trkpt>
      <trkpt lat="45.25927" lon="6.30923">
        <ele>1197</ele>
        <time>2014-08-09T13:19:16Z</time>
      </trkpt>
      <trkpt lat="45.2593" lon="6.30935">
        <ele>1199</ele>
        <time>2014-08-09T13:19:23Z</time>
      </trkpt>
      <trkpt lat="45.2593" lon="6.30949">
        <ele>1200</ele>
        <time>2014-08-09T13:19:28Z</time>
      </trkpt>
      <trkpt lat="45.2593" lon="6.30963">
        <ele>1199</ele>
        <time>2014-08-09T13:19:34Z</time>
      </trkpt>
      <trkpt lat="45.25926" lon="6.30975">
        <ele>1196</ele>
        <time>2014-08-09T13:19:39Z</time>
      </trkpt>
      <trkpt lat="45.25937" lon="6.30984">
        <ele>1196</ele>
        <time>2014-08-09T13:19:46Z</time>
      </trkpt>
      <trkpt lat="45.25946" lon="6.30994">
        <ele>1198</ele>
        <time>2014-08-09T13:19:51Z</time>
      </trkpt>
      <trkpt lat="45.25955" lon="6.30999">
        <ele>1201</ele>
        <time>2014-08-09T13:19:54Z</time>
      </trkpt>
      <trkpt lat="45.25965" lon="6.31005">
        <ele>1197</ele>
        <time>2014-08-09T13:19:59Z</time>
      </trkpt>
      <trkpt lat="45.25972" lon="6.31015">
        <ele>1198</ele>
        <time>2014-08-09T13:20:07Z</time>
      </trkpt>
      <trkpt lat="45.25974" lon="6.31031">
        <ele>1197</ele>
        <time>2014-08-09T13:20:15Z</time>
      </trkpt>
      <trkpt lat="45.25979" lon="6.31043">
        <ele>1196</ele>
        <time>2014-08-09T13:20:21Z</time>
      </trkpt>
      <trkpt lat="45.25981" lon="6.31057">
        <ele>1196</ele>
        <time>2014-08-09T13:20:28Z</time>
      </trkpt>
      <trkpt lat="45.25989" lon="6.31063">
        <ele>1197</ele>
        <time>2014-08-09T13:20:35Z</time>
      </trkpt>
      <trkpt lat="45.26001" lon="6.31064">
        <ele>1213</ele>
        <time>2014-08-09T13:20:40Z</time>
      </trkpt>
      <trkpt lat="45.26011" lon="6.31064">
        <ele>1215</ele>
        <time>2014-08-09T13:20:50Z</time>
      </trkpt>
      <trkpt lat="45.26021" lon="6.31068">
        <ele>1216</ele>
        <time>2014-08-09T13:20:56Z</time>
      </trkpt>
      <trkpt lat="45.26031" lon="6.31068">
        <ele>1219</ele>
        <time>2014-08-09T13:21:04Z</time>
      </trkpt>
      <trkpt lat="45.26025" lon="6.31081">
        <ele>1216</ele>
        <time>2014-08-09T13:21:26Z</time>
      </trkpt>
      <trkpt lat="45.26016" lon="6.31076">
        <ele>1213</ele>
        <time>2014-08-09T13:21:30Z</time>
      </trkpt>
      <trkpt lat="45.26005" lon="6.31073">
        <ele>1210</ele>
        <time>2014-08-09T13:21:36Z</time>
      </trkpt>
      <trkpt lat="45.25996" lon="6.31067">
        <ele>1198</ele>
        <time>2014-08-09T13:21:41Z</time>
      </trkpt>
      <trkpt lat="45.25993" lon="6.31055">
        <ele>1197</ele>
        <time>2014-08-09T13:21:46Z</time>
      </trkpt>
      <trkpt lat="45.25989" lon="6.31041">
        <ele>1198</ele>
        <time>2014-08-09T13:21:51Z</time>
      </trkpt>
      <trkpt lat="45.25991" lon="6.31028">
        <ele>1200</ele>
        <time>2014-08-09T13:21:53Z</time>
      </trkpt>
      <trkpt lat="45.25993" lon="6.31014">
        <ele>1205</ele>
        <time>2014-08-09T13:21:56Z</time>
      </trkpt>
      <trkpt lat="45.25996" lon="6.31">
        <ele>1213</ele>
        <time>2014-08-09T13:22:01Z</time>
      </trkpt>
      <trkpt lat="45.25998" lon="6.30985">
        <ele>1211</ele>
        <time>2014-08-09T13:22:07Z</time>
      </trkpt>
      <trkpt lat="45.26" lon="6.30971">
        <ele>1210</ele>
        <time>2014-08-09T13:22:13Z</time>
      </trkpt>
      <trkpt lat="45.26001" lon="6.30958">
        <ele>1231</ele>
        <time>2014-08-09T13:22:19Z</time>
      </trkpt>
      <trkpt lat="45.26002" lon="6.30944">
        <ele>1231</ele>
        <time>2014-08-09T13:22:26Z</time>
      </trkpt>
      <trkpt lat="45.26004" lon="6.30929">
        <ele>1230</ele>
        <time>2014-08-09T13:22:33Z</time>
      </trkpt>
      <trkpt lat="45.26004" lon="6.30915">
        <ele>1229</ele>
        <time>2014-08-09T13:22:40Z</time>
      </trkpt>
      <trkpt lat="45.26003" lon="6.30901">
        <ele>1235</ele>
        <time>2014-08-09T13:22:47Z</time>
      </trkpt>
      <trkpt lat="45.26004" lon="6.30887">
        <ele>1238</ele>
        <time>2014-08-09T13:22:53Z</time>
      </trkpt>
      <trkpt lat="45.26003" lon="6.30873">
        <ele>1240</ele>
        <time>2014-08-09T13:23:02Z</time>
      </trkpt>
      <trkpt lat="45.26004" lon="6.30859">
        <ele>1240</ele>
        <time>2014-08-09T13:23:08Z</time>
      </trkpt>
      <trkpt lat="45.26002" lon="6.30844">
        <ele>1238</ele>
        <time>2014-08-09T13:23:14Z</time>
      </trkpt>
      <trkpt lat="45.26003" lon="6.30829">
        <ele>1237</ele>
        <time>2014-08-09T13:23:21Z</time>
      </trkpt>
      <trkpt lat="45.26004" lon="6.30816">
        <ele>1243</ele>
        <time>2014-08-09T13:23:27Z</time>
      </trkpt>
      <trkpt lat="45.25999" lon="6.30803">
        <ele>1233</ele>
        <time>2014-08-09T13:23:41Z</time>
      </trkpt>
      <trkpt lat="45.25999" lon="6.30788">
        <ele>1234</ele>
        <time>2014-08-09T13:23:48Z</time>
      </trkpt>
      <trkpt lat="45.25998" lon="6.30775">
        <ele>1236</ele>
        <time>2014-08-09T13:23:57Z</time>
      </trkpt>
      <trkpt lat="45.25988" lon="6.30785">
        <ele>1234</ele>
        <time>2014-08-09T13:24:03Z</time>
      </trkpt>
      <trkpt lat="45.25984" lon="6.30771">
        <ele>1236</ele>
        <time>2014-08-09T13:24:11Z</time>
      </trkpt>
      <trkpt lat="45.25985" lon="6.30757">
        <ele>1238</ele>
        <time>2014-08-09T13:24:15Z</time>
      </trkpt>
      <trkpt lat="45.25988" lon="6.30743">
        <ele>1247</ele>
        <time>2014-08-09T13:24:21Z</time>
      </trkpt>
      <trkpt lat="45.25995" lon="6.30735">
        <ele>1247</ele>
        <time>2014-08-09T13:24:29Z</time>
      </trkpt>
      <trkpt lat="45.26003" lon="6.30741">
        <ele>1252</ele>
        <time>2014-08-09T13:24:40Z</time>
      </trkpt>
      <trkpt lat="45.26005" lon="6.30757">
        <ele>1248</ele>
        <time>2014-08-09T13:24:49Z</time>
      </trkpt>
      <trkpt lat="45.26006" lon="6.3077">
        <ele>1249</ele>
        <time>2014-08-09T13:24:55Z</time>
      </trkpt>
      <trkpt lat="45.26013" lon="6.30782">
        <ele>1250</ele>
        <time>2014-08-09T13:25:00Z</time>
      </trkpt>
      <trkpt lat="45.26017" lon="6.30793">
        <ele>1249</ele>
        <time>2014-08-09T13:25:07Z</time>
      </trkpt>
      <trkpt lat="45.26014" lon="6.30806">
        <ele>1247</ele>
        <time>2014-08-09T13:25:11Z</time>
      </trkpt>
      <trkpt lat="45.26024" lon="6.30808">
        <ele>1249</ele>
        <time>2014-08-09T13:25:16Z</time>
      </trkpt>
      <trkpt lat="45.26029" lon="6.30821">
        <ele>1248</ele>
        <time>2014-08-09T13:25:20Z</time>
      </trkpt>
      <trkpt lat="45.26038" lon="6.30833">
        <ele>1250</ele>
        <time>2014-08-09T13:25:26Z</time>
      </trkpt>
      <trkpt lat="45.26035" lon="6.30846">
        <ele>1245</ele>
        <time>2014-08-09T13:25:29Z</time>
      </trkpt>
      <trkpt lat="45.26026" lon="6.30859">
        <ele>1243</ele>
        <time>2014-08-09T13:25:33Z</time>
      </trkpt>
      <trkpt lat="45.26024" lon="6.30873">
        <ele>1242</ele>
        <time>2014-08-09T13:25:38Z</time>
      </trkpt>
      <trkpt lat="45.26022" lon="6.30886">
        <ele>1241</ele>
        <time>2014-08-09T13:25:42Z</time>
      </trkpt>
      <trkpt lat="45.26029" lon="6.30897">
        <ele>1242</ele>
        <time>2014-08-09T13:25:46Z</time>
      </trkpt>
      <trkpt lat="45.26036" lon="6.30909">
        <ele>1243</ele>
        <time>2014-08-09T13:25:52Z</time>
      </trkpt>
      <trkpt lat="45.26045" lon="6.30917">
        <ele>1239</ele>
        <time>2014-08-09T13:25:57Z</time>
      </trkpt>
      <trkpt lat="45.26052" lon="6.30926">
        <ele>1241</ele>
        <time>2014-08-09T13:26:01Z</time>
      </trkpt>
      <trkpt lat="45.26052" lon="6.3094">
        <ele>1240</ele>
        <time>2014-08-09T13:26:06Z</time>
      </trkpt>
      <trkpt lat="45.2606" lon="6.3095">
        <ele>1241</ele>
        <time>2014-08-09T13:26:11Z</time>
      </trkpt>
      <trkpt lat="45.2607" lon="6.30955">
        <ele>1242</ele>
        <time>2014-08-09T13:26:15Z</time>
      </trkpt>
      <trkpt lat="45.2608" lon="6.3096">
        <ele>1242</ele>
        <time>2014-08-09T13:26:19Z</time>
      </trkpt>
      <trkpt lat="45.26088" lon="6.3097">
        <ele>1262</ele>
        <time>2014-08-09T13:26:28Z</time>
      </trkpt>
      <trkpt lat="45.26083" lon="6.30985">
        <ele>1243</ele>
        <time>2014-08-09T13:26:35Z</time>
      </trkpt>
      <trkpt lat="45.2609" lon="6.30997">
        <ele>1253</ele>
        <time>2014-08-09T13:26:42Z</time>
      </trkpt>
      <trkpt lat="45.26098" lon="6.31007">
        <ele>1253</ele>
        <time>2014-08-09T13:26:49Z</time>
      </trkpt>
      <trkpt lat="45.26108" lon="6.31004">
        <ele>1256</ele>
        <time>2014-08-09T13:26:52Z</time>
      </trkpt>
      <trkpt lat="45.26117" lon="6.31014">
        <ele>1258</ele>
        <time>2014-08-09T13:26:58Z</time>
      </trkpt>
      <trkpt lat="45.26127" lon="6.31015">
        <ele>1261</ele>
        <time>2014-08-09T13:27:03Z</time>
      </trkpt>
      <trkpt lat="45.26137" lon="6.31022">
        <ele>1263</ele>
        <time>2014-08-09T13:27:09Z</time>
      </trkpt>
      <trkpt lat="45.26135" lon="6.31037">
        <ele>1261</ele>
        <time>2014-08-09T13:27:16Z</time>
      </trkpt>
      <trkpt lat="45.26128" lon="6.31047">
        <ele>1259</ele>
        <time>2014-08-09T13:27:19Z</time>
      </trkpt>
      <trkpt lat="45.26133" lon="6.31058">
        <ele>1259</ele>
        <time>2014-08-09T13:27:25Z</time>
      </trkpt>
      <trkpt lat="45.26138" lon="6.31047">
        <ele>1261</ele>
        <time>2014-08-09T13:27:35Z</time>
      </trkpt>
      <trkpt lat="45.2614" lon="6.31033">
        <ele>1263</ele>
        <time>2014-08-09T13:27:41Z</time>
      </trkpt>
      <trkpt lat="45.26137" lon="6.31021">
        <ele>1263</ele>
        <time>2014-08-09T13:27:48Z</time>
      </trkpt>
      <trkpt lat="45.26127" lon="6.31021">
        <ele>1261</ele>
        <time>2014-08-09T13:27:53Z</time>
      </trkpt>
      <trkpt lat="45.26126" lon="6.31005">
        <ele>1261</ele>
        <time>2014-08-09T13:28:00Z</time>
      </trkpt>
      <trkpt lat="45.26125" lon="6.30989">
        <ele>1269</ele>
        <time>2014-08-09T13:28:06Z</time>
      </trkpt>
      <trkpt lat="45.26123" lon="6.30976">
        <ele>1269</ele>
        <time>2014-08-09T13:28:11Z</time>
      </trkpt>
      <trkpt lat="45.26117" lon="6.30966">
        <ele>1268</ele>
        <time>2014-08-09T13:28:18Z</time>
      </trkpt>
      <trkpt lat="45.26111" lon="6.30955">
        <ele>1268</ele>
        <time>2014-08-09T13:28:23Z</time>
      </trkpt>
      <trkpt lat="45.26109" lon="6.30942">
        <ele>1268</ele>
        <time>2014-08-09T13:28:28Z</time>
      </trkpt>
      <trkpt lat="45.26107" lon="6.30928">
        <ele>1267</ele>
        <time>2014-08-09T13:28:33Z</time>
      </trkpt>
      <trkpt lat="45.26106" lon="6.30915">
        <ele>1271</ele>
        <time>2014-08-09T13:28:38Z</time>
      </trkpt>
      <trkpt lat="45.26105" lon="6.30899">
        <ele>1272</ele>
        <time>2014-08-09T13:28:44Z</time>
      </trkpt>
      <trkpt lat="45.26107" lon="6.30886">
        <ele>1274</ele>
        <time>2014-08-09T13:28:51Z</time>
      </trkpt>
      <trkpt lat="45.26108" lon="6.30873">
        <ele>1275</ele>
        <time>2014-08-09T13:28:59Z</time>
      </trkpt>
      <trkpt lat="45.26111" lon="6.30857">
        <ele>1276</ele>
        <time>2014-08-09T13:29:06Z</time>
      </trkpt>
      <trkpt lat="45.26116" lon="6.30844">
        <ele>1277</ele>
        <time>2014-08-09T13:29:10Z</time>
      </trkpt>
      <trkpt lat="45.2612" lon="6.3083">
        <ele>1280</ele>
        <time>2014-08-09T13:29:16Z</time>
      </trkpt>
      <trkpt lat="45.26125" lon="6.30819">
        <ele>1281</ele>
        <time>2014-08-09T13:29:21Z</time>
      </trkpt>
      <trkpt lat="45.26128" lon="6.30804">
        <ele>1282</ele>
        <time>2014-08-09T13:29:31Z</time>
      </trkpt>
      <trkpt lat="45.26131" lon="6.30789">
        <ele>1283</ele>
        <time>2014-08-09T13:29:39Z</time>
      </trkpt>
      <trkpt lat="45.26136" lon="6.30777">
        <ele>1284</ele>
        <time>2014-08-09T13:29:43Z</time>
      </trkpt>
      <trkpt lat="45.26142" lon="6.30763">
        <ele>1286</ele>
        <time>2014-08-09T13:29:49Z</time>
      </trkpt>
      <trkpt lat="45.26147" lon="6.30749">
        <ele>1289</ele>
        <time>2014-08-09T13:29:53Z</time>
      </trkpt>
      <trkpt lat="45.26151" lon="6.30737">
        <ele>1289</ele>
        <time>2014-08-09T13:29:59Z</time>
      </trkpt>
      <trkpt lat="45.26151" lon="6.3072">
        <ele>1288</ele>
        <time>2014-08-09T13:30:06Z</time>
      </trkpt>
      <trkpt lat="45.26153" lon="6.30706">
        <ele>1287</ele>
        <time>2014-08-09T13:30:13Z</time>
      </trkpt>
      <trkpt lat="45.26152" lon="6.30692">
        <ele>1288</ele>
        <time>2014-08-09T13:30:19Z</time>
      </trkpt>
      <trkpt lat="45.26154" lon="6.30678">
        <ele>1289</ele>
        <time>2014-08-09T13:30:24Z</time>
      </trkpt>
      <trkpt lat="45.26157" lon="6.30665">
        <ele>1292</ele>
        <time>2014-08-09T13:30:28Z</time>
      </trkpt>
      <trkpt lat="45.26159" lon="6.30649">
        <ele>1292</ele>
        <time>2014-08-09T13:30:33Z</time>
      </trkpt>
      <trkpt lat="45.2616" lon="6.30634">
        <ele>1292</ele>
        <time>2014-08-09T13:30:38Z</time>
      </trkpt>
      <trkpt lat="45.26158" lon="6.30622">
        <ele>1292</ele>
        <time>2014-08-09T13:30:44Z</time>
      </trkpt>
      <trkpt lat="45.2615" lon="6.30614">
        <ele>1292</ele>
        <time>2014-08-09T13:30:49Z</time>
      </trkpt>
      <trkpt lat="45.26142" lon="6.30606">
        <ele>1292</ele>
        <time>2014-08-09T13:30:56Z</time>
      </trkpt>
      <trkpt lat="45.26135" lon="6.30596">
        <ele>1292</ele>
        <time>2014-08-09T13:31:02Z</time>
      </trkpt>
      <trkpt lat="45.26125" lon="6.30587">
        <ele>1292</ele>
        <time>2014-08-09T13:31:09Z</time>
      </trkpt>
      <trkpt lat="45.26119" lon="6.30575">
        <ele>1299</ele>
        <time>2014-08-09T13:31:15Z</time>
      </trkpt>
      <trkpt lat="45.26129" lon="6.30571">
        <ele>1300</ele>
        <time>2014-08-09T13:31:28Z</time>
      </trkpt>
      <trkpt lat="45.26139" lon="6.3057">
        <ele>1300</ele>
        <time>2014-08-09T13:31:36Z</time>
      </trkpt>
      <trkpt lat="45.26148" lon="6.30575">
        <ele>1299</ele>
        <time>2014-08-09T13:31:42Z</time>
      </trkpt>
      <trkpt lat="45.26157" lon="6.3058">
        <ele>1299</ele>
        <time>2014-08-09T13:31:48Z</time>
      </trkpt>
      <trkpt lat="45.26166" lon="6.30581">
        <ele>1297</ele>
        <time>2014-08-09T13:31:53Z</time>
      </trkpt>
      <trkpt lat="45.26176" lon="6.30589">
        <ele>1296</ele>
        <time>2014-08-09T13:32:00Z</time>
      </trkpt>
      <trkpt lat="45.26184" lon="6.30597">
        <ele>1296</ele>
        <time>2014-08-09T13:32:06Z</time>
      </trkpt>
      <trkpt lat="45.26193" lon="6.30604">
        <ele>1295</ele>
        <time>2014-08-09T13:32:12Z</time>
      </trkpt>
      <trkpt lat="45.26203" lon="6.30608">
        <ele>1295</ele>
        <time>2014-08-09T13:32:17Z</time>
      </trkpt>
      <trkpt lat="45.26213" lon="6.30608">
        <ele>1295</ele>
        <time>2014-08-09T13:32:21Z</time>
      </trkpt>
      <trkpt lat="45.26224" lon="6.30606">
        <ele>1295</ele>
        <time>2014-08-09T13:32:25Z</time>
      </trkpt>
      <trkpt lat="45.26232" lon="6.30595">
        <ele>1295</ele>
        <time>2014-08-09T13:32:28Z</time>
      </trkpt>
      <trkpt lat="45.26247" lon="6.30573">
        <ele>1298</ele>
        <time>2014-08-09T13:32:33Z</time>
      </trkpt>
      <trkpt lat="45.26257" lon="6.30551">
        <ele>1293</ele>
        <time>2014-08-09T13:32:37Z</time>
      </trkpt>
      <trkpt lat="45.26262" lon="6.30536">
        <ele>1293</ele>
        <time>2014-08-09T13:32:39Z</time>
      </trkpt>
      <trkpt lat="45.26267" lon="6.30523">
        <ele>1294</ele>
        <time>2014-08-09T13:32:41Z</time>
      </trkpt>
      <trkpt lat="45.26273" lon="6.3051">
        <ele>1294</ele>
        <time>2014-08-09T13:32:43Z</time>
      </trkpt>
      <trkpt lat="45.26276" lon="6.30498">
        <ele>1297</ele>
        <time>2014-08-09T13:32:46Z</time>
      </trkpt>
      <trkpt lat="45.26277" lon="6.30482">
        <ele>1296</ele>
        <time>2014-08-09T13:32:51Z</time>
      </trkpt>
      <trkpt lat="45.26274" lon="6.30467">
        <ele>1296</ele>
        <time>2014-08-09T13:32:56Z</time>
      </trkpt>
      <trkpt lat="45.26272" lon="6.30452">
        <ele>1296</ele>
        <time>2014-08-09T13:33:01Z</time>
      </trkpt>
      <trkpt lat="45.26271" lon="6.30439">
        <ele>1297</ele>
        <time>2014-08-09T13:33:06Z</time>
      </trkpt>
      <trkpt lat="45.2627" lon="6.30423">
        <ele>1298</ele>
        <time>2014-08-09T13:33:12Z</time>
      </trkpt>
      <trkpt lat="45.2627" lon="6.3041">
        <ele>1301</ele>
        <time>2014-08-09T13:33:16Z</time>
      </trkpt>
      <trkpt lat="45.26268" lon="6.30396">
        <ele>1301</ele>
        <time>2014-08-09T13:33:23Z</time>
      </trkpt>
      <trkpt lat="45.26267" lon="6.30383">
        <ele>1302</ele>
        <time>2014-08-09T13:33:32Z</time>
      </trkpt>
      <trkpt lat="45.26267" lon="6.30369">
        <ele>1303</ele>
        <time>2014-08-09T13:33:45Z</time>
      </trkpt>
      <trkpt lat="45.26266" lon="6.30356">
        <ele>1304</ele>
        <time>2014-08-09T13:33:56Z</time>
      </trkpt>
      <trkpt lat="45.26269" lon="6.30343">
        <ele>1305</ele>
        <time>2014-08-09T13:34:14Z</time>
      </trkpt>
      <trkpt lat="45.26279" lon="6.30344">
        <ele>1304</ele>
        <time>2014-08-09T13:34:36Z</time>
      </trkpt>
      <trkpt lat="45.26284" lon="6.30333">
        <ele>1313</ele>
        <time>2014-08-09T13:35:12Z</time>
      </trkpt>
      <trkpt lat="45.26278" lon="6.30344">
        <ele>1304</ele>
        <time>2014-08-09T13:35:25Z</time>
      </trkpt>
      <trkpt lat="45.26269" lon="6.30335">
        <ele>1306</ele>
        <time>2014-08-09T13:36:08Z</time>
      </trkpt>
      <trkpt lat="45.26268" lon="6.30321">
        <ele>1314</ele>
        <time>2014-08-09T13:36:41Z</time>
      </trkpt>
      <trkpt lat="45.2627" lon="6.30335">
        <ele>1306</ele>
        <time>2014-08-09T13:36:59Z</time>
      </trkpt>
      <trkpt lat="45.26262" lon="6.30329">
        <ele>1313</ele>
        <time>2014-08-09T13:37:10Z</time>
      </trkpt>
      <trkpt lat="45.26256" lon="6.3034">
        <ele>1309</ele>
        <time>2014-08-09T13:37:37Z</time>
      </trkpt>
      <trkpt lat="45.26263" lon="6.30328">
        <ele>1314</ele>
        <time>2014-08-09T13:39:03Z</time>
      </trkpt>
      <trkpt lat="45.26272" lon="6.30321">
        <ele>1314</ele>
        <time>2014-08-09T13:39:12Z</time>
      </trkpt>
      <trkpt lat="45.26263" lon="6.30316">
        <ele>1315</ele>
        <time>2014-08-09T13:39:25Z</time>
      </trkpt>
      <trkpt lat="45.26253" lon="6.30316">
        <ele>1315</ele>
        <time>2014-08-09T13:39:30Z</time>
      </trkpt>
      <trkpt lat="45.26243" lon="6.30318">
        <ele>1323</ele>
        <time>2014-08-09T13:39:50Z</time>
      </trkpt>
      <trkpt lat="45.26235" lon="6.30326">
        <ele>1323</ele>
        <time>2014-08-09T13:40:04Z</time>
      </trkpt>
      <trkpt lat="45.26225" lon="6.30325">
        <ele>1327</ele>
        <time>2014-08-09T13:40:14Z</time>
      </trkpt>
      <trkpt lat="45.26216" lon="6.30322">
        <ele>1330</ele>
        <time>2014-08-09T13:40:18Z</time>
      </trkpt>
      <trkpt lat="45.26205" lon="6.30322">
        <ele>1333</ele>
        <time>2014-08-09T13:40:25Z</time>
      </trkpt>
      <trkpt lat="45.26195" lon="6.30321">
        <ele>1334</ele>
        <time>2014-08-09T13:40:32Z</time>
      </trkpt>
      <trkpt lat="45.26187" lon="6.30327">
        <ele>1335</ele>
        <time>2014-08-09T13:40:41Z</time>
      </trkpt>
      <trkpt lat="45.26185" lon="6.30341">
        <ele>1327</ele>
        <time>2014-08-09T13:40:51Z</time>
      </trkpt>
      <trkpt lat="45.26186" lon="6.30354">
        <ele>1325</ele>
        <time>2014-08-09T13:40:59Z</time>
      </trkpt>
      <trkpt lat="45.26181" lon="6.30368">
        <ele>1323</ele>
        <time>2014-08-09T13:41:06Z</time>
      </trkpt>
      <trkpt lat="45.26175" lon="6.30378">
        <ele>1322</ele>
        <time>2014-08-09T13:41:12Z</time>
      </trkpt>
      <trkpt lat="45.26167" lon="6.30388">
        <ele>1322</ele>
        <time>2014-08-09T13:41:19Z</time>
      </trkpt>
      <trkpt lat="45.26159" lon="6.30395">
        <ele>1333</ele>
        <time>2014-08-09T13:41:24Z</time>
      </trkpt>
      <trkpt lat="45.26148" lon="6.30396">
        <ele>1334</ele>
        <time>2014-08-09T13:41:29Z</time>
      </trkpt>
      <trkpt lat="45.26138" lon="6.30395">
        <ele>1336</ele>
        <time>2014-08-09T13:41:34Z</time>
      </trkpt>
      <trkpt lat="45.26128" lon="6.30395">
        <ele>1338</ele>
        <time>2014-08-09T13:41:39Z</time>
      </trkpt>
      <trkpt lat="45.26118" lon="6.30396">
        <ele>1339</ele>
        <time>2014-08-09T13:41:45Z</time>
      </trkpt>
      <trkpt lat="45.26108" lon="6.30397">
        <ele>1339</ele>
        <time>2014-08-09T13:41:51Z</time>
      </trkpt>
      <trkpt lat="45.26098" lon="6.30399">
        <ele>1340</ele>
        <time>2014-08-09T13:41:58Z</time>
      </trkpt>
      <trkpt lat="45.26088" lon="6.304">
        <ele>1340</ele>
        <time>2014-08-09T13:42:05Z</time>
      </trkpt>
      <trkpt lat="45.26078" lon="6.30402">
        <ele>1346</ele>
        <time>2014-08-09T13:42:12Z</time>
      </trkpt>
      <trkpt lat="45.26068" lon="6.30402">
        <ele>1347</ele>
        <time>2014-08-09T13:42:19Z</time>
      </trkpt>
      <trkpt lat="45.26058" lon="6.30405">
        <ele>1349</ele>
        <time>2014-08-09T13:42:27Z</time>
      </trkpt>
      <trkpt lat="45.26048" lon="6.30407">
        <ele>1350</ele>
        <time>2014-08-09T13:42:34Z</time>
      </trkpt>
      <trkpt lat="45.26039" lon="6.30412">
        <ele>1350</ele>
        <time>2014-08-09T13:42:41Z</time>
      </trkpt>
      <trkpt lat="45.26029" lon="6.30414">
        <ele>1350</ele>
        <time>2014-08-09T13:42:47Z</time>
      </trkpt>
      <trkpt lat="45.26018" lon="6.30416">
        <ele>1349</ele>
        <time>2014-08-09T13:42:54Z</time>
      </trkpt>
      <trkpt lat="45.26008" lon="6.30417">
        <ele>1340</ele>
        <time>2014-08-09T13:43:01Z</time>
      </trkpt>
      <trkpt lat="45.25998" lon="6.30419">
        <ele>1343</ele>
        <time>2014-08-09T13:43:09Z</time>
      </trkpt>
      <trkpt lat="45.25988" lon="6.30421">
        <ele>1339</ele>
        <time>2014-08-09T13:43:17Z</time>
      </trkpt>
      <trkpt lat="45.25977" lon="6.3042">
        <ele>1337</ele>
        <time>2014-08-09T13:43:24Z</time>
      </trkpt>
      <trkpt lat="45.25967" lon="6.30417">
        <ele>1336</ele>
        <time>2014-08-09T13:43:31Z</time>
      </trkpt>
      <trkpt lat="45.25956" lon="6.30413">
        <ele>1354</ele>
        <time>2014-08-09T13:43:38Z</time>
      </trkpt>
      <trkpt lat="45.25946" lon="6.30412">
        <ele>1353</ele>
        <time>2014-08-09T13:43:44Z</time>
      </trkpt>
      <trkpt lat="45.25936" lon="6.3041">
        <ele>1352</ele>
        <time>2014-08-09T13:43:51Z</time>
      </trkpt>
      <trkpt lat="45.25925" lon="6.30408">
        <ele>1350</ele>
        <time>2014-08-09T13:43:58Z</time>
      </trkpt>
      <trkpt lat="45.25915" lon="6.30405">
        <ele>1350</ele>
        <time>2014-08-09T13:44:04Z</time>
      </trkpt>
      <trkpt lat="45.25904" lon="6.30404">
        <ele>1352</ele>
        <time>2014-08-09T13:44:10Z</time>
      </trkpt>
      <trkpt lat="45.25895" lon="6.304">
        <ele>1354</ele>
        <time>2014-08-09T13:44:16Z</time>
      </trkpt>
      <trkpt lat="45.25885" lon="6.30397">
        <ele>1355</ele>
        <time>2014-08-09T13:44:22Z</time>
      </trkpt>
      <trkpt lat="45.25875" lon="6.30394">
        <ele>1356</ele>
        <time>2014-08-09T13:44:28Z</time>
      </trkpt>
      <trkpt lat="45.25864" lon="6.30391">
        <ele>1356</ele>
        <time>2014-08-09T13:44:35Z</time>
      </trkpt>
      <trkpt lat="45.25855" lon="6.30388">
        <ele>1356</ele>
        <time>2014-08-09T13:44:41Z</time>
      </trkpt>
      <trkpt lat="45.25846" lon="6.30385">
        <ele>1357</ele>
        <time>2014-08-09T13:44:47Z</time>
      </trkpt>
      <trkpt lat="45.25835" lon="6.30383">
        <ele>1357</ele>
        <time>2014-08-09T13:44:55Z</time>
      </trkpt>
      <trkpt lat="45.25825" lon="6.30382">
        <ele>1357</ele>
        <time>2014-08-09T13:45:02Z</time>
      </trkpt>
      <trkpt lat="45.25816" lon="6.30381">
        <ele>1358</ele>
        <time>2014-08-09T13:45:09Z</time>
      </trkpt>
      <trkpt lat="45.25806" lon="6.30381">
        <ele>1358</ele>
        <time>2014-08-09T13:45:20Z</time>
      </trkpt>
      <trkpt lat="45.25796" lon="6.30379">
        <ele>1358</ele>
        <time>2014-08-09T13:45:26Z</time>
      </trkpt>
      <trkpt lat="45.25785" lon="6.30376">
        <ele>1359</ele>
        <time>2014-08-09T13:45:32Z</time>
      </trkpt>
      <trkpt lat="45.25776" lon="6.30371">
        <ele>1359</ele>
        <time>2014-08-09T13:45:38Z</time>
      </trkpt>
      <trkpt lat="45.25767" lon="6.30365">
        <ele>1361</ele>
        <time>2014-08-09T13:45:44Z</time>
      </trkpt>
      <trkpt lat="45.25758" lon="6.30359">
        <ele>1362</ele>
        <time>2014-08-09T13:45:50Z</time>
      </trkpt>
      <trkpt lat="45.25748" lon="6.30352">
        <ele>1361</ele>
        <time>2014-08-09T13:45:56Z</time>
      </trkpt>
      <trkpt lat="45.25739" lon="6.30346">
        <ele>1362</ele>
        <time>2014-08-09T13:46:03Z</time>
      </trkpt>
      <trkpt lat="45.25729" lon="6.30341">
        <ele>1361</ele>
        <time>2014-08-09T13:46:10Z</time>
      </trkpt>
      <trkpt lat="45.2572" lon="6.30333">
        <ele>1373</ele>
        <time>2014-08-09T13:46:16Z</time>
      </trkpt>
      <trkpt lat="45.2571" lon="6.30328">
        <ele>1372</ele>
        <time>2014-08-09T13:46:22Z</time>
      </trkpt>
      <trkpt lat="45.25701" lon="6.30323">
        <ele>1372</ele>
        <time>2014-08-09T13:46:28Z</time>
      </trkpt>
      <trkpt lat="45.25691" lon="6.30316">
        <ele>1371</ele>
        <time>2014-08-09T13:46:34Z</time>
      </trkpt>
      <trkpt lat="45.25681" lon="6.3031">
        <ele>1371</ele>
        <time>2014-08-09T13:46:40Z</time>
      </trkpt>
      <trkpt lat="45.25675" lon="6.30299">
        <ele>1373</ele>
        <time>2014-08-09T13:46:46Z</time>
      </trkpt>
      <trkpt lat="45.25675" lon="6.30286">
        <ele>1375</ele>
        <time>2014-08-09T13:46:58Z</time>
      </trkpt>
      <trkpt lat="45.25671" lon="6.30273">
        <ele>1377</ele>
        <time>2014-08-09T13:47:11Z</time>
      </trkpt>
      <trkpt lat="45.25663" lon="6.30263">
        <ele>1373</ele>
        <time>2014-08-09T13:47:29Z</time>
      </trkpt>
      <trkpt lat="45.25657" lon="6.30254">
        <ele>1374</ele>
        <time>2014-08-09T13:47:44Z</time>
      </trkpt>
      <trkpt lat="45.25655" lon="6.3024">
        <ele>1381</ele>
        <time>2014-08-09T13:48:06Z</time>
      </trkpt>
      <trkpt lat="45.25658" lon="6.30228">
        <ele>1382</ele>
        <time>2014-08-09T13:48:44Z</time>
      </trkpt>
      <trkpt lat="45.25661" lon="6.30215">
        <ele>1384</ele>
        <time>2014-08-09T13:49:02Z</time>
      </trkpt>
      <trkpt lat="45.25664" lon="6.30202">
        <ele>1386</ele>
        <time>2014-08-09T13:49:23Z</time>
      </trkpt>
      <trkpt lat="45.25661" lon="6.3019">
        <ele>1389</ele>
        <time>2014-08-09T13:49:42Z</time>
      </trkpt>
      <trkpt lat="45.25658" lon="6.30177">
        <ele>1392</ele>
        <time>2014-08-09T13:49:58Z</time>
      </trkpt>
      <trkpt lat="45.25656" lon="6.30165">
        <ele>1399</ele>
        <time>2014-08-09T13:50:10Z</time>
      </trkpt>
      <trkpt lat="45.25651" lon="6.30153">
        <ele>1400</ele>
        <time>2014-08-09T13:50:23Z</time>
      </trkpt>
      <trkpt lat="45.25646" lon="6.30141">
        <ele>1401</ele>
        <time>2014-08-09T13:50:37Z</time>
      </trkpt>
      <trkpt lat="45.25642" lon="6.3013">
        <ele>1402</ele>
        <time>2014-08-09T13:50:51Z</time>
      </trkpt>
      <trkpt lat="45.25636" lon="6.30119">
        <ele>1403</ele>
        <time>2014-08-09T13:51:06Z</time>
      </trkpt>
      <trkpt lat="45.25632" lon="6.30107">
        <ele>1404</ele>
        <time>2014-08-09T13:51:21Z</time>
      </trkpt>
      <trkpt lat="45.25625" lon="6.30097">
        <ele>1404</ele>
        <time>2014-08-09T13:51:42Z</time>
      </trkpt>
      <trkpt lat="45.25618" lon="6.30088">
        <ele>1403</ele>
        <time>2014-08-09T13:52:00Z</time>
      </trkpt>
      <trkpt lat="45.25613" lon="6.30077">
        <ele>1414</ele>
        <time>2014-08-09T13:52:30Z</time>
      </trkpt>
      <trkpt lat="45.25606" lon="6.30069">
        <ele>1413</ele>
        <time>2014-08-09T13:52:50Z</time>
      </trkpt>
      <trkpt lat="45.25604" lon="6.30055">
        <ele>1415</ele>
        <time>2014-08-09T13:53:04Z</time>
      </trkpt>
      <trkpt lat="45.256" lon="6.30042">
        <ele>1417</ele>
        <time>2014-08-09T13:53:18Z</time>
      </trkpt>
      <trkpt lat="45.25595" lon="6.30031">
        <ele>1419</ele>
        <time>2014-08-09T13:53:28Z</time>
      </trkpt>
      <trkpt lat="45.25588" lon="6.30021">
        <ele>1420</ele>
        <time>2014-08-09T13:53:36Z</time>
      </trkpt>
      <trkpt lat="45.25581" lon="6.30012">
        <ele>1414</ele>
        <time>2014-08-09T13:53:42Z</time>
      </trkpt>
      <trkpt lat="45.25573" lon="6.30003">
        <ele>1414</ele>
        <time>2014-08-09T13:53:48Z</time>
      </trkpt>
      <trkpt lat="45.25566" lon="6.29993">
        <ele>1420</ele>
        <time>2014-08-09T13:53:54Z</time>
      </trkpt>
      <trkpt lat="45.25559" lon="6.29984">
        <ele>1419</ele>
        <time>2014-08-09T13:54:00Z</time>
      </trkpt>
      <trkpt lat="45.25552" lon="6.29974">
        <ele>1419</ele>
        <time>2014-08-09T13:54:06Z</time>
      </trkpt>
      <trkpt lat="45.25548" lon="6.29963">
        <ele>1420</ele>
        <time>2014-08-09T13:54:12Z</time>
      </trkpt>
      <trkpt lat="45.25542" lon="6.29949">
        <ele>1420</ele>
        <time>2014-08-09T13:54:18Z</time>
      </trkpt>
      <trkpt lat="45.25536" lon="6.29938">
        <ele>1420</ele>
        <time>2014-08-09T13:54:24Z</time>
      </trkpt>
      <trkpt lat="45.25529" lon="6.29927">
        <ele>1420</ele>
        <time>2014-08-09T13:54:29Z</time>
      </trkpt>
      <trkpt lat="45.25522" lon="6.29918">
        <ele>1420</ele>
        <time>2014-08-09T13:54:34Z</time>
      </trkpt>
      <trkpt lat="45.25515" lon="6.29907">
        <ele>1427</ele>
        <time>2014-08-09T13:54:40Z</time>
      </trkpt>
      <trkpt lat="45.2551" lon="6.29894">
        <ele>1428</ele>
        <time>2014-08-09T13:54:46Z</time>
      </trkpt>
      <trkpt lat="45.25505" lon="6.29883">
        <ele>1430</ele>
        <time>2014-08-09T13:54:53Z</time>
      </trkpt>
      <trkpt lat="45.25502" lon="6.2987">
        <ele>1432</ele>
        <time>2014-08-09T13:55:01Z</time>
      </trkpt>
      <trkpt lat="45.255" lon="6.29856">
        <ele>1422</ele>
        <time>2014-08-09T13:55:09Z</time>
      </trkpt>
      <trkpt lat="45.25493" lon="6.29845">
        <ele>1425</ele>
        <time>2014-08-09T13:55:17Z</time>
      </trkpt>
      <trkpt lat="45.25488" lon="6.29832">
        <ele>1428</ele>
        <time>2014-08-09T13:55:24Z</time>
      </trkpt>
      <trkpt lat="45.25483" lon="6.29821">
        <ele>1426</ele>
        <time>2014-08-09T13:55:31Z</time>
      </trkpt>
      <trkpt lat="45.25477" lon="6.2981">
        <ele>1424</ele>
        <time>2014-08-09T13:55:37Z</time>
      </trkpt>
      <trkpt lat="45.25471" lon="6.29797">
        <ele>1423</ele>
        <time>2014-08-09T13:55:44Z</time>
      </trkpt>
      <trkpt lat="45.25467" lon="6.29785">
        <ele>1423</ele>
        <time>2014-08-09T13:55:50Z</time>
      </trkpt>
      <trkpt lat="45.25463" lon="6.29772">
        <ele>1423</ele>
        <time>2014-08-09T13:55:56Z</time>
      </trkpt>
      <trkpt lat="45.2546" lon="6.29759">
        <ele>1422</ele>
        <time>2014-08-09T13:56:02Z</time>
      </trkpt>
      <trkpt lat="45.25462" lon="6.29742">
        <ele>1423</ele>
        <time>2014-08-09T13:56:06Z</time>
      </trkpt>
      <trkpt lat="45.25465" lon="6.29727">
        <ele>1424</ele>
        <time>2014-08-09T13:56:09Z</time>
      </trkpt>
      <trkpt lat="45.25468" lon="6.29712">
        <ele>1424</ele>
        <time>2014-08-09T13:56:14Z</time>
      </trkpt>
      <trkpt lat="45.25469" lon="6.29697">
        <ele>1424</ele>
        <time>2014-08-09T13:56:19Z</time>
      </trkpt>
      <trkpt lat="45.25472" lon="6.2968">
        <ele>1425</ele>
        <time>2014-08-09T13:56:23Z</time>
      </trkpt>
      <trkpt lat="45.25475" lon="6.29665">
        <ele>1422</ele>
        <time>2014-08-09T13:56:26Z</time>
      </trkpt>
      <trkpt lat="45.25478" lon="6.29651">
        <ele>1422</ele>
        <time>2014-08-09T13:56:29Z</time>
      </trkpt>
      <trkpt lat="45.25483" lon="6.29638">
        <ele>1421</ele>
        <time>2014-08-09T13:56:31Z</time>
      </trkpt>
      <trkpt lat="45.25486" lon="6.29626">
        <ele>1419</ele>
        <time>2014-08-09T13:56:33Z</time>
      </trkpt>
      <trkpt lat="45.25491" lon="6.29609">
        <ele>1419</ele>
        <time>2014-08-09T13:56:35Z</time>
      </trkpt>
      <trkpt lat="45.25498" lon="6.29592">
        <ele>1422</ele>
        <time>2014-08-09T13:56:37Z</time>
      </trkpt>
      <trkpt lat="45.25507" lon="6.29575">
        <ele>1426</ele>
        <time>2014-08-09T13:56:39Z</time>
      </trkpt>
      <trkpt lat="45.25516" lon="6.29559">
        <ele>1426</ele>
        <time>2014-08-09T13:56:41Z</time>
      </trkpt>
      <trkpt lat="45.25526" lon="6.29544">
        <ele>1426</ele>
        <time>2014-08-09T13:56:43Z</time>
      </trkpt>
      <trkpt lat="45.25535" lon="6.29528">
        <ele>1426</ele>
        <time>2014-08-09T13:56:45Z</time>
      </trkpt>
      <trkpt lat="45.25544" lon="6.29512">
        <ele>1426</ele>
        <time>2014-08-09T13:56:47Z</time>
      </trkpt>
      <trkpt lat="45.25554" lon="6.295">
        <ele>1417</ele>
        <time>2014-08-09T13:56:49Z</time>
      </trkpt>
      <trkpt lat="45.25564" lon="6.29489">
        <ele>1419</ele>
        <time>2014-08-09T13:56:51Z</time>
      </trkpt>
      <trkpt lat="45.25571" lon="6.29476">
        <ele>1417</ele>
        <time>2014-08-09T13:56:53Z</time>
      </trkpt>
      <trkpt lat="45.25576" lon="6.29459">
        <ele>1414</ele>
        <time>2014-08-09T13:56:55Z</time>
      </trkpt>
      <trkpt lat="45.25583" lon="6.29444">
        <ele>1413</ele>
        <time>2014-08-09T13:56:57Z</time>
      </trkpt>
      <trkpt lat="45.25595" lon="6.29431">
        <ele>1422</ele>
        <time>2014-08-09T13:56:59Z</time>
      </trkpt>
      <trkpt lat="45.25609" lon="6.29415">
        <ele>1415</ele>
        <time>2014-08-09T13:57:01Z</time>
      </trkpt>
      <trkpt lat="45.25621" lon="6.29399">
        <ele>1415</ele>
        <time>2014-08-09T13:57:03Z</time>
      </trkpt>
      <trkpt lat="45.25631" lon="6.29385">
        <ele>1416</ele>
        <time>2014-08-09T13:57:05Z</time>
      </trkpt>
      <trkpt lat="45.25639" lon="6.29373">
        <ele>1416</ele>
        <time>2014-08-09T13:57:07Z</time>
      </trkpt>
      <trkpt lat="45.25646" lon="6.2936">
        <ele>1415</ele>
        <time>2014-08-09T13:57:09Z</time>
      </trkpt>
      <trkpt lat="45.25651" lon="6.29344">
        <ele>1415</ele>
        <time>2014-08-09T13:57:11Z</time>
      </trkpt>
      <trkpt lat="45.25656" lon="6.29327">
        <ele>1411</ele>
        <time>2014-08-09T13:57:13Z</time>
      </trkpt>
      <trkpt lat="45.25661" lon="6.29309">
        <ele>1409</ele>
        <time>2014-08-09T13:57:15Z</time>
      </trkpt>
      <trkpt lat="45.25666" lon="6.29292">
        <ele>1408</ele>
        <time>2014-08-09T13:57:17Z</time>
      </trkpt>
      <trkpt lat="45.25673" lon="6.29277">
        <ele>1421</ele>
        <time>2014-08-09T13:57:19Z</time>
      </trkpt>
      <trkpt lat="45.25679" lon="6.29261">
        <ele>1419</ele>
        <time>2014-08-09T13:57:21Z</time>
      </trkpt>
      <trkpt lat="45.25682" lon="6.29243">
        <ele>1418</ele>
        <time>2014-08-09T13:57:23Z</time>
      </trkpt>
      <trkpt lat="45.25687" lon="6.29229">
        <ele>1420</ele>
        <time>2014-08-09T13:57:25Z</time>
      </trkpt>
      <trkpt lat="45.25694" lon="6.29212">
        <ele>1421</ele>
        <time>2014-08-09T13:57:28Z</time>
      </trkpt>
      <trkpt lat="45.25699" lon="6.29201">
        <ele>1422</ele>
        <time>2014-08-09T13:57:31Z</time>
      </trkpt>
      <trkpt lat="45.25705" lon="6.29188">
        <ele>1422</ele>
        <time>2014-08-09T13:57:36Z</time>
      </trkpt>
      <trkpt lat="45.2571" lon="6.29176">
        <ele>1423</ele>
        <time>2014-08-09T13:57:41Z</time>
      </trkpt>
      <trkpt lat="45.25715" lon="6.29163">
        <ele>1422</ele>
        <time>2014-08-09T13:57:46Z</time>
      </trkpt>
      <trkpt lat="45.2572" lon="6.29151">
        <ele>1422</ele>
        <time>2014-08-09T13:57:51Z</time>
      </trkpt>
      <trkpt lat="45.25727" lon="6.29139">
        <ele>1422</ele>
        <time>2014-08-09T13:57:56Z</time>
      </trkpt>
      <trkpt lat="45.25734" lon="6.29127">
        <ele>1422</ele>
        <time>2014-08-09T13:58:01Z</time>
      </trkpt>
      <trkpt lat="45.2574" lon="6.29115">
        <ele>1423</ele>
        <time>2014-08-09T13:58:06Z</time>
      </trkpt>
      <trkpt lat="45.25746" lon="6.29103">
        <ele>1423</ele>
        <time>2014-08-09T13:58:11Z</time>
      </trkpt>
      <trkpt lat="45.2575" lon="6.29089">
        <ele>1430</ele>
        <time>2014-08-09T13:58:16Z</time>
      </trkpt>
      <trkpt lat="45.25752" lon="6.29074">
        <ele>1432</ele>
        <time>2014-08-09T13:58:22Z</time>
      </trkpt>
      <trkpt lat="45.25752" lon="6.29059">
        <ele>1436</ele>
        <time>2014-08-09T13:58:28Z</time>
      </trkpt>
      <trkpt lat="45.25752" lon="6.29044">
        <ele>1438</ele>
        <time>2014-08-09T13:58:34Z</time>
      </trkpt>
      <trkpt lat="45.2575" lon="6.29028">
        <ele>1437</ele>
        <time>2014-08-09T13:58:39Z</time>
      </trkpt>
      <trkpt lat="45.25749" lon="6.29015">
        <ele>1426</ele>
        <time>2014-08-09T13:58:43Z</time>
      </trkpt>
      <trkpt lat="45.25748" lon="6.28999">
        <ele>1430</ele>
        <time>2014-08-09T13:58:48Z</time>
      </trkpt>
      <trkpt lat="45.25747" lon="6.28985">
        <ele>1428</ele>
        <time>2014-08-09T13:58:53Z</time>
      </trkpt>
      <trkpt lat="45.25746" lon="6.2897">
        <ele>1427</ele>
        <time>2014-08-09T13:58:58Z</time>
      </trkpt>
      <trkpt lat="45.25743" lon="6.28955">
        <ele>1427</ele>
        <time>2014-08-09T13:59:03Z</time>
      </trkpt>
      <trkpt lat="45.25742" lon="6.28941">
        <ele>1428</ele>
        <time>2014-08-09T13:59:08Z</time>
      </trkpt>
      <trkpt lat="45.25738" lon="6.28929">
        <ele>1430</ele>
        <time>2014-08-09T13:59:13Z</time>
      </trkpt>
      <trkpt lat="45.25734" lon="6.28916">
        <ele>1432</ele>
        <time>2014-08-09T13:59:18Z</time>
      </trkpt>
      <trkpt lat="45.25732" lon="6.289">
        <ele>1432</ele>
        <time>2014-08-09T13:59:24Z</time>
      </trkpt>
      <trkpt lat="45.25729" lon="6.28886">
        <ele>1431</ele>
        <time>2014-08-09T13:59:30Z</time>
      </trkpt>
      <trkpt lat="45.25724" lon="6.28875">
        <ele>1431</ele>
        <time>2014-08-09T13:59:37Z</time>
      </trkpt>
      <trkpt lat="45.2572" lon="6.28862">
        <ele>1432</ele>
        <time>2014-08-09T13:59:43Z</time>
      </trkpt>
      <trkpt lat="45.25719" lon="6.28849">
        <ele>1432</ele>
        <time>2014-08-09T13:59:49Z</time>
      </trkpt>
      <trkpt lat="45.25715" lon="6.28837">
        <ele>1432</ele>
        <time>2014-08-09T13:59:56Z</time>
      </trkpt>
      <trkpt lat="45.25721" lon="6.28826">
        <ele>1436</ele>
        <time>2014-08-09T14:00:06Z</time>
      </trkpt>
      <trkpt lat="45.25727" lon="6.28815">
        <ele>1437</ele>
        <time>2014-08-09T14:00:15Z</time>
      </trkpt>
      <trkpt lat="45.25736" lon="6.28807">
        <ele>1437</ele>
        <time>2014-08-09T14:00:26Z</time>
      </trkpt>
      <trkpt lat="45.25744" lon="6.28801">
        <ele>1438</ele>
        <time>2014-08-09T14:00:37Z</time>
      </trkpt>
      <trkpt lat="45.25753" lon="6.28803">
        <ele>1448</ele>
        <time>2014-08-09T14:00:50Z</time>
      </trkpt>
      <trkpt lat="45.25762" lon="6.28806">
        <ele>1448</ele>
        <time>2014-08-09T14:01:11Z</time>
      </trkpt>
      <trkpt lat="45.25771" lon="6.28802">
        <ele>1450</ele>
        <time>2014-08-09T14:01:31Z</time>
      </trkpt>
      <trkpt lat="45.25781" lon="6.28802">
        <ele>1451</ele>
        <time>2014-08-09T14:01:52Z</time>
      </trkpt>
      <trkpt lat="45.2579" lon="6.28798">
        <ele>1452</ele>
        <time>2014-08-09T14:02:15Z</time>
      </trkpt>
      <trkpt lat="45.25798" lon="6.2879">
        <ele>1453</ele>
        <time>2014-08-09T14:02:27Z</time>
      </trkpt>
      <trkpt lat="45.25807" lon="6.28785">
        <ele>1454</ele>
        <time>2014-08-09T14:02:40Z</time>
      </trkpt>
      <trkpt lat="45.25816" lon="6.28779">
        <ele>1455</ele>
        <time>2014-08-09T14:02:51Z</time>
      </trkpt>
      <trkpt lat="45.25825" lon="6.28775">
        <ele>1456</ele>
        <time>2014-08-09T14:03:04Z</time>
      </trkpt>
      <trkpt lat="45.25834" lon="6.2877">
        <ele>1468</ele>
        <time>2014-08-09T14:03:19Z</time>
      </trkpt>
      <trkpt lat="45.25843" lon="6.28766">
        <ele>1468</ele>
        <time>2014-08-09T14:03:35Z</time>
      </trkpt>
      <trkpt lat="45.25852" lon="6.28764">
        <ele>1470</ele>
        <time>2014-08-09T14:03:46Z</time>
      </trkpt>
      <trkpt lat="45.25861" lon="6.28758">
        <ele>1471</ele>
        <time>2014-08-09T14:03:59Z</time>
      </trkpt>
      <trkpt lat="45.25868" lon="6.28749">
        <ele>1473</ele>
        <time>2014-08-09T14:04:09Z</time>
      </trkpt>
      <trkpt lat="45.25876" lon="6.2874">
        <ele>1474</ele>
        <time>2014-08-09T14:04:20Z</time>
      </trkpt>
      <trkpt lat="45.25883" lon="6.28732">
        <ele>1475</ele>
        <time>2014-08-09T14:04:40Z</time>
      </trkpt>
      <trkpt lat="45.25892" lon="6.28726">
        <ele>1477</ele>
        <time>2014-08-09T14:05:03Z</time>
      </trkpt>
      <trkpt lat="45.25899" lon="6.28717">
        <ele>1477</ele>
        <time>2014-08-09T14:05:24Z</time>
      </trkpt>
      <trkpt lat="45.25901" lon="6.28704">
        <ele>1477</ele>
        <time>2014-08-09T14:05:47Z</time>
      </trkpt>
      <trkpt lat="45.25903" lon="6.2869">
        <ele>1478</ele>
        <time>2014-08-09T14:05:58Z</time>
      </trkpt>
      <trkpt lat="45.25906" lon="6.28678">
        <ele>1480</ele>
        <time>2014-08-09T14:06:04Z</time>
      </trkpt>
      <trkpt lat="45.25908" lon="6.28664">
        <ele>1483</ele>
        <time>2014-08-09T14:06:13Z</time>
      </trkpt>
      <trkpt lat="45.25907" lon="6.28651">
        <ele>1482</ele>
        <time>2014-08-09T14:06:24Z</time>
      </trkpt>
      <trkpt lat="45.25911" lon="6.28638">
        <ele>1482</ele>
        <time>2014-08-09T14:06:37Z</time>
      </trkpt>
      <trkpt lat="45.25918" lon="6.28629">
        <ele>1492</ele>
        <time>2014-08-09T14:06:49Z</time>
      </trkpt>
      <trkpt lat="45.25923" lon="6.28618">
        <ele>1493</ele>
        <time>2014-08-09T14:07:11Z</time>
      </trkpt>
      <trkpt lat="45.25922" lon="6.28604">
        <ele>1493</ele>
        <time>2014-08-09T14:07:29Z</time>
      </trkpt>
      <trkpt lat="45.25922" lon="6.2859">
        <ele>1492</ele>
        <time>2014-08-09T14:07:45Z</time>
      </trkpt>
      <trkpt lat="45.25923" lon="6.28576">
        <ele>1494</ele>
        <time>2014-08-09T14:07:58Z</time>
      </trkpt>
      <trkpt lat="45.25925" lon="6.28561">
        <ele>1496</ele>
        <time>2014-08-09T14:08:09Z</time>
      </trkpt>
      <trkpt lat="45.25932" lon="6.28551">
        <ele>1497</ele>
        <time>2014-08-09T14:08:15Z</time>
      </trkpt>
      <trkpt lat="45.25939" lon="6.28541">
        <ele>1498</ele>
        <time>2014-08-09T14:08:25Z</time>
      </trkpt>
      <trkpt lat="45.25946" lon="6.28531">
        <ele>1498</ele>
        <time>2014-08-09T14:08:33Z</time>
      </trkpt>
      <trkpt lat="45.25954" lon="6.28523">
        <ele>1499</ele>
        <time>2014-08-09T14:08:40Z</time>
      </trkpt>
      <trkpt lat="45.25961" lon="6.28514">
        <ele>1500</ele>
        <time>2014-08-09T14:08:48Z</time>
      </trkpt>
      <trkpt lat="45.25967" lon="6.28502">
        <ele>1500</ele>
        <time>2014-08-09T14:08:57Z</time>
      </trkpt>
      <trkpt lat="45.25966" lon="6.28487">
        <ele>1502</ele>
        <time>2014-08-09T14:09:13Z</time>
      </trkpt>
      <trkpt lat="45.25967" lon="6.28473">
        <ele>1502</ele>
        <time>2014-08-09T14:09:21Z</time>
      </trkpt>
      <trkpt lat="45.25967" lon="6.28459">
        <ele>1502</ele>
        <time>2014-08-09T14:09:29Z</time>
      </trkpt>
      <trkpt lat="45.25964" lon="6.28446">
        <ele>1502</ele>
        <time>2014-08-09T14:09:37Z</time>
      </trkpt>
      <trkpt lat="45.25962" lon="6.28434">
        <ele>1502</ele>
        <time>2014-08-09T14:09:45Z</time>
      </trkpt>
      <trkpt lat="45.25957" lon="6.28421">
        <ele>1502</ele>
        <time>2014-08-09T14:09:54Z</time>
      </trkpt>
      <trkpt lat="45.25951" lon="6.28409">
        <ele>1503</ele>
        <time>2014-08-09T14:10:03Z</time>
      </trkpt>
      <trkpt lat="45.25948" lon="6.28396">
        <ele>1503</ele>
        <time>2014-08-09T14:10:10Z</time>
      </trkpt>
      <trkpt lat="45.25947" lon="6.28381">
        <ele>1504</ele>
        <time>2014-08-09T14:10:17Z</time>
      </trkpt>
      <trkpt lat="45.25951" lon="6.28369">
        <ele>1504</ele>
        <time>2014-08-09T14:10:26Z</time>
      </trkpt>
      <trkpt lat="45.25959" lon="6.28358">
        <ele>1505</ele>
        <time>2014-08-09T14:10:37Z</time>
      </trkpt>
      <trkpt lat="45.25965" lon="6.28348">
        <ele>1506</ele>
        <time>2014-08-09T14:10:46Z</time>
      </trkpt>
      <trkpt lat="45.2597" lon="6.28337">
        <ele>1507</ele>
        <time>2014-08-09T14:11:00Z</time>
      </trkpt>
      <trkpt lat="45.25974" lon="6.28324">
        <ele>1511</ele>
        <time>2014-08-09T14:11:13Z</time>
      </trkpt>
      <trkpt lat="45.25977" lon="6.28311">
        <ele>1511</ele>
        <time>2014-08-09T14:11:24Z</time>
      </trkpt>
      <trkpt lat="45.25979" lon="6.28298">
        <ele>1512</ele>
        <time>2014-08-09T14:11:40Z</time>
      </trkpt>
      <trkpt lat="45.2598" lon="6.28284">
        <ele>1513</ele>
        <time>2014-08-09T14:11:57Z</time>
      </trkpt>
      <trkpt lat="45.25977" lon="6.28272">
        <ele>1514</ele>
        <time>2014-08-09T14:12:21Z</time>
      </trkpt>
      <trkpt lat="45.25975" lon="6.28258">
        <ele>1515</ele>
        <time>2014-08-09T14:12:37Z</time>
      </trkpt>
      <trkpt lat="45.25975" lon="6.28244">
        <ele>1520</ele>
        <time>2014-08-09T14:12:48Z</time>
      </trkpt>
      <trkpt lat="45.25974" lon="6.28231">
        <ele>1521</ele>
        <time>2014-08-09T14:12:58Z</time>
      </trkpt>
      <trkpt lat="45.25974" lon="6.28216">
        <ele>1522</ele>
        <time>2014-08-09T14:13:11Z</time>
      </trkpt>
      <trkpt lat="45.25972" lon="6.28202">
        <ele>1523</ele>
        <time>2014-08-09T14:13:47Z</time>
      </trkpt>
      <trkpt lat="45.25972" lon="6.28188">
        <ele>1524</ele>
        <time>2014-08-09T14:13:57Z</time>
      </trkpt>
      <trkpt lat="45.25972" lon="6.28174">
        <ele>1525</ele>
        <time>2014-08-09T14:14:10Z</time>
      </trkpt>
      <trkpt lat="45.2597" lon="6.2816">
        <ele>1532</ele>
        <time>2014-08-09T14:14:21Z</time>
      </trkpt>
      <trkpt lat="45.25971" lon="6.28147">
        <ele>1533</ele>
        <time>2014-08-09T14:14:30Z</time>
      </trkpt>
      <trkpt lat="45.25974" lon="6.28134">
        <ele>1534</ele>
        <time>2014-08-09T14:14:42Z</time>
      </trkpt>
      <trkpt lat="45.25977" lon="6.28122">
        <ele>1535</ele>
        <time>2014-08-09T14:14:55Z</time>
      </trkpt>
      <trkpt lat="45.25981" lon="6.2811">
        <ele>1536</ele>
        <time>2014-08-09T14:15:10Z</time>
      </trkpt>
      <trkpt lat="45.25986" lon="6.28099">
        <ele>1539</ele>
        <time>2014-08-09T14:15:25Z</time>
      </trkpt>
      <trkpt lat="45.25991" lon="6.28086">
        <ele>1542</ele>
        <time>2014-08-09T14:15:47Z</time>
      </trkpt>
      <trkpt lat="45.25993" lon="6.28073">
        <ele>1544</ele>
        <time>2014-08-09T14:16:20Z</time>
      </trkpt>
      <trkpt lat="45.25996" lon="6.28061">
        <ele>1544</ele>
        <time>2014-08-09T14:16:39Z</time>
      </trkpt>
      <trkpt lat="45.25998" lon="6.28047">
        <ele>1544</ele>
        <time>2014-08-09T14:17:04Z</time>
      </trkpt>
      <trkpt lat="45.25998" lon="6.28034">
        <ele>1545</ele>
        <time>2014-08-09T14:17:22Z</time>
      </trkpt>
      <trkpt lat="45.26" lon="6.2802">
        <ele>1551</ele>
        <time>2014-08-09T14:17:36Z</time>
      </trkpt>
      <trkpt lat="45.26005" lon="6.28009">
        <ele>1552</ele>
        <time>2014-08-09T14:17:52Z</time>
      </trkpt>
      <trkpt lat="45.26008" lon="6.27996">
        <ele>1556</ele>
        <time>2014-08-09T14:18:03Z</time>
      </trkpt>
      <trkpt lat="45.26007" lon="6.27983">
        <ele>1558</ele>
        <time>2014-08-09T14:18:18Z</time>
      </trkpt>
      <trkpt lat="45.26005" lon="6.2797">
        <ele>1559</ele>
        <time>2014-08-09T14:18:31Z</time>
      </trkpt>
      <trkpt lat="45.26002" lon="6.27957">
        <ele>1561</ele>
        <time>2014-08-09T14:18:45Z</time>
      </trkpt>
      <trkpt lat="45.26" lon="6.27944">
        <ele>1556</ele>
        <time>2014-08-09T14:18:58Z</time>
      </trkpt>
      <trkpt lat="45.25998" lon="6.27931">
        <ele>1559</ele>
        <time>2014-08-09T14:19:11Z</time>
      </trkpt>
      <trkpt lat="45.25998" lon="6.27917">
        <ele>1564</ele>
        <time>2014-08-09T14:19:25Z</time>
      </trkpt>
      <trkpt lat="45.25996" lon="6.27903">
        <ele>1563</ele>
        <time>2014-08-09T14:19:41Z</time>
      </trkpt>
      <trkpt lat="45.25995" lon="6.27889">
        <ele>1563</ele>
        <time>2014-08-09T14:19:48Z</time>
      </trkpt>
      <trkpt lat="45.25993" lon="6.27875">
        <ele>1564</ele>
        <time>2014-08-09T14:19:56Z</time>
      </trkpt>
      <trkpt lat="45.25996" lon="6.27861">
        <ele>1566</ele>
        <time>2014-08-09T14:20:04Z</time>
      </trkpt>
      <trkpt lat="45.25996" lon="6.27848">
        <ele>1569</ele>
        <time>2014-08-09T14:20:11Z</time>
      </trkpt>
      <trkpt lat="45.25995" lon="6.27834">
        <ele>1572</ele>
        <time>2014-08-09T14:20:17Z</time>
      </trkpt>
      <trkpt lat="45.25993" lon="6.27819">
        <ele>1572</ele>
        <time>2014-08-09T14:20:24Z</time>
      </trkpt>
      <trkpt lat="45.25988" lon="6.27807">
        <ele>1571</ele>
        <time>2014-08-09T14:20:29Z</time>
      </trkpt>
      <trkpt lat="45.25981" lon="6.27795">
        <ele>1570</ele>
        <time>2014-08-09T14:20:34Z</time>
      </trkpt>
      <trkpt lat="45.25976" lon="6.27783">
        <ele>1571</ele>
        <time>2014-08-09T14:20:39Z</time>
      </trkpt>
      <trkpt lat="45.25972" lon="6.27772">
        <ele>1571</ele>
        <time>2014-08-09T14:20:43Z</time>
      </trkpt>
      <trkpt lat="45.25967" lon="6.27759">
        <ele>1571</ele>
        <time>2014-08-09T14:20:47Z</time>
      </trkpt>
      <trkpt lat="45.25962" lon="6.27747">
        <ele>1574</ele>
        <time>2014-08-09T14:20:52Z</time>
      </trkpt>
      <trkpt lat="45.25956" lon="6.27736">
        <ele>1574</ele>
        <time>2014-08-09T14:20:59Z</time>
      </trkpt>
      <trkpt lat="45.25952" lon="6.27722">
        <ele>1574</ele>
        <time>2014-08-09T14:21:07Z</time>
      </trkpt>
      <trkpt lat="45.25949" lon="6.27709">
        <ele>1575</ele>
        <time>2014-08-09T14:21:15Z</time>
      </trkpt>
      <trkpt lat="45.25949" lon="6.27695">
        <ele>1575</ele>
        <time>2014-08-09T14:21:23Z</time>
      </trkpt>
      <trkpt lat="45.25946" lon="6.27682">
        <ele>1576</ele>
        <time>2014-08-09T14:21:33Z</time>
      </trkpt>
      <trkpt lat="45.25946" lon="6.27668">
        <ele>1576</ele>
        <time>2014-08-09T14:21:42Z</time>
      </trkpt>
      <trkpt lat="45.25946" lon="6.27653">
        <ele>1582</ele>
        <time>2014-08-09T14:21:53Z</time>
      </trkpt>
      <trkpt lat="45.25945" lon="6.27639">
        <ele>1583</ele>
        <time>2014-08-09T14:22:01Z</time>
      </trkpt>
      <trkpt lat="45.25944" lon="6.27626">
        <ele>1585</ele>
        <time>2014-08-09T14:22:11Z</time>
      </trkpt>
      <trkpt lat="45.25942" lon="6.27613">
        <ele>1586</ele>
        <time>2014-08-09T14:22:20Z</time>
      </trkpt>
      <trkpt lat="45.25938" lon="6.276">
        <ele>1586</ele>
        <time>2014-08-09T14:22:32Z</time>
      </trkpt>
      <trkpt lat="45.25934" lon="6.27588">
        <ele>1587</ele>
        <time>2014-08-09T14:22:54Z</time>
      </trkpt>
      <trkpt lat="45.25926" lon="6.27579">
        <ele>1592</ele>
        <time>2014-08-09T14:23:05Z</time>
      </trkpt>
      <trkpt lat="45.25919" lon="6.2757">
        <ele>1593</ele>
        <time>2014-08-09T14:23:21Z</time>
      </trkpt>
      <trkpt lat="45.25914" lon="6.27559">
        <ele>1592</ele>
        <time>2014-08-09T14:23:36Z</time>
      </trkpt>
      <trkpt lat="45.25909" lon="6.27547">
        <ele>1593</ele>
        <time>2014-08-09T14:23:50Z</time>
      </trkpt>
      <trkpt lat="45.25907" lon="6.27533">
        <ele>1595</ele>
        <time>2014-08-09T14:24:03Z</time>
      </trkpt>
      <trkpt lat="45.25902" lon="6.27522">
        <ele>1597</ele>
        <time>2014-08-09T14:24:15Z</time>
      </trkpt>
      <trkpt lat="45.25898" lon="6.27509">
        <ele>1598</ele>
        <time>2014-08-09T14:24:23Z</time>
      </trkpt>
      <trkpt lat="45.25893" lon="6.27498">
        <ele>1607</ele>
        <time>2014-08-09T14:24:30Z</time>
      </trkpt>
      <trkpt lat="45.25886" lon="6.27488">
        <ele>1607</ele>
        <time>2014-08-09T14:24:39Z</time>
      </trkpt>
      <trkpt lat="45.25878" lon="6.2748">
        <ele>1608</ele>
        <time>2014-08-09T14:24:48Z</time>
      </trkpt>
      <trkpt lat="45.25871" lon="6.2747">
        <ele>1609</ele>
        <time>2014-08-09T14:24:58Z</time>
      </trkpt>
      <trkpt lat="45.25863" lon="6.27462">
        <ele>1609</ele>
        <time>2014-08-09T14:25:10Z</time>
      </trkpt>
      <trkpt lat="45.25854" lon="6.27458">
        <ele>1610</ele>
        <time>2014-08-09T14:25:18Z</time>
      </trkpt>
      <trkpt lat="45.25845" lon="6.27464">
        <ele>1609</ele>
        <time>2014-08-09T14:25:25Z</time>
      </trkpt>
      <trkpt lat="45.25836" lon="6.27465">
        <ele>1608</ele>
        <time>2014-08-09T14:25:34Z</time>
      </trkpt>
      <trkpt lat="45.25826" lon="6.27467">
        <ele>1608</ele>
        <time>2014-08-09T14:25:39Z</time>
      </trkpt>
      <trkpt lat="45.25816" lon="6.27463">
        <ele>1609</ele>
        <time>2014-08-09T14:25:46Z</time>
      </trkpt>
      <trkpt lat="45.25807" lon="6.27456">
        <ele>1610</ele>
        <time>2014-08-09T14:25:56Z</time>
      </trkpt>
      <trkpt lat="45.258" lon="6.27446">
        <ele>1611</ele>
        <time>2014-08-09T14:26:07Z</time>
      </trkpt>
      <trkpt lat="45.25794" lon="6.27435">
        <ele>1612</ele>
        <time>2014-08-09T14:26:17Z</time>
      </trkpt>
      <trkpt lat="45.25792" lon="6.27421">
        <ele>1613</ele>
        <time>2014-08-09T14:26:30Z</time>
      </trkpt>
      <trkpt lat="45.25786" lon="6.27409">
        <ele>1623</ele>
        <time>2014-08-09T14:26:39Z</time>
      </trkpt>
      <trkpt lat="45.25779" lon="6.27401">
        <ele>1623</ele>
        <time>2014-08-09T14:26:48Z</time>
      </trkpt>
      <trkpt lat="45.25775" lon="6.27389">
        <ele>1624</ele>
        <time>2014-08-09T14:26:55Z</time>
      </trkpt>
      <trkpt lat="45.2577" lon="6.27377">
        <ele>1625</ele>
        <time>2014-08-09T14:27:05Z</time>
      </trkpt>
      <trkpt lat="45.25767" lon="6.27364">
        <ele>1626</ele>
        <time>2014-08-09T14:27:15Z</time>
      </trkpt>
      <trkpt lat="45.25765" lon="6.2735">
        <ele>1626</ele>
        <time>2014-08-09T14:27:25Z</time>
      </trkpt>
      <trkpt lat="45.25766" lon="6.27337">
        <ele>1627</ele>
        <time>2014-08-09T14:27:31Z</time>
      </trkpt>
      <trkpt lat="45.25761" lon="6.27324">
        <ele>1633</ele>
        <time>2014-08-09T14:27:39Z</time>
      </trkpt>
      <trkpt lat="45.25753" lon="6.27315">
        <ele>1634</ele>
        <time>2014-08-09T14:27:45Z</time>
      </trkpt>
      <trkpt lat="45.25745" lon="6.27309">
        <ele>1632</ele>
        <time>2014-08-09T14:27:51Z</time>
      </trkpt>
      <trkpt lat="45.25737" lon="6.27301">
        <ele>1633</ele>
        <time>2014-08-09T14:27:57Z</time>
      </trkpt>
      <trkpt lat="45.25729" lon="6.27295">
        <ele>1634</ele>
        <time>2014-08-09T14:28:03Z</time>
      </trkpt>
      <trkpt lat="45.2572" lon="6.27291">
        <ele>1634</ele>
        <time>2014-08-09T14:28:09Z</time>
      </trkpt>
      <trkpt lat="45.25711" lon="6.27285">
        <ele>1635</ele>
        <time>2014-08-09T14:28:18Z</time>
      </trkpt>
      <trkpt lat="45.25702" lon="6.2728">
        <ele>1635</ele>
        <time>2014-08-09T14:28:23Z</time>
      </trkpt>
      <trkpt lat="45.25694" lon="6.27273">
        <ele>1635</ele>
        <time>2014-08-09T14:28:29Z</time>
      </trkpt>
      <trkpt lat="45.25686" lon="6.27263">
        <ele>1635</ele>
        <time>2014-08-09T14:28:36Z</time>
      </trkpt>
      <trkpt lat="45.25681" lon="6.27251">
        <ele>1636</ele>
        <time>2014-08-09T14:28:43Z</time>
      </trkpt>
      <trkpt lat="45.25678" lon="6.27239">
        <ele>1641</ele>
        <time>2014-08-09T14:28:49Z</time>
      </trkpt>
      <trkpt lat="45.25673" lon="6.27226">
        <ele>1642</ele>
        <time>2014-08-09T14:28:57Z</time>
      </trkpt>
      <trkpt lat="45.25677" lon="6.27213">
        <ele>1643</ele>
        <time>2014-08-09T14:29:06Z</time>
      </trkpt>
      <trkpt lat="45.25682" lon="6.27199">
        <ele>1645</ele>
        <time>2014-08-09T14:29:12Z</time>
      </trkpt>
      <trkpt lat="45.25687" lon="6.27186">
        <ele>1645</ele>
        <time>2014-08-09T14:29:18Z</time>
      </trkpt>
      <trkpt lat="45.25695" lon="6.27175">
        <ele>1646</ele>
        <time>2014-08-09T14:29:24Z</time>
      </trkpt>
      <trkpt lat="45.25701" lon="6.27165">
        <ele>1652</ele>
        <time>2014-08-09T14:29:29Z</time>
      </trkpt>
      <trkpt lat="45.25708" lon="6.27155">
        <ele>1653</ele>
        <time>2014-08-09T14:29:39Z</time>
      </trkpt>
      <trkpt lat="45.25713" lon="6.27144">
        <ele>1653</ele>
        <time>2014-08-09T14:29:49Z</time>
      </trkpt>
      <trkpt lat="45.25718" lon="6.27131">
        <ele>1654</ele>
        <time>2014-08-09T14:29:55Z</time>
      </trkpt>
      <trkpt lat="45.2572" lon="6.27117">
        <ele>1655</ele>
        <time>2014-08-09T14:30:02Z</time>
      </trkpt>
      <trkpt lat="45.25722" lon="6.27102">
        <ele>1655</ele>
        <time>2014-08-09T14:30:08Z</time>
      </trkpt>
      <trkpt lat="45.25721" lon="6.27087">
        <ele>1656</ele>
        <time>2014-08-09T14:30:13Z</time>
      </trkpt>
      <trkpt lat="45.25719" lon="6.27073">
        <ele>1660</ele>
        <time>2014-08-09T14:30:18Z</time>
      </trkpt>
      <trkpt lat="45.25717" lon="6.2706">
        <ele>1661</ele>
        <time>2014-08-09T14:30:24Z</time>
      </trkpt>
      <trkpt lat="45.25712" lon="6.27048">
        <ele>1661</ele>
        <time>2014-08-09T14:30:32Z</time>
      </trkpt>
      <trkpt lat="45.25707" lon="6.27036">
        <ele>1661</ele>
        <time>2014-08-09T14:30:40Z</time>
      </trkpt>
      <trkpt lat="45.25701" lon="6.27025">
        <ele>1662</ele>
        <time>2014-08-09T14:30:52Z</time>
      </trkpt>
      <trkpt lat="45.25703" lon="6.27012">
        <ele>1662</ele>
        <time>2014-08-09T14:31:01Z</time>
      </trkpt>
      <trkpt lat="45.25705" lon="6.26998">
        <ele>1667</ele>
        <time>2014-08-09T14:31:09Z</time>
      </trkpt>
      <trkpt lat="45.25706" lon="6.26983">
        <ele>1667</ele>
        <time>2014-08-09T14:31:15Z</time>
      </trkpt>
      <trkpt lat="45.25706" lon="6.26969">
        <ele>1668</ele>
        <time>2014-08-09T14:31:20Z</time>
      </trkpt>
      <trkpt lat="45.25703" lon="6.26956">
        <ele>1668</ele>
        <time>2014-08-09T14:31:28Z</time>
      </trkpt>
      <trkpt lat="45.25701" lon="6.26941">
        <ele>1668</ele>
        <time>2014-08-09T14:31:36Z</time>
      </trkpt>
      <trkpt lat="45.257" lon="6.26927">
        <ele>1668</ele>
        <time>2014-08-09T14:31:43Z</time>
      </trkpt>
      <trkpt lat="45.25696" lon="6.26914">
        <ele>1671</ele>
        <time>2014-08-09T14:31:51Z</time>
      </trkpt>
      <trkpt lat="45.25693" lon="6.269">
        <ele>1671</ele>
        <time>2014-08-09T14:31:58Z</time>
      </trkpt>
      <trkpt lat="45.25694" lon="6.26884">
        <ele>1673</ele>
        <time>2014-08-09T14:32:02Z</time>
      </trkpt>
      <trkpt lat="45.25695" lon="6.2687">
        <ele>1673</ele>
        <time>2014-08-09T14:32:06Z</time>
      </trkpt>
      <trkpt lat="45.25696" lon="6.26855">
        <ele>1674</ele>
        <time>2014-08-09T14:32:11Z</time>
      </trkpt>
      <trkpt lat="45.25696" lon="6.26841">
        <ele>1674</ele>
        <time>2014-08-09T14:32:17Z</time>
      </trkpt>
      <trkpt lat="45.25696" lon="6.26826">
        <ele>1677</ele>
        <time>2014-08-09T14:32:23Z</time>
      </trkpt>
      <trkpt lat="45.25695" lon="6.26813">
        <ele>1677</ele>
        <time>2014-08-09T14:32:30Z</time>
      </trkpt>
      <trkpt lat="45.25694" lon="6.268">
        <ele>1678</ele>
        <time>2014-08-09T14:32:38Z</time>
      </trkpt>
      <trkpt lat="45.25694" lon="6.26786">
        <ele>1678</ele>
        <time>2014-08-09T14:32:47Z</time>
      </trkpt>
      <trkpt lat="45.25696" lon="6.26771">
        <ele>1679</ele>
        <time>2014-08-09T14:32:54Z</time>
      </trkpt>
      <trkpt lat="45.25696" lon="6.26757">
        <ele>1679</ele>
        <time>2014-08-09T14:33:01Z</time>
      </trkpt>
      <trkpt lat="45.25696" lon="6.26744">
        <ele>1681</ele>
        <time>2014-08-09T14:33:05Z</time>
      </trkpt>
      <trkpt lat="45.25694" lon="6.26729">
        <ele>1681</ele>
        <time>2014-08-09T14:33:12Z</time>
      </trkpt>
      <trkpt lat="45.25693" lon="6.26716">
        <ele>1681</ele>
        <time>2014-08-09T14:33:18Z</time>
      </trkpt>
      <trkpt lat="45.25694" lon="6.26701">
        <ele>1682</ele>
        <time>2014-08-09T14:33:23Z</time>
      </trkpt>
      <trkpt lat="45.25694" lon="6.26685">
        <ele>1682</ele>
        <time>2014-08-09T14:33:29Z</time>
      </trkpt>
      <trkpt lat="45.25691" lon="6.26671">
        <ele>1681</ele>
        <time>2014-08-09T14:33:36Z</time>
      </trkpt>
      <trkpt lat="45.25691" lon="6.26656">
        <ele>1683</ele>
        <time>2014-08-09T14:33:41Z</time>
      </trkpt>
      <trkpt lat="45.25691" lon="6.26641">
        <ele>1684</ele>
        <time>2014-08-09T14:33:46Z</time>
      </trkpt>
      <trkpt lat="45.25689" lon="6.26629">
        <ele>1684</ele>
        <time>2014-08-09T14:33:55Z</time>
      </trkpt>
      <trkpt lat="45.25689" lon="6.26614">
        <ele>1685</ele>
        <time>2014-08-09T14:34:00Z</time>
      </trkpt>
      <trkpt lat="45.25691" lon="6.266">
        <ele>1685</ele>
        <time>2014-08-09T14:34:05Z</time>
      </trkpt>
      <trkpt lat="45.25691" lon="6.26587">
        <ele>1685</ele>
        <time>2014-08-09T14:34:09Z</time>
      </trkpt>
      <trkpt lat="45.25693" lon="6.26571">
        <ele>1687</ele>
        <time>2014-08-09T14:34:13Z</time>
      </trkpt>
      <trkpt lat="45.25696" lon="6.26559">
        <ele>1687</ele>
        <time>2014-08-09T14:34:16Z</time>
      </trkpt>
      <trkpt lat="45.25696" lon="6.26544">
        <ele>1688</ele>
        <time>2014-08-09T14:34:20Z</time>
      </trkpt>
      <trkpt lat="45.25697" lon="6.26529">
        <ele>1688</ele>
        <time>2014-08-09T14:34:24Z</time>
      </trkpt>
      <trkpt lat="45.25698" lon="6.26515">
        <ele>1688</ele>
        <time>2014-08-09T14:34:27Z</time>
      </trkpt>
      <trkpt lat="45.25699" lon="6.265">
        <ele>1688</ele>
        <time>2014-08-09T14:34:32Z</time>
      </trkpt>
      <trkpt lat="45.25699" lon="6.26484">
        <ele>1690</ele>
        <time>2014-08-09T14:34:37Z</time>
      </trkpt>
      <trkpt lat="45.25699" lon="6.26469">
        <ele>1690</ele>
        <time>2014-08-09T14:34:41Z</time>
      </trkpt>
      <trkpt lat="45.25699" lon="6.26454">
        <ele>1690</ele>
        <time>2014-08-09T14:34:45Z</time>
      </trkpt>
      <trkpt lat="45.25696" lon="6.26438">
        <ele>1690</ele>
        <time>2014-08-09T14:34:49Z</time>
      </trkpt>
      <trkpt lat="45.25688" lon="6.26425">
        <ele>1689</ele>
        <time>2014-08-09T14:34:53Z</time>
      </trkpt>
      <trkpt lat="45.25682" lon="6.26415">
        <ele>1690</ele>
        <time>2014-08-09T14:34:56Z</time>
      </trkpt>
      <trkpt lat="45.25675" lon="6.26404">
        <ele>1690</ele>
        <time>2014-08-09T14:35:00Z</time>
      </trkpt>
      <trkpt lat="45.25664" lon="6.26395">
        <ele>1686</ele>
        <time>2014-08-09T14:35:04Z</time>
      </trkpt>
      <trkpt lat="45.25655" lon="6.26383">
        <ele>1686</ele>
        <time>2014-08-09T14:35:07Z</time>
      </trkpt>
      <trkpt lat="45.25648" lon="6.26373">
        <ele>1686</ele>
        <time>2014-08-09T14:35:09Z</time>
      </trkpt>
      <trkpt lat="45.25641" lon="6.26362">
        <ele>1686</ele>
        <time>2014-08-09T14:35:11Z</time>
      </trkpt>
      <trkpt lat="45.25636" lon="6.2635">
        <ele>1686</ele>
        <time>2014-08-09T14:35:13Z</time>
      </trkpt>
      <trkpt lat="45.25633" lon="6.26332">
        <ele>1687</ele>
        <time>2014-08-09T14:35:16Z</time>
      </trkpt>
      <trkpt lat="45.2563" lon="6.2632">
        <ele>1687</ele>
        <time>2014-08-09T14:35:19Z</time>
      </trkpt>
      <trkpt lat="45.25628" lon="6.26307">
        <ele>1687</ele>
        <time>2014-08-09T14:35:22Z</time>
      </trkpt>
      <trkpt lat="45.25622" lon="6.26294">
        <ele>1687</ele>
        <time>2014-08-09T14:35:27Z</time>
      </trkpt>
      <trkpt lat="45.2562" lon="6.26279">
        <ele>1687</ele>
        <time>2014-08-09T14:35:31Z</time>
      </trkpt>
      <trkpt lat="45.25615" lon="6.26266">
        <ele>1687</ele>
        <time>2014-08-09T14:35:35Z</time>
      </trkpt>
      <trkpt lat="45.2561" lon="6.26252">
        <ele>1687</ele>
        <time>2014-08-09T14:35:40Z</time>
      </trkpt>
      <trkpt lat="45.25599" lon="6.26246">
        <ele>1688</ele>
        <time>2014-08-09T14:35:45Z</time>
      </trkpt>
      <trkpt lat="45.25589" lon="6.26244">
        <ele>1687</ele>
        <time>2014-08-09T14:35:49Z</time>
      </trkpt>
      <trkpt lat="45.25579" lon="6.26241">
        <ele>1687</ele>
        <time>2014-08-09T14:35:52Z</time>
      </trkpt>
      <trkpt lat="45.25569" lon="6.26235">
        <ele>1687</ele>
        <time>2014-08-09T14:35:55Z</time>
      </trkpt>
      <trkpt lat="45.25559" lon="6.26232">
        <ele>1687</ele>
        <time>2014-08-09T14:35:59Z</time>
      </trkpt>
      <trkpt lat="45.2555" lon="6.26233">
        <ele>1687</ele>
        <time>2014-08-09T14:36:03Z</time>
      </trkpt>
      <trkpt lat="45.25539" lon="6.26241">
        <ele>1688</ele>
        <time>2014-08-09T14:36:07Z</time>
      </trkpt>
      <trkpt lat="45.25529" lon="6.26235">
        <ele>1688</ele>
        <time>2014-08-09T14:36:10Z</time>
      </trkpt>
      <trkpt lat="45.25522" lon="6.26226">
        <ele>1688</ele>
        <time>2014-08-09T14:36:13Z</time>
      </trkpt>
      <trkpt lat="45.25514" lon="6.26217">
        <ele>1688</ele>
        <time>2014-08-09T14:36:16Z</time>
      </trkpt>
      <trkpt lat="45.25505" lon="6.2621">
        <ele>1688</ele>
        <time>2014-08-09T14:36:19Z</time>
      </trkpt>
      <trkpt lat="45.25496" lon="6.26201">
        <ele>1690</ele>
        <time>2014-08-09T14:36:23Z</time>
      </trkpt>
      <trkpt lat="45.25489" lon="6.2619">
        <ele>1690</ele>
        <time>2014-08-09T14:36:28Z</time>
      </trkpt>
      <trkpt lat="45.25481" lon="6.26182">
        <ele>1690</ele>
        <time>2014-08-09T14:36:32Z</time>
      </trkpt>
      <trkpt lat="45.25471" lon="6.26181">
        <ele>1690</ele>
        <time>2014-08-09T14:36:58Z</time>
      </trkpt>
      <trkpt lat="45.25464" lon="6.26171">
        <ele>1690</ele>
        <time>2014-08-09T14:37:03Z</time>
      </trkpt>
      <trkpt lat="45.2547" lon="6.2616">
        <ele>1691</ele>
        <time>2014-08-09T14:37:18Z</time>
      </trkpt>
      <trkpt lat="45.25479" lon="6.26154">
        <ele>1690</ele>
        <time>2014-08-09T14:37:31Z</time>
      </trkpt>
      <trkpt lat="45.25468" lon="6.26148">
        <ele>1691</ele>
        <time>2014-08-09T14:37:41Z</time>
      </trkpt>
      <trkpt lat="45.25457" lon="6.26147">
        <ele>1691</ele>
        <time>2014-08-09T14:37:44Z</time>
      </trkpt>
      <trkpt lat="45.25448" lon="6.26152">
        <ele>1692</ele>
        <time>2014-08-09T14:38:14Z</time>
      </trkpt>
      <trkpt lat="45.25458" lon="6.26151">
        <ele>1691</ele>
        <time>2014-08-09T14:38:28Z</time>
      </trkpt>
    </trkseg>
  </trk>
</gpx>